<?xml version="1.0" encoding="UTF-8" standalone="no" ?>
<gpx xmlns="http://www.topografix.com/GPX/1/1" xmlns:xsi="http://www.w3.org/2001/XMLSchema-instance" xsi:schemaLocation="http://www.topografix.com/GPX/1/1 http://www.topografix.com/GPX/1/1/gpx.xsd" version="1.1" creator="VisuGPX - https://www.visugpx.com">
  <metadata>
    <name>SO-NO-Bouaye St Léger St Pazanne La Sicaudais Frossay Canal Martinière</name>
    <desc><![CDATA[SO-NO-Bouaye St Léger St Pazanne La Sicaudais Frossay Canal Martinière]]></desc>
  </metadata>
  <trk>
    <name><![CDATA[2020-12-20 11:36 +01:00]]></name>
    <trkseg>
      <trkpt lat="47.1677" lon="-1.62661">
        <ele>70</ele>
        <time>2020-12-20T10:36:27.000Z</time>
      </trkpt>
      <trkpt lat="47.16778" lon="-1.62654">
        <ele>67</ele>
        <time>2020-12-20T10:37:13.000Z</time>
      </trkpt>
      <trkpt lat="47.16778" lon="-1.6267">
        <ele>71</ele>
        <time>2020-12-20T10:39:05.000Z</time>
      </trkpt>
      <trkpt lat="47.1677" lon="-1.62679">
        <ele>70</ele>
        <time>2020-12-20T10:39:07.000Z</time>
      </trkpt>
      <trkpt lat="47.16759" lon="-1.62675">
        <ele>69</ele>
        <time>2020-12-20T10:39:09.000Z</time>
      </trkpt>
      <trkpt lat="47.16748" lon="-1.62673">
        <ele>69</ele>
        <time>2020-12-20T10:39:11.000Z</time>
      </trkpt>
      <trkpt lat="47.16739" lon="-1.62679">
        <ele>68</ele>
        <time>2020-12-20T10:39:13.000Z</time>
      </trkpt>
      <trkpt lat="47.16731" lon="-1.62686">
        <ele>68</ele>
        <time>2020-12-20T10:39:15.000Z</time>
      </trkpt>
      <trkpt lat="47.16722" lon="-1.62691">
        <ele>67</ele>
        <time>2020-12-20T10:39:17.000Z</time>
      </trkpt>
      <trkpt lat="47.1671" lon="-1.62692">
        <ele>69</ele>
        <time>2020-12-20T10:39:21.000Z</time>
      </trkpt>
      <trkpt lat="47.16703" lon="-1.6268">
        <ele>68</ele>
        <time>2020-12-20T10:39:23.000Z</time>
      </trkpt>
      <trkpt lat="47.16699" lon="-1.62663">
        <ele>67</ele>
        <time>2020-12-20T10:39:25.000Z</time>
      </trkpt>
      <trkpt lat="47.16696" lon="-1.62642">
        <ele>67</ele>
        <time>2020-12-20T10:39:27.000Z</time>
      </trkpt>
      <trkpt lat="47.16695" lon="-1.62623">
        <ele>66</ele>
        <time>2020-12-20T10:39:29.000Z</time>
      </trkpt>
      <trkpt lat="47.16695" lon="-1.62602">
        <ele>67</ele>
        <time>2020-12-20T10:39:31.000Z</time>
      </trkpt>
      <trkpt lat="47.16696" lon="-1.6258">
        <ele>67</ele>
        <time>2020-12-20T10:39:33.000Z</time>
      </trkpt>
      <trkpt lat="47.16698" lon="-1.62558">
        <ele>66</ele>
        <time>2020-12-20T10:39:35.000Z</time>
      </trkpt>
      <trkpt lat="47.167" lon="-1.62536">
        <ele>66</ele>
        <time>2020-12-20T10:39:37.000Z</time>
      </trkpt>
      <trkpt lat="47.16703" lon="-1.62515">
        <ele>66</ele>
        <time>2020-12-20T10:39:39.000Z</time>
      </trkpt>
      <trkpt lat="47.16706" lon="-1.62495">
        <ele>66</ele>
        <time>2020-12-20T10:39:41.000Z</time>
      </trkpt>
      <trkpt lat="47.1671" lon="-1.62476">
        <ele>66</ele>
        <time>2020-12-20T10:39:43.000Z</time>
      </trkpt>
      <trkpt lat="47.16714" lon="-1.62458">
        <ele>66</ele>
        <time>2020-12-20T10:39:45.000Z</time>
      </trkpt>
      <trkpt lat="47.16715" lon="-1.6244">
        <ele>66</ele>
        <time>2020-12-20T10:39:47.000Z</time>
      </trkpt>
      <trkpt lat="47.16718" lon="-1.62424">
        <ele>66</ele>
        <time>2020-12-20T10:39:49.000Z</time>
      </trkpt>
      <trkpt lat="47.16723" lon="-1.62409">
        <ele>65</ele>
        <time>2020-12-20T10:39:52.000Z</time>
      </trkpt>
      <trkpt lat="47.16717" lon="-1.624">
        <ele>66</ele>
        <time>2020-12-20T10:39:54.000Z</time>
      </trkpt>
      <trkpt lat="47.16709" lon="-1.6239">
        <ele>66</ele>
        <time>2020-12-20T10:39:56.000Z</time>
      </trkpt>
      <trkpt lat="47.16701" lon="-1.62378">
        <ele>67</ele>
        <time>2020-12-20T10:39:58.000Z</time>
      </trkpt>
      <trkpt lat="47.1669" lon="-1.62368">
        <ele>67</ele>
        <time>2020-12-20T10:40:00.000Z</time>
      </trkpt>
      <trkpt lat="47.16679" lon="-1.62362">
        <ele>67</ele>
        <time>2020-12-20T10:40:02.000Z</time>
      </trkpt>
      <trkpt lat="47.16667" lon="-1.62362">
        <ele>67</ele>
        <time>2020-12-20T10:40:04.000Z</time>
      </trkpt>
      <trkpt lat="47.16655" lon="-1.62365">
        <ele>67</ele>
        <time>2020-12-20T10:40:06.000Z</time>
      </trkpt>
      <trkpt lat="47.16643" lon="-1.62374">
        <ele>67</ele>
        <time>2020-12-20T10:40:08.000Z</time>
      </trkpt>
      <trkpt lat="47.16633" lon="-1.62385">
        <ele>67</ele>
        <time>2020-12-20T10:40:10.000Z</time>
      </trkpt>
      <trkpt lat="47.16623" lon="-1.62397">
        <ele>67</ele>
        <time>2020-12-20T10:40:12.000Z</time>
      </trkpt>
      <trkpt lat="47.16614" lon="-1.62412">
        <ele>67</ele>
        <time>2020-12-20T10:40:14.000Z</time>
      </trkpt>
      <trkpt lat="47.16607" lon="-1.62427">
        <ele>67</ele>
        <time>2020-12-20T10:40:16.000Z</time>
      </trkpt>
      <trkpt lat="47.16599" lon="-1.62442">
        <ele>68</ele>
        <time>2020-12-20T10:40:18.000Z</time>
      </trkpt>
      <trkpt lat="47.16592" lon="-1.62457">
        <ele>68</ele>
        <time>2020-12-20T10:40:20.000Z</time>
      </trkpt>
      <trkpt lat="47.16586" lon="-1.62472">
        <ele>68</ele>
        <time>2020-12-20T10:40:22.000Z</time>
      </trkpt>
      <trkpt lat="47.1658" lon="-1.62488">
        <ele>68</ele>
        <time>2020-12-20T10:40:24.000Z</time>
      </trkpt>
      <trkpt lat="47.16573" lon="-1.62503">
        <ele>68</ele>
        <time>2020-12-20T10:40:26.000Z</time>
      </trkpt>
      <trkpt lat="47.16567" lon="-1.62519">
        <ele>69</ele>
        <time>2020-12-20T10:40:28.000Z</time>
      </trkpt>
      <trkpt lat="47.1656" lon="-1.62533">
        <ele>70</ele>
        <time>2020-12-20T10:40:30.000Z</time>
      </trkpt>
      <trkpt lat="47.16552" lon="-1.62545">
        <ele>70</ele>
        <time>2020-12-20T10:40:32.000Z</time>
      </trkpt>
      <trkpt lat="47.16542" lon="-1.62556">
        <ele>71</ele>
        <time>2020-12-20T10:40:34.000Z</time>
      </trkpt>
      <trkpt lat="47.16532" lon="-1.62563">
        <ele>71</ele>
        <time>2020-12-20T10:40:36.000Z</time>
      </trkpt>
      <trkpt lat="47.16521" lon="-1.62565">
        <ele>71</ele>
        <time>2020-12-20T10:40:38.000Z</time>
      </trkpt>
      <trkpt lat="47.1651" lon="-1.62562">
        <ele>71</ele>
        <time>2020-12-20T10:40:40.000Z</time>
      </trkpt>
      <trkpt lat="47.16499" lon="-1.62559">
        <ele>71</ele>
        <time>2020-12-20T10:40:42.000Z</time>
      </trkpt>
      <trkpt lat="47.16489" lon="-1.62555">
        <ele>71</ele>
        <time>2020-12-20T10:40:44.000Z</time>
      </trkpt>
      <trkpt lat="47.16478" lon="-1.62551">
        <ele>71</ele>
        <time>2020-12-20T10:40:46.000Z</time>
      </trkpt>
      <trkpt lat="47.16467" lon="-1.62548">
        <ele>71</ele>
        <time>2020-12-20T10:40:48.000Z</time>
      </trkpt>
      <trkpt lat="47.16457" lon="-1.62544">
        <ele>72</ele>
        <time>2020-12-20T10:40:50.000Z</time>
      </trkpt>
      <trkpt lat="47.16445" lon="-1.62541">
        <ele>72</ele>
        <time>2020-12-20T10:40:52.000Z</time>
      </trkpt>
      <trkpt lat="47.16435" lon="-1.62541">
        <ele>71</ele>
        <time>2020-12-20T10:40:54.000Z</time>
      </trkpt>
      <trkpt lat="47.16425" lon="-1.62547">
        <ele>71</ele>
        <time>2020-12-20T10:40:56.000Z</time>
      </trkpt>
      <trkpt lat="47.16416" lon="-1.62556">
        <ele>71</ele>
        <time>2020-12-20T10:40:58.000Z</time>
      </trkpt>
      <trkpt lat="47.16406" lon="-1.62565">
        <ele>71</ele>
        <time>2020-12-20T10:41:00.000Z</time>
      </trkpt>
      <trkpt lat="47.16396" lon="-1.62574">
        <ele>71</ele>
        <time>2020-12-20T10:41:02.000Z</time>
      </trkpt>
      <trkpt lat="47.16385" lon="-1.6258">
        <ele>71</ele>
        <time>2020-12-20T10:41:04.000Z</time>
      </trkpt>
      <trkpt lat="47.16373" lon="-1.62583">
        <ele>70</ele>
        <time>2020-12-20T10:41:06.000Z</time>
      </trkpt>
      <trkpt lat="47.16361" lon="-1.62583">
        <ele>71</ele>
        <time>2020-12-20T10:41:08.000Z</time>
      </trkpt>
      <trkpt lat="47.16349" lon="-1.62581">
        <ele>71</ele>
        <time>2020-12-20T10:41:10.000Z</time>
      </trkpt>
      <trkpt lat="47.16336" lon="-1.62577">
        <ele>71</ele>
        <time>2020-12-20T10:41:12.000Z</time>
      </trkpt>
      <trkpt lat="47.16325" lon="-1.62572">
        <ele>71</ele>
        <time>2020-12-20T10:41:14.000Z</time>
      </trkpt>
      <trkpt lat="47.16313" lon="-1.6257">
        <ele>71</ele>
        <time>2020-12-20T10:41:16.000Z</time>
      </trkpt>
      <trkpt lat="47.16301" lon="-1.62574">
        <ele>71</ele>
        <time>2020-12-20T10:41:18.000Z</time>
      </trkpt>
      <trkpt lat="47.16292" lon="-1.62585">
        <ele>71</ele>
        <time>2020-12-20T10:41:20.000Z</time>
      </trkpt>
      <trkpt lat="47.16286" lon="-1.62601">
        <ele>71</ele>
        <time>2020-12-20T10:41:22.000Z</time>
      </trkpt>
      <trkpt lat="47.16282" lon="-1.62618">
        <ele>70</ele>
        <time>2020-12-20T10:41:24.000Z</time>
      </trkpt>
      <trkpt lat="47.1628" lon="-1.62634">
        <ele>70</ele>
        <time>2020-12-20T10:41:26.000Z</time>
      </trkpt>
      <trkpt lat="47.16277" lon="-1.62651">
        <ele>69</ele>
        <time>2020-12-20T10:41:28.000Z</time>
      </trkpt>
      <trkpt lat="47.16276" lon="-1.62668">
        <ele>69</ele>
        <time>2020-12-20T10:41:30.000Z</time>
      </trkpt>
      <trkpt lat="47.16276" lon="-1.62685">
        <ele>69</ele>
        <time>2020-12-20T10:41:32.000Z</time>
      </trkpt>
      <trkpt lat="47.16277" lon="-1.627">
        <ele>69</ele>
        <time>2020-12-20T10:41:34.000Z</time>
      </trkpt>
      <trkpt lat="47.1628" lon="-1.62714">
        <ele>69</ele>
        <time>2020-12-20T10:41:36.000Z</time>
      </trkpt>
      <trkpt lat="47.1628" lon="-1.6273">
        <ele>70</ele>
        <time>2020-12-20T10:41:39.000Z</time>
      </trkpt>
      <trkpt lat="47.16268" lon="-1.62734">
        <ele>69</ele>
        <time>2020-12-20T10:41:42.000Z</time>
      </trkpt>
      <trkpt lat="47.16257" lon="-1.6274">
        <ele>69</ele>
        <time>2020-12-20T10:41:44.000Z</time>
      </trkpt>
      <trkpt lat="47.16246" lon="-1.62747">
        <ele>68</ele>
        <time>2020-12-20T10:41:46.000Z</time>
      </trkpt>
      <trkpt lat="47.16233" lon="-1.62754">
        <ele>68</ele>
        <time>2020-12-20T10:41:48.000Z</time>
      </trkpt>
      <trkpt lat="47.1622" lon="-1.6276">
        <ele>67</ele>
        <time>2020-12-20T10:41:50.000Z</time>
      </trkpt>
      <trkpt lat="47.16206" lon="-1.62767">
        <ele>68</ele>
        <time>2020-12-20T10:41:52.000Z</time>
      </trkpt>
      <trkpt lat="47.16193" lon="-1.62778">
        <ele>68</ele>
        <time>2020-12-20T10:41:54.000Z</time>
      </trkpt>
      <trkpt lat="47.1618" lon="-1.62789">
        <ele>67</ele>
        <time>2020-12-20T10:41:56.000Z</time>
      </trkpt>
      <trkpt lat="47.16167" lon="-1.628">
        <ele>67</ele>
        <time>2020-12-20T10:41:58.000Z</time>
      </trkpt>
      <trkpt lat="47.16154" lon="-1.62811">
        <ele>66</ele>
        <time>2020-12-20T10:42:00.000Z</time>
      </trkpt>
      <trkpt lat="47.16141" lon="-1.62823">
        <ele>66</ele>
        <time>2020-12-20T10:42:02.000Z</time>
      </trkpt>
      <trkpt lat="47.16128" lon="-1.62834">
        <ele>65</ele>
        <time>2020-12-20T10:42:04.000Z</time>
      </trkpt>
      <trkpt lat="47.16115" lon="-1.62846">
        <ele>65</ele>
        <time>2020-12-20T10:42:06.000Z</time>
      </trkpt>
      <trkpt lat="47.16102" lon="-1.62857">
        <ele>64</ele>
        <time>2020-12-20T10:42:08.000Z</time>
      </trkpt>
      <trkpt lat="47.16089" lon="-1.62868">
        <ele>64</ele>
        <time>2020-12-20T10:42:10.000Z</time>
      </trkpt>
      <trkpt lat="47.16076" lon="-1.6288">
        <ele>64</ele>
        <time>2020-12-20T10:42:12.000Z</time>
      </trkpt>
      <trkpt lat="47.16064" lon="-1.62892">
        <ele>64</ele>
        <time>2020-12-20T10:42:14.000Z</time>
      </trkpt>
      <trkpt lat="47.16051" lon="-1.62903">
        <ele>64</ele>
        <time>2020-12-20T10:42:16.000Z</time>
      </trkpt>
      <trkpt lat="47.16038" lon="-1.62915">
        <ele>64</ele>
        <time>2020-12-20T10:42:18.000Z</time>
      </trkpt>
      <trkpt lat="47.16024" lon="-1.62927">
        <ele>63</ele>
        <time>2020-12-20T10:42:20.000Z</time>
      </trkpt>
      <trkpt lat="47.16011" lon="-1.62939">
        <ele>62</ele>
        <time>2020-12-20T10:42:22.000Z</time>
      </trkpt>
      <trkpt lat="47.15997" lon="-1.62951">
        <ele>62</ele>
        <time>2020-12-20T10:42:24.000Z</time>
      </trkpt>
      <trkpt lat="47.15984" lon="-1.62963">
        <ele>62</ele>
        <time>2020-12-20T10:42:26.000Z</time>
      </trkpt>
      <trkpt lat="47.1597" lon="-1.62976">
        <ele>61</ele>
        <time>2020-12-20T10:42:28.000Z</time>
      </trkpt>
      <trkpt lat="47.15956" lon="-1.62988">
        <ele>61</ele>
        <time>2020-12-20T10:42:30.000Z</time>
      </trkpt>
      <trkpt lat="47.15942" lon="-1.63001">
        <ele>60</ele>
        <time>2020-12-20T10:42:32.000Z</time>
      </trkpt>
      <trkpt lat="47.15928" lon="-1.63013">
        <ele>60</ele>
        <time>2020-12-20T10:42:34.000Z</time>
      </trkpt>
      <trkpt lat="47.15914" lon="-1.63026">
        <ele>59</ele>
        <time>2020-12-20T10:42:36.000Z</time>
      </trkpt>
      <trkpt lat="47.159" lon="-1.63038">
        <ele>59</ele>
        <time>2020-12-20T10:42:38.000Z</time>
      </trkpt>
      <trkpt lat="47.15887" lon="-1.6305">
        <ele>59</ele>
        <time>2020-12-20T10:42:40.000Z</time>
      </trkpt>
      <trkpt lat="47.15874" lon="-1.63061">
        <ele>59</ele>
        <time>2020-12-20T10:42:42.000Z</time>
      </trkpt>
      <trkpt lat="47.15862" lon="-1.63072">
        <ele>60</ele>
        <time>2020-12-20T10:42:44.000Z</time>
      </trkpt>
      <trkpt lat="47.1585" lon="-1.63081">
        <ele>60</ele>
        <time>2020-12-20T10:42:46.000Z</time>
      </trkpt>
      <trkpt lat="47.15839" lon="-1.63092">
        <ele>61</ele>
        <time>2020-12-20T10:42:48.000Z</time>
      </trkpt>
      <trkpt lat="47.15828" lon="-1.63101">
        <ele>61</ele>
        <time>2020-12-20T10:42:50.000Z</time>
      </trkpt>
      <trkpt lat="47.15818" lon="-1.6311">
        <ele>61</ele>
        <time>2020-12-20T10:42:52.000Z</time>
      </trkpt>
      <trkpt lat="47.15807" lon="-1.63119">
        <ele>62</ele>
        <time>2020-12-20T10:42:54.000Z</time>
      </trkpt>
      <trkpt lat="47.15796" lon="-1.63128">
        <ele>62</ele>
        <time>2020-12-20T10:42:56.000Z</time>
      </trkpt>
      <trkpt lat="47.15786" lon="-1.63137">
        <ele>62</ele>
        <time>2020-12-20T10:42:58.000Z</time>
      </trkpt>
      <trkpt lat="47.15776" lon="-1.63146">
        <ele>62</ele>
        <time>2020-12-20T10:43:00.000Z</time>
      </trkpt>
      <trkpt lat="47.15766" lon="-1.63155">
        <ele>62</ele>
        <time>2020-12-20T10:43:02.000Z</time>
      </trkpt>
      <trkpt lat="47.15756" lon="-1.63163">
        <ele>62</ele>
        <time>2020-12-20T10:43:04.000Z</time>
      </trkpt>
      <trkpt lat="47.15747" lon="-1.6317">
        <ele>63</ele>
        <time>2020-12-20T10:43:06.000Z</time>
      </trkpt>
      <trkpt lat="47.15739" lon="-1.63181">
        <ele>63</ele>
        <time>2020-12-20T10:43:08.000Z</time>
      </trkpt>
      <trkpt lat="47.15728" lon="-1.63191">
        <ele>62</ele>
        <time>2020-12-20T10:43:10.000Z</time>
      </trkpt>
      <trkpt lat="47.15716" lon="-1.63201">
        <ele>62</ele>
        <time>2020-12-20T10:43:12.000Z</time>
      </trkpt>
      <trkpt lat="47.15705" lon="-1.63211">
        <ele>62</ele>
        <time>2020-12-20T10:43:14.000Z</time>
      </trkpt>
      <trkpt lat="47.15693" lon="-1.6322">
        <ele>62</ele>
        <time>2020-12-20T10:43:16.000Z</time>
      </trkpt>
      <trkpt lat="47.15682" lon="-1.63231">
        <ele>61</ele>
        <time>2020-12-20T10:43:18.000Z</time>
      </trkpt>
      <trkpt lat="47.1567" lon="-1.63241">
        <ele>62</ele>
        <time>2020-12-20T10:43:20.000Z</time>
      </trkpt>
      <trkpt lat="47.15659" lon="-1.63251">
        <ele>62</ele>
        <time>2020-12-20T10:43:22.000Z</time>
      </trkpt>
      <trkpt lat="47.15647" lon="-1.63262">
        <ele>62</ele>
        <time>2020-12-20T10:43:24.000Z</time>
      </trkpt>
      <trkpt lat="47.15636" lon="-1.63273">
        <ele>62</ele>
        <time>2020-12-20T10:43:26.000Z</time>
      </trkpt>
      <trkpt lat="47.15624" lon="-1.63284">
        <ele>62</ele>
        <time>2020-12-20T10:43:28.000Z</time>
      </trkpt>
      <trkpt lat="47.15613" lon="-1.63294">
        <ele>62</ele>
        <time>2020-12-20T10:43:30.000Z</time>
      </trkpt>
      <trkpt lat="47.15601" lon="-1.63304">
        <ele>62</ele>
        <time>2020-12-20T10:43:32.000Z</time>
      </trkpt>
      <trkpt lat="47.1559" lon="-1.63313">
        <ele>62</ele>
        <time>2020-12-20T10:43:34.000Z</time>
      </trkpt>
      <trkpt lat="47.15579" lon="-1.63323">
        <ele>62</ele>
        <time>2020-12-20T10:43:36.000Z</time>
      </trkpt>
      <trkpt lat="47.15569" lon="-1.63332">
        <ele>62</ele>
        <time>2020-12-20T10:43:38.000Z</time>
      </trkpt>
      <trkpt lat="47.15558" lon="-1.63341">
        <ele>63</ele>
        <time>2020-12-20T10:43:40.000Z</time>
      </trkpt>
      <trkpt lat="47.15547" lon="-1.63351">
        <ele>63</ele>
        <time>2020-12-20T10:43:42.000Z</time>
      </trkpt>
      <trkpt lat="47.15536" lon="-1.6336">
        <ele>64</ele>
        <time>2020-12-20T10:43:44.000Z</time>
      </trkpt>
      <trkpt lat="47.15526" lon="-1.63369">
        <ele>65</ele>
        <time>2020-12-20T10:43:46.000Z</time>
      </trkpt>
      <trkpt lat="47.15516" lon="-1.63379">
        <ele>65</ele>
        <time>2020-12-20T10:43:48.000Z</time>
      </trkpt>
      <trkpt lat="47.15506" lon="-1.63388">
        <ele>66</ele>
        <time>2020-12-20T10:43:50.000Z</time>
      </trkpt>
      <trkpt lat="47.15497" lon="-1.63396">
        <ele>66</ele>
        <time>2020-12-20T10:43:52.000Z</time>
      </trkpt>
      <trkpt lat="47.15486" lon="-1.63406">
        <ele>66</ele>
        <time>2020-12-20T10:43:54.000Z</time>
      </trkpt>
      <trkpt lat="47.15476" lon="-1.63415">
        <ele>66</ele>
        <time>2020-12-20T10:43:56.000Z</time>
      </trkpt>
      <trkpt lat="47.15465" lon="-1.63424">
        <ele>66</ele>
        <time>2020-12-20T10:43:58.000Z</time>
      </trkpt>
      <trkpt lat="47.15455" lon="-1.63434">
        <ele>67</ele>
        <time>2020-12-20T10:44:00.000Z</time>
      </trkpt>
      <trkpt lat="47.15445" lon="-1.63443">
        <ele>67</ele>
        <time>2020-12-20T10:44:02.000Z</time>
      </trkpt>
      <trkpt lat="47.15435" lon="-1.63452">
        <ele>68</ele>
        <time>2020-12-20T10:44:04.000Z</time>
      </trkpt>
      <trkpt lat="47.15426" lon="-1.63462">
        <ele>68</ele>
        <time>2020-12-20T10:44:06.000Z</time>
      </trkpt>
      <trkpt lat="47.15416" lon="-1.63471">
        <ele>68</ele>
        <time>2020-12-20T10:44:08.000Z</time>
      </trkpt>
      <trkpt lat="47.15408" lon="-1.6348">
        <ele>67</ele>
        <time>2020-12-20T10:44:10.000Z</time>
      </trkpt>
      <trkpt lat="47.154" lon="-1.6349">
        <ele>67</ele>
        <time>2020-12-20T10:44:12.000Z</time>
      </trkpt>
      <trkpt lat="47.15392" lon="-1.635">
        <ele>68</ele>
        <time>2020-12-20T10:44:14.000Z</time>
      </trkpt>
      <trkpt lat="47.15384" lon="-1.63508">
        <ele>68</ele>
        <time>2020-12-20T10:44:16.000Z</time>
      </trkpt>
      <trkpt lat="47.15374" lon="-1.63511">
        <ele>68</ele>
        <time>2020-12-20T10:44:18.000Z</time>
      </trkpt>
      <trkpt lat="47.15364" lon="-1.63516">
        <ele>68</ele>
        <time>2020-12-20T10:44:20.000Z</time>
      </trkpt>
      <trkpt lat="47.15355" lon="-1.63526">
        <ele>68</ele>
        <time>2020-12-20T10:44:22.000Z</time>
      </trkpt>
      <trkpt lat="47.15346" lon="-1.63536">
        <ele>68</ele>
        <time>2020-12-20T10:44:24.000Z</time>
      </trkpt>
      <trkpt lat="47.15336" lon="-1.63544">
        <ele>68</ele>
        <time>2020-12-20T10:44:26.000Z</time>
      </trkpt>
      <trkpt lat="47.15326" lon="-1.63553">
        <ele>68</ele>
        <time>2020-12-20T10:44:28.000Z</time>
      </trkpt>
      <trkpt lat="47.15316" lon="-1.63559">
        <ele>68</ele>
        <time>2020-12-20T10:44:30.000Z</time>
      </trkpt>
      <trkpt lat="47.15306" lon="-1.63566">
        <ele>68</ele>
        <time>2020-12-20T10:44:32.000Z</time>
      </trkpt>
      <trkpt lat="47.15296" lon="-1.63575">
        <ele>68</ele>
        <time>2020-12-20T10:44:34.000Z</time>
      </trkpt>
      <trkpt lat="47.15285" lon="-1.63585">
        <ele>68</ele>
        <time>2020-12-20T10:44:36.000Z</time>
      </trkpt>
      <trkpt lat="47.15275" lon="-1.63594">
        <ele>68</ele>
        <time>2020-12-20T10:44:38.000Z</time>
      </trkpt>
      <trkpt lat="47.15264" lon="-1.63603">
        <ele>67</ele>
        <time>2020-12-20T10:44:40.000Z</time>
      </trkpt>
      <trkpt lat="47.15253" lon="-1.63613">
        <ele>67</ele>
        <time>2020-12-20T10:44:42.000Z</time>
      </trkpt>
      <trkpt lat="47.15243" lon="-1.63623">
        <ele>67</ele>
        <time>2020-12-20T10:44:44.000Z</time>
      </trkpt>
      <trkpt lat="47.15232" lon="-1.63631">
        <ele>67</ele>
        <time>2020-12-20T10:44:46.000Z</time>
      </trkpt>
      <trkpt lat="47.15222" lon="-1.6364">
        <ele>67</ele>
        <time>2020-12-20T10:44:48.000Z</time>
      </trkpt>
      <trkpt lat="47.15211" lon="-1.6365">
        <ele>67</ele>
        <time>2020-12-20T10:44:50.000Z</time>
      </trkpt>
      <trkpt lat="47.15199" lon="-1.63659">
        <ele>67</ele>
        <time>2020-12-20T10:44:52.000Z</time>
      </trkpt>
      <trkpt lat="47.15188" lon="-1.63669">
        <ele>67</ele>
        <time>2020-12-20T10:44:54.000Z</time>
      </trkpt>
      <trkpt lat="47.15177" lon="-1.63679">
        <ele>67</ele>
        <time>2020-12-20T10:44:56.000Z</time>
      </trkpt>
      <trkpt lat="47.15166" lon="-1.63689">
        <ele>67</ele>
        <time>2020-12-20T10:44:58.000Z</time>
      </trkpt>
      <trkpt lat="47.15155" lon="-1.637">
        <ele>68</ele>
        <time>2020-12-20T10:45:00.000Z</time>
      </trkpt>
      <trkpt lat="47.15144" lon="-1.63711">
        <ele>69</ele>
        <time>2020-12-20T10:45:02.000Z</time>
      </trkpt>
      <trkpt lat="47.15132" lon="-1.63721">
        <ele>69</ele>
        <time>2020-12-20T10:45:04.000Z</time>
      </trkpt>
      <trkpt lat="47.15121" lon="-1.63732">
        <ele>69</ele>
        <time>2020-12-20T10:45:06.000Z</time>
      </trkpt>
      <trkpt lat="47.15111" lon="-1.63743">
        <ele>69</ele>
        <time>2020-12-20T10:45:08.000Z</time>
      </trkpt>
      <trkpt lat="47.15101" lon="-1.63755">
        <ele>70</ele>
        <time>2020-12-20T10:45:10.000Z</time>
      </trkpt>
      <trkpt lat="47.1509" lon="-1.63767">
        <ele>70</ele>
        <time>2020-12-20T10:45:12.000Z</time>
      </trkpt>
      <trkpt lat="47.15079" lon="-1.63779">
        <ele>70</ele>
        <time>2020-12-20T10:45:14.000Z</time>
      </trkpt>
      <trkpt lat="47.15069" lon="-1.63792">
        <ele>70</ele>
        <time>2020-12-20T10:45:16.000Z</time>
      </trkpt>
      <trkpt lat="47.15059" lon="-1.63805">
        <ele>69</ele>
        <time>2020-12-20T10:45:18.000Z</time>
      </trkpt>
      <trkpt lat="47.15049" lon="-1.63818">
        <ele>69</ele>
        <time>2020-12-20T10:45:20.000Z</time>
      </trkpt>
      <trkpt lat="47.1504" lon="-1.63831">
        <ele>70</ele>
        <time>2020-12-20T10:45:22.000Z</time>
      </trkpt>
      <trkpt lat="47.1503" lon="-1.63844">
        <ele>70</ele>
        <time>2020-12-20T10:45:24.000Z</time>
      </trkpt>
      <trkpt lat="47.1502" lon="-1.63857">
        <ele>70</ele>
        <time>2020-12-20T10:45:26.000Z</time>
      </trkpt>
      <trkpt lat="47.15011" lon="-1.63871">
        <ele>70</ele>
        <time>2020-12-20T10:45:28.000Z</time>
      </trkpt>
      <trkpt lat="47.15001" lon="-1.63884">
        <ele>69</ele>
        <time>2020-12-20T10:45:30.000Z</time>
      </trkpt>
      <trkpt lat="47.14992" lon="-1.63897">
        <ele>69</ele>
        <time>2020-12-20T10:45:32.000Z</time>
      </trkpt>
      <trkpt lat="47.14983" lon="-1.63911">
        <ele>69</ele>
        <time>2020-12-20T10:45:34.000Z</time>
      </trkpt>
      <trkpt lat="47.14973" lon="-1.63925">
        <ele>70</ele>
        <time>2020-12-20T10:45:36.000Z</time>
      </trkpt>
      <trkpt lat="47.14965" lon="-1.6394">
        <ele>70</ele>
        <time>2020-12-20T10:45:38.000Z</time>
      </trkpt>
      <trkpt lat="47.14957" lon="-1.63954">
        <ele>70</ele>
        <time>2020-12-20T10:45:40.000Z</time>
      </trkpt>
      <trkpt lat="47.14948" lon="-1.63969">
        <ele>70</ele>
        <time>2020-12-20T10:45:42.000Z</time>
      </trkpt>
      <trkpt lat="47.14941" lon="-1.63984">
        <ele>70</ele>
        <time>2020-12-20T10:45:44.000Z</time>
      </trkpt>
      <trkpt lat="47.14932" lon="-1.63999">
        <ele>69</ele>
        <time>2020-12-20T10:45:46.000Z</time>
      </trkpt>
      <trkpt lat="47.14924" lon="-1.64014">
        <ele>69</ele>
        <time>2020-12-20T10:45:48.000Z</time>
      </trkpt>
      <trkpt lat="47.14917" lon="-1.64029">
        <ele>69</ele>
        <time>2020-12-20T10:45:50.000Z</time>
      </trkpt>
      <trkpt lat="47.14909" lon="-1.64045">
        <ele>69</ele>
        <time>2020-12-20T10:45:52.000Z</time>
      </trkpt>
      <trkpt lat="47.14902" lon="-1.6406">
        <ele>69</ele>
        <time>2020-12-20T10:45:54.000Z</time>
      </trkpt>
      <trkpt lat="47.14894" lon="-1.64076">
        <ele>69</ele>
        <time>2020-12-20T10:45:56.000Z</time>
      </trkpt>
      <trkpt lat="47.14888" lon="-1.64091">
        <ele>69</ele>
        <time>2020-12-20T10:45:58.000Z</time>
      </trkpt>
      <trkpt lat="47.14881" lon="-1.64108">
        <ele>69</ele>
        <time>2020-12-20T10:46:00.000Z</time>
      </trkpt>
      <trkpt lat="47.14874" lon="-1.64124">
        <ele>69</ele>
        <time>2020-12-20T10:46:02.000Z</time>
      </trkpt>
      <trkpt lat="47.14867" lon="-1.64141">
        <ele>69</ele>
        <time>2020-12-20T10:46:04.000Z</time>
      </trkpt>
      <trkpt lat="47.14861" lon="-1.64158">
        <ele>69</ele>
        <time>2020-12-20T10:46:06.000Z</time>
      </trkpt>
      <trkpt lat="47.14855" lon="-1.64175">
        <ele>69</ele>
        <time>2020-12-20T10:46:08.000Z</time>
      </trkpt>
      <trkpt lat="47.14849" lon="-1.64191">
        <ele>69</ele>
        <time>2020-12-20T10:46:10.000Z</time>
      </trkpt>
      <trkpt lat="47.14843" lon="-1.64208">
        <ele>69</ele>
        <time>2020-12-20T10:46:12.000Z</time>
      </trkpt>
      <trkpt lat="47.14837" lon="-1.64224">
        <ele>70</ele>
        <time>2020-12-20T10:46:14.000Z</time>
      </trkpt>
      <trkpt lat="47.14831" lon="-1.64241">
        <ele>70</ele>
        <time>2020-12-20T10:46:16.000Z</time>
      </trkpt>
      <trkpt lat="47.14826" lon="-1.6426">
        <ele>70</ele>
        <time>2020-12-20T10:46:18.000Z</time>
      </trkpt>
      <trkpt lat="47.14821" lon="-1.64278">
        <ele>70</ele>
        <time>2020-12-20T10:46:20.000Z</time>
      </trkpt>
      <trkpt lat="47.14816" lon="-1.64297">
        <ele>70</ele>
        <time>2020-12-20T10:46:22.000Z</time>
      </trkpt>
      <trkpt lat="47.14811" lon="-1.64315">
        <ele>70</ele>
        <time>2020-12-20T10:46:24.000Z</time>
      </trkpt>
      <trkpt lat="47.14807" lon="-1.64333">
        <ele>70</ele>
        <time>2020-12-20T10:46:26.000Z</time>
      </trkpt>
      <trkpt lat="47.14802" lon="-1.64351">
        <ele>70</ele>
        <time>2020-12-20T10:46:28.000Z</time>
      </trkpt>
      <trkpt lat="47.14797" lon="-1.64369">
        <ele>70</ele>
        <time>2020-12-20T10:46:30.000Z</time>
      </trkpt>
      <trkpt lat="47.14792" lon="-1.64388">
        <ele>70</ele>
        <time>2020-12-20T10:46:32.000Z</time>
      </trkpt>
      <trkpt lat="47.14788" lon="-1.64408">
        <ele>70</ele>
        <time>2020-12-20T10:46:34.000Z</time>
      </trkpt>
      <trkpt lat="47.14785" lon="-1.64427">
        <ele>70</ele>
        <time>2020-12-20T10:46:36.000Z</time>
      </trkpt>
      <trkpt lat="47.14781" lon="-1.64446">
        <ele>71</ele>
        <time>2020-12-20T10:46:38.000Z</time>
      </trkpt>
      <trkpt lat="47.14779" lon="-1.64464">
        <ele>71</ele>
        <time>2020-12-20T10:46:40.000Z</time>
      </trkpt>
      <trkpt lat="47.14775" lon="-1.64483">
        <ele>71</ele>
        <time>2020-12-20T10:46:42.000Z</time>
      </trkpt>
      <trkpt lat="47.14772" lon="-1.64502">
        <ele>71</ele>
        <time>2020-12-20T10:46:44.000Z</time>
      </trkpt>
      <trkpt lat="47.1477" lon="-1.6452">
        <ele>71</ele>
        <time>2020-12-20T10:46:46.000Z</time>
      </trkpt>
      <trkpt lat="47.14767" lon="-1.64539">
        <ele>71</ele>
        <time>2020-12-20T10:46:48.000Z</time>
      </trkpt>
      <trkpt lat="47.14763" lon="-1.64558">
        <ele>71</ele>
        <time>2020-12-20T10:46:50.000Z</time>
      </trkpt>
      <trkpt lat="47.1476" lon="-1.64575">
        <ele>71</ele>
        <time>2020-12-20T10:46:52.000Z</time>
      </trkpt>
      <trkpt lat="47.14757" lon="-1.64594">
        <ele>70</ele>
        <time>2020-12-20T10:46:54.000Z</time>
      </trkpt>
      <trkpt lat="47.14754" lon="-1.64613">
        <ele>70</ele>
        <time>2020-12-20T10:46:56.000Z</time>
      </trkpt>
      <trkpt lat="47.14751" lon="-1.64632">
        <ele>70</ele>
        <time>2020-12-20T10:46:58.000Z</time>
      </trkpt>
      <trkpt lat="47.14749" lon="-1.64649">
        <ele>70</ele>
        <time>2020-12-20T10:47:00.000Z</time>
      </trkpt>
      <trkpt lat="47.14746" lon="-1.64668">
        <ele>70</ele>
        <time>2020-12-20T10:47:02.000Z</time>
      </trkpt>
      <trkpt lat="47.14743" lon="-1.64685">
        <ele>69</ele>
        <time>2020-12-20T10:47:04.000Z</time>
      </trkpt>
      <trkpt lat="47.14739" lon="-1.64703">
        <ele>69</ele>
        <time>2020-12-20T10:47:06.000Z</time>
      </trkpt>
      <trkpt lat="47.14736" lon="-1.64721">
        <ele>68</ele>
        <time>2020-12-20T10:47:08.000Z</time>
      </trkpt>
      <trkpt lat="47.14732" lon="-1.64739">
        <ele>68</ele>
        <time>2020-12-20T10:47:10.000Z</time>
      </trkpt>
      <trkpt lat="47.14728" lon="-1.64757">
        <ele>67</ele>
        <time>2020-12-20T10:47:12.000Z</time>
      </trkpt>
      <trkpt lat="47.14724" lon="-1.64774">
        <ele>67</ele>
        <time>2020-12-20T10:47:14.000Z</time>
      </trkpt>
      <trkpt lat="47.14719" lon="-1.64792">
        <ele>67</ele>
        <time>2020-12-20T10:47:16.000Z</time>
      </trkpt>
      <trkpt lat="47.14714" lon="-1.6481">
        <ele>66</ele>
        <time>2020-12-20T10:47:18.000Z</time>
      </trkpt>
      <trkpt lat="47.14709" lon="-1.64828">
        <ele>66</ele>
        <time>2020-12-20T10:47:20.000Z</time>
      </trkpt>
      <trkpt lat="47.14704" lon="-1.64846">
        <ele>65</ele>
        <time>2020-12-20T10:47:22.000Z</time>
      </trkpt>
      <trkpt lat="47.147" lon="-1.64864">
        <ele>65</ele>
        <time>2020-12-20T10:47:24.000Z</time>
      </trkpt>
      <trkpt lat="47.14697" lon="-1.64882">
        <ele>65</ele>
        <time>2020-12-20T10:47:26.000Z</time>
      </trkpt>
      <trkpt lat="47.14699" lon="-1.64899">
        <ele>65</ele>
        <time>2020-12-20T10:47:28.000Z</time>
      </trkpt>
      <trkpt lat="47.14698" lon="-1.64919">
        <ele>65</ele>
        <time>2020-12-20T10:47:31.000Z</time>
      </trkpt>
      <trkpt lat="47.14694" lon="-1.64931">
        <ele>65</ele>
        <time>2020-12-20T10:47:33.000Z</time>
      </trkpt>
      <trkpt lat="47.14682" lon="-1.64938">
        <ele>65</ele>
        <time>2020-12-20T10:47:36.000Z</time>
      </trkpt>
      <trkpt lat="47.14673" lon="-1.64948">
        <ele>64</ele>
        <time>2020-12-20T10:47:38.000Z</time>
      </trkpt>
      <trkpt lat="47.14668" lon="-1.64965">
        <ele>64</ele>
        <time>2020-12-20T10:47:40.000Z</time>
      </trkpt>
      <trkpt lat="47.14661" lon="-1.64982">
        <ele>64</ele>
        <time>2020-12-20T10:47:42.000Z</time>
      </trkpt>
      <trkpt lat="47.14654" lon="-1.65">
        <ele>63</ele>
        <time>2020-12-20T10:47:44.000Z</time>
      </trkpt>
      <trkpt lat="47.14647" lon="-1.65018">
        <ele>63</ele>
        <time>2020-12-20T10:47:46.000Z</time>
      </trkpt>
      <trkpt lat="47.14641" lon="-1.65036">
        <ele>63</ele>
        <time>2020-12-20T10:47:48.000Z</time>
      </trkpt>
      <trkpt lat="47.14634" lon="-1.65054">
        <ele>63</ele>
        <time>2020-12-20T10:47:50.000Z</time>
      </trkpt>
      <trkpt lat="47.14627" lon="-1.65072">
        <ele>64</ele>
        <time>2020-12-20T10:47:52.000Z</time>
      </trkpt>
      <trkpt lat="47.14621" lon="-1.65089">
        <ele>63</ele>
        <time>2020-12-20T10:47:54.000Z</time>
      </trkpt>
      <trkpt lat="47.14614" lon="-1.65107">
        <ele>64</ele>
        <time>2020-12-20T10:47:56.000Z</time>
      </trkpt>
      <trkpt lat="47.14608" lon="-1.65126">
        <ele>63</ele>
        <time>2020-12-20T10:47:58.000Z</time>
      </trkpt>
      <trkpt lat="47.14601" lon="-1.65144">
        <ele>63</ele>
        <time>2020-12-20T10:48:00.000Z</time>
      </trkpt>
      <trkpt lat="47.14595" lon="-1.65162">
        <ele>64</ele>
        <time>2020-12-20T10:48:02.000Z</time>
      </trkpt>
      <trkpt lat="47.14588" lon="-1.65181">
        <ele>64</ele>
        <time>2020-12-20T10:48:04.000Z</time>
      </trkpt>
      <trkpt lat="47.14583" lon="-1.65199">
        <ele>64</ele>
        <time>2020-12-20T10:48:06.000Z</time>
      </trkpt>
      <trkpt lat="47.14578" lon="-1.65218">
        <ele>63</ele>
        <time>2020-12-20T10:48:08.000Z</time>
      </trkpt>
      <trkpt lat="47.14574" lon="-1.65237">
        <ele>63</ele>
        <time>2020-12-20T10:48:10.000Z</time>
      </trkpt>
      <trkpt lat="47.14569" lon="-1.65257">
        <ele>63</ele>
        <time>2020-12-20T10:48:12.000Z</time>
      </trkpt>
      <trkpt lat="47.14565" lon="-1.65276">
        <ele>64</ele>
        <time>2020-12-20T10:48:14.000Z</time>
      </trkpt>
      <trkpt lat="47.14561" lon="-1.65295">
        <ele>63</ele>
        <time>2020-12-20T10:48:16.000Z</time>
      </trkpt>
      <trkpt lat="47.14557" lon="-1.65314">
        <ele>63</ele>
        <time>2020-12-20T10:48:18.000Z</time>
      </trkpt>
      <trkpt lat="47.14552" lon="-1.65333">
        <ele>62</ele>
        <time>2020-12-20T10:48:20.000Z</time>
      </trkpt>
      <trkpt lat="47.14548" lon="-1.65351">
        <ele>62</ele>
        <time>2020-12-20T10:48:22.000Z</time>
      </trkpt>
      <trkpt lat="47.14544" lon="-1.65369">
        <ele>62</ele>
        <time>2020-12-20T10:48:24.000Z</time>
      </trkpt>
      <trkpt lat="47.14539" lon="-1.65387">
        <ele>62</ele>
        <time>2020-12-20T10:48:26.000Z</time>
      </trkpt>
      <trkpt lat="47.14534" lon="-1.65406">
        <ele>62</ele>
        <time>2020-12-20T10:48:28.000Z</time>
      </trkpt>
      <trkpt lat="47.14529" lon="-1.65424">
        <ele>61</ele>
        <time>2020-12-20T10:48:30.000Z</time>
      </trkpt>
      <trkpt lat="47.14522" lon="-1.65443">
        <ele>61</ele>
        <time>2020-12-20T10:48:32.000Z</time>
      </trkpt>
      <trkpt lat="47.14517" lon="-1.65461">
        <ele>61</ele>
        <time>2020-12-20T10:48:34.000Z</time>
      </trkpt>
      <trkpt lat="47.1451" lon="-1.65479">
        <ele>61</ele>
        <time>2020-12-20T10:48:36.000Z</time>
      </trkpt>
      <trkpt lat="47.14503" lon="-1.65496">
        <ele>61</ele>
        <time>2020-12-20T10:48:38.000Z</time>
      </trkpt>
      <trkpt lat="47.14496" lon="-1.65513">
        <ele>61</ele>
        <time>2020-12-20T10:48:40.000Z</time>
      </trkpt>
      <trkpt lat="47.1449" lon="-1.65532">
        <ele>60</ele>
        <time>2020-12-20T10:48:42.000Z</time>
      </trkpt>
      <trkpt lat="47.14483" lon="-1.65549">
        <ele>60</ele>
        <time>2020-12-20T10:48:44.000Z</time>
      </trkpt>
      <trkpt lat="47.14475" lon="-1.65567">
        <ele>60</ele>
        <time>2020-12-20T10:48:46.000Z</time>
      </trkpt>
      <trkpt lat="47.14467" lon="-1.65585">
        <ele>60</ele>
        <time>2020-12-20T10:48:48.000Z</time>
      </trkpt>
      <trkpt lat="47.1446" lon="-1.65603">
        <ele>59</ele>
        <time>2020-12-20T10:48:50.000Z</time>
      </trkpt>
      <trkpt lat="47.14453" lon="-1.65622">
        <ele>59</ele>
        <time>2020-12-20T10:48:52.000Z</time>
      </trkpt>
      <trkpt lat="47.14447" lon="-1.65639">
        <ele>59</ele>
        <time>2020-12-20T10:48:54.000Z</time>
      </trkpt>
      <trkpt lat="47.14442" lon="-1.65657">
        <ele>60</ele>
        <time>2020-12-20T10:48:56.000Z</time>
      </trkpt>
      <trkpt lat="47.14436" lon="-1.65675">
        <ele>60</ele>
        <time>2020-12-20T10:48:58.000Z</time>
      </trkpt>
      <trkpt lat="47.14431" lon="-1.65693">
        <ele>60</ele>
        <time>2020-12-20T10:49:00.000Z</time>
      </trkpt>
      <trkpt lat="47.14426" lon="-1.65712">
        <ele>61</ele>
        <time>2020-12-20T10:49:02.000Z</time>
      </trkpt>
      <trkpt lat="47.14422" lon="-1.65732">
        <ele>61</ele>
        <time>2020-12-20T10:49:04.000Z</time>
      </trkpt>
      <trkpt lat="47.14418" lon="-1.65751">
        <ele>61</ele>
        <time>2020-12-20T10:49:06.000Z</time>
      </trkpt>
      <trkpt lat="47.14415" lon="-1.65771">
        <ele>60</ele>
        <time>2020-12-20T10:49:08.000Z</time>
      </trkpt>
      <trkpt lat="47.14413" lon="-1.65791">
        <ele>61</ele>
        <time>2020-12-20T10:49:10.000Z</time>
      </trkpt>
      <trkpt lat="47.1441" lon="-1.6581">
        <ele>60</ele>
        <time>2020-12-20T10:49:12.000Z</time>
      </trkpt>
      <trkpt lat="47.14408" lon="-1.6583">
        <ele>60</ele>
        <time>2020-12-20T10:49:14.000Z</time>
      </trkpt>
      <trkpt lat="47.14406" lon="-1.65849">
        <ele>60</ele>
        <time>2020-12-20T10:49:16.000Z</time>
      </trkpt>
      <trkpt lat="47.14405" lon="-1.65869">
        <ele>61</ele>
        <time>2020-12-20T10:49:18.000Z</time>
      </trkpt>
      <trkpt lat="47.14403" lon="-1.65887">
        <ele>61</ele>
        <time>2020-12-20T10:49:20.000Z</time>
      </trkpt>
      <trkpt lat="47.14402" lon="-1.65907">
        <ele>61</ele>
        <time>2020-12-20T10:49:22.000Z</time>
      </trkpt>
      <trkpt lat="47.14401" lon="-1.65927">
        <ele>62</ele>
        <time>2020-12-20T10:49:24.000Z</time>
      </trkpt>
      <trkpt lat="47.144" lon="-1.65945">
        <ele>62</ele>
        <time>2020-12-20T10:49:26.000Z</time>
      </trkpt>
      <trkpt lat="47.14399" lon="-1.65964">
        <ele>62</ele>
        <time>2020-12-20T10:49:28.000Z</time>
      </trkpt>
      <trkpt lat="47.14399" lon="-1.65983">
        <ele>62</ele>
        <time>2020-12-20T10:49:30.000Z</time>
      </trkpt>
      <trkpt lat="47.14398" lon="-1.66001">
        <ele>62</ele>
        <time>2020-12-20T10:49:32.000Z</time>
      </trkpt>
      <trkpt lat="47.14397" lon="-1.66021">
        <ele>61</ele>
        <time>2020-12-20T10:49:34.000Z</time>
      </trkpt>
      <trkpt lat="47.14398" lon="-1.6604">
        <ele>61</ele>
        <time>2020-12-20T10:49:36.000Z</time>
      </trkpt>
      <trkpt lat="47.14397" lon="-1.66059">
        <ele>62</ele>
        <time>2020-12-20T10:49:38.000Z</time>
      </trkpt>
      <trkpt lat="47.14396" lon="-1.66079">
        <ele>62</ele>
        <time>2020-12-20T10:49:40.000Z</time>
      </trkpt>
      <trkpt lat="47.14392" lon="-1.66097">
        <ele>62</ele>
        <time>2020-12-20T10:49:42.000Z</time>
      </trkpt>
      <trkpt lat="47.14388" lon="-1.66115">
        <ele>61</ele>
        <time>2020-12-20T10:49:44.000Z</time>
      </trkpt>
      <trkpt lat="47.14386" lon="-1.66133">
        <ele>61</ele>
        <time>2020-12-20T10:49:46.000Z</time>
      </trkpt>
      <trkpt lat="47.14385" lon="-1.6615">
        <ele>61</ele>
        <time>2020-12-20T10:49:48.000Z</time>
      </trkpt>
      <trkpt lat="47.14387" lon="-1.66167">
        <ele>61</ele>
        <time>2020-12-20T10:49:50.000Z</time>
      </trkpt>
      <trkpt lat="47.14386" lon="-1.66184">
        <ele>61</ele>
        <time>2020-12-20T10:49:52.000Z</time>
      </trkpt>
      <trkpt lat="47.14381" lon="-1.66198">
        <ele>60</ele>
        <time>2020-12-20T10:49:54.000Z</time>
      </trkpt>
      <trkpt lat="47.14373" lon="-1.66211">
        <ele>60</ele>
        <time>2020-12-20T10:49:56.000Z</time>
      </trkpt>
      <trkpt lat="47.14368" lon="-1.66229">
        <ele>60</ele>
        <time>2020-12-20T10:49:58.000Z</time>
      </trkpt>
      <trkpt lat="47.14364" lon="-1.66248">
        <ele>60</ele>
        <time>2020-12-20T10:50:00.000Z</time>
      </trkpt>
      <trkpt lat="47.1436" lon="-1.66268">
        <ele>59</ele>
        <time>2020-12-20T10:50:02.000Z</time>
      </trkpt>
      <trkpt lat="47.14355" lon="-1.66286">
        <ele>59</ele>
        <time>2020-12-20T10:50:04.000Z</time>
      </trkpt>
      <trkpt lat="47.14351" lon="-1.66303">
        <ele>59</ele>
        <time>2020-12-20T10:50:06.000Z</time>
      </trkpt>
      <trkpt lat="47.14346" lon="-1.66322">
        <ele>59</ele>
        <time>2020-12-20T10:50:08.000Z</time>
      </trkpt>
      <trkpt lat="47.14341" lon="-1.66341">
        <ele>59</ele>
        <time>2020-12-20T10:50:10.000Z</time>
      </trkpt>
      <trkpt lat="47.14336" lon="-1.66361">
        <ele>59</ele>
        <time>2020-12-20T10:50:12.000Z</time>
      </trkpt>
      <trkpt lat="47.14331" lon="-1.66381">
        <ele>60</ele>
        <time>2020-12-20T10:50:14.000Z</time>
      </trkpt>
      <trkpt lat="47.14326" lon="-1.664">
        <ele>61</ele>
        <time>2020-12-20T10:50:16.000Z</time>
      </trkpt>
      <trkpt lat="47.14321" lon="-1.66419">
        <ele>60</ele>
        <time>2020-12-20T10:50:18.000Z</time>
      </trkpt>
      <trkpt lat="47.14317" lon="-1.66439">
        <ele>60</ele>
        <time>2020-12-20T10:50:20.000Z</time>
      </trkpt>
      <trkpt lat="47.14311" lon="-1.66457">
        <ele>60</ele>
        <time>2020-12-20T10:50:22.000Z</time>
      </trkpt>
      <trkpt lat="47.14306" lon="-1.66476">
        <ele>60</ele>
        <time>2020-12-20T10:50:24.000Z</time>
      </trkpt>
      <trkpt lat="47.14302" lon="-1.66495">
        <ele>60</ele>
        <time>2020-12-20T10:50:26.000Z</time>
      </trkpt>
      <trkpt lat="47.14298" lon="-1.66513">
        <ele>60</ele>
        <time>2020-12-20T10:50:28.000Z</time>
      </trkpt>
      <trkpt lat="47.14294" lon="-1.66531">
        <ele>60</ele>
        <time>2020-12-20T10:50:30.000Z</time>
      </trkpt>
      <trkpt lat="47.14289" lon="-1.6655">
        <ele>60</ele>
        <time>2020-12-20T10:50:32.000Z</time>
      </trkpt>
      <trkpt lat="47.14284" lon="-1.66569">
        <ele>60</ele>
        <time>2020-12-20T10:50:34.000Z</time>
      </trkpt>
      <trkpt lat="47.14278" lon="-1.66588">
        <ele>59</ele>
        <time>2020-12-20T10:50:36.000Z</time>
      </trkpt>
      <trkpt lat="47.14273" lon="-1.66608">
        <ele>59</ele>
        <time>2020-12-20T10:50:38.000Z</time>
      </trkpt>
      <trkpt lat="47.14267" lon="-1.66628">
        <ele>58</ele>
        <time>2020-12-20T10:50:40.000Z</time>
      </trkpt>
      <trkpt lat="47.1426" lon="-1.66647">
        <ele>58</ele>
        <time>2020-12-20T10:50:42.000Z</time>
      </trkpt>
      <trkpt lat="47.14254" lon="-1.66667">
        <ele>58</ele>
        <time>2020-12-20T10:50:44.000Z</time>
      </trkpt>
      <trkpt lat="47.14248" lon="-1.66687">
        <ele>58</ele>
        <time>2020-12-20T10:50:46.000Z</time>
      </trkpt>
      <trkpt lat="47.14241" lon="-1.66707">
        <ele>57</ele>
        <time>2020-12-20T10:50:48.000Z</time>
      </trkpt>
      <trkpt lat="47.14235" lon="-1.66727">
        <ele>57</ele>
        <time>2020-12-20T10:50:50.000Z</time>
      </trkpt>
      <trkpt lat="47.14228" lon="-1.66747">
        <ele>57</ele>
        <time>2020-12-20T10:50:52.000Z</time>
      </trkpt>
      <trkpt lat="47.14222" lon="-1.66766">
        <ele>57</ele>
        <time>2020-12-20T10:50:54.000Z</time>
      </trkpt>
      <trkpt lat="47.14215" lon="-1.66786">
        <ele>57</ele>
        <time>2020-12-20T10:50:56.000Z</time>
      </trkpt>
      <trkpt lat="47.14208" lon="-1.66806">
        <ele>57</ele>
        <time>2020-12-20T10:50:58.000Z</time>
      </trkpt>
      <trkpt lat="47.14203" lon="-1.66825">
        <ele>57</ele>
        <time>2020-12-20T10:51:00.000Z</time>
      </trkpt>
      <trkpt lat="47.14197" lon="-1.66844">
        <ele>57</ele>
        <time>2020-12-20T10:51:02.000Z</time>
      </trkpt>
      <trkpt lat="47.14191" lon="-1.66862">
        <ele>57</ele>
        <time>2020-12-20T10:51:04.000Z</time>
      </trkpt>
      <trkpt lat="47.14188" lon="-1.66882">
        <ele>57</ele>
        <time>2020-12-20T10:51:06.000Z</time>
      </trkpt>
      <trkpt lat="47.14183" lon="-1.66901">
        <ele>57</ele>
        <time>2020-12-20T10:51:08.000Z</time>
      </trkpt>
      <trkpt lat="47.14179" lon="-1.66919">
        <ele>58</ele>
        <time>2020-12-20T10:51:10.000Z</time>
      </trkpt>
      <trkpt lat="47.14175" lon="-1.66937">
        <ele>58</ele>
        <time>2020-12-20T10:51:12.000Z</time>
      </trkpt>
      <trkpt lat="47.14174" lon="-1.66956">
        <ele>59</ele>
        <time>2020-12-20T10:51:14.000Z</time>
      </trkpt>
      <trkpt lat="47.14172" lon="-1.66975">
        <ele>58</ele>
        <time>2020-12-20T10:51:16.000Z</time>
      </trkpt>
      <trkpt lat="47.14171" lon="-1.66994">
        <ele>58</ele>
        <time>2020-12-20T10:51:18.000Z</time>
      </trkpt>
      <trkpt lat="47.14171" lon="-1.67015">
        <ele>58</ele>
        <time>2020-12-20T10:51:20.000Z</time>
      </trkpt>
      <trkpt lat="47.14173" lon="-1.67034">
        <ele>58</ele>
        <time>2020-12-20T10:51:22.000Z</time>
      </trkpt>
      <trkpt lat="47.14174" lon="-1.67054">
        <ele>58</ele>
        <time>2020-12-20T10:51:24.000Z</time>
      </trkpt>
      <trkpt lat="47.14176" lon="-1.67073">
        <ele>58</ele>
        <time>2020-12-20T10:51:26.000Z</time>
      </trkpt>
      <trkpt lat="47.14177" lon="-1.67091">
        <ele>58</ele>
        <time>2020-12-20T10:51:28.000Z</time>
      </trkpt>
      <trkpt lat="47.1418" lon="-1.67107">
        <ele>58</ele>
        <time>2020-12-20T10:51:30.000Z</time>
      </trkpt>
      <trkpt lat="47.14183" lon="-1.67121">
        <ele>58</ele>
        <time>2020-12-20T10:51:32.000Z</time>
      </trkpt>
      <trkpt lat="47.14187" lon="-1.6714">
        <ele>58</ele>
        <time>2020-12-20T10:51:35.000Z</time>
      </trkpt>
      <trkpt lat="47.14191" lon="-1.67156">
        <ele>58</ele>
        <time>2020-12-20T10:51:38.000Z</time>
      </trkpt>
      <trkpt lat="47.14193" lon="-1.6717">
        <ele>58</ele>
        <time>2020-12-20T10:51:41.000Z</time>
      </trkpt>
      <trkpt lat="47.14195" lon="-1.67184">
        <ele>57</ele>
        <time>2020-12-20T10:51:47.000Z</time>
      </trkpt>
      <trkpt lat="47.14197" lon="-1.67197">
        <ele>57</ele>
        <time>2020-12-20T10:51:58.000Z</time>
      </trkpt>
      <trkpt lat="47.14202" lon="-1.67215">
        <ele>58</ele>
        <time>2020-12-20T10:52:01.000Z</time>
      </trkpt>
      <trkpt lat="47.14207" lon="-1.67233">
        <ele>60</ele>
        <time>2020-12-20T10:52:03.000Z</time>
      </trkpt>
      <trkpt lat="47.14212" lon="-1.67254">
        <ele>61</ele>
        <time>2020-12-20T10:52:05.000Z</time>
      </trkpt>
      <trkpt lat="47.14218" lon="-1.67275">
        <ele>61</ele>
        <time>2020-12-20T10:52:07.000Z</time>
      </trkpt>
      <trkpt lat="47.14225" lon="-1.67295">
        <ele>60</ele>
        <time>2020-12-20T10:52:09.000Z</time>
      </trkpt>
      <trkpt lat="47.14231" lon="-1.67313">
        <ele>60</ele>
        <time>2020-12-20T10:52:11.000Z</time>
      </trkpt>
      <trkpt lat="47.14238" lon="-1.67331">
        <ele>59</ele>
        <time>2020-12-20T10:52:13.000Z</time>
      </trkpt>
      <trkpt lat="47.14245" lon="-1.67348">
        <ele>59</ele>
        <time>2020-12-20T10:52:15.000Z</time>
      </trkpt>
      <trkpt lat="47.14252" lon="-1.67364">
        <ele>59</ele>
        <time>2020-12-20T10:52:17.000Z</time>
      </trkpt>
      <trkpt lat="47.14259" lon="-1.6738">
        <ele>59</ele>
        <time>2020-12-20T10:52:19.000Z</time>
      </trkpt>
      <trkpt lat="47.14265" lon="-1.67396">
        <ele>59</ele>
        <time>2020-12-20T10:52:21.000Z</time>
      </trkpt>
      <trkpt lat="47.14272" lon="-1.67414">
        <ele>60</ele>
        <time>2020-12-20T10:52:23.000Z</time>
      </trkpt>
      <trkpt lat="47.14278" lon="-1.67431">
        <ele>60</ele>
        <time>2020-12-20T10:52:25.000Z</time>
      </trkpt>
      <trkpt lat="47.14284" lon="-1.67449">
        <ele>59</ele>
        <time>2020-12-20T10:52:27.000Z</time>
      </trkpt>
      <trkpt lat="47.1429" lon="-1.67468">
        <ele>59</ele>
        <time>2020-12-20T10:52:29.000Z</time>
      </trkpt>
      <trkpt lat="47.14295" lon="-1.67486">
        <ele>59</ele>
        <time>2020-12-20T10:52:31.000Z</time>
      </trkpt>
      <trkpt lat="47.14299" lon="-1.67504">
        <ele>59</ele>
        <time>2020-12-20T10:52:33.000Z</time>
      </trkpt>
      <trkpt lat="47.14304" lon="-1.67522">
        <ele>60</ele>
        <time>2020-12-20T10:52:35.000Z</time>
      </trkpt>
      <trkpt lat="47.14308" lon="-1.67541">
        <ele>59</ele>
        <time>2020-12-20T10:52:37.000Z</time>
      </trkpt>
      <trkpt lat="47.14311" lon="-1.67562">
        <ele>60</ele>
        <time>2020-12-20T10:52:39.000Z</time>
      </trkpt>
      <trkpt lat="47.14312" lon="-1.67583">
        <ele>60</ele>
        <time>2020-12-20T10:52:41.000Z</time>
      </trkpt>
      <trkpt lat="47.14312" lon="-1.67605">
        <ele>59</ele>
        <time>2020-12-20T10:52:43.000Z</time>
      </trkpt>
      <trkpt lat="47.14313" lon="-1.67626">
        <ele>59</ele>
        <time>2020-12-20T10:52:45.000Z</time>
      </trkpt>
      <trkpt lat="47.14315" lon="-1.67646">
        <ele>60</ele>
        <time>2020-12-20T10:52:47.000Z</time>
      </trkpt>
      <trkpt lat="47.14318" lon="-1.67665">
        <ele>60</ele>
        <time>2020-12-20T10:52:49.000Z</time>
      </trkpt>
      <trkpt lat="47.14321" lon="-1.67685">
        <ele>60</ele>
        <time>2020-12-20T10:52:51.000Z</time>
      </trkpt>
      <trkpt lat="47.14325" lon="-1.67705">
        <ele>59</ele>
        <time>2020-12-20T10:52:53.000Z</time>
      </trkpt>
      <trkpt lat="47.1433" lon="-1.67723">
        <ele>59</ele>
        <time>2020-12-20T10:52:55.000Z</time>
      </trkpt>
      <trkpt lat="47.14335" lon="-1.67741">
        <ele>59</ele>
        <time>2020-12-20T10:52:57.000Z</time>
      </trkpt>
      <trkpt lat="47.1434" lon="-1.6776">
        <ele>59</ele>
        <time>2020-12-20T10:52:59.000Z</time>
      </trkpt>
      <trkpt lat="47.14345" lon="-1.67778">
        <ele>59</ele>
        <time>2020-12-20T10:53:01.000Z</time>
      </trkpt>
      <trkpt lat="47.1435" lon="-1.67796">
        <ele>60</ele>
        <time>2020-12-20T10:53:03.000Z</time>
      </trkpt>
      <trkpt lat="47.14354" lon="-1.67815">
        <ele>60</ele>
        <time>2020-12-20T10:53:05.000Z</time>
      </trkpt>
      <trkpt lat="47.14358" lon="-1.67833">
        <ele>60</ele>
        <time>2020-12-20T10:53:07.000Z</time>
      </trkpt>
      <trkpt lat="47.14364" lon="-1.67849">
        <ele>59</ele>
        <time>2020-12-20T10:53:09.000Z</time>
      </trkpt>
      <trkpt lat="47.14372" lon="-1.67864">
        <ele>60</ele>
        <time>2020-12-20T10:53:11.000Z</time>
      </trkpt>
      <trkpt lat="47.14375" lon="-1.67884">
        <ele>61</ele>
        <time>2020-12-20T10:53:13.000Z</time>
      </trkpt>
      <trkpt lat="47.14371" lon="-1.67903">
        <ele>60</ele>
        <time>2020-12-20T10:53:15.000Z</time>
      </trkpt>
      <trkpt lat="47.14368" lon="-1.67923">
        <ele>60</ele>
        <time>2020-12-20T10:53:17.000Z</time>
      </trkpt>
      <trkpt lat="47.14368" lon="-1.67943">
        <ele>60</ele>
        <time>2020-12-20T10:53:19.000Z</time>
      </trkpt>
      <trkpt lat="47.14368" lon="-1.67963">
        <ele>60</ele>
        <time>2020-12-20T10:53:21.000Z</time>
      </trkpt>
      <trkpt lat="47.14371" lon="-1.67982">
        <ele>60</ele>
        <time>2020-12-20T10:53:23.000Z</time>
      </trkpt>
      <trkpt lat="47.14372" lon="-1.68">
        <ele>60</ele>
        <time>2020-12-20T10:53:25.000Z</time>
      </trkpt>
      <trkpt lat="47.14373" lon="-1.68019">
        <ele>60</ele>
        <time>2020-12-20T10:53:27.000Z</time>
      </trkpt>
      <trkpt lat="47.14374" lon="-1.68039">
        <ele>60</ele>
        <time>2020-12-20T10:53:29.000Z</time>
      </trkpt>
      <trkpt lat="47.14376" lon="-1.68058">
        <ele>60</ele>
        <time>2020-12-20T10:53:31.000Z</time>
      </trkpt>
      <trkpt lat="47.14378" lon="-1.68079">
        <ele>60</ele>
        <time>2020-12-20T10:53:33.000Z</time>
      </trkpt>
      <trkpt lat="47.14379" lon="-1.68098">
        <ele>60</ele>
        <time>2020-12-20T10:53:35.000Z</time>
      </trkpt>
      <trkpt lat="47.1438" lon="-1.68117">
        <ele>60</ele>
        <time>2020-12-20T10:53:37.000Z</time>
      </trkpt>
      <trkpt lat="47.14381" lon="-1.68136">
        <ele>61</ele>
        <time>2020-12-20T10:53:39.000Z</time>
      </trkpt>
      <trkpt lat="47.14383" lon="-1.68154">
        <ele>61</ele>
        <time>2020-12-20T10:53:41.000Z</time>
      </trkpt>
      <trkpt lat="47.14385" lon="-1.68172">
        <ele>62</ele>
        <time>2020-12-20T10:53:43.000Z</time>
      </trkpt>
      <trkpt lat="47.14387" lon="-1.68191">
        <ele>63</ele>
        <time>2020-12-20T10:53:45.000Z</time>
      </trkpt>
      <trkpt lat="47.14388" lon="-1.68208">
        <ele>63</ele>
        <time>2020-12-20T10:53:47.000Z</time>
      </trkpt>
      <trkpt lat="47.14392" lon="-1.68222">
        <ele>63</ele>
        <time>2020-12-20T10:53:49.000Z</time>
      </trkpt>
      <trkpt lat="47.14402" lon="-1.68232">
        <ele>63</ele>
        <time>2020-12-20T10:53:52.000Z</time>
      </trkpt>
      <trkpt lat="47.14401" lon="-1.68249">
        <ele>62</ele>
        <time>2020-12-20T10:53:55.000Z</time>
      </trkpt>
      <trkpt lat="47.14397" lon="-1.68264">
        <ele>61</ele>
        <time>2020-12-20T10:53:57.000Z</time>
      </trkpt>
      <trkpt lat="47.14398" lon="-1.68281">
        <ele>61</ele>
        <time>2020-12-20T10:53:59.000Z</time>
      </trkpt>
      <trkpt lat="47.14401" lon="-1.683">
        <ele>60</ele>
        <time>2020-12-20T10:54:01.000Z</time>
      </trkpt>
      <trkpt lat="47.14403" lon="-1.68321">
        <ele>60</ele>
        <time>2020-12-20T10:54:03.000Z</time>
      </trkpt>
      <trkpt lat="47.14405" lon="-1.68341">
        <ele>60</ele>
        <time>2020-12-20T10:54:05.000Z</time>
      </trkpt>
      <trkpt lat="47.14406" lon="-1.68361">
        <ele>60</ele>
        <time>2020-12-20T10:54:07.000Z</time>
      </trkpt>
      <trkpt lat="47.14406" lon="-1.68381">
        <ele>59</ele>
        <time>2020-12-20T10:54:09.000Z</time>
      </trkpt>
      <trkpt lat="47.14407" lon="-1.68401">
        <ele>59</ele>
        <time>2020-12-20T10:54:11.000Z</time>
      </trkpt>
      <trkpt lat="47.14406" lon="-1.6842">
        <ele>58</ele>
        <time>2020-12-20T10:54:13.000Z</time>
      </trkpt>
      <trkpt lat="47.14405" lon="-1.68438">
        <ele>58</ele>
        <time>2020-12-20T10:54:15.000Z</time>
      </trkpt>
      <trkpt lat="47.14405" lon="-1.68456">
        <ele>59</ele>
        <time>2020-12-20T10:54:17.000Z</time>
      </trkpt>
      <trkpt lat="47.14405" lon="-1.68473">
        <ele>59</ele>
        <time>2020-12-20T10:54:19.000Z</time>
      </trkpt>
      <trkpt lat="47.14404" lon="-1.68489">
        <ele>59</ele>
        <time>2020-12-20T10:54:21.000Z</time>
      </trkpt>
      <trkpt lat="47.14404" lon="-1.68503">
        <ele>59</ele>
        <time>2020-12-20T10:54:23.000Z</time>
      </trkpt>
      <trkpt lat="47.14403" lon="-1.68519">
        <ele>60</ele>
        <time>2020-12-20T10:54:26.000Z</time>
      </trkpt>
      <trkpt lat="47.14402" lon="-1.68536">
        <ele>60</ele>
        <time>2020-12-20T10:54:30.000Z</time>
      </trkpt>
      <trkpt lat="47.14401" lon="-1.68553">
        <ele>60</ele>
        <time>2020-12-20T10:54:34.000Z</time>
      </trkpt>
      <trkpt lat="47.14401" lon="-1.68567">
        <ele>61</ele>
        <time>2020-12-20T10:54:36.000Z</time>
      </trkpt>
      <trkpt lat="47.14402" lon="-1.68587">
        <ele>63</ele>
        <time>2020-12-20T10:54:38.000Z</time>
      </trkpt>
      <trkpt lat="47.14405" lon="-1.68607">
        <ele>64</ele>
        <time>2020-12-20T10:54:40.000Z</time>
      </trkpt>
      <trkpt lat="47.14408" lon="-1.68626">
        <ele>63</ele>
        <time>2020-12-20T10:54:42.000Z</time>
      </trkpt>
      <trkpt lat="47.14412" lon="-1.68645">
        <ele>63</ele>
        <time>2020-12-20T10:54:44.000Z</time>
      </trkpt>
      <trkpt lat="47.14415" lon="-1.68663">
        <ele>64</ele>
        <time>2020-12-20T10:54:46.000Z</time>
      </trkpt>
      <trkpt lat="47.14419" lon="-1.68675">
        <ele>65</ele>
        <time>2020-12-20T10:54:48.000Z</time>
      </trkpt>
      <trkpt lat="47.1442" lon="-1.68694">
        <ele>66</ele>
        <time>2020-12-20T10:54:50.000Z</time>
      </trkpt>
      <trkpt lat="47.14417" lon="-1.68713">
        <ele>66</ele>
        <time>2020-12-20T10:54:52.000Z</time>
      </trkpt>
      <trkpt lat="47.14415" lon="-1.68734">
        <ele>66</ele>
        <time>2020-12-20T10:54:54.000Z</time>
      </trkpt>
      <trkpt lat="47.14415" lon="-1.68756">
        <ele>65</ele>
        <time>2020-12-20T10:54:56.000Z</time>
      </trkpt>
      <trkpt lat="47.14414" lon="-1.68776">
        <ele>64</ele>
        <time>2020-12-20T10:54:58.000Z</time>
      </trkpt>
      <trkpt lat="47.14413" lon="-1.68798">
        <ele>64</ele>
        <time>2020-12-20T10:55:00.000Z</time>
      </trkpt>
      <trkpt lat="47.1441" lon="-1.68818">
        <ele>64</ele>
        <time>2020-12-20T10:55:02.000Z</time>
      </trkpt>
      <trkpt lat="47.14408" lon="-1.68839">
        <ele>64</ele>
        <time>2020-12-20T10:55:04.000Z</time>
      </trkpt>
      <trkpt lat="47.14406" lon="-1.6886">
        <ele>64</ele>
        <time>2020-12-20T10:55:06.000Z</time>
      </trkpt>
      <trkpt lat="47.14404" lon="-1.6888">
        <ele>64</ele>
        <time>2020-12-20T10:55:08.000Z</time>
      </trkpt>
      <trkpt lat="47.14402" lon="-1.689">
        <ele>64</ele>
        <time>2020-12-20T10:55:10.000Z</time>
      </trkpt>
      <trkpt lat="47.144" lon="-1.6892">
        <ele>64</ele>
        <time>2020-12-20T10:55:12.000Z</time>
      </trkpt>
      <trkpt lat="47.14399" lon="-1.68941">
        <ele>64</ele>
        <time>2020-12-20T10:55:14.000Z</time>
      </trkpt>
      <trkpt lat="47.14399" lon="-1.6896">
        <ele>64</ele>
        <time>2020-12-20T10:55:16.000Z</time>
      </trkpt>
      <trkpt lat="47.14399" lon="-1.68979">
        <ele>65</ele>
        <time>2020-12-20T10:55:18.000Z</time>
      </trkpt>
      <trkpt lat="47.144" lon="-1.68998">
        <ele>65</ele>
        <time>2020-12-20T10:55:20.000Z</time>
      </trkpt>
      <trkpt lat="47.144" lon="-1.69017">
        <ele>65</ele>
        <time>2020-12-20T10:55:22.000Z</time>
      </trkpt>
      <trkpt lat="47.14398" lon="-1.69035">
        <ele>65</ele>
        <time>2020-12-20T10:55:24.000Z</time>
      </trkpt>
      <trkpt lat="47.14398" lon="-1.69054">
        <ele>65</ele>
        <time>2020-12-20T10:55:26.000Z</time>
      </trkpt>
      <trkpt lat="47.14397" lon="-1.69072">
        <ele>64</ele>
        <time>2020-12-20T10:55:28.000Z</time>
      </trkpt>
      <trkpt lat="47.14397" lon="-1.6909">
        <ele>64</ele>
        <time>2020-12-20T10:55:30.000Z</time>
      </trkpt>
      <trkpt lat="47.14396" lon="-1.69109">
        <ele>63</ele>
        <time>2020-12-20T10:55:32.000Z</time>
      </trkpt>
      <trkpt lat="47.14396" lon="-1.69128">
        <ele>64</ele>
        <time>2020-12-20T10:55:34.000Z</time>
      </trkpt>
      <trkpt lat="47.14396" lon="-1.69145">
        <ele>64</ele>
        <time>2020-12-20T10:55:36.000Z</time>
      </trkpt>
      <trkpt lat="47.14396" lon="-1.69159">
        <ele>64</ele>
        <time>2020-12-20T10:55:38.000Z</time>
      </trkpt>
      <trkpt lat="47.14396" lon="-1.69174">
        <ele>64</ele>
        <time>2020-12-20T10:55:41.000Z</time>
      </trkpt>
      <trkpt lat="47.14395" lon="-1.69188">
        <ele>64</ele>
        <time>2020-12-20T10:55:44.000Z</time>
      </trkpt>
      <trkpt lat="47.14396" lon="-1.69205">
        <ele>64</ele>
        <time>2020-12-20T10:55:49.000Z</time>
      </trkpt>
      <trkpt lat="47.14395" lon="-1.69219">
        <ele>64</ele>
        <time>2020-12-20T10:55:52.000Z</time>
      </trkpt>
      <trkpt lat="47.14396" lon="-1.69236">
        <ele>65</ele>
        <time>2020-12-20T10:55:55.000Z</time>
      </trkpt>
      <trkpt lat="47.14396" lon="-1.69253">
        <ele>66</ele>
        <time>2020-12-20T10:55:57.000Z</time>
      </trkpt>
      <trkpt lat="47.14397" lon="-1.69274">
        <ele>65</ele>
        <time>2020-12-20T10:55:59.000Z</time>
      </trkpt>
      <trkpt lat="47.14396" lon="-1.69295">
        <ele>65</ele>
        <time>2020-12-20T10:56:01.000Z</time>
      </trkpt>
      <trkpt lat="47.14397" lon="-1.69318">
        <ele>65</ele>
        <time>2020-12-20T10:56:03.000Z</time>
      </trkpt>
      <trkpt lat="47.14395" lon="-1.69342">
        <ele>65</ele>
        <time>2020-12-20T10:56:05.000Z</time>
      </trkpt>
      <trkpt lat="47.14393" lon="-1.69365">
        <ele>64</ele>
        <time>2020-12-20T10:56:07.000Z</time>
      </trkpt>
      <trkpt lat="47.14389" lon="-1.69386">
        <ele>63</ele>
        <time>2020-12-20T10:56:09.000Z</time>
      </trkpt>
      <trkpt lat="47.14386" lon="-1.69408">
        <ele>63</ele>
        <time>2020-12-20T10:56:11.000Z</time>
      </trkpt>
      <trkpt lat="47.14383" lon="-1.6943">
        <ele>63</ele>
        <time>2020-12-20T10:56:13.000Z</time>
      </trkpt>
      <trkpt lat="47.14382" lon="-1.69453">
        <ele>63</ele>
        <time>2020-12-20T10:56:15.000Z</time>
      </trkpt>
      <trkpt lat="47.14382" lon="-1.69477">
        <ele>63</ele>
        <time>2020-12-20T10:56:17.000Z</time>
      </trkpt>
      <trkpt lat="47.14382" lon="-1.695">
        <ele>62</ele>
        <time>2020-12-20T10:56:19.000Z</time>
      </trkpt>
      <trkpt lat="47.14378" lon="-1.69523">
        <ele>62</ele>
        <time>2020-12-20T10:56:21.000Z</time>
      </trkpt>
      <trkpt lat="47.14375" lon="-1.69546">
        <ele>62</ele>
        <time>2020-12-20T10:56:23.000Z</time>
      </trkpt>
      <trkpt lat="47.14369" lon="-1.69568">
        <ele>61</ele>
        <time>2020-12-20T10:56:25.000Z</time>
      </trkpt>
      <trkpt lat="47.14362" lon="-1.69591">
        <ele>60</ele>
        <time>2020-12-20T10:56:27.000Z</time>
      </trkpt>
      <trkpt lat="47.14355" lon="-1.69613">
        <ele>59</ele>
        <time>2020-12-20T10:56:29.000Z</time>
      </trkpt>
      <trkpt lat="47.14348" lon="-1.69637">
        <ele>59</ele>
        <time>2020-12-20T10:56:31.000Z</time>
      </trkpt>
      <trkpt lat="47.14342" lon="-1.69661">
        <ele>58</ele>
        <time>2020-12-20T10:56:33.000Z</time>
      </trkpt>
      <trkpt lat="47.14337" lon="-1.69685">
        <ele>57</ele>
        <time>2020-12-20T10:56:35.000Z</time>
      </trkpt>
      <trkpt lat="47.14331" lon="-1.69709">
        <ele>57</ele>
        <time>2020-12-20T10:56:37.000Z</time>
      </trkpt>
      <trkpt lat="47.14325" lon="-1.69733">
        <ele>57</ele>
        <time>2020-12-20T10:56:39.000Z</time>
      </trkpt>
      <trkpt lat="47.14319" lon="-1.69756">
        <ele>56</ele>
        <time>2020-12-20T10:56:41.000Z</time>
      </trkpt>
      <trkpt lat="47.14313" lon="-1.6978">
        <ele>55</ele>
        <time>2020-12-20T10:56:43.000Z</time>
      </trkpt>
      <trkpt lat="47.14307" lon="-1.69803">
        <ele>55</ele>
        <time>2020-12-20T10:56:45.000Z</time>
      </trkpt>
      <trkpt lat="47.143" lon="-1.69826">
        <ele>55</ele>
        <time>2020-12-20T10:56:47.000Z</time>
      </trkpt>
      <trkpt lat="47.14294" lon="-1.69849">
        <ele>54</ele>
        <time>2020-12-20T10:56:49.000Z</time>
      </trkpt>
      <trkpt lat="47.14289" lon="-1.69873">
        <ele>54</ele>
        <time>2020-12-20T10:56:51.000Z</time>
      </trkpt>
      <trkpt lat="47.14285" lon="-1.69896">
        <ele>52</ele>
        <time>2020-12-20T10:56:53.000Z</time>
      </trkpt>
      <trkpt lat="47.1428" lon="-1.69921">
        <ele>52</ele>
        <time>2020-12-20T10:56:55.000Z</time>
      </trkpt>
      <trkpt lat="47.14276" lon="-1.69946">
        <ele>51</ele>
        <time>2020-12-20T10:56:57.000Z</time>
      </trkpt>
      <trkpt lat="47.14272" lon="-1.69968">
        <ele>50</ele>
        <time>2020-12-20T10:56:59.000Z</time>
      </trkpt>
      <trkpt lat="47.14272" lon="-1.69986">
        <ele>50</ele>
        <time>2020-12-20T10:57:01.000Z</time>
      </trkpt>
      <trkpt lat="47.14269" lon="-1.70003">
        <ele>50</ele>
        <time>2020-12-20T10:57:04.000Z</time>
      </trkpt>
      <trkpt lat="47.14264" lon="-1.70014">
        <ele>50</ele>
        <time>2020-12-20T10:57:07.000Z</time>
      </trkpt>
      <trkpt lat="47.14261" lon="-1.70029">
        <ele>51</ele>
        <time>2020-12-20T10:57:09.000Z</time>
      </trkpt>
      <trkpt lat="47.14259" lon="-1.70047">
        <ele>51</ele>
        <time>2020-12-20T10:57:11.000Z</time>
      </trkpt>
      <trkpt lat="47.14256" lon="-1.70067">
        <ele>51</ele>
        <time>2020-12-20T10:57:13.000Z</time>
      </trkpt>
      <trkpt lat="47.14253" lon="-1.7009">
        <ele>51</ele>
        <time>2020-12-20T10:57:15.000Z</time>
      </trkpt>
      <trkpt lat="47.1425" lon="-1.70112">
        <ele>50</ele>
        <time>2020-12-20T10:57:17.000Z</time>
      </trkpt>
      <trkpt lat="47.14247" lon="-1.70134">
        <ele>51</ele>
        <time>2020-12-20T10:57:19.000Z</time>
      </trkpt>
      <trkpt lat="47.14243" lon="-1.70156">
        <ele>51</ele>
        <time>2020-12-20T10:57:21.000Z</time>
      </trkpt>
      <trkpt lat="47.1424" lon="-1.70178">
        <ele>51</ele>
        <time>2020-12-20T10:57:23.000Z</time>
      </trkpt>
      <trkpt lat="47.14236" lon="-1.70198">
        <ele>52</ele>
        <time>2020-12-20T10:57:25.000Z</time>
      </trkpt>
      <trkpt lat="47.14233" lon="-1.70219">
        <ele>53</ele>
        <time>2020-12-20T10:57:27.000Z</time>
      </trkpt>
      <trkpt lat="47.14231" lon="-1.7024">
        <ele>53</ele>
        <time>2020-12-20T10:57:29.000Z</time>
      </trkpt>
      <trkpt lat="47.14228" lon="-1.7026">
        <ele>53</ele>
        <time>2020-12-20T10:57:31.000Z</time>
      </trkpt>
      <trkpt lat="47.14224" lon="-1.70281">
        <ele>53</ele>
        <time>2020-12-20T10:57:33.000Z</time>
      </trkpt>
      <trkpt lat="47.14221" lon="-1.70301">
        <ele>54</ele>
        <time>2020-12-20T10:57:35.000Z</time>
      </trkpt>
      <trkpt lat="47.14219" lon="-1.70321">
        <ele>54</ele>
        <time>2020-12-20T10:57:37.000Z</time>
      </trkpt>
      <trkpt lat="47.14216" lon="-1.70341">
        <ele>54</ele>
        <time>2020-12-20T10:57:39.000Z</time>
      </trkpt>
      <trkpt lat="47.14213" lon="-1.70361">
        <ele>55</ele>
        <time>2020-12-20T10:57:41.000Z</time>
      </trkpt>
      <trkpt lat="47.1421" lon="-1.70381">
        <ele>54</ele>
        <time>2020-12-20T10:57:43.000Z</time>
      </trkpt>
      <trkpt lat="47.14207" lon="-1.70401">
        <ele>55</ele>
        <time>2020-12-20T10:57:45.000Z</time>
      </trkpt>
      <trkpt lat="47.14203" lon="-1.70421">
        <ele>55</ele>
        <time>2020-12-20T10:57:47.000Z</time>
      </trkpt>
      <trkpt lat="47.14201" lon="-1.7044">
        <ele>56</ele>
        <time>2020-12-20T10:57:49.000Z</time>
      </trkpt>
      <trkpt lat="47.14199" lon="-1.70459">
        <ele>56</ele>
        <time>2020-12-20T10:57:51.000Z</time>
      </trkpt>
      <trkpt lat="47.14197" lon="-1.70478">
        <ele>56</ele>
        <time>2020-12-20T10:57:53.000Z</time>
      </trkpt>
      <trkpt lat="47.14195" lon="-1.70497">
        <ele>56</ele>
        <time>2020-12-20T10:57:55.000Z</time>
      </trkpt>
      <trkpt lat="47.14192" lon="-1.70516">
        <ele>57</ele>
        <time>2020-12-20T10:57:57.000Z</time>
      </trkpt>
      <trkpt lat="47.14191" lon="-1.70536">
        <ele>57</ele>
        <time>2020-12-20T10:57:59.000Z</time>
      </trkpt>
      <trkpt lat="47.14189" lon="-1.70555">
        <ele>57</ele>
        <time>2020-12-20T10:58:01.000Z</time>
      </trkpt>
      <trkpt lat="47.14188" lon="-1.70575">
        <ele>58</ele>
        <time>2020-12-20T10:58:03.000Z</time>
      </trkpt>
      <trkpt lat="47.14187" lon="-1.70594">
        <ele>58</ele>
        <time>2020-12-20T10:58:05.000Z</time>
      </trkpt>
      <trkpt lat="47.14185" lon="-1.70613">
        <ele>58</ele>
        <time>2020-12-20T10:58:07.000Z</time>
      </trkpt>
      <trkpt lat="47.14183" lon="-1.70632">
        <ele>58</ele>
        <time>2020-12-20T10:58:09.000Z</time>
      </trkpt>
      <trkpt lat="47.14182" lon="-1.70651">
        <ele>58</ele>
        <time>2020-12-20T10:58:11.000Z</time>
      </trkpt>
      <trkpt lat="47.14179" lon="-1.70669">
        <ele>58</ele>
        <time>2020-12-20T10:58:13.000Z</time>
      </trkpt>
      <trkpt lat="47.14177" lon="-1.70688">
        <ele>58</ele>
        <time>2020-12-20T10:58:15.000Z</time>
      </trkpt>
      <trkpt lat="47.14173" lon="-1.70705">
        <ele>58</ele>
        <time>2020-12-20T10:58:17.000Z</time>
      </trkpt>
      <trkpt lat="47.14169" lon="-1.70724">
        <ele>58</ele>
        <time>2020-12-20T10:58:19.000Z</time>
      </trkpt>
      <trkpt lat="47.14165" lon="-1.70743">
        <ele>59</ele>
        <time>2020-12-20T10:58:21.000Z</time>
      </trkpt>
      <trkpt lat="47.14161" lon="-1.70761">
        <ele>59</ele>
        <time>2020-12-20T10:58:23.000Z</time>
      </trkpt>
      <trkpt lat="47.14157" lon="-1.70779">
        <ele>59</ele>
        <time>2020-12-20T10:58:25.000Z</time>
      </trkpt>
      <trkpt lat="47.14153" lon="-1.70796">
        <ele>59</ele>
        <time>2020-12-20T10:58:27.000Z</time>
      </trkpt>
      <trkpt lat="47.14149" lon="-1.70815">
        <ele>59</ele>
        <time>2020-12-20T10:58:29.000Z</time>
      </trkpt>
      <trkpt lat="47.14145" lon="-1.70833">
        <ele>59</ele>
        <time>2020-12-20T10:58:31.000Z</time>
      </trkpt>
      <trkpt lat="47.14141" lon="-1.70851">
        <ele>59</ele>
        <time>2020-12-20T10:58:33.000Z</time>
      </trkpt>
      <trkpt lat="47.14137" lon="-1.7087">
        <ele>59</ele>
        <time>2020-12-20T10:58:35.000Z</time>
      </trkpt>
      <trkpt lat="47.14135" lon="-1.70889">
        <ele>59</ele>
        <time>2020-12-20T10:58:37.000Z</time>
      </trkpt>
      <trkpt lat="47.14132" lon="-1.70909">
        <ele>58</ele>
        <time>2020-12-20T10:58:39.000Z</time>
      </trkpt>
      <trkpt lat="47.14131" lon="-1.70929">
        <ele>58</ele>
        <time>2020-12-20T10:58:41.000Z</time>
      </trkpt>
      <trkpt lat="47.14128" lon="-1.7095">
        <ele>58</ele>
        <time>2020-12-20T10:58:43.000Z</time>
      </trkpt>
      <trkpt lat="47.14126" lon="-1.70972">
        <ele>58</ele>
        <time>2020-12-20T10:58:45.000Z</time>
      </trkpt>
      <trkpt lat="47.14124" lon="-1.70996">
        <ele>58</ele>
        <time>2020-12-20T10:58:47.000Z</time>
      </trkpt>
      <trkpt lat="47.14122" lon="-1.71021">
        <ele>57</ele>
        <time>2020-12-20T10:58:49.000Z</time>
      </trkpt>
      <trkpt lat="47.1412" lon="-1.71045">
        <ele>57</ele>
        <time>2020-12-20T10:58:51.000Z</time>
      </trkpt>
      <trkpt lat="47.14119" lon="-1.71059">
        <ele>57</ele>
        <time>2020-12-20T10:58:52.000Z</time>
      </trkpt>
      <trkpt lat="47.14118" lon="-1.71072">
        <ele>57</ele>
        <time>2020-12-20T10:58:53.000Z</time>
      </trkpt>
      <trkpt lat="47.14116" lon="-1.71085">
        <ele>56</ele>
        <time>2020-12-20T10:58:54.000Z</time>
      </trkpt>
      <trkpt lat="47.14115" lon="-1.71098">
        <ele>56</ele>
        <time>2020-12-20T10:58:55.000Z</time>
      </trkpt>
      <trkpt lat="47.14114" lon="-1.71111">
        <ele>56</ele>
        <time>2020-12-20T10:58:56.000Z</time>
      </trkpt>
      <trkpt lat="47.14113" lon="-1.71124">
        <ele>55</ele>
        <time>2020-12-20T10:58:57.000Z</time>
      </trkpt>
      <trkpt lat="47.14111" lon="-1.71137">
        <ele>55</ele>
        <time>2020-12-20T10:58:58.000Z</time>
      </trkpt>
      <trkpt lat="47.14109" lon="-1.71163">
        <ele>55</ele>
        <time>2020-12-20T10:59:00.000Z</time>
      </trkpt>
      <trkpt lat="47.14107" lon="-1.71186">
        <ele>55</ele>
        <time>2020-12-20T10:59:02.000Z</time>
      </trkpt>
      <trkpt lat="47.14105" lon="-1.71209">
        <ele>56</ele>
        <time>2020-12-20T10:59:04.000Z</time>
      </trkpt>
      <trkpt lat="47.14103" lon="-1.71229">
        <ele>56</ele>
        <time>2020-12-20T10:59:06.000Z</time>
      </trkpt>
      <trkpt lat="47.14101" lon="-1.71247">
        <ele>56</ele>
        <time>2020-12-20T10:59:08.000Z</time>
      </trkpt>
      <trkpt lat="47.141" lon="-1.71265">
        <ele>56</ele>
        <time>2020-12-20T10:59:10.000Z</time>
      </trkpt>
      <trkpt lat="47.14097" lon="-1.71284">
        <ele>57</ele>
        <time>2020-12-20T10:59:12.000Z</time>
      </trkpt>
      <trkpt lat="47.14093" lon="-1.71302">
        <ele>58</ele>
        <time>2020-12-20T10:59:14.000Z</time>
      </trkpt>
      <trkpt lat="47.14088" lon="-1.71319">
        <ele>58</ele>
        <time>2020-12-20T10:59:16.000Z</time>
      </trkpt>
      <trkpt lat="47.1408" lon="-1.71336">
        <ele>58</ele>
        <time>2020-12-20T10:59:18.000Z</time>
      </trkpt>
      <trkpt lat="47.14074" lon="-1.71353">
        <ele>57</ele>
        <time>2020-12-20T10:59:20.000Z</time>
      </trkpt>
      <trkpt lat="47.14067" lon="-1.71369">
        <ele>58</ele>
        <time>2020-12-20T10:59:22.000Z</time>
      </trkpt>
      <trkpt lat="47.14059" lon="-1.71387">
        <ele>58</ele>
        <time>2020-12-20T10:59:24.000Z</time>
      </trkpt>
      <trkpt lat="47.14052" lon="-1.71404">
        <ele>59</ele>
        <time>2020-12-20T10:59:26.000Z</time>
      </trkpt>
      <trkpt lat="47.14045" lon="-1.71421">
        <ele>59</ele>
        <time>2020-12-20T10:59:28.000Z</time>
      </trkpt>
      <trkpt lat="47.14038" lon="-1.71438">
        <ele>60</ele>
        <time>2020-12-20T10:59:30.000Z</time>
      </trkpt>
      <trkpt lat="47.14031" lon="-1.71455">
        <ele>60</ele>
        <time>2020-12-20T10:59:32.000Z</time>
      </trkpt>
      <trkpt lat="47.14025" lon="-1.71473">
        <ele>61</ele>
        <time>2020-12-20T10:59:34.000Z</time>
      </trkpt>
      <trkpt lat="47.14019" lon="-1.71491">
        <ele>61</ele>
        <time>2020-12-20T10:59:36.000Z</time>
      </trkpt>
      <trkpt lat="47.14014" lon="-1.71509">
        <ele>61</ele>
        <time>2020-12-20T10:59:38.000Z</time>
      </trkpt>
      <trkpt lat="47.14011" lon="-1.71528">
        <ele>61</ele>
        <time>2020-12-20T10:59:40.000Z</time>
      </trkpt>
      <trkpt lat="47.14007" lon="-1.71548">
        <ele>62</ele>
        <time>2020-12-20T10:59:42.000Z</time>
      </trkpt>
      <trkpt lat="47.14003" lon="-1.71567">
        <ele>62</ele>
        <time>2020-12-20T10:59:44.000Z</time>
      </trkpt>
      <trkpt lat="47.14" lon="-1.71588">
        <ele>62</ele>
        <time>2020-12-20T10:59:46.000Z</time>
      </trkpt>
      <trkpt lat="47.13996" lon="-1.71607">
        <ele>62</ele>
        <time>2020-12-20T10:59:48.000Z</time>
      </trkpt>
      <trkpt lat="47.13991" lon="-1.71626">
        <ele>62</ele>
        <time>2020-12-20T10:59:50.000Z</time>
      </trkpt>
      <trkpt lat="47.13985" lon="-1.71644">
        <ele>62</ele>
        <time>2020-12-20T10:59:52.000Z</time>
      </trkpt>
      <trkpt lat="47.13978" lon="-1.71661">
        <ele>62</ele>
        <time>2020-12-20T10:59:54.000Z</time>
      </trkpt>
      <trkpt lat="47.1397" lon="-1.71678">
        <ele>61</ele>
        <time>2020-12-20T10:59:56.000Z</time>
      </trkpt>
      <trkpt lat="47.13962" lon="-1.71694">
        <ele>61</ele>
        <time>2020-12-20T10:59:58.000Z</time>
      </trkpt>
      <trkpt lat="47.13952" lon="-1.71711">
        <ele>61</ele>
        <time>2020-12-20T11:00:00.000Z</time>
      </trkpt>
      <trkpt lat="47.13942" lon="-1.71728">
        <ele>60</ele>
        <time>2020-12-20T11:00:02.000Z</time>
      </trkpt>
      <trkpt lat="47.13931" lon="-1.71745">
        <ele>59</ele>
        <time>2020-12-20T11:00:04.000Z</time>
      </trkpt>
      <trkpt lat="47.13918" lon="-1.71758">
        <ele>59</ele>
        <time>2020-12-20T11:00:06.000Z</time>
      </trkpt>
      <trkpt lat="47.13905" lon="-1.71767">
        <ele>58</ele>
        <time>2020-12-20T11:00:08.000Z</time>
      </trkpt>
      <trkpt lat="47.13896" lon="-1.71776">
        <ele>57</ele>
        <time>2020-12-20T11:00:10.000Z</time>
      </trkpt>
      <trkpt lat="47.13892" lon="-1.7179">
        <ele>57</ele>
        <time>2020-12-20T11:00:12.000Z</time>
      </trkpt>
      <trkpt lat="47.13894" lon="-1.71805">
        <ele>56</ele>
        <time>2020-12-20T11:00:14.000Z</time>
      </trkpt>
      <trkpt lat="47.13902" lon="-1.71818">
        <ele>56</ele>
        <time>2020-12-20T11:00:16.000Z</time>
      </trkpt>
      <trkpt lat="47.13913" lon="-1.71829">
        <ele>56</ele>
        <time>2020-12-20T11:00:18.000Z</time>
      </trkpt>
      <trkpt lat="47.13923" lon="-1.71839">
        <ele>56</ele>
        <time>2020-12-20T11:00:20.000Z</time>
      </trkpt>
      <trkpt lat="47.13934" lon="-1.71849">
        <ele>56</ele>
        <time>2020-12-20T11:00:22.000Z</time>
      </trkpt>
      <trkpt lat="47.13946" lon="-1.71859">
        <ele>56</ele>
        <time>2020-12-20T11:00:24.000Z</time>
      </trkpt>
      <trkpt lat="47.13958" lon="-1.71865">
        <ele>56</ele>
        <time>2020-12-20T11:00:26.000Z</time>
      </trkpt>
      <trkpt lat="47.13967" lon="-1.71873">
        <ele>57</ele>
        <time>2020-12-20T11:00:28.000Z</time>
      </trkpt>
      <trkpt lat="47.13972" lon="-1.71889">
        <ele>58</ele>
        <time>2020-12-20T11:00:30.000Z</time>
      </trkpt>
      <trkpt lat="47.13969" lon="-1.71906">
        <ele>57</ele>
        <time>2020-12-20T11:00:32.000Z</time>
      </trkpt>
      <trkpt lat="47.13965" lon="-1.71925">
        <ele>57</ele>
        <time>2020-12-20T11:00:34.000Z</time>
      </trkpt>
      <trkpt lat="47.13965" lon="-1.71944">
        <ele>57</ele>
        <time>2020-12-20T11:00:36.000Z</time>
      </trkpt>
      <trkpt lat="47.1396" lon="-1.7196">
        <ele>56</ele>
        <time>2020-12-20T11:00:38.000Z</time>
      </trkpt>
      <trkpt lat="47.13952" lon="-1.71972">
        <ele>56</ele>
        <time>2020-12-20T11:00:40.000Z</time>
      </trkpt>
      <trkpt lat="47.1394" lon="-1.71979">
        <ele>57</ele>
        <time>2020-12-20T11:00:42.000Z</time>
      </trkpt>
      <trkpt lat="47.13929" lon="-1.71986">
        <ele>57</ele>
        <time>2020-12-20T11:00:44.000Z</time>
      </trkpt>
      <trkpt lat="47.13918" lon="-1.71991">
        <ele>57</ele>
        <time>2020-12-20T11:00:46.000Z</time>
      </trkpt>
      <trkpt lat="47.13907" lon="-1.71997">
        <ele>58</ele>
        <time>2020-12-20T11:00:48.000Z</time>
      </trkpt>
      <trkpt lat="47.13896" lon="-1.72002">
        <ele>59</ele>
        <time>2020-12-20T11:00:50.000Z</time>
      </trkpt>
      <trkpt lat="47.13886" lon="-1.7201">
        <ele>59</ele>
        <time>2020-12-20T11:00:52.000Z</time>
      </trkpt>
      <trkpt lat="47.13876" lon="-1.7202">
        <ele>59</ele>
        <time>2020-12-20T11:00:54.000Z</time>
      </trkpt>
      <trkpt lat="47.13867" lon="-1.72031">
        <ele>60</ele>
        <time>2020-12-20T11:00:56.000Z</time>
      </trkpt>
      <trkpt lat="47.13858" lon="-1.72044">
        <ele>60</ele>
        <time>2020-12-20T11:00:58.000Z</time>
      </trkpt>
      <trkpt lat="47.1385" lon="-1.72057">
        <ele>60</ele>
        <time>2020-12-20T11:01:00.000Z</time>
      </trkpt>
      <trkpt lat="47.13842" lon="-1.7207">
        <ele>60</ele>
        <time>2020-12-20T11:01:02.000Z</time>
      </trkpt>
      <trkpt lat="47.13834" lon="-1.72083">
        <ele>60</ele>
        <time>2020-12-20T11:01:04.000Z</time>
      </trkpt>
      <trkpt lat="47.13826" lon="-1.72096">
        <ele>60</ele>
        <time>2020-12-20T11:01:06.000Z</time>
      </trkpt>
      <trkpt lat="47.13818" lon="-1.72109">
        <ele>60</ele>
        <time>2020-12-20T11:01:08.000Z</time>
      </trkpt>
      <trkpt lat="47.1381" lon="-1.72122">
        <ele>60</ele>
        <time>2020-12-20T11:01:10.000Z</time>
      </trkpt>
      <trkpt lat="47.13802" lon="-1.72136">
        <ele>60</ele>
        <time>2020-12-20T11:01:12.000Z</time>
      </trkpt>
      <trkpt lat="47.13795" lon="-1.72148">
        <ele>61</ele>
        <time>2020-12-20T11:01:14.000Z</time>
      </trkpt>
      <trkpt lat="47.13787" lon="-1.7216">
        <ele>61</ele>
        <time>2020-12-20T11:01:16.000Z</time>
      </trkpt>
      <trkpt lat="47.13779" lon="-1.72173">
        <ele>61</ele>
        <time>2020-12-20T11:01:18.000Z</time>
      </trkpt>
      <trkpt lat="47.13771" lon="-1.72186">
        <ele>62</ele>
        <time>2020-12-20T11:01:20.000Z</time>
      </trkpt>
      <trkpt lat="47.13764" lon="-1.72199">
        <ele>62</ele>
        <time>2020-12-20T11:01:22.000Z</time>
      </trkpt>
      <trkpt lat="47.13756" lon="-1.72212">
        <ele>63</ele>
        <time>2020-12-20T11:01:24.000Z</time>
      </trkpt>
      <trkpt lat="47.13749" lon="-1.72225">
        <ele>63</ele>
        <time>2020-12-20T11:01:26.000Z</time>
      </trkpt>
      <trkpt lat="47.13742" lon="-1.72239">
        <ele>63</ele>
        <time>2020-12-20T11:01:28.000Z</time>
      </trkpt>
      <trkpt lat="47.13739" lon="-1.72254">
        <ele>63</ele>
        <time>2020-12-20T11:01:30.000Z</time>
      </trkpt>
      <trkpt lat="47.13736" lon="-1.7227">
        <ele>63</ele>
        <time>2020-12-20T11:01:32.000Z</time>
      </trkpt>
      <trkpt lat="47.13735" lon="-1.72287">
        <ele>64</ele>
        <time>2020-12-20T11:01:34.000Z</time>
      </trkpt>
      <trkpt lat="47.13733" lon="-1.72304">
        <ele>64</ele>
        <time>2020-12-20T11:01:36.000Z</time>
      </trkpt>
      <trkpt lat="47.13731" lon="-1.72319">
        <ele>65</ele>
        <time>2020-12-20T11:01:38.000Z</time>
      </trkpt>
      <trkpt lat="47.13729" lon="-1.72335">
        <ele>66</ele>
        <time>2020-12-20T11:01:40.000Z</time>
      </trkpt>
      <trkpt lat="47.13726" lon="-1.72351">
        <ele>66</ele>
        <time>2020-12-20T11:01:42.000Z</time>
      </trkpt>
      <trkpt lat="47.13723" lon="-1.72366">
        <ele>67</ele>
        <time>2020-12-20T11:01:44.000Z</time>
      </trkpt>
      <trkpt lat="47.13719" lon="-1.72382">
        <ele>67</ele>
        <time>2020-12-20T11:01:46.000Z</time>
      </trkpt>
      <trkpt lat="47.13715" lon="-1.72397">
        <ele>68</ele>
        <time>2020-12-20T11:01:48.000Z</time>
      </trkpt>
      <trkpt lat="47.13711" lon="-1.72412">
        <ele>68</ele>
        <time>2020-12-20T11:01:50.000Z</time>
      </trkpt>
      <trkpt lat="47.13707" lon="-1.72427">
        <ele>67</ele>
        <time>2020-12-20T11:01:52.000Z</time>
      </trkpt>
      <trkpt lat="47.13702" lon="-1.72442">
        <ele>66</ele>
        <time>2020-12-20T11:01:54.000Z</time>
      </trkpt>
      <trkpt lat="47.13698" lon="-1.72456">
        <ele>66</ele>
        <time>2020-12-20T11:01:56.000Z</time>
      </trkpt>
      <trkpt lat="47.13694" lon="-1.72472">
        <ele>66</ele>
        <time>2020-12-20T11:01:58.000Z</time>
      </trkpt>
      <trkpt lat="47.13689" lon="-1.72488">
        <ele>66</ele>
        <time>2020-12-20T11:02:00.000Z</time>
      </trkpt>
      <trkpt lat="47.13685" lon="-1.72505">
        <ele>66</ele>
        <time>2020-12-20T11:02:02.000Z</time>
      </trkpt>
      <trkpt lat="47.13681" lon="-1.72523">
        <ele>66</ele>
        <time>2020-12-20T11:02:04.000Z</time>
      </trkpt>
      <trkpt lat="47.13679" lon="-1.72541">
        <ele>66</ele>
        <time>2020-12-20T11:02:06.000Z</time>
      </trkpt>
      <trkpt lat="47.13679" lon="-1.72559">
        <ele>66</ele>
        <time>2020-12-20T11:02:08.000Z</time>
      </trkpt>
      <trkpt lat="47.13678" lon="-1.72576">
        <ele>65</ele>
        <time>2020-12-20T11:02:10.000Z</time>
      </trkpt>
      <trkpt lat="47.13678" lon="-1.72593">
        <ele>65</ele>
        <time>2020-12-20T11:02:12.000Z</time>
      </trkpt>
      <trkpt lat="47.13678" lon="-1.7261">
        <ele>66</ele>
        <time>2020-12-20T11:02:14.000Z</time>
      </trkpt>
      <trkpt lat="47.13676" lon="-1.72626">
        <ele>66</ele>
        <time>2020-12-20T11:02:16.000Z</time>
      </trkpt>
      <trkpt lat="47.13674" lon="-1.72643">
        <ele>66</ele>
        <time>2020-12-20T11:02:18.000Z</time>
      </trkpt>
      <trkpt lat="47.13671" lon="-1.7266">
        <ele>67</ele>
        <time>2020-12-20T11:02:20.000Z</time>
      </trkpt>
      <trkpt lat="47.13668" lon="-1.72677">
        <ele>67</ele>
        <time>2020-12-20T11:02:22.000Z</time>
      </trkpt>
      <trkpt lat="47.13665" lon="-1.72694">
        <ele>67</ele>
        <time>2020-12-20T11:02:24.000Z</time>
      </trkpt>
      <trkpt lat="47.13663" lon="-1.72711">
        <ele>67</ele>
        <time>2020-12-20T11:02:26.000Z</time>
      </trkpt>
      <trkpt lat="47.13662" lon="-1.72728">
        <ele>67</ele>
        <time>2020-12-20T11:02:28.000Z</time>
      </trkpt>
      <trkpt lat="47.13661" lon="-1.72744">
        <ele>68</ele>
        <time>2020-12-20T11:02:30.000Z</time>
      </trkpt>
      <trkpt lat="47.13659" lon="-1.7276">
        <ele>68</ele>
        <time>2020-12-20T11:02:32.000Z</time>
      </trkpt>
      <trkpt lat="47.13658" lon="-1.72778">
        <ele>68</ele>
        <time>2020-12-20T11:02:34.000Z</time>
      </trkpt>
      <trkpt lat="47.13656" lon="-1.72796">
        <ele>68</ele>
        <time>2020-12-20T11:02:36.000Z</time>
      </trkpt>
      <trkpt lat="47.13654" lon="-1.72813">
        <ele>67</ele>
        <time>2020-12-20T11:02:38.000Z</time>
      </trkpt>
      <trkpt lat="47.13654" lon="-1.7283">
        <ele>66</ele>
        <time>2020-12-20T11:02:40.000Z</time>
      </trkpt>
      <trkpt lat="47.13653" lon="-1.72849">
        <ele>66</ele>
        <time>2020-12-20T11:02:42.000Z</time>
      </trkpt>
      <trkpt lat="47.13651" lon="-1.72867">
        <ele>66</ele>
        <time>2020-12-20T11:02:44.000Z</time>
      </trkpt>
      <trkpt lat="47.13649" lon="-1.72887">
        <ele>65</ele>
        <time>2020-12-20T11:02:46.000Z</time>
      </trkpt>
      <trkpt lat="47.13647" lon="-1.72909">
        <ele>64</ele>
        <time>2020-12-20T11:02:48.000Z</time>
      </trkpt>
      <trkpt lat="47.13645" lon="-1.72933">
        <ele>63</ele>
        <time>2020-12-20T11:02:50.000Z</time>
      </trkpt>
      <trkpt lat="47.13644" lon="-1.72957">
        <ele>62</ele>
        <time>2020-12-20T11:02:52.000Z</time>
      </trkpt>
      <trkpt lat="47.13641" lon="-1.72982">
        <ele>61</ele>
        <time>2020-12-20T11:02:54.000Z</time>
      </trkpt>
      <trkpt lat="47.13639" lon="-1.73007">
        <ele>60</ele>
        <time>2020-12-20T11:02:56.000Z</time>
      </trkpt>
      <trkpt lat="47.13633" lon="-1.73031">
        <ele>60</ele>
        <time>2020-12-20T11:02:58.000Z</time>
      </trkpt>
      <trkpt lat="47.1362" lon="-1.7305">
        <ele>59</ele>
        <time>2020-12-20T11:03:00.000Z</time>
      </trkpt>
      <trkpt lat="47.13606" lon="-1.73063">
        <ele>60</ele>
        <time>2020-12-20T11:03:02.000Z</time>
      </trkpt>
      <trkpt lat="47.13593" lon="-1.73075">
        <ele>60</ele>
        <time>2020-12-20T11:03:04.000Z</time>
      </trkpt>
      <trkpt lat="47.13581" lon="-1.73086">
        <ele>60</ele>
        <time>2020-12-20T11:03:06.000Z</time>
      </trkpt>
      <trkpt lat="47.13568" lon="-1.73099">
        <ele>60</ele>
        <time>2020-12-20T11:03:08.000Z</time>
      </trkpt>
      <trkpt lat="47.13557" lon="-1.73111">
        <ele>60</ele>
        <time>2020-12-20T11:03:10.000Z</time>
      </trkpt>
      <trkpt lat="47.13545" lon="-1.73124">
        <ele>59</ele>
        <time>2020-12-20T11:03:12.000Z</time>
      </trkpt>
      <trkpt lat="47.13532" lon="-1.73137">
        <ele>59</ele>
        <time>2020-12-20T11:03:14.000Z</time>
      </trkpt>
      <trkpt lat="47.13522" lon="-1.73153">
        <ele>58</ele>
        <time>2020-12-20T11:03:16.000Z</time>
      </trkpt>
      <trkpt lat="47.13514" lon="-1.73173">
        <ele>58</ele>
        <time>2020-12-20T11:03:18.000Z</time>
      </trkpt>
      <trkpt lat="47.1351" lon="-1.73194">
        <ele>57</ele>
        <time>2020-12-20T11:03:20.000Z</time>
      </trkpt>
      <trkpt lat="47.13507" lon="-1.73217">
        <ele>56</ele>
        <time>2020-12-20T11:03:22.000Z</time>
      </trkpt>
      <trkpt lat="47.13504" lon="-1.73241">
        <ele>55</ele>
        <time>2020-12-20T11:03:24.000Z</time>
      </trkpt>
      <trkpt lat="47.13502" lon="-1.73265">
        <ele>55</ele>
        <time>2020-12-20T11:03:26.000Z</time>
      </trkpt>
      <trkpt lat="47.135" lon="-1.73288">
        <ele>54</ele>
        <time>2020-12-20T11:03:28.000Z</time>
      </trkpt>
      <trkpt lat="47.13503" lon="-1.73311">
        <ele>55</ele>
        <time>2020-12-20T11:03:30.000Z</time>
      </trkpt>
      <trkpt lat="47.13508" lon="-1.73332">
        <ele>56</ele>
        <time>2020-12-20T11:03:32.000Z</time>
      </trkpt>
      <trkpt lat="47.13513" lon="-1.73352">
        <ele>56</ele>
        <time>2020-12-20T11:03:34.000Z</time>
      </trkpt>
      <trkpt lat="47.13519" lon="-1.73369">
        <ele>57</ele>
        <time>2020-12-20T11:03:36.000Z</time>
      </trkpt>
      <trkpt lat="47.13525" lon="-1.73385">
        <ele>58</ele>
        <time>2020-12-20T11:03:38.000Z</time>
      </trkpt>
      <trkpt lat="47.13532" lon="-1.73401">
        <ele>58</ele>
        <time>2020-12-20T11:03:40.000Z</time>
      </trkpt>
      <trkpt lat="47.13538" lon="-1.73417">
        <ele>60</ele>
        <time>2020-12-20T11:03:42.000Z</time>
      </trkpt>
      <trkpt lat="47.13543" lon="-1.73434">
        <ele>60</ele>
        <time>2020-12-20T11:03:44.000Z</time>
      </trkpt>
      <trkpt lat="47.13548" lon="-1.73451">
        <ele>60</ele>
        <time>2020-12-20T11:03:46.000Z</time>
      </trkpt>
      <trkpt lat="47.13554" lon="-1.73467">
        <ele>61</ele>
        <time>2020-12-20T11:03:48.000Z</time>
      </trkpt>
      <trkpt lat="47.13559" lon="-1.73484">
        <ele>61</ele>
        <time>2020-12-20T11:03:50.000Z</time>
      </trkpt>
      <trkpt lat="47.13564" lon="-1.73502">
        <ele>61</ele>
        <time>2020-12-20T11:03:52.000Z</time>
      </trkpt>
      <trkpt lat="47.13569" lon="-1.7352">
        <ele>62</ele>
        <time>2020-12-20T11:03:54.000Z</time>
      </trkpt>
      <trkpt lat="47.13574" lon="-1.73537">
        <ele>62</ele>
        <time>2020-12-20T11:03:56.000Z</time>
      </trkpt>
      <trkpt lat="47.1358" lon="-1.73555">
        <ele>63</ele>
        <time>2020-12-20T11:03:58.000Z</time>
      </trkpt>
      <trkpt lat="47.13587" lon="-1.73573">
        <ele>62</ele>
        <time>2020-12-20T11:04:00.000Z</time>
      </trkpt>
      <trkpt lat="47.13594" lon="-1.73591">
        <ele>62</ele>
        <time>2020-12-20T11:04:02.000Z</time>
      </trkpt>
      <trkpt lat="47.136" lon="-1.73608">
        <ele>62</ele>
        <time>2020-12-20T11:04:04.000Z</time>
      </trkpt>
      <trkpt lat="47.13605" lon="-1.73626">
        <ele>63</ele>
        <time>2020-12-20T11:04:06.000Z</time>
      </trkpt>
      <trkpt lat="47.13612" lon="-1.73644">
        <ele>62</ele>
        <time>2020-12-20T11:04:08.000Z</time>
      </trkpt>
      <trkpt lat="47.13618" lon="-1.73662">
        <ele>62</ele>
        <time>2020-12-20T11:04:10.000Z</time>
      </trkpt>
      <trkpt lat="47.13623" lon="-1.73679">
        <ele>61</ele>
        <time>2020-12-20T11:04:12.000Z</time>
      </trkpt>
      <trkpt lat="47.13629" lon="-1.73697">
        <ele>61</ele>
        <time>2020-12-20T11:04:14.000Z</time>
      </trkpt>
      <trkpt lat="47.13632" lon="-1.73715">
        <ele>61</ele>
        <time>2020-12-20T11:04:16.000Z</time>
      </trkpt>
      <trkpt lat="47.13634" lon="-1.73736">
        <ele>61</ele>
        <time>2020-12-20T11:04:18.000Z</time>
      </trkpt>
      <trkpt lat="47.13636" lon="-1.73757">
        <ele>60</ele>
        <time>2020-12-20T11:04:20.000Z</time>
      </trkpt>
      <trkpt lat="47.13638" lon="-1.73779">
        <ele>59</ele>
        <time>2020-12-20T11:04:22.000Z</time>
      </trkpt>
      <trkpt lat="47.13639" lon="-1.73803">
        <ele>59</ele>
        <time>2020-12-20T11:04:24.000Z</time>
      </trkpt>
      <trkpt lat="47.13641" lon="-1.73826">
        <ele>59</ele>
        <time>2020-12-20T11:04:26.000Z</time>
      </trkpt>
      <trkpt lat="47.13643" lon="-1.73849">
        <ele>58</ele>
        <time>2020-12-20T11:04:28.000Z</time>
      </trkpt>
      <trkpt lat="47.13645" lon="-1.73872">
        <ele>58</ele>
        <time>2020-12-20T11:04:30.000Z</time>
      </trkpt>
      <trkpt lat="47.13644" lon="-1.73893">
        <ele>59</ele>
        <time>2020-12-20T11:04:32.000Z</time>
      </trkpt>
      <trkpt lat="47.13644" lon="-1.73913">
        <ele>59</ele>
        <time>2020-12-20T11:04:34.000Z</time>
      </trkpt>
      <trkpt lat="47.13645" lon="-1.73931">
        <ele>59</ele>
        <time>2020-12-20T11:04:36.000Z</time>
      </trkpt>
      <trkpt lat="47.13646" lon="-1.7395">
        <ele>60</ele>
        <time>2020-12-20T11:04:38.000Z</time>
      </trkpt>
      <trkpt lat="47.13646" lon="-1.73968">
        <ele>60</ele>
        <time>2020-12-20T11:04:40.000Z</time>
      </trkpt>
      <trkpt lat="47.13646" lon="-1.73986">
        <ele>61</ele>
        <time>2020-12-20T11:04:42.000Z</time>
      </trkpt>
      <trkpt lat="47.13644" lon="-1.74006">
        <ele>61</ele>
        <time>2020-12-20T11:04:44.000Z</time>
      </trkpt>
      <trkpt lat="47.13643" lon="-1.74025">
        <ele>61</ele>
        <time>2020-12-20T11:04:46.000Z</time>
      </trkpt>
      <trkpt lat="47.1364" lon="-1.74045">
        <ele>62</ele>
        <time>2020-12-20T11:04:48.000Z</time>
      </trkpt>
      <trkpt lat="47.13639" lon="-1.74063">
        <ele>62</ele>
        <time>2020-12-20T11:04:50.000Z</time>
      </trkpt>
      <trkpt lat="47.13639" lon="-1.74082">
        <ele>63</ele>
        <time>2020-12-20T11:04:52.000Z</time>
      </trkpt>
      <trkpt lat="47.1364" lon="-1.74101">
        <ele>64</ele>
        <time>2020-12-20T11:04:54.000Z</time>
      </trkpt>
      <trkpt lat="47.13642" lon="-1.74119">
        <ele>64</ele>
        <time>2020-12-20T11:04:56.000Z</time>
      </trkpt>
      <trkpt lat="47.13644" lon="-1.74138">
        <ele>64</ele>
        <time>2020-12-20T11:04:58.000Z</time>
      </trkpt>
      <trkpt lat="47.13648" lon="-1.74165">
        <ele>64</ele>
        <time>2020-12-20T11:05:01.000Z</time>
      </trkpt>
      <trkpt lat="47.13652" lon="-1.74182">
        <ele>64</ele>
        <time>2020-12-20T11:05:03.000Z</time>
      </trkpt>
      <trkpt lat="47.13656" lon="-1.74198">
        <ele>64</ele>
        <time>2020-12-20T11:05:05.000Z</time>
      </trkpt>
      <trkpt lat="47.1366" lon="-1.74215">
        <ele>64</ele>
        <time>2020-12-20T11:05:07.000Z</time>
      </trkpt>
      <trkpt lat="47.13664" lon="-1.74232">
        <ele>63</ele>
        <time>2020-12-20T11:05:09.000Z</time>
      </trkpt>
      <trkpt lat="47.13669" lon="-1.74248">
        <ele>63</ele>
        <time>2020-12-20T11:05:11.000Z</time>
      </trkpt>
      <trkpt lat="47.13673" lon="-1.74265">
        <ele>62</ele>
        <time>2020-12-20T11:05:13.000Z</time>
      </trkpt>
      <trkpt lat="47.13679" lon="-1.74281">
        <ele>61</ele>
        <time>2020-12-20T11:05:15.000Z</time>
      </trkpt>
      <trkpt lat="47.13686" lon="-1.74299">
        <ele>61</ele>
        <time>2020-12-20T11:05:17.000Z</time>
      </trkpt>
      <trkpt lat="47.13691" lon="-1.74318">
        <ele>61</ele>
        <time>2020-12-20T11:05:19.000Z</time>
      </trkpt>
      <trkpt lat="47.13694" lon="-1.74339">
        <ele>60</ele>
        <time>2020-12-20T11:05:21.000Z</time>
      </trkpt>
      <trkpt lat="47.13694" lon="-1.74363">
        <ele>58</ele>
        <time>2020-12-20T11:05:23.000Z</time>
      </trkpt>
      <trkpt lat="47.13694" lon="-1.74386">
        <ele>57</ele>
        <time>2020-12-20T11:05:25.000Z</time>
      </trkpt>
      <trkpt lat="47.13694" lon="-1.7441">
        <ele>56</ele>
        <time>2020-12-20T11:05:27.000Z</time>
      </trkpt>
      <trkpt lat="47.13695" lon="-1.74432">
        <ele>56</ele>
        <time>2020-12-20T11:05:29.000Z</time>
      </trkpt>
      <trkpt lat="47.13691" lon="-1.74453">
        <ele>55</ele>
        <time>2020-12-20T11:05:31.000Z</time>
      </trkpt>
      <trkpt lat="47.13681" lon="-1.74471">
        <ele>54</ele>
        <time>2020-12-20T11:05:33.000Z</time>
      </trkpt>
      <trkpt lat="47.13668" lon="-1.74486">
        <ele>54</ele>
        <time>2020-12-20T11:05:35.000Z</time>
      </trkpt>
      <trkpt lat="47.13655" lon="-1.74498">
        <ele>53</ele>
        <time>2020-12-20T11:05:37.000Z</time>
      </trkpt>
      <trkpt lat="47.13643" lon="-1.7451">
        <ele>54</ele>
        <time>2020-12-20T11:05:39.000Z</time>
      </trkpt>
      <trkpt lat="47.13632" lon="-1.74522">
        <ele>54</ele>
        <time>2020-12-20T11:05:41.000Z</time>
      </trkpt>
      <trkpt lat="47.13622" lon="-1.74533">
        <ele>54</ele>
        <time>2020-12-20T11:05:43.000Z</time>
      </trkpt>
      <trkpt lat="47.13607" lon="-1.7455">
        <ele>53</ele>
        <time>2020-12-20T11:05:46.000Z</time>
      </trkpt>
      <trkpt lat="47.13596" lon="-1.74563">
        <ele>53</ele>
        <time>2020-12-20T11:05:48.000Z</time>
      </trkpt>
      <trkpt lat="47.13577" lon="-1.74583">
        <ele>53</ele>
        <time>2020-12-20T11:05:51.000Z</time>
      </trkpt>
      <trkpt lat="47.13563" lon="-1.74596">
        <ele>52</ele>
        <time>2020-12-20T11:05:53.000Z</time>
      </trkpt>
      <trkpt lat="47.13544" lon="-1.74615">
        <ele>51</ele>
        <time>2020-12-20T11:05:56.000Z</time>
      </trkpt>
      <trkpt lat="47.13531" lon="-1.74626">
        <ele>51</ele>
        <time>2020-12-20T11:05:58.000Z</time>
      </trkpt>
      <trkpt lat="47.13514" lon="-1.74642">
        <ele>51</ele>
        <time>2020-12-20T11:06:01.000Z</time>
      </trkpt>
      <trkpt lat="47.13501" lon="-1.74659">
        <ele>52</ele>
        <time>2020-12-20T11:06:04.000Z</time>
      </trkpt>
      <trkpt lat="47.13494" lon="-1.74674">
        <ele>53</ele>
        <time>2020-12-20T11:06:06.000Z</time>
      </trkpt>
      <trkpt lat="47.13488" lon="-1.74688">
        <ele>54</ele>
        <time>2020-12-20T11:06:08.000Z</time>
      </trkpt>
      <trkpt lat="47.13481" lon="-1.74709">
        <ele>55</ele>
        <time>2020-12-20T11:06:11.000Z</time>
      </trkpt>
      <trkpt lat="47.13476" lon="-1.74722">
        <ele>55</ele>
        <time>2020-12-20T11:06:13.000Z</time>
      </trkpt>
      <trkpt lat="47.13464" lon="-1.74738">
        <ele>55</ele>
        <time>2020-12-20T11:06:16.000Z</time>
      </trkpt>
      <trkpt lat="47.13454" lon="-1.74748">
        <ele>56</ele>
        <time>2020-12-20T11:06:18.000Z</time>
      </trkpt>
      <trkpt lat="47.13445" lon="-1.74755">
        <ele>56</ele>
        <time>2020-12-20T11:06:20.000Z</time>
      </trkpt>
      <trkpt lat="47.13434" lon="-1.74762">
        <ele>57</ele>
        <time>2020-12-20T11:06:22.000Z</time>
      </trkpt>
      <trkpt lat="47.13424" lon="-1.74769">
        <ele>57</ele>
        <time>2020-12-20T11:06:24.000Z</time>
      </trkpt>
      <trkpt lat="47.13415" lon="-1.74777">
        <ele>57</ele>
        <time>2020-12-20T11:06:26.000Z</time>
      </trkpt>
      <trkpt lat="47.13407" lon="-1.74786">
        <ele>57</ele>
        <time>2020-12-20T11:06:28.000Z</time>
      </trkpt>
      <trkpt lat="47.13398" lon="-1.74796">
        <ele>57</ele>
        <time>2020-12-20T11:06:30.000Z</time>
      </trkpt>
      <trkpt lat="47.1339" lon="-1.74807">
        <ele>57</ele>
        <time>2020-12-20T11:06:32.000Z</time>
      </trkpt>
      <trkpt lat="47.13384" lon="-1.74821">
        <ele>58</ele>
        <time>2020-12-20T11:06:34.000Z</time>
      </trkpt>
      <trkpt lat="47.13379" lon="-1.74835">
        <ele>59</ele>
        <time>2020-12-20T11:06:36.000Z</time>
      </trkpt>
      <trkpt lat="47.13374" lon="-1.74858">
        <ele>59</ele>
        <time>2020-12-20T11:06:39.000Z</time>
      </trkpt>
      <trkpt lat="47.1337" lon="-1.74873">
        <ele>60</ele>
        <time>2020-12-20T11:06:41.000Z</time>
      </trkpt>
      <trkpt lat="47.13366" lon="-1.74888">
        <ele>60</ele>
        <time>2020-12-20T11:06:43.000Z</time>
      </trkpt>
      <trkpt lat="47.13359" lon="-1.74909">
        <ele>60</ele>
        <time>2020-12-20T11:06:46.000Z</time>
      </trkpt>
      <trkpt lat="47.13353" lon="-1.74923">
        <ele>61</ele>
        <time>2020-12-20T11:06:48.000Z</time>
      </trkpt>
      <trkpt lat="47.13345" lon="-1.74945">
        <ele>60</ele>
        <time>2020-12-20T11:06:51.000Z</time>
      </trkpt>
      <trkpt lat="47.13339" lon="-1.74959">
        <ele>60</ele>
        <time>2020-12-20T11:06:53.000Z</time>
      </trkpt>
      <trkpt lat="47.13332" lon="-1.74971">
        <ele>60</ele>
        <time>2020-12-20T11:06:55.000Z</time>
      </trkpt>
      <trkpt lat="47.13325" lon="-1.74983">
        <ele>60</ele>
        <time>2020-12-20T11:06:57.000Z</time>
      </trkpt>
      <trkpt lat="47.13317" lon="-1.74994">
        <ele>61</ele>
        <time>2020-12-20T11:06:59.000Z</time>
      </trkpt>
      <trkpt lat="47.13304" lon="-1.75008">
        <ele>62</ele>
        <time>2020-12-20T11:07:02.000Z</time>
      </trkpt>
      <trkpt lat="47.13295" lon="-1.75016">
        <ele>62</ele>
        <time>2020-12-20T11:07:04.000Z</time>
      </trkpt>
      <trkpt lat="47.13286" lon="-1.75025">
        <ele>62</ele>
        <time>2020-12-20T11:07:06.000Z</time>
      </trkpt>
      <trkpt lat="47.13277" lon="-1.75033">
        <ele>62</ele>
        <time>2020-12-20T11:07:08.000Z</time>
      </trkpt>
      <trkpt lat="47.13267" lon="-1.7504">
        <ele>63</ele>
        <time>2020-12-20T11:07:10.000Z</time>
      </trkpt>
      <trkpt lat="47.13257" lon="-1.75047">
        <ele>63</ele>
        <time>2020-12-20T11:07:12.000Z</time>
      </trkpt>
      <trkpt lat="47.13249" lon="-1.75055">
        <ele>63</ele>
        <time>2020-12-20T11:07:14.000Z</time>
      </trkpt>
      <trkpt lat="47.1324" lon="-1.75064">
        <ele>64</ele>
        <time>2020-12-20T11:07:16.000Z</time>
      </trkpt>
      <trkpt lat="47.1323" lon="-1.75072">
        <ele>65</ele>
        <time>2020-12-20T11:07:18.000Z</time>
      </trkpt>
      <trkpt lat="47.13222" lon="-1.75082">
        <ele>66</ele>
        <time>2020-12-20T11:07:20.000Z</time>
      </trkpt>
      <trkpt lat="47.13215" lon="-1.75093">
        <ele>66</ele>
        <time>2020-12-20T11:07:22.000Z</time>
      </trkpt>
      <trkpt lat="47.13208" lon="-1.75105">
        <ele>66</ele>
        <time>2020-12-20T11:07:24.000Z</time>
      </trkpt>
      <trkpt lat="47.13201" lon="-1.75117">
        <ele>66</ele>
        <time>2020-12-20T11:07:26.000Z</time>
      </trkpt>
      <trkpt lat="47.13194" lon="-1.75128">
        <ele>66</ele>
        <time>2020-12-20T11:07:28.000Z</time>
      </trkpt>
      <trkpt lat="47.13187" lon="-1.75141">
        <ele>66</ele>
        <time>2020-12-20T11:07:30.000Z</time>
      </trkpt>
      <trkpt lat="47.13181" lon="-1.75154">
        <ele>66</ele>
        <time>2020-12-20T11:07:32.000Z</time>
      </trkpt>
      <trkpt lat="47.13175" lon="-1.75167">
        <ele>66</ele>
        <time>2020-12-20T11:07:34.000Z</time>
      </trkpt>
      <trkpt lat="47.13169" lon="-1.75181">
        <ele>67</ele>
        <time>2020-12-20T11:07:36.000Z</time>
      </trkpt>
      <trkpt lat="47.13164" lon="-1.75195">
        <ele>66</ele>
        <time>2020-12-20T11:07:38.000Z</time>
      </trkpt>
      <trkpt lat="47.1316" lon="-1.7521">
        <ele>66</ele>
        <time>2020-12-20T11:07:40.000Z</time>
      </trkpt>
      <trkpt lat="47.13157" lon="-1.75226">
        <ele>66</ele>
        <time>2020-12-20T11:07:42.000Z</time>
      </trkpt>
      <trkpt lat="47.13154" lon="-1.75241">
        <ele>66</ele>
        <time>2020-12-20T11:07:44.000Z</time>
      </trkpt>
      <trkpt lat="47.13151" lon="-1.75257">
        <ele>66</ele>
        <time>2020-12-20T11:07:46.000Z</time>
      </trkpt>
      <trkpt lat="47.13149" lon="-1.75274">
        <ele>67</ele>
        <time>2020-12-20T11:07:48.000Z</time>
      </trkpt>
      <trkpt lat="47.13149" lon="-1.75291">
        <ele>67</ele>
        <time>2020-12-20T11:07:50.000Z</time>
      </trkpt>
      <trkpt lat="47.13145" lon="-1.75306">
        <ele>66</ele>
        <time>2020-12-20T11:07:52.000Z</time>
      </trkpt>
      <trkpt lat="47.1314" lon="-1.75321">
        <ele>67</ele>
        <time>2020-12-20T11:07:54.000Z</time>
      </trkpt>
      <trkpt lat="47.13135" lon="-1.75336">
        <ele>67</ele>
        <time>2020-12-20T11:07:56.000Z</time>
      </trkpt>
      <trkpt lat="47.13132" lon="-1.75351">
        <ele>68</ele>
        <time>2020-12-20T11:07:58.000Z</time>
      </trkpt>
      <trkpt lat="47.13127" lon="-1.75375">
        <ele>68</ele>
        <time>2020-12-20T11:08:01.000Z</time>
      </trkpt>
      <trkpt lat="47.13123" lon="-1.7539">
        <ele>68</ele>
        <time>2020-12-20T11:08:03.000Z</time>
      </trkpt>
      <trkpt lat="47.1312" lon="-1.75404">
        <ele>69</ele>
        <time>2020-12-20T11:08:05.000Z</time>
      </trkpt>
      <trkpt lat="47.13115" lon="-1.75417">
        <ele>71</ele>
        <time>2020-12-20T11:08:07.000Z</time>
      </trkpt>
      <trkpt lat="47.13115" lon="-1.7543">
        <ele>72</ele>
        <time>2020-12-20T11:08:09.000Z</time>
      </trkpt>
      <trkpt lat="47.13115" lon="-1.75446">
        <ele>72</ele>
        <time>2020-12-20T11:08:11.000Z</time>
      </trkpt>
      <trkpt lat="47.1311" lon="-1.75463">
        <ele>72</ele>
        <time>2020-12-20T11:08:13.000Z</time>
      </trkpt>
      <trkpt lat="47.13109" lon="-1.75479">
        <ele>72</ele>
        <time>2020-12-20T11:08:15.000Z</time>
      </trkpt>
      <trkpt lat="47.13107" lon="-1.75495">
        <ele>74</ele>
        <time>2020-12-20T11:08:17.000Z</time>
      </trkpt>
      <trkpt lat="47.13105" lon="-1.75512">
        <ele>74</ele>
        <time>2020-12-20T11:08:19.000Z</time>
      </trkpt>
      <trkpt lat="47.13103" lon="-1.75528">
        <ele>74</ele>
        <time>2020-12-20T11:08:21.000Z</time>
      </trkpt>
      <trkpt lat="47.131" lon="-1.75545">
        <ele>74</ele>
        <time>2020-12-20T11:08:23.000Z</time>
      </trkpt>
      <trkpt lat="47.13096" lon="-1.75562">
        <ele>74</ele>
        <time>2020-12-20T11:08:25.000Z</time>
      </trkpt>
      <trkpt lat="47.13093" lon="-1.75578">
        <ele>74</ele>
        <time>2020-12-20T11:08:27.000Z</time>
      </trkpt>
      <trkpt lat="47.13091" lon="-1.75594">
        <ele>74</ele>
        <time>2020-12-20T11:08:29.000Z</time>
      </trkpt>
      <trkpt lat="47.13088" lon="-1.7561">
        <ele>74</ele>
        <time>2020-12-20T11:08:31.000Z</time>
      </trkpt>
      <trkpt lat="47.13085" lon="-1.75626">
        <ele>74</ele>
        <time>2020-12-20T11:08:33.000Z</time>
      </trkpt>
      <trkpt lat="47.13082" lon="-1.75641">
        <ele>74</ele>
        <time>2020-12-20T11:08:35.000Z</time>
      </trkpt>
      <trkpt lat="47.13078" lon="-1.75658">
        <ele>74</ele>
        <time>2020-12-20T11:08:37.000Z</time>
      </trkpt>
      <trkpt lat="47.13075" lon="-1.75674">
        <ele>74</ele>
        <time>2020-12-20T11:08:39.000Z</time>
      </trkpt>
      <trkpt lat="47.1307" lon="-1.75699">
        <ele>73</ele>
        <time>2020-12-20T11:08:42.000Z</time>
      </trkpt>
      <trkpt lat="47.13066" lon="-1.75714">
        <ele>74</ele>
        <time>2020-12-20T11:08:44.000Z</time>
      </trkpt>
      <trkpt lat="47.13061" lon="-1.75729">
        <ele>74</ele>
        <time>2020-12-20T11:08:46.000Z</time>
      </trkpt>
      <trkpt lat="47.13056" lon="-1.75743">
        <ele>75</ele>
        <time>2020-12-20T11:08:48.000Z</time>
      </trkpt>
      <trkpt lat="47.13049" lon="-1.75755">
        <ele>75</ele>
        <time>2020-12-20T11:08:50.000Z</time>
      </trkpt>
      <trkpt lat="47.13042" lon="-1.75767">
        <ele>75</ele>
        <time>2020-12-20T11:08:52.000Z</time>
      </trkpt>
      <trkpt lat="47.13034" lon="-1.75778">
        <ele>76</ele>
        <time>2020-12-20T11:08:54.000Z</time>
      </trkpt>
      <trkpt lat="47.13026" lon="-1.75789">
        <ele>76</ele>
        <time>2020-12-20T11:08:56.000Z</time>
      </trkpt>
      <trkpt lat="47.13019" lon="-1.75801">
        <ele>76</ele>
        <time>2020-12-20T11:08:58.000Z</time>
      </trkpt>
      <trkpt lat="47.13012" lon="-1.75814">
        <ele>76</ele>
        <time>2020-12-20T11:09:00.000Z</time>
      </trkpt>
      <trkpt lat="47.13008" lon="-1.75829">
        <ele>76</ele>
        <time>2020-12-20T11:09:02.000Z</time>
      </trkpt>
      <trkpt lat="47.13008" lon="-1.75847">
        <ele>76</ele>
        <time>2020-12-20T11:09:04.000Z</time>
      </trkpt>
      <trkpt lat="47.13009" lon="-1.75864">
        <ele>76</ele>
        <time>2020-12-20T11:09:06.000Z</time>
      </trkpt>
      <trkpt lat="47.13009" lon="-1.75881">
        <ele>76</ele>
        <time>2020-12-20T11:09:08.000Z</time>
      </trkpt>
      <trkpt lat="47.13007" lon="-1.75897">
        <ele>76</ele>
        <time>2020-12-20T11:09:10.000Z</time>
      </trkpt>
      <trkpt lat="47.13004" lon="-1.75913">
        <ele>76</ele>
        <time>2020-12-20T11:09:12.000Z</time>
      </trkpt>
      <trkpt lat="47.12999" lon="-1.75929">
        <ele>76</ele>
        <time>2020-12-20T11:09:14.000Z</time>
      </trkpt>
      <trkpt lat="47.12996" lon="-1.75945">
        <ele>77</ele>
        <time>2020-12-20T11:09:16.000Z</time>
      </trkpt>
      <trkpt lat="47.12992" lon="-1.75961">
        <ele>78</ele>
        <time>2020-12-20T11:09:18.000Z</time>
      </trkpt>
      <trkpt lat="47.1299" lon="-1.75977">
        <ele>78</ele>
        <time>2020-12-20T11:09:20.000Z</time>
      </trkpt>
      <trkpt lat="47.12988" lon="-1.75994">
        <ele>78</ele>
        <time>2020-12-20T11:09:22.000Z</time>
      </trkpt>
      <trkpt lat="47.12986" lon="-1.7601">
        <ele>77</ele>
        <time>2020-12-20T11:09:24.000Z</time>
      </trkpt>
      <trkpt lat="47.12984" lon="-1.76026">
        <ele>78</ele>
        <time>2020-12-20T11:09:26.000Z</time>
      </trkpt>
      <trkpt lat="47.12983" lon="-1.76042">
        <ele>78</ele>
        <time>2020-12-20T11:09:28.000Z</time>
      </trkpt>
      <trkpt lat="47.12983" lon="-1.76058">
        <ele>79</ele>
        <time>2020-12-20T11:09:30.000Z</time>
      </trkpt>
      <trkpt lat="47.12983" lon="-1.76074">
        <ele>79</ele>
        <time>2020-12-20T11:09:32.000Z</time>
      </trkpt>
      <trkpt lat="47.12983" lon="-1.76091">
        <ele>79</ele>
        <time>2020-12-20T11:09:34.000Z</time>
      </trkpt>
      <trkpt lat="47.12985" lon="-1.76107">
        <ele>79</ele>
        <time>2020-12-20T11:09:36.000Z</time>
      </trkpt>
      <trkpt lat="47.12988" lon="-1.76122">
        <ele>79</ele>
        <time>2020-12-20T11:09:38.000Z</time>
      </trkpt>
      <trkpt lat="47.12992" lon="-1.76136">
        <ele>79</ele>
        <time>2020-12-20T11:09:40.000Z</time>
      </trkpt>
      <trkpt lat="47.12996" lon="-1.76151">
        <ele>79</ele>
        <time>2020-12-20T11:09:42.000Z</time>
      </trkpt>
      <trkpt lat="47.13" lon="-1.76166">
        <ele>79</ele>
        <time>2020-12-20T11:09:44.000Z</time>
      </trkpt>
      <trkpt lat="47.13004" lon="-1.76181">
        <ele>79</ele>
        <time>2020-12-20T11:09:46.000Z</time>
      </trkpt>
      <trkpt lat="47.13008" lon="-1.76196">
        <ele>79</ele>
        <time>2020-12-20T11:09:48.000Z</time>
      </trkpt>
      <trkpt lat="47.13013" lon="-1.76211">
        <ele>79</ele>
        <time>2020-12-20T11:09:50.000Z</time>
      </trkpt>
      <trkpt lat="47.13017" lon="-1.76227">
        <ele>79</ele>
        <time>2020-12-20T11:09:52.000Z</time>
      </trkpt>
      <trkpt lat="47.13021" lon="-1.76243">
        <ele>80</ele>
        <time>2020-12-20T11:09:54.000Z</time>
      </trkpt>
      <trkpt lat="47.13025" lon="-1.7626">
        <ele>80</ele>
        <time>2020-12-20T11:09:56.000Z</time>
      </trkpt>
      <trkpt lat="47.13029" lon="-1.76277">
        <ele>80</ele>
        <time>2020-12-20T11:09:58.000Z</time>
      </trkpt>
      <trkpt lat="47.13032" lon="-1.76294">
        <ele>79</ele>
        <time>2020-12-20T11:10:00.000Z</time>
      </trkpt>
      <trkpt lat="47.13035" lon="-1.76312">
        <ele>79</ele>
        <time>2020-12-20T11:10:02.000Z</time>
      </trkpt>
      <trkpt lat="47.13039" lon="-1.76329">
        <ele>79</ele>
        <time>2020-12-20T11:10:04.000Z</time>
      </trkpt>
      <trkpt lat="47.13042" lon="-1.76346">
        <ele>79</ele>
        <time>2020-12-20T11:10:06.000Z</time>
      </trkpt>
      <trkpt lat="47.13045" lon="-1.76364">
        <ele>79</ele>
        <time>2020-12-20T11:10:08.000Z</time>
      </trkpt>
      <trkpt lat="47.13048" lon="-1.76381">
        <ele>79</ele>
        <time>2020-12-20T11:10:10.000Z</time>
      </trkpt>
      <trkpt lat="47.1305" lon="-1.76398">
        <ele>79</ele>
        <time>2020-12-20T11:10:12.000Z</time>
      </trkpt>
      <trkpt lat="47.13052" lon="-1.76416">
        <ele>78</ele>
        <time>2020-12-20T11:10:14.000Z</time>
      </trkpt>
      <trkpt lat="47.13053" lon="-1.76434">
        <ele>78</ele>
        <time>2020-12-20T11:10:16.000Z</time>
      </trkpt>
      <trkpt lat="47.13054" lon="-1.76452">
        <ele>78</ele>
        <time>2020-12-20T11:10:18.000Z</time>
      </trkpt>
      <trkpt lat="47.13054" lon="-1.76471">
        <ele>78</ele>
        <time>2020-12-20T11:10:20.000Z</time>
      </trkpt>
      <trkpt lat="47.13055" lon="-1.76489">
        <ele>78</ele>
        <time>2020-12-20T11:10:22.000Z</time>
      </trkpt>
      <trkpt lat="47.13056" lon="-1.76507">
        <ele>78</ele>
        <time>2020-12-20T11:10:24.000Z</time>
      </trkpt>
      <trkpt lat="47.13057" lon="-1.76524">
        <ele>78</ele>
        <time>2020-12-20T11:10:26.000Z</time>
      </trkpt>
      <trkpt lat="47.13058" lon="-1.76542">
        <ele>78</ele>
        <time>2020-12-20T11:10:28.000Z</time>
      </trkpt>
      <trkpt lat="47.1306" lon="-1.7656">
        <ele>78</ele>
        <time>2020-12-20T11:10:30.000Z</time>
      </trkpt>
      <trkpt lat="47.13061" lon="-1.76577">
        <ele>77</ele>
        <time>2020-12-20T11:10:32.000Z</time>
      </trkpt>
      <trkpt lat="47.13063" lon="-1.76595">
        <ele>77</ele>
        <time>2020-12-20T11:10:34.000Z</time>
      </trkpt>
      <trkpt lat="47.13064" lon="-1.76613">
        <ele>77</ele>
        <time>2020-12-20T11:10:36.000Z</time>
      </trkpt>
      <trkpt lat="47.13065" lon="-1.76631">
        <ele>77</ele>
        <time>2020-12-20T11:10:38.000Z</time>
      </trkpt>
      <trkpt lat="47.13067" lon="-1.76648">
        <ele>77</ele>
        <time>2020-12-20T11:10:40.000Z</time>
      </trkpt>
      <trkpt lat="47.13069" lon="-1.76665">
        <ele>77</ele>
        <time>2020-12-20T11:10:42.000Z</time>
      </trkpt>
      <trkpt lat="47.13071" lon="-1.76682">
        <ele>77</ele>
        <time>2020-12-20T11:10:44.000Z</time>
      </trkpt>
      <trkpt lat="47.13069" lon="-1.76699">
        <ele>77</ele>
        <time>2020-12-20T11:10:46.000Z</time>
      </trkpt>
      <trkpt lat="47.13068" lon="-1.76716">
        <ele>77</ele>
        <time>2020-12-20T11:10:48.000Z</time>
      </trkpt>
      <trkpt lat="47.13066" lon="-1.76734">
        <ele>78</ele>
        <time>2020-12-20T11:10:50.000Z</time>
      </trkpt>
      <trkpt lat="47.13063" lon="-1.76751">
        <ele>78</ele>
        <time>2020-12-20T11:10:52.000Z</time>
      </trkpt>
      <trkpt lat="47.13061" lon="-1.76769">
        <ele>78</ele>
        <time>2020-12-20T11:10:54.000Z</time>
      </trkpt>
      <trkpt lat="47.13059" lon="-1.76786">
        <ele>79</ele>
        <time>2020-12-20T11:10:56.000Z</time>
      </trkpt>
      <trkpt lat="47.13056" lon="-1.76803">
        <ele>79</ele>
        <time>2020-12-20T11:10:58.000Z</time>
      </trkpt>
      <trkpt lat="47.13055" lon="-1.7682">
        <ele>79</ele>
        <time>2020-12-20T11:11:00.000Z</time>
      </trkpt>
      <trkpt lat="47.13053" lon="-1.76837">
        <ele>79</ele>
        <time>2020-12-20T11:11:02.000Z</time>
      </trkpt>
      <trkpt lat="47.1305" lon="-1.76855">
        <ele>79</ele>
        <time>2020-12-20T11:11:04.000Z</time>
      </trkpt>
      <trkpt lat="47.13048" lon="-1.76872">
        <ele>80</ele>
        <time>2020-12-20T11:11:06.000Z</time>
      </trkpt>
      <trkpt lat="47.13046" lon="-1.7689">
        <ele>80</ele>
        <time>2020-12-20T11:11:08.000Z</time>
      </trkpt>
      <trkpt lat="47.13045" lon="-1.76906">
        <ele>80</ele>
        <time>2020-12-20T11:11:10.000Z</time>
      </trkpt>
      <trkpt lat="47.13043" lon="-1.76924">
        <ele>80</ele>
        <time>2020-12-20T11:11:12.000Z</time>
      </trkpt>
      <trkpt lat="47.13042" lon="-1.7694">
        <ele>80</ele>
        <time>2020-12-20T11:11:14.000Z</time>
      </trkpt>
      <trkpt lat="47.13041" lon="-1.76958">
        <ele>80</ele>
        <time>2020-12-20T11:11:16.000Z</time>
      </trkpt>
      <trkpt lat="47.1304" lon="-1.76975">
        <ele>79</ele>
        <time>2020-12-20T11:11:18.000Z</time>
      </trkpt>
      <trkpt lat="47.13039" lon="-1.76991">
        <ele>79</ele>
        <time>2020-12-20T11:11:20.000Z</time>
      </trkpt>
      <trkpt lat="47.13038" lon="-1.77008">
        <ele>79</ele>
        <time>2020-12-20T11:11:22.000Z</time>
      </trkpt>
      <trkpt lat="47.13037" lon="-1.77025">
        <ele>79</ele>
        <time>2020-12-20T11:11:24.000Z</time>
      </trkpt>
      <trkpt lat="47.13036" lon="-1.77042">
        <ele>79</ele>
        <time>2020-12-20T11:11:26.000Z</time>
      </trkpt>
      <trkpt lat="47.13035" lon="-1.77058">
        <ele>79</ele>
        <time>2020-12-20T11:11:28.000Z</time>
      </trkpt>
      <trkpt lat="47.13033" lon="-1.77076">
        <ele>79</ele>
        <time>2020-12-20T11:11:30.000Z</time>
      </trkpt>
      <trkpt lat="47.13031" lon="-1.77092">
        <ele>79</ele>
        <time>2020-12-20T11:11:32.000Z</time>
      </trkpt>
      <trkpt lat="47.13029" lon="-1.77109">
        <ele>79</ele>
        <time>2020-12-20T11:11:34.000Z</time>
      </trkpt>
      <trkpt lat="47.13027" lon="-1.77125">
        <ele>79</ele>
        <time>2020-12-20T11:11:36.000Z</time>
      </trkpt>
      <trkpt lat="47.13025" lon="-1.77141">
        <ele>79</ele>
        <time>2020-12-20T11:11:38.000Z</time>
      </trkpt>
      <trkpt lat="47.13022" lon="-1.77157">
        <ele>79</ele>
        <time>2020-12-20T11:11:40.000Z</time>
      </trkpt>
      <trkpt lat="47.13019" lon="-1.77174">
        <ele>79</ele>
        <time>2020-12-20T11:11:42.000Z</time>
      </trkpt>
      <trkpt lat="47.13015" lon="-1.77189">
        <ele>79</ele>
        <time>2020-12-20T11:11:44.000Z</time>
      </trkpt>
      <trkpt lat="47.13012" lon="-1.77205">
        <ele>80</ele>
        <time>2020-12-20T11:11:46.000Z</time>
      </trkpt>
      <trkpt lat="47.13008" lon="-1.7722">
        <ele>80</ele>
        <time>2020-12-20T11:11:48.000Z</time>
      </trkpt>
      <trkpt lat="47.13003" lon="-1.77235">
        <ele>80</ele>
        <time>2020-12-20T11:11:50.000Z</time>
      </trkpt>
      <trkpt lat="47.12999" lon="-1.77251">
        <ele>81</ele>
        <time>2020-12-20T11:11:52.000Z</time>
      </trkpt>
      <trkpt lat="47.12995" lon="-1.77267">
        <ele>81</ele>
        <time>2020-12-20T11:11:54.000Z</time>
      </trkpt>
      <trkpt lat="47.12989" lon="-1.77282">
        <ele>81</ele>
        <time>2020-12-20T11:11:56.000Z</time>
      </trkpt>
      <trkpt lat="47.12984" lon="-1.77298">
        <ele>81</ele>
        <time>2020-12-20T11:11:58.000Z</time>
      </trkpt>
      <trkpt lat="47.12979" lon="-1.77313">
        <ele>81</ele>
        <time>2020-12-20T11:12:00.000Z</time>
      </trkpt>
      <trkpt lat="47.12973" lon="-1.77329">
        <ele>81</ele>
        <time>2020-12-20T11:12:02.000Z</time>
      </trkpt>
      <trkpt lat="47.12967" lon="-1.77344">
        <ele>81</ele>
        <time>2020-12-20T11:12:04.000Z</time>
      </trkpt>
      <trkpt lat="47.12961" lon="-1.7736">
        <ele>82</ele>
        <time>2020-12-20T11:12:06.000Z</time>
      </trkpt>
      <trkpt lat="47.12954" lon="-1.77375">
        <ele>81</ele>
        <time>2020-12-20T11:12:08.000Z</time>
      </trkpt>
      <trkpt lat="47.12948" lon="-1.7739">
        <ele>82</ele>
        <time>2020-12-20T11:12:10.000Z</time>
      </trkpt>
      <trkpt lat="47.12942" lon="-1.77406">
        <ele>82</ele>
        <time>2020-12-20T11:12:12.000Z</time>
      </trkpt>
      <trkpt lat="47.12935" lon="-1.7742">
        <ele>83</ele>
        <time>2020-12-20T11:12:14.000Z</time>
      </trkpt>
      <trkpt lat="47.12929" lon="-1.77434">
        <ele>83</ele>
        <time>2020-12-20T11:12:16.000Z</time>
      </trkpt>
      <trkpt lat="47.12924" lon="-1.7745">
        <ele>83</ele>
        <time>2020-12-20T11:12:18.000Z</time>
      </trkpt>
      <trkpt lat="47.12919" lon="-1.77466">
        <ele>83</ele>
        <time>2020-12-20T11:12:20.000Z</time>
      </trkpt>
      <trkpt lat="47.12915" lon="-1.77482">
        <ele>83</ele>
        <time>2020-12-20T11:12:22.000Z</time>
      </trkpt>
      <trkpt lat="47.12911" lon="-1.77497">
        <ele>83</ele>
        <time>2020-12-20T11:12:24.000Z</time>
      </trkpt>
      <trkpt lat="47.12907" lon="-1.77513">
        <ele>83</ele>
        <time>2020-12-20T11:12:26.000Z</time>
      </trkpt>
      <trkpt lat="47.12903" lon="-1.77529">
        <ele>83</ele>
        <time>2020-12-20T11:12:28.000Z</time>
      </trkpt>
      <trkpt lat="47.129" lon="-1.77544">
        <ele>83</ele>
        <time>2020-12-20T11:12:30.000Z</time>
      </trkpt>
      <trkpt lat="47.12896" lon="-1.7756">
        <ele>82</ele>
        <time>2020-12-20T11:12:32.000Z</time>
      </trkpt>
      <trkpt lat="47.12892" lon="-1.77576">
        <ele>82</ele>
        <time>2020-12-20T11:12:34.000Z</time>
      </trkpt>
      <trkpt lat="47.12889" lon="-1.77591">
        <ele>81</ele>
        <time>2020-12-20T11:12:36.000Z</time>
      </trkpt>
      <trkpt lat="47.12886" lon="-1.77607">
        <ele>81</ele>
        <time>2020-12-20T11:12:38.000Z</time>
      </trkpt>
      <trkpt lat="47.12882" lon="-1.77623">
        <ele>80</ele>
        <time>2020-12-20T11:12:40.000Z</time>
      </trkpt>
      <trkpt lat="47.12878" lon="-1.77638">
        <ele>80</ele>
        <time>2020-12-20T11:12:42.000Z</time>
      </trkpt>
      <trkpt lat="47.12875" lon="-1.77653">
        <ele>80</ele>
        <time>2020-12-20T11:12:44.000Z</time>
      </trkpt>
      <trkpt lat="47.12871" lon="-1.77669">
        <ele>80</ele>
        <time>2020-12-20T11:12:46.000Z</time>
      </trkpt>
      <trkpt lat="47.12867" lon="-1.77684">
        <ele>80</ele>
        <time>2020-12-20T11:12:48.000Z</time>
      </trkpt>
      <trkpt lat="47.12863" lon="-1.77701">
        <ele>80</ele>
        <time>2020-12-20T11:12:50.000Z</time>
      </trkpt>
      <trkpt lat="47.12858" lon="-1.77718">
        <ele>80</ele>
        <time>2020-12-20T11:12:52.000Z</time>
      </trkpt>
      <trkpt lat="47.12854" lon="-1.77735">
        <ele>80</ele>
        <time>2020-12-20T11:12:54.000Z</time>
      </trkpt>
      <trkpt lat="47.12849" lon="-1.77751">
        <ele>80</ele>
        <time>2020-12-20T11:12:56.000Z</time>
      </trkpt>
      <trkpt lat="47.12843" lon="-1.77768">
        <ele>80</ele>
        <time>2020-12-20T11:12:58.000Z</time>
      </trkpt>
      <trkpt lat="47.12838" lon="-1.77785">
        <ele>81</ele>
        <time>2020-12-20T11:13:00.000Z</time>
      </trkpt>
      <trkpt lat="47.12831" lon="-1.77801">
        <ele>80</ele>
        <time>2020-12-20T11:13:02.000Z</time>
      </trkpt>
      <trkpt lat="47.12824" lon="-1.77817">
        <ele>81</ele>
        <time>2020-12-20T11:13:04.000Z</time>
      </trkpt>
      <trkpt lat="47.12818" lon="-1.77833">
        <ele>81</ele>
        <time>2020-12-20T11:13:06.000Z</time>
      </trkpt>
      <trkpt lat="47.12811" lon="-1.77848">
        <ele>81</ele>
        <time>2020-12-20T11:13:08.000Z</time>
      </trkpt>
      <trkpt lat="47.12805" lon="-1.77863">
        <ele>81</ele>
        <time>2020-12-20T11:13:10.000Z</time>
      </trkpt>
      <trkpt lat="47.12801" lon="-1.77878">
        <ele>82</ele>
        <time>2020-12-20T11:13:12.000Z</time>
      </trkpt>
      <trkpt lat="47.12796" lon="-1.77893">
        <ele>82</ele>
        <time>2020-12-20T11:13:14.000Z</time>
      </trkpt>
      <trkpt lat="47.12791" lon="-1.77909">
        <ele>82</ele>
        <time>2020-12-20T11:13:16.000Z</time>
      </trkpt>
      <trkpt lat="47.12787" lon="-1.77925">
        <ele>82</ele>
        <time>2020-12-20T11:13:18.000Z</time>
      </trkpt>
      <trkpt lat="47.12783" lon="-1.77941">
        <ele>82</ele>
        <time>2020-12-20T11:13:20.000Z</time>
      </trkpt>
      <trkpt lat="47.12778" lon="-1.77957">
        <ele>81</ele>
        <time>2020-12-20T11:13:22.000Z</time>
      </trkpt>
      <trkpt lat="47.12774" lon="-1.77973">
        <ele>81</ele>
        <time>2020-12-20T11:13:24.000Z</time>
      </trkpt>
      <trkpt lat="47.1277" lon="-1.77989">
        <ele>81</ele>
        <time>2020-12-20T11:13:26.000Z</time>
      </trkpt>
      <trkpt lat="47.12765" lon="-1.78004">
        <ele>81</ele>
        <time>2020-12-20T11:13:28.000Z</time>
      </trkpt>
      <trkpt lat="47.1276" lon="-1.7802">
        <ele>81</ele>
        <time>2020-12-20T11:13:30.000Z</time>
      </trkpt>
      <trkpt lat="47.12755" lon="-1.78035">
        <ele>81</ele>
        <time>2020-12-20T11:13:32.000Z</time>
      </trkpt>
      <trkpt lat="47.12749" lon="-1.7805">
        <ele>81</ele>
        <time>2020-12-20T11:13:34.000Z</time>
      </trkpt>
      <trkpt lat="47.12741" lon="-1.78063">
        <ele>81</ele>
        <time>2020-12-20T11:13:36.000Z</time>
      </trkpt>
      <trkpt lat="47.12733" lon="-1.78076">
        <ele>81</ele>
        <time>2020-12-20T11:13:38.000Z</time>
      </trkpt>
      <trkpt lat="47.12724" lon="-1.78088">
        <ele>81</ele>
        <time>2020-12-20T11:13:40.000Z</time>
      </trkpt>
      <trkpt lat="47.12715" lon="-1.781">
        <ele>81</ele>
        <time>2020-12-20T11:13:42.000Z</time>
      </trkpt>
      <trkpt lat="47.12707" lon="-1.78112">
        <ele>81</ele>
        <time>2020-12-20T11:13:44.000Z</time>
      </trkpt>
      <trkpt lat="47.12698" lon="-1.78124">
        <ele>81</ele>
        <time>2020-12-20T11:13:46.000Z</time>
      </trkpt>
      <trkpt lat="47.1269" lon="-1.78137">
        <ele>81</ele>
        <time>2020-12-20T11:13:48.000Z</time>
      </trkpt>
      <trkpt lat="47.12681" lon="-1.78149">
        <ele>82</ele>
        <time>2020-12-20T11:13:50.000Z</time>
      </trkpt>
      <trkpt lat="47.12673" lon="-1.78161">
        <ele>82</ele>
        <time>2020-12-20T11:13:52.000Z</time>
      </trkpt>
      <trkpt lat="47.12664" lon="-1.78173">
        <ele>82</ele>
        <time>2020-12-20T11:13:54.000Z</time>
      </trkpt>
      <trkpt lat="47.12656" lon="-1.78184">
        <ele>81</ele>
        <time>2020-12-20T11:13:56.000Z</time>
      </trkpt>
      <trkpt lat="47.12648" lon="-1.78195">
        <ele>81</ele>
        <time>2020-12-20T11:13:58.000Z</time>
      </trkpt>
      <trkpt lat="47.1264" lon="-1.78207">
        <ele>81</ele>
        <time>2020-12-20T11:14:00.000Z</time>
      </trkpt>
      <trkpt lat="47.12633" lon="-1.7822">
        <ele>81</ele>
        <time>2020-12-20T11:14:02.000Z</time>
      </trkpt>
      <trkpt lat="47.12627" lon="-1.78234">
        <ele>80</ele>
        <time>2020-12-20T11:14:04.000Z</time>
      </trkpt>
      <trkpt lat="47.12623" lon="-1.7825">
        <ele>80</ele>
        <time>2020-12-20T11:14:06.000Z</time>
      </trkpt>
      <trkpt lat="47.12618" lon="-1.78267">
        <ele>80</ele>
        <time>2020-12-20T11:14:08.000Z</time>
      </trkpt>
      <trkpt lat="47.12614" lon="-1.78283">
        <ele>79</ele>
        <time>2020-12-20T11:14:10.000Z</time>
      </trkpt>
      <trkpt lat="47.1261" lon="-1.78299">
        <ele>79</ele>
        <time>2020-12-20T11:14:12.000Z</time>
      </trkpt>
      <trkpt lat="47.12607" lon="-1.78316">
        <ele>78</ele>
        <time>2020-12-20T11:14:14.000Z</time>
      </trkpt>
      <trkpt lat="47.12603" lon="-1.78332">
        <ele>78</ele>
        <time>2020-12-20T11:14:16.000Z</time>
      </trkpt>
      <trkpt lat="47.12599" lon="-1.78348">
        <ele>78</ele>
        <time>2020-12-20T11:14:18.000Z</time>
      </trkpt>
      <trkpt lat="47.12596" lon="-1.78365">
        <ele>78</ele>
        <time>2020-12-20T11:14:20.000Z</time>
      </trkpt>
      <trkpt lat="47.12592" lon="-1.78382">
        <ele>78</ele>
        <time>2020-12-20T11:14:22.000Z</time>
      </trkpt>
      <trkpt lat="47.12588" lon="-1.78398">
        <ele>78</ele>
        <time>2020-12-20T11:14:24.000Z</time>
      </trkpt>
      <trkpt lat="47.12584" lon="-1.78415">
        <ele>78</ele>
        <time>2020-12-20T11:14:26.000Z</time>
      </trkpt>
      <trkpt lat="47.1258" lon="-1.78431">
        <ele>78</ele>
        <time>2020-12-20T11:14:28.000Z</time>
      </trkpt>
      <trkpt lat="47.12576" lon="-1.78447">
        <ele>78</ele>
        <time>2020-12-20T11:14:30.000Z</time>
      </trkpt>
      <trkpt lat="47.12572" lon="-1.78465">
        <ele>77</ele>
        <time>2020-12-20T11:14:32.000Z</time>
      </trkpt>
      <trkpt lat="47.12567" lon="-1.78482">
        <ele>77</ele>
        <time>2020-12-20T11:14:34.000Z</time>
      </trkpt>
      <trkpt lat="47.12563" lon="-1.785">
        <ele>77</ele>
        <time>2020-12-20T11:14:36.000Z</time>
      </trkpt>
      <trkpt lat="47.1256" lon="-1.78517">
        <ele>77</ele>
        <time>2020-12-20T11:14:38.000Z</time>
      </trkpt>
      <trkpt lat="47.12556" lon="-1.78534">
        <ele>77</ele>
        <time>2020-12-20T11:14:40.000Z</time>
      </trkpt>
      <trkpt lat="47.12552" lon="-1.78551">
        <ele>76</ele>
        <time>2020-12-20T11:14:42.000Z</time>
      </trkpt>
      <trkpt lat="47.12548" lon="-1.78568">
        <ele>76</ele>
        <time>2020-12-20T11:14:44.000Z</time>
      </trkpt>
      <trkpt lat="47.12543" lon="-1.78585">
        <ele>76</ele>
        <time>2020-12-20T11:14:46.000Z</time>
      </trkpt>
      <trkpt lat="47.12539" lon="-1.78601">
        <ele>76</ele>
        <time>2020-12-20T11:14:48.000Z</time>
      </trkpt>
      <trkpt lat="47.12534" lon="-1.78618">
        <ele>76</ele>
        <time>2020-12-20T11:14:50.000Z</time>
      </trkpt>
      <trkpt lat="47.12529" lon="-1.78634">
        <ele>76</ele>
        <time>2020-12-20T11:14:52.000Z</time>
      </trkpt>
      <trkpt lat="47.12524" lon="-1.7865">
        <ele>76</ele>
        <time>2020-12-20T11:14:54.000Z</time>
      </trkpt>
      <trkpt lat="47.12519" lon="-1.78665">
        <ele>76</ele>
        <time>2020-12-20T11:14:56.000Z</time>
      </trkpt>
      <trkpt lat="47.12513" lon="-1.7868">
        <ele>76</ele>
        <time>2020-12-20T11:14:58.000Z</time>
      </trkpt>
      <trkpt lat="47.12508" lon="-1.78695">
        <ele>76</ele>
        <time>2020-12-20T11:15:00.000Z</time>
      </trkpt>
      <trkpt lat="47.12502" lon="-1.78711">
        <ele>76</ele>
        <time>2020-12-20T11:15:02.000Z</time>
      </trkpt>
      <trkpt lat="47.12498" lon="-1.78727">
        <ele>77</ele>
        <time>2020-12-20T11:15:04.000Z</time>
      </trkpt>
      <trkpt lat="47.12493" lon="-1.78743">
        <ele>77</ele>
        <time>2020-12-20T11:15:06.000Z</time>
      </trkpt>
      <trkpt lat="47.12489" lon="-1.78759">
        <ele>77</ele>
        <time>2020-12-20T11:15:08.000Z</time>
      </trkpt>
      <trkpt lat="47.12485" lon="-1.78776">
        <ele>77</ele>
        <time>2020-12-20T11:15:10.000Z</time>
      </trkpt>
      <trkpt lat="47.12482" lon="-1.7879">
        <ele>77</ele>
        <time>2020-12-20T11:15:12.000Z</time>
      </trkpt>
      <trkpt lat="47.12478" lon="-1.78806">
        <ele>76</ele>
        <time>2020-12-20T11:15:14.000Z</time>
      </trkpt>
      <trkpt lat="47.12475" lon="-1.78821">
        <ele>76</ele>
        <time>2020-12-20T11:15:16.000Z</time>
      </trkpt>
      <trkpt lat="47.12472" lon="-1.78837">
        <ele>77</ele>
        <time>2020-12-20T11:15:18.000Z</time>
      </trkpt>
      <trkpt lat="47.1247" lon="-1.78854">
        <ele>76</ele>
        <time>2020-12-20T11:15:20.000Z</time>
      </trkpt>
      <trkpt lat="47.12468" lon="-1.78872">
        <ele>75</ele>
        <time>2020-12-20T11:15:22.000Z</time>
      </trkpt>
      <trkpt lat="47.12467" lon="-1.78889">
        <ele>75</ele>
        <time>2020-12-20T11:15:24.000Z</time>
      </trkpt>
      <trkpt lat="47.12466" lon="-1.78907">
        <ele>76</ele>
        <time>2020-12-20T11:15:26.000Z</time>
      </trkpt>
      <trkpt lat="47.12463" lon="-1.78924">
        <ele>75</ele>
        <time>2020-12-20T11:15:28.000Z</time>
      </trkpt>
      <trkpt lat="47.1246" lon="-1.7894">
        <ele>76</ele>
        <time>2020-12-20T11:15:30.000Z</time>
      </trkpt>
      <trkpt lat="47.12457" lon="-1.78957">
        <ele>76</ele>
        <time>2020-12-20T11:15:32.000Z</time>
      </trkpt>
      <trkpt lat="47.12452" lon="-1.78974">
        <ele>76</ele>
        <time>2020-12-20T11:15:34.000Z</time>
      </trkpt>
      <trkpt lat="47.12448" lon="-1.7899">
        <ele>76</ele>
        <time>2020-12-20T11:15:36.000Z</time>
      </trkpt>
      <trkpt lat="47.12444" lon="-1.79006">
        <ele>76</ele>
        <time>2020-12-20T11:15:38.000Z</time>
      </trkpt>
      <trkpt lat="47.12439" lon="-1.79022">
        <ele>75</ele>
        <time>2020-12-20T11:15:40.000Z</time>
      </trkpt>
      <trkpt lat="47.12435" lon="-1.79038">
        <ele>75</ele>
        <time>2020-12-20T11:15:42.000Z</time>
      </trkpt>
      <trkpt lat="47.12432" lon="-1.79055">
        <ele>75</ele>
        <time>2020-12-20T11:15:44.000Z</time>
      </trkpt>
      <trkpt lat="47.12428" lon="-1.79071">
        <ele>75</ele>
        <time>2020-12-20T11:15:46.000Z</time>
      </trkpt>
      <trkpt lat="47.12425" lon="-1.79087">
        <ele>75</ele>
        <time>2020-12-20T11:15:48.000Z</time>
      </trkpt>
      <trkpt lat="47.12422" lon="-1.79104">
        <ele>75</ele>
        <time>2020-12-20T11:15:50.000Z</time>
      </trkpt>
      <trkpt lat="47.12419" lon="-1.7912">
        <ele>75</ele>
        <time>2020-12-20T11:15:52.000Z</time>
      </trkpt>
      <trkpt lat="47.12417" lon="-1.79136">
        <ele>75</ele>
        <time>2020-12-20T11:15:54.000Z</time>
      </trkpt>
      <trkpt lat="47.12417" lon="-1.79153">
        <ele>75</ele>
        <time>2020-12-20T11:15:56.000Z</time>
      </trkpt>
      <trkpt lat="47.12418" lon="-1.79169">
        <ele>75</ele>
        <time>2020-12-20T11:15:58.000Z</time>
      </trkpt>
      <trkpt lat="47.1242" lon="-1.79185">
        <ele>75</ele>
        <time>2020-12-20T11:16:00.000Z</time>
      </trkpt>
      <trkpt lat="47.12422" lon="-1.79201">
        <ele>74</ele>
        <time>2020-12-20T11:16:02.000Z</time>
      </trkpt>
      <trkpt lat="47.12423" lon="-1.79218">
        <ele>75</ele>
        <time>2020-12-20T11:16:04.000Z</time>
      </trkpt>
      <trkpt lat="47.12424" lon="-1.79235">
        <ele>75</ele>
        <time>2020-12-20T11:16:06.000Z</time>
      </trkpt>
      <trkpt lat="47.12424" lon="-1.79251">
        <ele>75</ele>
        <time>2020-12-20T11:16:08.000Z</time>
      </trkpt>
      <trkpt lat="47.12422" lon="-1.79267">
        <ele>75</ele>
        <time>2020-12-20T11:16:10.000Z</time>
      </trkpt>
      <trkpt lat="47.12418" lon="-1.79282">
        <ele>75</ele>
        <time>2020-12-20T11:16:12.000Z</time>
      </trkpt>
      <trkpt lat="47.12412" lon="-1.79297">
        <ele>75</ele>
        <time>2020-12-20T11:16:14.000Z</time>
      </trkpt>
      <trkpt lat="47.12406" lon="-1.7931">
        <ele>75</ele>
        <time>2020-12-20T11:16:16.000Z</time>
      </trkpt>
      <trkpt lat="47.124" lon="-1.79324">
        <ele>75</ele>
        <time>2020-12-20T11:16:18.000Z</time>
      </trkpt>
      <trkpt lat="47.12393" lon="-1.79338">
        <ele>75</ele>
        <time>2020-12-20T11:16:20.000Z</time>
      </trkpt>
      <trkpt lat="47.12386" lon="-1.79352">
        <ele>75</ele>
        <time>2020-12-20T11:16:22.000Z</time>
      </trkpt>
      <trkpt lat="47.1238" lon="-1.79366">
        <ele>75</ele>
        <time>2020-12-20T11:16:24.000Z</time>
      </trkpt>
      <trkpt lat="47.12374" lon="-1.7938">
        <ele>76</ele>
        <time>2020-12-20T11:16:26.000Z</time>
      </trkpt>
      <trkpt lat="47.12369" lon="-1.79394">
        <ele>76</ele>
        <time>2020-12-20T11:16:28.000Z</time>
      </trkpt>
      <trkpt lat="47.12364" lon="-1.79409">
        <ele>76</ele>
        <time>2020-12-20T11:16:30.000Z</time>
      </trkpt>
      <trkpt lat="47.12358" lon="-1.79423">
        <ele>75</ele>
        <time>2020-12-20T11:16:32.000Z</time>
      </trkpt>
      <trkpt lat="47.12354" lon="-1.79439">
        <ele>75</ele>
        <time>2020-12-20T11:16:34.000Z</time>
      </trkpt>
      <trkpt lat="47.12351" lon="-1.79455">
        <ele>75</ele>
        <time>2020-12-20T11:16:36.000Z</time>
      </trkpt>
      <trkpt lat="47.12349" lon="-1.79471">
        <ele>75</ele>
        <time>2020-12-20T11:16:38.000Z</time>
      </trkpt>
      <trkpt lat="47.12346" lon="-1.79488">
        <ele>75</ele>
        <time>2020-12-20T11:16:40.000Z</time>
      </trkpt>
      <trkpt lat="47.12343" lon="-1.79504">
        <ele>74</ele>
        <time>2020-12-20T11:16:42.000Z</time>
      </trkpt>
      <trkpt lat="47.12341" lon="-1.79522">
        <ele>74</ele>
        <time>2020-12-20T11:16:44.000Z</time>
      </trkpt>
      <trkpt lat="47.12338" lon="-1.79538">
        <ele>75</ele>
        <time>2020-12-20T11:16:46.000Z</time>
      </trkpt>
      <trkpt lat="47.12336" lon="-1.79554">
        <ele>75</ele>
        <time>2020-12-20T11:16:48.000Z</time>
      </trkpt>
      <trkpt lat="47.12332" lon="-1.7957">
        <ele>75</ele>
        <time>2020-12-20T11:16:50.000Z</time>
      </trkpt>
      <trkpt lat="47.12328" lon="-1.79584">
        <ele>75</ele>
        <time>2020-12-20T11:16:52.000Z</time>
      </trkpt>
      <trkpt lat="47.1232" lon="-1.79594">
        <ele>75</ele>
        <time>2020-12-20T11:16:54.000Z</time>
      </trkpt>
      <trkpt lat="47.12309" lon="-1.79598">
        <ele>75</ele>
        <time>2020-12-20T11:16:56.000Z</time>
      </trkpt>
      <trkpt lat="47.12299" lon="-1.79599">
        <ele>75</ele>
        <time>2020-12-20T11:16:58.000Z</time>
      </trkpt>
      <trkpt lat="47.12288" lon="-1.79599">
        <ele>75</ele>
        <time>2020-12-20T11:17:00.000Z</time>
      </trkpt>
      <trkpt lat="47.12277" lon="-1.79598">
        <ele>75</ele>
        <time>2020-12-20T11:17:02.000Z</time>
      </trkpt>
      <trkpt lat="47.12266" lon="-1.79597">
        <ele>75</ele>
        <time>2020-12-20T11:17:04.000Z</time>
      </trkpt>
      <trkpt lat="47.12255" lon="-1.79597">
        <ele>74</ele>
        <time>2020-12-20T11:17:06.000Z</time>
      </trkpt>
      <trkpt lat="47.12244" lon="-1.79596">
        <ele>74</ele>
        <time>2020-12-20T11:17:08.000Z</time>
      </trkpt>
      <trkpt lat="47.12233" lon="-1.79596">
        <ele>74</ele>
        <time>2020-12-20T11:17:10.000Z</time>
      </trkpt>
      <trkpt lat="47.12222" lon="-1.79596">
        <ele>74</ele>
        <time>2020-12-20T11:17:12.000Z</time>
      </trkpt>
      <trkpt lat="47.12211" lon="-1.79595">
        <ele>74</ele>
        <time>2020-12-20T11:17:14.000Z</time>
      </trkpt>
      <trkpt lat="47.122" lon="-1.79595">
        <ele>73</ele>
        <time>2020-12-20T11:17:16.000Z</time>
      </trkpt>
      <trkpt lat="47.1219" lon="-1.79595">
        <ele>73</ele>
        <time>2020-12-20T11:17:18.000Z</time>
      </trkpt>
      <trkpt lat="47.12178" lon="-1.79595">
        <ele>73</ele>
        <time>2020-12-20T11:17:20.000Z</time>
      </trkpt>
      <trkpt lat="47.12168" lon="-1.79596">
        <ele>73</ele>
        <time>2020-12-20T11:17:22.000Z</time>
      </trkpt>
      <trkpt lat="47.12157" lon="-1.79597">
        <ele>73</ele>
        <time>2020-12-20T11:17:24.000Z</time>
      </trkpt>
      <trkpt lat="47.12145" lon="-1.79597">
        <ele>73</ele>
        <time>2020-12-20T11:17:26.000Z</time>
      </trkpt>
      <trkpt lat="47.12134" lon="-1.79597">
        <ele>73</ele>
        <time>2020-12-20T11:17:28.000Z</time>
      </trkpt>
      <trkpt lat="47.12122" lon="-1.79598">
        <ele>73</ele>
        <time>2020-12-20T11:17:30.000Z</time>
      </trkpt>
      <trkpt lat="47.1211" lon="-1.796">
        <ele>73</ele>
        <time>2020-12-20T11:17:32.000Z</time>
      </trkpt>
      <trkpt lat="47.12099" lon="-1.79602">
        <ele>73</ele>
        <time>2020-12-20T11:17:34.000Z</time>
      </trkpt>
      <trkpt lat="47.12088" lon="-1.7961">
        <ele>72</ele>
        <time>2020-12-20T11:17:36.000Z</time>
      </trkpt>
      <trkpt lat="47.12078" lon="-1.79619">
        <ele>72</ele>
        <time>2020-12-20T11:17:38.000Z</time>
      </trkpt>
      <trkpt lat="47.12067" lon="-1.79629">
        <ele>72</ele>
        <time>2020-12-20T11:17:40.000Z</time>
      </trkpt>
      <trkpt lat="47.12058" lon="-1.7964">
        <ele>72</ele>
        <time>2020-12-20T11:17:42.000Z</time>
      </trkpt>
      <trkpt lat="47.12048" lon="-1.7965">
        <ele>72</ele>
        <time>2020-12-20T11:17:44.000Z</time>
      </trkpt>
      <trkpt lat="47.12038" lon="-1.79659">
        <ele>71</ele>
        <time>2020-12-20T11:17:46.000Z</time>
      </trkpt>
      <trkpt lat="47.12027" lon="-1.79669">
        <ele>71</ele>
        <time>2020-12-20T11:17:48.000Z</time>
      </trkpt>
      <trkpt lat="47.12017" lon="-1.79679">
        <ele>71</ele>
        <time>2020-12-20T11:17:50.000Z</time>
      </trkpt>
      <trkpt lat="47.12007" lon="-1.7969">
        <ele>71</ele>
        <time>2020-12-20T11:17:52.000Z</time>
      </trkpt>
      <trkpt lat="47.11997" lon="-1.797">
        <ele>71</ele>
        <time>2020-12-20T11:17:54.000Z</time>
      </trkpt>
      <trkpt lat="47.11987" lon="-1.79709">
        <ele>71</ele>
        <time>2020-12-20T11:17:56.000Z</time>
      </trkpt>
      <trkpt lat="47.11978" lon="-1.7972">
        <ele>70</ele>
        <time>2020-12-20T11:17:58.000Z</time>
      </trkpt>
      <trkpt lat="47.11968" lon="-1.79731">
        <ele>71</ele>
        <time>2020-12-20T11:18:00.000Z</time>
      </trkpt>
      <trkpt lat="47.11959" lon="-1.79742">
        <ele>71</ele>
        <time>2020-12-20T11:18:02.000Z</time>
      </trkpt>
      <trkpt lat="47.1195" lon="-1.79754">
        <ele>71</ele>
        <time>2020-12-20T11:18:04.000Z</time>
      </trkpt>
      <trkpt lat="47.11941" lon="-1.79766">
        <ele>71</ele>
        <time>2020-12-20T11:18:06.000Z</time>
      </trkpt>
      <trkpt lat="47.11932" lon="-1.79777">
        <ele>71</ele>
        <time>2020-12-20T11:18:08.000Z</time>
      </trkpt>
      <trkpt lat="47.11922" lon="-1.79788">
        <ele>71</ele>
        <time>2020-12-20T11:18:10.000Z</time>
      </trkpt>
      <trkpt lat="47.11913" lon="-1.798">
        <ele>70</ele>
        <time>2020-12-20T11:18:12.000Z</time>
      </trkpt>
      <trkpt lat="47.11904" lon="-1.79811">
        <ele>70</ele>
        <time>2020-12-20T11:18:14.000Z</time>
      </trkpt>
      <trkpt lat="47.11895" lon="-1.79821">
        <ele>70</ele>
        <time>2020-12-20T11:18:16.000Z</time>
      </trkpt>
      <trkpt lat="47.11885" lon="-1.79833">
        <ele>70</ele>
        <time>2020-12-20T11:18:18.000Z</time>
      </trkpt>
      <trkpt lat="47.11876" lon="-1.79843">
        <ele>70</ele>
        <time>2020-12-20T11:18:20.000Z</time>
      </trkpt>
      <trkpt lat="47.11866" lon="-1.79853">
        <ele>70</ele>
        <time>2020-12-20T11:18:22.000Z</time>
      </trkpt>
      <trkpt lat="47.11856" lon="-1.79864">
        <ele>70</ele>
        <time>2020-12-20T11:18:24.000Z</time>
      </trkpt>
      <trkpt lat="47.11848" lon="-1.79874">
        <ele>70</ele>
        <time>2020-12-20T11:18:26.000Z</time>
      </trkpt>
      <trkpt lat="47.11838" lon="-1.79884">
        <ele>70</ele>
        <time>2020-12-20T11:18:28.000Z</time>
      </trkpt>
      <trkpt lat="47.1183" lon="-1.79894">
        <ele>70</ele>
        <time>2020-12-20T11:18:30.000Z</time>
      </trkpt>
      <trkpt lat="47.11821" lon="-1.79905">
        <ele>70</ele>
        <time>2020-12-20T11:18:32.000Z</time>
      </trkpt>
      <trkpt lat="47.11811" lon="-1.79915">
        <ele>70</ele>
        <time>2020-12-20T11:18:34.000Z</time>
      </trkpt>
      <trkpt lat="47.11802" lon="-1.79924">
        <ele>69</ele>
        <time>2020-12-20T11:18:36.000Z</time>
      </trkpt>
      <trkpt lat="47.11793" lon="-1.79934">
        <ele>69</ele>
        <time>2020-12-20T11:18:38.000Z</time>
      </trkpt>
      <trkpt lat="47.11784" lon="-1.79943">
        <ele>69</ele>
        <time>2020-12-20T11:18:40.000Z</time>
      </trkpt>
      <trkpt lat="47.11776" lon="-1.79952">
        <ele>70</ele>
        <time>2020-12-20T11:18:42.000Z</time>
      </trkpt>
      <trkpt lat="47.11769" lon="-1.79962">
        <ele>69</ele>
        <time>2020-12-20T11:18:44.000Z</time>
      </trkpt>
      <trkpt lat="47.11761" lon="-1.79973">
        <ele>70</ele>
        <time>2020-12-20T11:18:47.000Z</time>
      </trkpt>
      <trkpt lat="47.11748" lon="-1.79979">
        <ele>70</ele>
        <time>2020-12-20T11:18:50.000Z</time>
      </trkpt>
      <trkpt lat="47.11738" lon="-1.79978">
        <ele>70</ele>
        <time>2020-12-20T11:18:52.000Z</time>
      </trkpt>
      <trkpt lat="47.11726" lon="-1.79976">
        <ele>69</ele>
        <time>2020-12-20T11:18:54.000Z</time>
      </trkpt>
      <trkpt lat="47.11713" lon="-1.79974">
        <ele>70</ele>
        <time>2020-12-20T11:18:56.000Z</time>
      </trkpt>
      <trkpt lat="47.117" lon="-1.79971">
        <ele>70</ele>
        <time>2020-12-20T11:18:58.000Z</time>
      </trkpt>
      <trkpt lat="47.11688" lon="-1.79969">
        <ele>70</ele>
        <time>2020-12-20T11:19:00.000Z</time>
      </trkpt>
      <trkpt lat="47.11675" lon="-1.79967">
        <ele>70</ele>
        <time>2020-12-20T11:19:02.000Z</time>
      </trkpt>
      <trkpt lat="47.11663" lon="-1.79966">
        <ele>70</ele>
        <time>2020-12-20T11:19:04.000Z</time>
      </trkpt>
      <trkpt lat="47.1165" lon="-1.79964">
        <ele>70</ele>
        <time>2020-12-20T11:19:06.000Z</time>
      </trkpt>
      <trkpt lat="47.11637" lon="-1.79962">
        <ele>70</ele>
        <time>2020-12-20T11:19:08.000Z</time>
      </trkpt>
      <trkpt lat="47.11625" lon="-1.7996">
        <ele>69</ele>
        <time>2020-12-20T11:19:10.000Z</time>
      </trkpt>
      <trkpt lat="47.11612" lon="-1.79958">
        <ele>69</ele>
        <time>2020-12-20T11:19:12.000Z</time>
      </trkpt>
      <trkpt lat="47.116" lon="-1.79956">
        <ele>70</ele>
        <time>2020-12-20T11:19:14.000Z</time>
      </trkpt>
      <trkpt lat="47.11587" lon="-1.79955">
        <ele>68</ele>
        <time>2020-12-20T11:19:16.000Z</time>
      </trkpt>
      <trkpt lat="47.11574" lon="-1.79955">
        <ele>69</ele>
        <time>2020-12-20T11:19:18.000Z</time>
      </trkpt>
      <trkpt lat="47.11562" lon="-1.79957">
        <ele>69</ele>
        <time>2020-12-20T11:19:20.000Z</time>
      </trkpt>
      <trkpt lat="47.1155" lon="-1.79963">
        <ele>69</ele>
        <time>2020-12-20T11:19:22.000Z</time>
      </trkpt>
      <trkpt lat="47.11538" lon="-1.79971">
        <ele>69</ele>
        <time>2020-12-20T11:19:24.000Z</time>
      </trkpt>
      <trkpt lat="47.11527" lon="-1.79981">
        <ele>69</ele>
        <time>2020-12-20T11:19:26.000Z</time>
      </trkpt>
      <trkpt lat="47.11517" lon="-1.79992">
        <ele>69</ele>
        <time>2020-12-20T11:19:28.000Z</time>
      </trkpt>
      <trkpt lat="47.11507" lon="-1.80005">
        <ele>69</ele>
        <time>2020-12-20T11:19:30.000Z</time>
      </trkpt>
      <trkpt lat="47.11497" lon="-1.80018">
        <ele>69</ele>
        <time>2020-12-20T11:19:32.000Z</time>
      </trkpt>
      <trkpt lat="47.11487" lon="-1.8003">
        <ele>69</ele>
        <time>2020-12-20T11:19:34.000Z</time>
      </trkpt>
      <trkpt lat="47.11479" lon="-1.80042">
        <ele>69</ele>
        <time>2020-12-20T11:19:36.000Z</time>
      </trkpt>
      <trkpt lat="47.1147" lon="-1.80055">
        <ele>69</ele>
        <time>2020-12-20T11:19:38.000Z</time>
      </trkpt>
      <trkpt lat="47.11461" lon="-1.80067">
        <ele>69</ele>
        <time>2020-12-20T11:19:40.000Z</time>
      </trkpt>
      <trkpt lat="47.11452" lon="-1.80079">
        <ele>68</ele>
        <time>2020-12-20T11:19:42.000Z</time>
      </trkpt>
      <trkpt lat="47.11443" lon="-1.80091">
        <ele>68</ele>
        <time>2020-12-20T11:19:44.000Z</time>
      </trkpt>
      <trkpt lat="47.11433" lon="-1.80102">
        <ele>68</ele>
        <time>2020-12-20T11:19:46.000Z</time>
      </trkpt>
      <trkpt lat="47.11424" lon="-1.80114">
        <ele>68</ele>
        <time>2020-12-20T11:19:48.000Z</time>
      </trkpt>
      <trkpt lat="47.11414" lon="-1.80126">
        <ele>67</ele>
        <time>2020-12-20T11:19:50.000Z</time>
      </trkpt>
      <trkpt lat="47.11405" lon="-1.80139">
        <ele>67</ele>
        <time>2020-12-20T11:19:52.000Z</time>
      </trkpt>
      <trkpt lat="47.11396" lon="-1.80151">
        <ele>67</ele>
        <time>2020-12-20T11:19:54.000Z</time>
      </trkpt>
      <trkpt lat="47.11386" lon="-1.80164">
        <ele>67</ele>
        <time>2020-12-20T11:19:56.000Z</time>
      </trkpt>
      <trkpt lat="47.11377" lon="-1.80176">
        <ele>67</ele>
        <time>2020-12-20T11:19:58.000Z</time>
      </trkpt>
      <trkpt lat="47.11368" lon="-1.80188">
        <ele>67</ele>
        <time>2020-12-20T11:20:00.000Z</time>
      </trkpt>
      <trkpt lat="47.11358" lon="-1.80201">
        <ele>67</ele>
        <time>2020-12-20T11:20:02.000Z</time>
      </trkpt>
      <trkpt lat="47.11349" lon="-1.80213">
        <ele>67</ele>
        <time>2020-12-20T11:20:04.000Z</time>
      </trkpt>
      <trkpt lat="47.1134" lon="-1.80226">
        <ele>67</ele>
        <time>2020-12-20T11:20:06.000Z</time>
      </trkpt>
      <trkpt lat="47.11332" lon="-1.80239">
        <ele>67</ele>
        <time>2020-12-20T11:20:08.000Z</time>
      </trkpt>
      <trkpt lat="47.11323" lon="-1.80253">
        <ele>67</ele>
        <time>2020-12-20T11:20:10.000Z</time>
      </trkpt>
      <trkpt lat="47.11314" lon="-1.80266">
        <ele>67</ele>
        <time>2020-12-20T11:20:12.000Z</time>
      </trkpt>
      <trkpt lat="47.11305" lon="-1.80279">
        <ele>67</ele>
        <time>2020-12-20T11:20:14.000Z</time>
      </trkpt>
      <trkpt lat="47.11296" lon="-1.80292">
        <ele>67</ele>
        <time>2020-12-20T11:20:16.000Z</time>
      </trkpt>
      <trkpt lat="47.11286" lon="-1.80305">
        <ele>67</ele>
        <time>2020-12-20T11:20:18.000Z</time>
      </trkpt>
      <trkpt lat="47.11277" lon="-1.80318">
        <ele>66</ele>
        <time>2020-12-20T11:20:20.000Z</time>
      </trkpt>
      <trkpt lat="47.11267" lon="-1.80331">
        <ele>66</ele>
        <time>2020-12-20T11:20:22.000Z</time>
      </trkpt>
      <trkpt lat="47.11258" lon="-1.80343">
        <ele>66</ele>
        <time>2020-12-20T11:20:24.000Z</time>
      </trkpt>
      <trkpt lat="47.11249" lon="-1.80356">
        <ele>66</ele>
        <time>2020-12-20T11:20:26.000Z</time>
      </trkpt>
      <trkpt lat="47.1124" lon="-1.80367">
        <ele>66</ele>
        <time>2020-12-20T11:20:28.000Z</time>
      </trkpt>
      <trkpt lat="47.1123" lon="-1.80379">
        <ele>66</ele>
        <time>2020-12-20T11:20:30.000Z</time>
      </trkpt>
      <trkpt lat="47.1122" lon="-1.8039">
        <ele>65</ele>
        <time>2020-12-20T11:20:32.000Z</time>
      </trkpt>
      <trkpt lat="47.1121" lon="-1.80402">
        <ele>65</ele>
        <time>2020-12-20T11:20:34.000Z</time>
      </trkpt>
      <trkpt lat="47.112" lon="-1.80413">
        <ele>65</ele>
        <time>2020-12-20T11:20:36.000Z</time>
      </trkpt>
      <trkpt lat="47.1119" lon="-1.80423">
        <ele>65</ele>
        <time>2020-12-20T11:20:38.000Z</time>
      </trkpt>
      <trkpt lat="47.11179" lon="-1.80432">
        <ele>65</ele>
        <time>2020-12-20T11:20:40.000Z</time>
      </trkpt>
      <trkpt lat="47.11168" lon="-1.8044">
        <ele>65</ele>
        <time>2020-12-20T11:20:42.000Z</time>
      </trkpt>
      <trkpt lat="47.11157" lon="-1.80447">
        <ele>66</ele>
        <time>2020-12-20T11:20:44.000Z</time>
      </trkpt>
      <trkpt lat="47.11145" lon="-1.80454">
        <ele>66</ele>
        <time>2020-12-20T11:20:46.000Z</time>
      </trkpt>
      <trkpt lat="47.11134" lon="-1.80461">
        <ele>66</ele>
        <time>2020-12-20T11:20:48.000Z</time>
      </trkpt>
      <trkpt lat="47.11124" lon="-1.80468">
        <ele>66</ele>
        <time>2020-12-20T11:20:50.000Z</time>
      </trkpt>
      <trkpt lat="47.11114" lon="-1.80475">
        <ele>67</ele>
        <time>2020-12-20T11:20:52.000Z</time>
      </trkpt>
      <trkpt lat="47.11104" lon="-1.80482">
        <ele>67</ele>
        <time>2020-12-20T11:20:54.000Z</time>
      </trkpt>
      <trkpt lat="47.11093" lon="-1.80489">
        <ele>67</ele>
        <time>2020-12-20T11:20:56.000Z</time>
      </trkpt>
      <trkpt lat="47.11083" lon="-1.80496">
        <ele>67</ele>
        <time>2020-12-20T11:20:58.000Z</time>
      </trkpt>
      <trkpt lat="47.11073" lon="-1.80502">
        <ele>68</ele>
        <time>2020-12-20T11:21:00.000Z</time>
      </trkpt>
      <trkpt lat="47.11063" lon="-1.80509">
        <ele>67</ele>
        <time>2020-12-20T11:21:02.000Z</time>
      </trkpt>
      <trkpt lat="47.11053" lon="-1.80515">
        <ele>67</ele>
        <time>2020-12-20T11:21:04.000Z</time>
      </trkpt>
      <trkpt lat="47.11042" lon="-1.80522">
        <ele>67</ele>
        <time>2020-12-20T11:21:06.000Z</time>
      </trkpt>
      <trkpt lat="47.11032" lon="-1.80528">
        <ele>67</ele>
        <time>2020-12-20T11:21:08.000Z</time>
      </trkpt>
      <trkpt lat="47.11023" lon="-1.80535">
        <ele>67</ele>
        <time>2020-12-20T11:21:10.000Z</time>
      </trkpt>
      <trkpt lat="47.11014" lon="-1.80541">
        <ele>67</ele>
        <time>2020-12-20T11:21:12.000Z</time>
      </trkpt>
      <trkpt lat="47.11005" lon="-1.80548">
        <ele>66</ele>
        <time>2020-12-20T11:21:14.000Z</time>
      </trkpt>
      <trkpt lat="47.10998" lon="-1.80558">
        <ele>65</ele>
        <time>2020-12-20T11:21:16.000Z</time>
      </trkpt>
      <trkpt lat="47.11002" lon="-1.80574">
        <ele>65</ele>
        <time>2020-12-20T11:21:19.000Z</time>
      </trkpt>
      <trkpt lat="47.11013" lon="-1.8058">
        <ele>65</ele>
        <time>2020-12-20T11:21:21.000Z</time>
      </trkpt>
      <trkpt lat="47.11024" lon="-1.80585">
        <ele>66</ele>
        <time>2020-12-20T11:21:23.000Z</time>
      </trkpt>
      <trkpt lat="47.11034" lon="-1.8059">
        <ele>66</ele>
        <time>2020-12-20T11:21:25.000Z</time>
      </trkpt>
      <trkpt lat="47.11045" lon="-1.80596">
        <ele>66</ele>
        <time>2020-12-20T11:21:27.000Z</time>
      </trkpt>
      <trkpt lat="47.11055" lon="-1.80605">
        <ele>66</ele>
        <time>2020-12-20T11:21:29.000Z</time>
      </trkpt>
      <trkpt lat="47.11064" lon="-1.80615">
        <ele>66</ele>
        <time>2020-12-20T11:21:31.000Z</time>
      </trkpt>
      <trkpt lat="47.11071" lon="-1.80625">
        <ele>66</ele>
        <time>2020-12-20T11:21:33.000Z</time>
      </trkpt>
      <trkpt lat="47.11077" lon="-1.80638">
        <ele>67</ele>
        <time>2020-12-20T11:21:35.000Z</time>
      </trkpt>
      <trkpt lat="47.11083" lon="-1.80653">
        <ele>68</ele>
        <time>2020-12-20T11:21:37.000Z</time>
      </trkpt>
      <trkpt lat="47.11088" lon="-1.8067">
        <ele>68</ele>
        <time>2020-12-20T11:21:39.000Z</time>
      </trkpt>
      <trkpt lat="47.11092" lon="-1.80687">
        <ele>67</ele>
        <time>2020-12-20T11:21:41.000Z</time>
      </trkpt>
      <trkpt lat="47.11094" lon="-1.80704">
        <ele>67</ele>
        <time>2020-12-20T11:21:43.000Z</time>
      </trkpt>
      <trkpt lat="47.11096" lon="-1.80721">
        <ele>67</ele>
        <time>2020-12-20T11:21:45.000Z</time>
      </trkpt>
      <trkpt lat="47.11097" lon="-1.80738">
        <ele>67</ele>
        <time>2020-12-20T11:21:47.000Z</time>
      </trkpt>
      <trkpt lat="47.11098" lon="-1.80755">
        <ele>67</ele>
        <time>2020-12-20T11:21:49.000Z</time>
      </trkpt>
      <trkpt lat="47.11098" lon="-1.8077">
        <ele>66</ele>
        <time>2020-12-20T11:21:51.000Z</time>
      </trkpt>
      <trkpt lat="47.11097" lon="-1.80787">
        <ele>66</ele>
        <time>2020-12-20T11:21:53.000Z</time>
      </trkpt>
      <trkpt lat="47.11096" lon="-1.80804">
        <ele>67</ele>
        <time>2020-12-20T11:21:55.000Z</time>
      </trkpt>
      <trkpt lat="47.11094" lon="-1.80821">
        <ele>67</ele>
        <time>2020-12-20T11:21:57.000Z</time>
      </trkpt>
      <trkpt lat="47.11092" lon="-1.80837">
        <ele>67</ele>
        <time>2020-12-20T11:21:59.000Z</time>
      </trkpt>
      <trkpt lat="47.1109" lon="-1.80853">
        <ele>67</ele>
        <time>2020-12-20T11:22:01.000Z</time>
      </trkpt>
      <trkpt lat="47.11087" lon="-1.8087">
        <ele>67</ele>
        <time>2020-12-20T11:22:03.000Z</time>
      </trkpt>
      <trkpt lat="47.11083" lon="-1.80887">
        <ele>67</ele>
        <time>2020-12-20T11:22:05.000Z</time>
      </trkpt>
      <trkpt lat="47.1108" lon="-1.80903">
        <ele>67</ele>
        <time>2020-12-20T11:22:07.000Z</time>
      </trkpt>
      <trkpt lat="47.11077" lon="-1.8092">
        <ele>66</ele>
        <time>2020-12-20T11:22:09.000Z</time>
      </trkpt>
      <trkpt lat="47.11074" lon="-1.80936">
        <ele>66</ele>
        <time>2020-12-20T11:22:11.000Z</time>
      </trkpt>
      <trkpt lat="47.11071" lon="-1.80953">
        <ele>66</ele>
        <time>2020-12-20T11:22:13.000Z</time>
      </trkpt>
      <trkpt lat="47.11067" lon="-1.80969">
        <ele>66</ele>
        <time>2020-12-20T11:22:15.000Z</time>
      </trkpt>
      <trkpt lat="47.11063" lon="-1.80986">
        <ele>66</ele>
        <time>2020-12-20T11:22:17.000Z</time>
      </trkpt>
      <trkpt lat="47.11059" lon="-1.81002">
        <ele>66</ele>
        <time>2020-12-20T11:22:19.000Z</time>
      </trkpt>
      <trkpt lat="47.11056" lon="-1.81018">
        <ele>66</ele>
        <time>2020-12-20T11:22:21.000Z</time>
      </trkpt>
      <trkpt lat="47.11052" lon="-1.81034">
        <ele>65</ele>
        <time>2020-12-20T11:22:23.000Z</time>
      </trkpt>
      <trkpt lat="47.11048" lon="-1.8105">
        <ele>65</ele>
        <time>2020-12-20T11:22:25.000Z</time>
      </trkpt>
      <trkpt lat="47.11044" lon="-1.81066">
        <ele>66</ele>
        <time>2020-12-20T11:22:27.000Z</time>
      </trkpt>
      <trkpt lat="47.11039" lon="-1.81081">
        <ele>66</ele>
        <time>2020-12-20T11:22:29.000Z</time>
      </trkpt>
      <trkpt lat="47.11036" lon="-1.81098">
        <ele>66</ele>
        <time>2020-12-20T11:22:31.000Z</time>
      </trkpt>
      <trkpt lat="47.11032" lon="-1.81113">
        <ele>67</ele>
        <time>2020-12-20T11:22:33.000Z</time>
      </trkpt>
      <trkpt lat="47.11028" lon="-1.81128">
        <ele>67</ele>
        <time>2020-12-20T11:22:35.000Z</time>
      </trkpt>
      <trkpt lat="47.11025" lon="-1.81142">
        <ele>67</ele>
        <time>2020-12-20T11:22:37.000Z</time>
      </trkpt>
      <trkpt lat="47.11022" lon="-1.81157">
        <ele>68</ele>
        <time>2020-12-20T11:22:39.000Z</time>
      </trkpt>
      <trkpt lat="47.1102" lon="-1.81173">
        <ele>68</ele>
        <time>2020-12-20T11:22:41.000Z</time>
      </trkpt>
      <trkpt lat="47.11019" lon="-1.8119">
        <ele>68</ele>
        <time>2020-12-20T11:22:43.000Z</time>
      </trkpt>
      <trkpt lat="47.11018" lon="-1.81206">
        <ele>68</ele>
        <time>2020-12-20T11:22:45.000Z</time>
      </trkpt>
      <trkpt lat="47.11018" lon="-1.81222">
        <ele>68</ele>
        <time>2020-12-20T11:22:47.000Z</time>
      </trkpt>
      <trkpt lat="47.11019" lon="-1.81238">
        <ele>69</ele>
        <time>2020-12-20T11:22:49.000Z</time>
      </trkpt>
      <trkpt lat="47.11022" lon="-1.81255">
        <ele>68</ele>
        <time>2020-12-20T11:22:51.000Z</time>
      </trkpt>
      <trkpt lat="47.11026" lon="-1.81271">
        <ele>68</ele>
        <time>2020-12-20T11:22:53.000Z</time>
      </trkpt>
      <trkpt lat="47.11032" lon="-1.81286">
        <ele>69</ele>
        <time>2020-12-20T11:22:55.000Z</time>
      </trkpt>
      <trkpt lat="47.11037" lon="-1.81301">
        <ele>69</ele>
        <time>2020-12-20T11:22:57.000Z</time>
      </trkpt>
      <trkpt lat="47.11042" lon="-1.81316">
        <ele>69</ele>
        <time>2020-12-20T11:22:59.000Z</time>
      </trkpt>
      <trkpt lat="47.11046" lon="-1.81332">
        <ele>70</ele>
        <time>2020-12-20T11:23:01.000Z</time>
      </trkpt>
      <trkpt lat="47.11047" lon="-1.81347">
        <ele>70</ele>
        <time>2020-12-20T11:23:03.000Z</time>
      </trkpt>
      <trkpt lat="47.11048" lon="-1.81363">
        <ele>71</ele>
        <time>2020-12-20T11:23:05.000Z</time>
      </trkpt>
      <trkpt lat="47.11049" lon="-1.81379">
        <ele>71</ele>
        <time>2020-12-20T11:23:07.000Z</time>
      </trkpt>
      <trkpt lat="47.1105" lon="-1.81394">
        <ele>71</ele>
        <time>2020-12-20T11:23:09.000Z</time>
      </trkpt>
      <trkpt lat="47.1105" lon="-1.81408">
        <ele>70</ele>
        <time>2020-12-20T11:23:11.000Z</time>
      </trkpt>
      <trkpt lat="47.11052" lon="-1.81422">
        <ele>70</ele>
        <time>2020-12-20T11:23:13.000Z</time>
      </trkpt>
      <trkpt lat="47.11056" lon="-1.81439">
        <ele>71</ele>
        <time>2020-12-20T11:23:16.000Z</time>
      </trkpt>
      <trkpt lat="47.11057" lon="-1.8146">
        <ele>71</ele>
        <time>2020-12-20T11:23:19.000Z</time>
      </trkpt>
      <trkpt lat="47.11053" lon="-1.81475">
        <ele>71</ele>
        <time>2020-12-20T11:23:21.000Z</time>
      </trkpt>
      <trkpt lat="47.11049" lon="-1.81491">
        <ele>70</ele>
        <time>2020-12-20T11:23:23.000Z</time>
      </trkpt>
      <trkpt lat="47.11044" lon="-1.81506">
        <ele>71</ele>
        <time>2020-12-20T11:23:25.000Z</time>
      </trkpt>
      <trkpt lat="47.11038" lon="-1.81522">
        <ele>70</ele>
        <time>2020-12-20T11:23:27.000Z</time>
      </trkpt>
      <trkpt lat="47.11033" lon="-1.81537">
        <ele>70</ele>
        <time>2020-12-20T11:23:29.000Z</time>
      </trkpt>
      <trkpt lat="47.11027" lon="-1.81552">
        <ele>69</ele>
        <time>2020-12-20T11:23:31.000Z</time>
      </trkpt>
      <trkpt lat="47.11022" lon="-1.81567">
        <ele>70</ele>
        <time>2020-12-20T11:23:33.000Z</time>
      </trkpt>
      <trkpt lat="47.11017" lon="-1.81581">
        <ele>70</ele>
        <time>2020-12-20T11:23:35.000Z</time>
      </trkpt>
      <trkpt lat="47.11012" lon="-1.81594">
        <ele>70</ele>
        <time>2020-12-20T11:23:37.000Z</time>
      </trkpt>
      <trkpt lat="47.11006" lon="-1.81607">
        <ele>70</ele>
        <time>2020-12-20T11:23:39.000Z</time>
      </trkpt>
      <trkpt lat="47.11" lon="-1.81624">
        <ele>70</ele>
        <time>2020-12-20T11:23:42.000Z</time>
      </trkpt>
      <trkpt lat="47.11004" lon="-1.81639">
        <ele>71</ele>
        <time>2020-12-20T11:23:45.000Z</time>
      </trkpt>
      <trkpt lat="47.11012" lon="-1.81648">
        <ele>71</ele>
        <time>2020-12-20T11:23:48.000Z</time>
      </trkpt>
      <trkpt lat="47.11022" lon="-1.81662">
        <ele>72</ele>
        <time>2020-12-20T11:23:51.000Z</time>
      </trkpt>
      <trkpt lat="47.1103" lon="-1.81673">
        <ele>73</ele>
        <time>2020-12-20T11:23:53.000Z</time>
      </trkpt>
      <trkpt lat="47.11038" lon="-1.81685">
        <ele>73</ele>
        <time>2020-12-20T11:23:55.000Z</time>
      </trkpt>
      <trkpt lat="47.11046" lon="-1.81696">
        <ele>73</ele>
        <time>2020-12-20T11:23:57.000Z</time>
      </trkpt>
      <trkpt lat="47.11053" lon="-1.81706">
        <ele>73</ele>
        <time>2020-12-20T11:23:59.000Z</time>
      </trkpt>
      <trkpt lat="47.11061" lon="-1.81717">
        <ele>73</ele>
        <time>2020-12-20T11:24:01.000Z</time>
      </trkpt>
      <trkpt lat="47.11069" lon="-1.81729">
        <ele>73</ele>
        <time>2020-12-20T11:24:03.000Z</time>
      </trkpt>
      <trkpt lat="47.11077" lon="-1.81741">
        <ele>74</ele>
        <time>2020-12-20T11:24:05.000Z</time>
      </trkpt>
      <trkpt lat="47.11085" lon="-1.81753">
        <ele>74</ele>
        <time>2020-12-20T11:24:07.000Z</time>
      </trkpt>
      <trkpt lat="47.11093" lon="-1.81764">
        <ele>74</ele>
        <time>2020-12-20T11:24:09.000Z</time>
      </trkpt>
      <trkpt lat="47.11101" lon="-1.81776">
        <ele>74</ele>
        <time>2020-12-20T11:24:11.000Z</time>
      </trkpt>
      <trkpt lat="47.11109" lon="-1.81788">
        <ele>74</ele>
        <time>2020-12-20T11:24:13.000Z</time>
      </trkpt>
      <trkpt lat="47.11117" lon="-1.818">
        <ele>74</ele>
        <time>2020-12-20T11:24:15.000Z</time>
      </trkpt>
      <trkpt lat="47.11126" lon="-1.81813">
        <ele>74</ele>
        <time>2020-12-20T11:24:17.000Z</time>
      </trkpt>
      <trkpt lat="47.11134" lon="-1.81827">
        <ele>74</ele>
        <time>2020-12-20T11:24:19.000Z</time>
      </trkpt>
      <trkpt lat="47.11142" lon="-1.8184">
        <ele>73</ele>
        <time>2020-12-20T11:24:21.000Z</time>
      </trkpt>
      <trkpt lat="47.1115" lon="-1.81854">
        <ele>73</ele>
        <time>2020-12-20T11:24:23.000Z</time>
      </trkpt>
      <trkpt lat="47.11158" lon="-1.81868">
        <ele>73</ele>
        <time>2020-12-20T11:24:25.000Z</time>
      </trkpt>
      <trkpt lat="47.11166" lon="-1.81883">
        <ele>73</ele>
        <time>2020-12-20T11:24:27.000Z</time>
      </trkpt>
      <trkpt lat="47.11174" lon="-1.81897">
        <ele>72</ele>
        <time>2020-12-20T11:24:29.000Z</time>
      </trkpt>
      <trkpt lat="47.11182" lon="-1.81911">
        <ele>72</ele>
        <time>2020-12-20T11:24:31.000Z</time>
      </trkpt>
      <trkpt lat="47.1119" lon="-1.81925">
        <ele>72</ele>
        <time>2020-12-20T11:24:33.000Z</time>
      </trkpt>
      <trkpt lat="47.11198" lon="-1.81939">
        <ele>72</ele>
        <time>2020-12-20T11:24:35.000Z</time>
      </trkpt>
      <trkpt lat="47.11206" lon="-1.81953">
        <ele>72</ele>
        <time>2020-12-20T11:24:37.000Z</time>
      </trkpt>
      <trkpt lat="47.11215" lon="-1.81967">
        <ele>71</ele>
        <time>2020-12-20T11:24:39.000Z</time>
      </trkpt>
      <trkpt lat="47.11221" lon="-1.81984">
        <ele>71</ele>
        <time>2020-12-20T11:24:41.000Z</time>
      </trkpt>
      <trkpt lat="47.11228" lon="-1.81999">
        <ele>72</ele>
        <time>2020-12-20T11:24:43.000Z</time>
      </trkpt>
      <trkpt lat="47.11235" lon="-1.82013">
        <ele>71</ele>
        <time>2020-12-20T11:24:45.000Z</time>
      </trkpt>
      <trkpt lat="47.11242" lon="-1.82028">
        <ele>71</ele>
        <time>2020-12-20T11:24:47.000Z</time>
      </trkpt>
      <trkpt lat="47.11248" lon="-1.82044">
        <ele>71</ele>
        <time>2020-12-20T11:24:49.000Z</time>
      </trkpt>
      <trkpt lat="47.11255" lon="-1.8206">
        <ele>71</ele>
        <time>2020-12-20T11:24:51.000Z</time>
      </trkpt>
      <trkpt lat="47.11261" lon="-1.82075">
        <ele>71</ele>
        <time>2020-12-20T11:24:53.000Z</time>
      </trkpt>
      <trkpt lat="47.11267" lon="-1.82091">
        <ele>71</ele>
        <time>2020-12-20T11:24:55.000Z</time>
      </trkpt>
      <trkpt lat="47.11273" lon="-1.82107">
        <ele>72</ele>
        <time>2020-12-20T11:24:57.000Z</time>
      </trkpt>
      <trkpt lat="47.1128" lon="-1.82123">
        <ele>72</ele>
        <time>2020-12-20T11:24:59.000Z</time>
      </trkpt>
      <trkpt lat="47.11286" lon="-1.82138">
        <ele>72</ele>
        <time>2020-12-20T11:25:01.000Z</time>
      </trkpt>
      <trkpt lat="47.11292" lon="-1.82153">
        <ele>73</ele>
        <time>2020-12-20T11:25:03.000Z</time>
      </trkpt>
      <trkpt lat="47.11299" lon="-1.82169">
        <ele>72</ele>
        <time>2020-12-20T11:25:05.000Z</time>
      </trkpt>
      <trkpt lat="47.11305" lon="-1.82185">
        <ele>73</ele>
        <time>2020-12-20T11:25:07.000Z</time>
      </trkpt>
      <trkpt lat="47.11311" lon="-1.82202">
        <ele>72</ele>
        <time>2020-12-20T11:25:09.000Z</time>
      </trkpt>
      <trkpt lat="47.11318" lon="-1.82218">
        <ele>72</ele>
        <time>2020-12-20T11:25:11.000Z</time>
      </trkpt>
      <trkpt lat="47.11325" lon="-1.82234">
        <ele>73</ele>
        <time>2020-12-20T11:25:13.000Z</time>
      </trkpt>
      <trkpt lat="47.11332" lon="-1.82249">
        <ele>72</ele>
        <time>2020-12-20T11:25:15.000Z</time>
      </trkpt>
      <trkpt lat="47.11341" lon="-1.82264">
        <ele>72</ele>
        <time>2020-12-20T11:25:17.000Z</time>
      </trkpt>
      <trkpt lat="47.11349" lon="-1.82276">
        <ele>72</ele>
        <time>2020-12-20T11:25:19.000Z</time>
      </trkpt>
      <trkpt lat="47.11359" lon="-1.8229">
        <ele>71</ele>
        <time>2020-12-20T11:25:21.000Z</time>
      </trkpt>
      <trkpt lat="47.11368" lon="-1.82302">
        <ele>71</ele>
        <time>2020-12-20T11:25:23.000Z</time>
      </trkpt>
      <trkpt lat="47.11377" lon="-1.82314">
        <ele>71</ele>
        <time>2020-12-20T11:25:25.000Z</time>
      </trkpt>
      <trkpt lat="47.11386" lon="-1.82326">
        <ele>72</ele>
        <time>2020-12-20T11:25:27.000Z</time>
      </trkpt>
      <trkpt lat="47.11395" lon="-1.82339">
        <ele>72</ele>
        <time>2020-12-20T11:25:29.000Z</time>
      </trkpt>
      <trkpt lat="47.11404" lon="-1.82352">
        <ele>72</ele>
        <time>2020-12-20T11:25:31.000Z</time>
      </trkpt>
      <trkpt lat="47.11414" lon="-1.82365">
        <ele>72</ele>
        <time>2020-12-20T11:25:33.000Z</time>
      </trkpt>
      <trkpt lat="47.11424" lon="-1.82377">
        <ele>72</ele>
        <time>2020-12-20T11:25:35.000Z</time>
      </trkpt>
      <trkpt lat="47.11433" lon="-1.82389">
        <ele>72</ele>
        <time>2020-12-20T11:25:37.000Z</time>
      </trkpt>
      <trkpt lat="47.11442" lon="-1.82401">
        <ele>72</ele>
        <time>2020-12-20T11:25:39.000Z</time>
      </trkpt>
      <trkpt lat="47.11451" lon="-1.82414">
        <ele>73</ele>
        <time>2020-12-20T11:25:41.000Z</time>
      </trkpt>
      <trkpt lat="47.11459" lon="-1.82427">
        <ele>73</ele>
        <time>2020-12-20T11:25:43.000Z</time>
      </trkpt>
      <trkpt lat="47.11468" lon="-1.82438">
        <ele>73</ele>
        <time>2020-12-20T11:25:45.000Z</time>
      </trkpt>
      <trkpt lat="47.11477" lon="-1.82451">
        <ele>73</ele>
        <time>2020-12-20T11:25:47.000Z</time>
      </trkpt>
      <trkpt lat="47.11487" lon="-1.82462">
        <ele>73</ele>
        <time>2020-12-20T11:25:49.000Z</time>
      </trkpt>
      <trkpt lat="47.11497" lon="-1.82472">
        <ele>73</ele>
        <time>2020-12-20T11:25:51.000Z</time>
      </trkpt>
      <trkpt lat="47.11508" lon="-1.82482">
        <ele>73</ele>
        <time>2020-12-20T11:25:53.000Z</time>
      </trkpt>
      <trkpt lat="47.11519" lon="-1.82491">
        <ele>73</ele>
        <time>2020-12-20T11:25:55.000Z</time>
      </trkpt>
      <trkpt lat="47.1153" lon="-1.82501">
        <ele>72</ele>
        <time>2020-12-20T11:25:57.000Z</time>
      </trkpt>
      <trkpt lat="47.1154" lon="-1.82512">
        <ele>72</ele>
        <time>2020-12-20T11:25:59.000Z</time>
      </trkpt>
      <trkpt lat="47.11551" lon="-1.82522">
        <ele>72</ele>
        <time>2020-12-20T11:26:01.000Z</time>
      </trkpt>
      <trkpt lat="47.11561" lon="-1.82531">
        <ele>73</ele>
        <time>2020-12-20T11:26:03.000Z</time>
      </trkpt>
      <trkpt lat="47.11571" lon="-1.82541">
        <ele>72</ele>
        <time>2020-12-20T11:26:05.000Z</time>
      </trkpt>
      <trkpt lat="47.11582" lon="-1.8255">
        <ele>72</ele>
        <time>2020-12-20T11:26:07.000Z</time>
      </trkpt>
      <trkpt lat="47.11593" lon="-1.82559">
        <ele>73</ele>
        <time>2020-12-20T11:26:09.000Z</time>
      </trkpt>
      <trkpt lat="47.11603" lon="-1.82568">
        <ele>73</ele>
        <time>2020-12-20T11:26:11.000Z</time>
      </trkpt>
      <trkpt lat="47.11613" lon="-1.82578">
        <ele>73</ele>
        <time>2020-12-20T11:26:13.000Z</time>
      </trkpt>
      <trkpt lat="47.11623" lon="-1.82588">
        <ele>73</ele>
        <time>2020-12-20T11:26:15.000Z</time>
      </trkpt>
      <trkpt lat="47.11633" lon="-1.82597">
        <ele>73</ele>
        <time>2020-12-20T11:26:17.000Z</time>
      </trkpt>
      <trkpt lat="47.11645" lon="-1.82607">
        <ele>72</ele>
        <time>2020-12-20T11:26:19.000Z</time>
      </trkpt>
      <trkpt lat="47.11655" lon="-1.82619">
        <ele>72</ele>
        <time>2020-12-20T11:26:21.000Z</time>
      </trkpt>
      <trkpt lat="47.11667" lon="-1.8263">
        <ele>72</ele>
        <time>2020-12-20T11:26:23.000Z</time>
      </trkpt>
      <trkpt lat="47.11677" lon="-1.82641">
        <ele>72</ele>
        <time>2020-12-20T11:26:25.000Z</time>
      </trkpt>
      <trkpt lat="47.11689" lon="-1.82652">
        <ele>72</ele>
        <time>2020-12-20T11:26:27.000Z</time>
      </trkpt>
      <trkpt lat="47.117" lon="-1.82662">
        <ele>71</ele>
        <time>2020-12-20T11:26:29.000Z</time>
      </trkpt>
      <trkpt lat="47.11712" lon="-1.82673">
        <ele>70</ele>
        <time>2020-12-20T11:26:31.000Z</time>
      </trkpt>
      <trkpt lat="47.11722" lon="-1.82684">
        <ele>70</ele>
        <time>2020-12-20T11:26:33.000Z</time>
      </trkpt>
      <trkpt lat="47.11734" lon="-1.82693">
        <ele>70</ele>
        <time>2020-12-20T11:26:35.000Z</time>
      </trkpt>
      <trkpt lat="47.11744" lon="-1.82702">
        <ele>70</ele>
        <time>2020-12-20T11:26:37.000Z</time>
      </trkpt>
      <trkpt lat="47.11752" lon="-1.82709">
        <ele>70</ele>
        <time>2020-12-20T11:26:39.000Z</time>
      </trkpt>
      <trkpt lat="47.11758" lon="-1.82728">
        <ele>70</ele>
        <time>2020-12-20T11:26:42.000Z</time>
      </trkpt>
      <trkpt lat="47.11755" lon="-1.82748">
        <ele>70</ele>
        <time>2020-12-20T11:26:44.000Z</time>
      </trkpt>
      <trkpt lat="47.11752" lon="-1.82769">
        <ele>69</ele>
        <time>2020-12-20T11:26:46.000Z</time>
      </trkpt>
      <trkpt lat="47.1175" lon="-1.82791">
        <ele>68</ele>
        <time>2020-12-20T11:26:48.000Z</time>
      </trkpt>
      <trkpt lat="47.11748" lon="-1.82811">
        <ele>68</ele>
        <time>2020-12-20T11:26:50.000Z</time>
      </trkpt>
      <trkpt lat="47.11747" lon="-1.82831">
        <ele>67</ele>
        <time>2020-12-20T11:26:52.000Z</time>
      </trkpt>
      <trkpt lat="47.11746" lon="-1.82851">
        <ele>68</ele>
        <time>2020-12-20T11:26:54.000Z</time>
      </trkpt>
      <trkpt lat="47.11747" lon="-1.82869">
        <ele>68</ele>
        <time>2020-12-20T11:26:56.000Z</time>
      </trkpt>
      <trkpt lat="47.11746" lon="-1.82888">
        <ele>67</ele>
        <time>2020-12-20T11:26:58.000Z</time>
      </trkpt>
      <trkpt lat="47.11746" lon="-1.82907">
        <ele>66</ele>
        <time>2020-12-20T11:27:00.000Z</time>
      </trkpt>
      <trkpt lat="47.11749" lon="-1.82925">
        <ele>66</ele>
        <time>2020-12-20T11:27:02.000Z</time>
      </trkpt>
      <trkpt lat="47.11754" lon="-1.82942">
        <ele>66</ele>
        <time>2020-12-20T11:27:04.000Z</time>
      </trkpt>
      <trkpt lat="47.1176" lon="-1.82959">
        <ele>65</ele>
        <time>2020-12-20T11:27:06.000Z</time>
      </trkpt>
      <trkpt lat="47.11767" lon="-1.82976">
        <ele>65</ele>
        <time>2020-12-20T11:27:08.000Z</time>
      </trkpt>
      <trkpt lat="47.11773" lon="-1.82992">
        <ele>65</ele>
        <time>2020-12-20T11:27:10.000Z</time>
      </trkpt>
      <trkpt lat="47.11779" lon="-1.83008">
        <ele>65</ele>
        <time>2020-12-20T11:27:12.000Z</time>
      </trkpt>
      <trkpt lat="47.11786" lon="-1.83025">
        <ele>65</ele>
        <time>2020-12-20T11:27:14.000Z</time>
      </trkpt>
      <trkpt lat="47.11792" lon="-1.83042">
        <ele>65</ele>
        <time>2020-12-20T11:27:16.000Z</time>
      </trkpt>
      <trkpt lat="47.11797" lon="-1.8306">
        <ele>65</ele>
        <time>2020-12-20T11:27:18.000Z</time>
      </trkpt>
      <trkpt lat="47.118" lon="-1.83079">
        <ele>65</ele>
        <time>2020-12-20T11:27:20.000Z</time>
      </trkpt>
      <trkpt lat="47.11802" lon="-1.83098">
        <ele>65</ele>
        <time>2020-12-20T11:27:22.000Z</time>
      </trkpt>
      <trkpt lat="47.11803" lon="-1.83117">
        <ele>65</ele>
        <time>2020-12-20T11:27:24.000Z</time>
      </trkpt>
      <trkpt lat="47.11804" lon="-1.83136">
        <ele>65</ele>
        <time>2020-12-20T11:27:26.000Z</time>
      </trkpt>
      <trkpt lat="47.11807" lon="-1.83155">
        <ele>65</ele>
        <time>2020-12-20T11:27:28.000Z</time>
      </trkpt>
      <trkpt lat="47.11812" lon="-1.83173">
        <ele>65</ele>
        <time>2020-12-20T11:27:30.000Z</time>
      </trkpt>
      <trkpt lat="47.11817" lon="-1.8319">
        <ele>64</ele>
        <time>2020-12-20T11:27:32.000Z</time>
      </trkpt>
      <trkpt lat="47.11821" lon="-1.83207">
        <ele>64</ele>
        <time>2020-12-20T11:27:34.000Z</time>
      </trkpt>
      <trkpt lat="47.11827" lon="-1.83223">
        <ele>64</ele>
        <time>2020-12-20T11:27:36.000Z</time>
      </trkpt>
      <trkpt lat="47.11832" lon="-1.8324">
        <ele>64</ele>
        <time>2020-12-20T11:27:38.000Z</time>
      </trkpt>
      <trkpt lat="47.11838" lon="-1.83259">
        <ele>64</ele>
        <time>2020-12-20T11:27:40.000Z</time>
      </trkpt>
      <trkpt lat="47.11843" lon="-1.83277">
        <ele>64</ele>
        <time>2020-12-20T11:27:42.000Z</time>
      </trkpt>
      <trkpt lat="47.11848" lon="-1.83296">
        <ele>64</ele>
        <time>2020-12-20T11:27:44.000Z</time>
      </trkpt>
      <trkpt lat="47.11854" lon="-1.83313">
        <ele>63</ele>
        <time>2020-12-20T11:27:46.000Z</time>
      </trkpt>
      <trkpt lat="47.1186" lon="-1.8333">
        <ele>63</ele>
        <time>2020-12-20T11:27:48.000Z</time>
      </trkpt>
      <trkpt lat="47.11866" lon="-1.83346">
        <ele>63</ele>
        <time>2020-12-20T11:27:50.000Z</time>
      </trkpt>
      <trkpt lat="47.11872" lon="-1.83362">
        <ele>63</ele>
        <time>2020-12-20T11:27:52.000Z</time>
      </trkpt>
      <trkpt lat="47.11879" lon="-1.83379">
        <ele>62</ele>
        <time>2020-12-20T11:27:54.000Z</time>
      </trkpt>
      <trkpt lat="47.11885" lon="-1.83396">
        <ele>63</ele>
        <time>2020-12-20T11:27:56.000Z</time>
      </trkpt>
      <trkpt lat="47.11892" lon="-1.83413">
        <ele>62</ele>
        <time>2020-12-20T11:27:58.000Z</time>
      </trkpt>
      <trkpt lat="47.11898" lon="-1.8343">
        <ele>62</ele>
        <time>2020-12-20T11:28:00.000Z</time>
      </trkpt>
      <trkpt lat="47.11905" lon="-1.83446">
        <ele>62</ele>
        <time>2020-12-20T11:28:02.000Z</time>
      </trkpt>
      <trkpt lat="47.11912" lon="-1.83463">
        <ele>62</ele>
        <time>2020-12-20T11:28:04.000Z</time>
      </trkpt>
      <trkpt lat="47.11919" lon="-1.8348">
        <ele>62</ele>
        <time>2020-12-20T11:28:06.000Z</time>
      </trkpt>
      <trkpt lat="47.11926" lon="-1.83496">
        <ele>62</ele>
        <time>2020-12-20T11:28:08.000Z</time>
      </trkpt>
      <trkpt lat="47.11932" lon="-1.83513">
        <ele>62</ele>
        <time>2020-12-20T11:28:10.000Z</time>
      </trkpt>
      <trkpt lat="47.11939" lon="-1.8353">
        <ele>62</ele>
        <time>2020-12-20T11:28:12.000Z</time>
      </trkpt>
      <trkpt lat="47.11945" lon="-1.83547">
        <ele>62</ele>
        <time>2020-12-20T11:28:14.000Z</time>
      </trkpt>
      <trkpt lat="47.1195" lon="-1.83564">
        <ele>62</ele>
        <time>2020-12-20T11:28:16.000Z</time>
      </trkpt>
      <trkpt lat="47.11956" lon="-1.83581">
        <ele>62</ele>
        <time>2020-12-20T11:28:18.000Z</time>
      </trkpt>
      <trkpt lat="47.11961" lon="-1.83598">
        <ele>61</ele>
        <time>2020-12-20T11:28:20.000Z</time>
      </trkpt>
      <trkpt lat="47.11966" lon="-1.83615">
        <ele>61</ele>
        <time>2020-12-20T11:28:22.000Z</time>
      </trkpt>
      <trkpt lat="47.11971" lon="-1.83632">
        <ele>61</ele>
        <time>2020-12-20T11:28:24.000Z</time>
      </trkpt>
      <trkpt lat="47.11975" lon="-1.83649">
        <ele>62</ele>
        <time>2020-12-20T11:28:26.000Z</time>
      </trkpt>
      <trkpt lat="47.1198" lon="-1.83666">
        <ele>61</ele>
        <time>2020-12-20T11:28:28.000Z</time>
      </trkpt>
      <trkpt lat="47.11983" lon="-1.83684">
        <ele>61</ele>
        <time>2020-12-20T11:28:30.000Z</time>
      </trkpt>
      <trkpt lat="47.11987" lon="-1.83702">
        <ele>61</ele>
        <time>2020-12-20T11:28:32.000Z</time>
      </trkpt>
      <trkpt lat="47.11989" lon="-1.83718">
        <ele>61</ele>
        <time>2020-12-20T11:28:34.000Z</time>
      </trkpt>
      <trkpt lat="47.11991" lon="-1.83734">
        <ele>61</ele>
        <time>2020-12-20T11:28:36.000Z</time>
      </trkpt>
      <trkpt lat="47.11993" lon="-1.8375">
        <ele>61</ele>
        <time>2020-12-20T11:28:39.000Z</time>
      </trkpt>
      <trkpt lat="47.11994" lon="-1.83763">
        <ele>62</ele>
        <time>2020-12-20T11:28:41.000Z</time>
      </trkpt>
      <trkpt lat="47.11997" lon="-1.83778">
        <ele>61</ele>
        <time>2020-12-20T11:28:43.000Z</time>
      </trkpt>
      <trkpt lat="47.12" lon="-1.83797">
        <ele>61</ele>
        <time>2020-12-20T11:28:45.000Z</time>
      </trkpt>
      <trkpt lat="47.12003" lon="-1.83816">
        <ele>61</ele>
        <time>2020-12-20T11:28:47.000Z</time>
      </trkpt>
      <trkpt lat="47.12005" lon="-1.83834">
        <ele>61</ele>
        <time>2020-12-20T11:28:49.000Z</time>
      </trkpt>
      <trkpt lat="47.12009" lon="-1.83853">
        <ele>61</ele>
        <time>2020-12-20T11:28:51.000Z</time>
      </trkpt>
      <trkpt lat="47.12012" lon="-1.83873">
        <ele>60</ele>
        <time>2020-12-20T11:28:53.000Z</time>
      </trkpt>
      <trkpt lat="47.12014" lon="-1.83893">
        <ele>59</ele>
        <time>2020-12-20T11:28:55.000Z</time>
      </trkpt>
      <trkpt lat="47.12017" lon="-1.83912">
        <ele>59</ele>
        <time>2020-12-20T11:28:57.000Z</time>
      </trkpt>
      <trkpt lat="47.1202" lon="-1.83931">
        <ele>59</ele>
        <time>2020-12-20T11:28:59.000Z</time>
      </trkpt>
      <trkpt lat="47.12023" lon="-1.83951">
        <ele>59</ele>
        <time>2020-12-20T11:29:01.000Z</time>
      </trkpt>
      <trkpt lat="47.12025" lon="-1.8397">
        <ele>59</ele>
        <time>2020-12-20T11:29:03.000Z</time>
      </trkpt>
      <trkpt lat="47.12025" lon="-1.83991">
        <ele>59</ele>
        <time>2020-12-20T11:29:05.000Z</time>
      </trkpt>
      <trkpt lat="47.12023" lon="-1.8401">
        <ele>59</ele>
        <time>2020-12-20T11:29:07.000Z</time>
      </trkpt>
      <trkpt lat="47.1202" lon="-1.84031">
        <ele>59</ele>
        <time>2020-12-20T11:29:09.000Z</time>
      </trkpt>
      <trkpt lat="47.12016" lon="-1.84053">
        <ele>58</ele>
        <time>2020-12-20T11:29:11.000Z</time>
      </trkpt>
      <trkpt lat="47.12013" lon="-1.84075">
        <ele>57</ele>
        <time>2020-12-20T11:29:13.000Z</time>
      </trkpt>
      <trkpt lat="47.12009" lon="-1.84098">
        <ele>56</ele>
        <time>2020-12-20T11:29:15.000Z</time>
      </trkpt>
      <trkpt lat="47.12007" lon="-1.8412">
        <ele>55</ele>
        <time>2020-12-20T11:29:17.000Z</time>
      </trkpt>
      <trkpt lat="47.12004" lon="-1.84143">
        <ele>55</ele>
        <time>2020-12-20T11:29:19.000Z</time>
      </trkpt>
      <trkpt lat="47.12003" lon="-1.84165">
        <ele>54</ele>
        <time>2020-12-20T11:29:21.000Z</time>
      </trkpt>
      <trkpt lat="47.12002" lon="-1.84186">
        <ele>55</ele>
        <time>2020-12-20T11:29:23.000Z</time>
      </trkpt>
      <trkpt lat="47.12001" lon="-1.84207">
        <ele>55</ele>
        <time>2020-12-20T11:29:25.000Z</time>
      </trkpt>
      <trkpt lat="47.11999" lon="-1.84227">
        <ele>55</ele>
        <time>2020-12-20T11:29:27.000Z</time>
      </trkpt>
      <trkpt lat="47.11998" lon="-1.84247">
        <ele>55</ele>
        <time>2020-12-20T11:29:29.000Z</time>
      </trkpt>
      <trkpt lat="47.11997" lon="-1.84267">
        <ele>56</ele>
        <time>2020-12-20T11:29:31.000Z</time>
      </trkpt>
      <trkpt lat="47.11997" lon="-1.84285">
        <ele>56</ele>
        <time>2020-12-20T11:29:33.000Z</time>
      </trkpt>
      <trkpt lat="47.11996" lon="-1.84303">
        <ele>56</ele>
        <time>2020-12-20T11:29:35.000Z</time>
      </trkpt>
      <trkpt lat="47.11995" lon="-1.8432">
        <ele>56</ele>
        <time>2020-12-20T11:29:37.000Z</time>
      </trkpt>
      <trkpt lat="47.11994" lon="-1.84337">
        <ele>56</ele>
        <time>2020-12-20T11:29:39.000Z</time>
      </trkpt>
      <trkpt lat="47.11993" lon="-1.84354">
        <ele>56</ele>
        <time>2020-12-20T11:29:41.000Z</time>
      </trkpt>
      <trkpt lat="47.11992" lon="-1.84371">
        <ele>57</ele>
        <time>2020-12-20T11:29:43.000Z</time>
      </trkpt>
      <trkpt lat="47.11991" lon="-1.84388">
        <ele>57</ele>
        <time>2020-12-20T11:29:45.000Z</time>
      </trkpt>
      <trkpt lat="47.1199" lon="-1.84405">
        <ele>57</ele>
        <time>2020-12-20T11:29:47.000Z</time>
      </trkpt>
      <trkpt lat="47.1199" lon="-1.84421">
        <ele>57</ele>
        <time>2020-12-20T11:29:49.000Z</time>
      </trkpt>
      <trkpt lat="47.1199" lon="-1.84438">
        <ele>57</ele>
        <time>2020-12-20T11:29:51.000Z</time>
      </trkpt>
      <trkpt lat="47.1199" lon="-1.84454">
        <ele>57</ele>
        <time>2020-12-20T11:29:53.000Z</time>
      </trkpt>
      <trkpt lat="47.1199" lon="-1.8447">
        <ele>57</ele>
        <time>2020-12-20T11:29:55.000Z</time>
      </trkpt>
      <trkpt lat="47.1199" lon="-1.84486">
        <ele>57</ele>
        <time>2020-12-20T11:29:57.000Z</time>
      </trkpt>
      <trkpt lat="47.11991" lon="-1.84501">
        <ele>57</ele>
        <time>2020-12-20T11:29:59.000Z</time>
      </trkpt>
      <trkpt lat="47.11991" lon="-1.84518">
        <ele>58</ele>
        <time>2020-12-20T11:30:01.000Z</time>
      </trkpt>
      <trkpt lat="47.11992" lon="-1.84533">
        <ele>58</ele>
        <time>2020-12-20T11:30:03.000Z</time>
      </trkpt>
      <trkpt lat="47.11992" lon="-1.8455">
        <ele>58</ele>
        <time>2020-12-20T11:30:05.000Z</time>
      </trkpt>
      <trkpt lat="47.11992" lon="-1.84566">
        <ele>58</ele>
        <time>2020-12-20T11:30:07.000Z</time>
      </trkpt>
      <trkpt lat="47.11993" lon="-1.84582">
        <ele>58</ele>
        <time>2020-12-20T11:30:09.000Z</time>
      </trkpt>
      <trkpt lat="47.11993" lon="-1.84599">
        <ele>58</ele>
        <time>2020-12-20T11:30:11.000Z</time>
      </trkpt>
      <trkpt lat="47.11993" lon="-1.84614">
        <ele>58</ele>
        <time>2020-12-20T11:30:13.000Z</time>
      </trkpt>
      <trkpt lat="47.11992" lon="-1.8463">
        <ele>57</ele>
        <time>2020-12-20T11:30:15.000Z</time>
      </trkpt>
      <trkpt lat="47.11991" lon="-1.84647">
        <ele>57</ele>
        <time>2020-12-20T11:30:17.000Z</time>
      </trkpt>
      <trkpt lat="47.11989" lon="-1.84664">
        <ele>57</ele>
        <time>2020-12-20T11:30:19.000Z</time>
      </trkpt>
      <trkpt lat="47.11987" lon="-1.84681">
        <ele>57</ele>
        <time>2020-12-20T11:30:21.000Z</time>
      </trkpt>
      <trkpt lat="47.11984" lon="-1.84698">
        <ele>56</ele>
        <time>2020-12-20T11:30:23.000Z</time>
      </trkpt>
      <trkpt lat="47.11982" lon="-1.84714">
        <ele>56</ele>
        <time>2020-12-20T11:30:25.000Z</time>
      </trkpt>
      <trkpt lat="47.1198" lon="-1.84731">
        <ele>56</ele>
        <time>2020-12-20T11:30:27.000Z</time>
      </trkpt>
      <trkpt lat="47.11978" lon="-1.84749">
        <ele>56</ele>
        <time>2020-12-20T11:30:29.000Z</time>
      </trkpt>
      <trkpt lat="47.11976" lon="-1.84766">
        <ele>56</ele>
        <time>2020-12-20T11:30:31.000Z</time>
      </trkpt>
      <trkpt lat="47.11974" lon="-1.84783">
        <ele>56</ele>
        <time>2020-12-20T11:30:33.000Z</time>
      </trkpt>
      <trkpt lat="47.11972" lon="-1.848">
        <ele>56</ele>
        <time>2020-12-20T11:30:35.000Z</time>
      </trkpt>
      <trkpt lat="47.1197" lon="-1.84817">
        <ele>56</ele>
        <time>2020-12-20T11:30:37.000Z</time>
      </trkpt>
      <trkpt lat="47.11968" lon="-1.84834">
        <ele>56</ele>
        <time>2020-12-20T11:30:39.000Z</time>
      </trkpt>
      <trkpt lat="47.11966" lon="-1.84851">
        <ele>56</ele>
        <time>2020-12-20T11:30:41.000Z</time>
      </trkpt>
      <trkpt lat="47.11964" lon="-1.84868">
        <ele>56</ele>
        <time>2020-12-20T11:30:43.000Z</time>
      </trkpt>
      <trkpt lat="47.11961" lon="-1.84885">
        <ele>57</ele>
        <time>2020-12-20T11:30:45.000Z</time>
      </trkpt>
      <trkpt lat="47.1196" lon="-1.84901">
        <ele>57</ele>
        <time>2020-12-20T11:30:47.000Z</time>
      </trkpt>
      <trkpt lat="47.11958" lon="-1.84918">
        <ele>57</ele>
        <time>2020-12-20T11:30:49.000Z</time>
      </trkpt>
      <trkpt lat="47.11956" lon="-1.84933">
        <ele>57</ele>
        <time>2020-12-20T11:30:51.000Z</time>
      </trkpt>
      <trkpt lat="47.11954" lon="-1.8495">
        <ele>57</ele>
        <time>2020-12-20T11:30:53.000Z</time>
      </trkpt>
      <trkpt lat="47.11952" lon="-1.84967">
        <ele>57</ele>
        <time>2020-12-20T11:30:55.000Z</time>
      </trkpt>
      <trkpt lat="47.1195" lon="-1.84984">
        <ele>57</ele>
        <time>2020-12-20T11:30:57.000Z</time>
      </trkpt>
      <trkpt lat="47.11947" lon="-1.85">
        <ele>57</ele>
        <time>2020-12-20T11:30:59.000Z</time>
      </trkpt>
      <trkpt lat="47.11942" lon="-1.85015">
        <ele>57</ele>
        <time>2020-12-20T11:31:01.000Z</time>
      </trkpt>
      <trkpt lat="47.11937" lon="-1.8503">
        <ele>57</ele>
        <time>2020-12-20T11:31:03.000Z</time>
      </trkpt>
      <trkpt lat="47.11931" lon="-1.85044">
        <ele>57</ele>
        <time>2020-12-20T11:31:05.000Z</time>
      </trkpt>
      <trkpt lat="47.11926" lon="-1.85058">
        <ele>57</ele>
        <time>2020-12-20T11:31:07.000Z</time>
      </trkpt>
      <trkpt lat="47.1192" lon="-1.85072">
        <ele>57</ele>
        <time>2020-12-20T11:31:09.000Z</time>
      </trkpt>
      <trkpt lat="47.11915" lon="-1.85087">
        <ele>57</ele>
        <time>2020-12-20T11:31:11.000Z</time>
      </trkpt>
      <trkpt lat="47.11909" lon="-1.85101">
        <ele>58</ele>
        <time>2020-12-20T11:31:13.000Z</time>
      </trkpt>
      <trkpt lat="47.11903" lon="-1.85115">
        <ele>58</ele>
        <time>2020-12-20T11:31:15.000Z</time>
      </trkpt>
      <trkpt lat="47.11897" lon="-1.85129">
        <ele>58</ele>
        <time>2020-12-20T11:31:17.000Z</time>
      </trkpt>
      <trkpt lat="47.11891" lon="-1.85143">
        <ele>59</ele>
        <time>2020-12-20T11:31:19.000Z</time>
      </trkpt>
      <trkpt lat="47.11885" lon="-1.85157">
        <ele>59</ele>
        <time>2020-12-20T11:31:21.000Z</time>
      </trkpt>
      <trkpt lat="47.11879" lon="-1.8517">
        <ele>59</ele>
        <time>2020-12-20T11:31:23.000Z</time>
      </trkpt>
      <trkpt lat="47.11874" lon="-1.85184">
        <ele>59</ele>
        <time>2020-12-20T11:31:25.000Z</time>
      </trkpt>
      <trkpt lat="47.11869" lon="-1.85199">
        <ele>60</ele>
        <time>2020-12-20T11:31:27.000Z</time>
      </trkpt>
      <trkpt lat="47.11865" lon="-1.85214">
        <ele>60</ele>
        <time>2020-12-20T11:31:29.000Z</time>
      </trkpt>
      <trkpt lat="47.11863" lon="-1.85229">
        <ele>60</ele>
        <time>2020-12-20T11:31:31.000Z</time>
      </trkpt>
      <trkpt lat="47.1186" lon="-1.85245">
        <ele>60</ele>
        <time>2020-12-20T11:31:33.000Z</time>
      </trkpt>
      <trkpt lat="47.11859" lon="-1.85261">
        <ele>60</ele>
        <time>2020-12-20T11:31:35.000Z</time>
      </trkpt>
      <trkpt lat="47.11857" lon="-1.85277">
        <ele>60</ele>
        <time>2020-12-20T11:31:37.000Z</time>
      </trkpt>
      <trkpt lat="47.11855" lon="-1.85292">
        <ele>60</ele>
        <time>2020-12-20T11:31:39.000Z</time>
      </trkpt>
      <trkpt lat="47.11853" lon="-1.85308">
        <ele>60</ele>
        <time>2020-12-20T11:31:41.000Z</time>
      </trkpt>
      <trkpt lat="47.11851" lon="-1.85325">
        <ele>60</ele>
        <time>2020-12-20T11:31:43.000Z</time>
      </trkpt>
      <trkpt lat="47.1185" lon="-1.85341">
        <ele>60</ele>
        <time>2020-12-20T11:31:45.000Z</time>
      </trkpt>
      <trkpt lat="47.11847" lon="-1.85356">
        <ele>60</ele>
        <time>2020-12-20T11:31:47.000Z</time>
      </trkpt>
      <trkpt lat="47.11846" lon="-1.85372">
        <ele>61</ele>
        <time>2020-12-20T11:31:49.000Z</time>
      </trkpt>
      <trkpt lat="47.11844" lon="-1.85388">
        <ele>60</ele>
        <time>2020-12-20T11:31:51.000Z</time>
      </trkpt>
      <trkpt lat="47.11842" lon="-1.85404">
        <ele>60</ele>
        <time>2020-12-20T11:31:53.000Z</time>
      </trkpt>
      <trkpt lat="47.1184" lon="-1.8542">
        <ele>60</ele>
        <time>2020-12-20T11:31:55.000Z</time>
      </trkpt>
      <trkpt lat="47.11838" lon="-1.85436">
        <ele>59</ele>
        <time>2020-12-20T11:31:57.000Z</time>
      </trkpt>
      <trkpt lat="47.11835" lon="-1.85453">
        <ele>59</ele>
        <time>2020-12-20T11:31:59.000Z</time>
      </trkpt>
      <trkpt lat="47.11834" lon="-1.85469">
        <ele>59</ele>
        <time>2020-12-20T11:32:01.000Z</time>
      </trkpt>
      <trkpt lat="47.11833" lon="-1.85485">
        <ele>59</ele>
        <time>2020-12-20T11:32:03.000Z</time>
      </trkpt>
      <trkpt lat="47.11833" lon="-1.85502">
        <ele>59</ele>
        <time>2020-12-20T11:32:05.000Z</time>
      </trkpt>
      <trkpt lat="47.11835" lon="-1.85519">
        <ele>59</ele>
        <time>2020-12-20T11:32:07.000Z</time>
      </trkpt>
      <trkpt lat="47.11838" lon="-1.85536">
        <ele>59</ele>
        <time>2020-12-20T11:32:09.000Z</time>
      </trkpt>
      <trkpt lat="47.11841" lon="-1.85553">
        <ele>59</ele>
        <time>2020-12-20T11:32:11.000Z</time>
      </trkpt>
      <trkpt lat="47.11843" lon="-1.85569">
        <ele>59</ele>
        <time>2020-12-20T11:32:13.000Z</time>
      </trkpt>
      <trkpt lat="47.11846" lon="-1.85586">
        <ele>59</ele>
        <time>2020-12-20T11:32:15.000Z</time>
      </trkpt>
      <trkpt lat="47.11848" lon="-1.85602">
        <ele>60</ele>
        <time>2020-12-20T11:32:17.000Z</time>
      </trkpt>
      <trkpt lat="47.1185" lon="-1.85619">
        <ele>60</ele>
        <time>2020-12-20T11:32:19.000Z</time>
      </trkpt>
      <trkpt lat="47.11853" lon="-1.85635">
        <ele>60</ele>
        <time>2020-12-20T11:32:21.000Z</time>
      </trkpt>
      <trkpt lat="47.11855" lon="-1.85652">
        <ele>61</ele>
        <time>2020-12-20T11:32:23.000Z</time>
      </trkpt>
      <trkpt lat="47.11858" lon="-1.85668">
        <ele>61</ele>
        <time>2020-12-20T11:32:25.000Z</time>
      </trkpt>
      <trkpt lat="47.11861" lon="-1.85683">
        <ele>62</ele>
        <time>2020-12-20T11:32:27.000Z</time>
      </trkpt>
      <trkpt lat="47.11863" lon="-1.85697">
        <ele>62</ele>
        <time>2020-12-20T11:32:29.000Z</time>
      </trkpt>
      <trkpt lat="47.11864" lon="-1.85712">
        <ele>63</ele>
        <time>2020-12-20T11:32:31.000Z</time>
      </trkpt>
      <trkpt lat="47.11866" lon="-1.85728">
        <ele>63</ele>
        <time>2020-12-20T11:32:33.000Z</time>
      </trkpt>
      <trkpt lat="47.11869" lon="-1.85742">
        <ele>63</ele>
        <time>2020-12-20T11:32:35.000Z</time>
      </trkpt>
      <trkpt lat="47.11872" lon="-1.85759">
        <ele>63</ele>
        <time>2020-12-20T11:32:37.000Z</time>
      </trkpt>
      <trkpt lat="47.11875" lon="-1.85775">
        <ele>63</ele>
        <time>2020-12-20T11:32:39.000Z</time>
      </trkpt>
      <trkpt lat="47.11877" lon="-1.85791">
        <ele>63</ele>
        <time>2020-12-20T11:32:41.000Z</time>
      </trkpt>
      <trkpt lat="47.11879" lon="-1.85807">
        <ele>62</ele>
        <time>2020-12-20T11:32:43.000Z</time>
      </trkpt>
      <trkpt lat="47.1188" lon="-1.85825">
        <ele>62</ele>
        <time>2020-12-20T11:32:45.000Z</time>
      </trkpt>
      <trkpt lat="47.11881" lon="-1.85842">
        <ele>62</ele>
        <time>2020-12-20T11:32:47.000Z</time>
      </trkpt>
      <trkpt lat="47.11882" lon="-1.8586">
        <ele>61</ele>
        <time>2020-12-20T11:32:49.000Z</time>
      </trkpt>
      <trkpt lat="47.1188" lon="-1.85878">
        <ele>61</ele>
        <time>2020-12-20T11:32:51.000Z</time>
      </trkpt>
      <trkpt lat="47.11875" lon="-1.85895">
        <ele>61</ele>
        <time>2020-12-20T11:32:53.000Z</time>
      </trkpt>
      <trkpt lat="47.1187" lon="-1.85912">
        <ele>61</ele>
        <time>2020-12-20T11:32:55.000Z</time>
      </trkpt>
      <trkpt lat="47.11863" lon="-1.85928">
        <ele>61</ele>
        <time>2020-12-20T11:32:57.000Z</time>
      </trkpt>
      <trkpt lat="47.11854" lon="-1.85943">
        <ele>60</ele>
        <time>2020-12-20T11:32:59.000Z</time>
      </trkpt>
      <trkpt lat="47.11843" lon="-1.85956">
        <ele>60</ele>
        <time>2020-12-20T11:33:01.000Z</time>
      </trkpt>
      <trkpt lat="47.11831" lon="-1.85968">
        <ele>60</ele>
        <time>2020-12-20T11:33:03.000Z</time>
      </trkpt>
      <trkpt lat="47.11819" lon="-1.85978">
        <ele>60</ele>
        <time>2020-12-20T11:33:05.000Z</time>
      </trkpt>
      <trkpt lat="47.11806" lon="-1.85989">
        <ele>59</ele>
        <time>2020-12-20T11:33:07.000Z</time>
      </trkpt>
      <trkpt lat="47.11793" lon="-1.85999">
        <ele>58</ele>
        <time>2020-12-20T11:33:09.000Z</time>
      </trkpt>
      <trkpt lat="47.11782" lon="-1.86011">
        <ele>58</ele>
        <time>2020-12-20T11:33:11.000Z</time>
      </trkpt>
      <trkpt lat="47.11772" lon="-1.86026">
        <ele>57</ele>
        <time>2020-12-20T11:33:13.000Z</time>
      </trkpt>
      <trkpt lat="47.11765" lon="-1.86044">
        <ele>56</ele>
        <time>2020-12-20T11:33:15.000Z</time>
      </trkpt>
      <trkpt lat="47.1176" lon="-1.86062">
        <ele>55</ele>
        <time>2020-12-20T11:33:17.000Z</time>
      </trkpt>
      <trkpt lat="47.11755" lon="-1.8608">
        <ele>54</ele>
        <time>2020-12-20T11:33:19.000Z</time>
      </trkpt>
      <trkpt lat="47.11749" lon="-1.861">
        <ele>54</ele>
        <time>2020-12-20T11:33:21.000Z</time>
      </trkpt>
      <trkpt lat="47.11744" lon="-1.86118">
        <ele>53</ele>
        <time>2020-12-20T11:33:23.000Z</time>
      </trkpt>
      <trkpt lat="47.1174" lon="-1.86137">
        <ele>52</ele>
        <time>2020-12-20T11:33:25.000Z</time>
      </trkpt>
      <trkpt lat="47.11736" lon="-1.86157">
        <ele>52</ele>
        <time>2020-12-20T11:33:27.000Z</time>
      </trkpt>
      <trkpt lat="47.11731" lon="-1.86177">
        <ele>52</ele>
        <time>2020-12-20T11:33:29.000Z</time>
      </trkpt>
      <trkpt lat="47.11727" lon="-1.86197">
        <ele>52</ele>
        <time>2020-12-20T11:33:31.000Z</time>
      </trkpt>
      <trkpt lat="47.11723" lon="-1.86217">
        <ele>52</ele>
        <time>2020-12-20T11:33:33.000Z</time>
      </trkpt>
      <trkpt lat="47.11719" lon="-1.86237">
        <ele>52</ele>
        <time>2020-12-20T11:33:35.000Z</time>
      </trkpt>
      <trkpt lat="47.11716" lon="-1.86256">
        <ele>53</ele>
        <time>2020-12-20T11:33:37.000Z</time>
      </trkpt>
      <trkpt lat="47.11714" lon="-1.86274">
        <ele>53</ele>
        <time>2020-12-20T11:33:39.000Z</time>
      </trkpt>
      <trkpt lat="47.11711" lon="-1.86293">
        <ele>53</ele>
        <time>2020-12-20T11:33:41.000Z</time>
      </trkpt>
      <trkpt lat="47.11708" lon="-1.86312">
        <ele>53</ele>
        <time>2020-12-20T11:33:43.000Z</time>
      </trkpt>
      <trkpt lat="47.11706" lon="-1.86332">
        <ele>53</ele>
        <time>2020-12-20T11:33:45.000Z</time>
      </trkpt>
      <trkpt lat="47.11703" lon="-1.86351">
        <ele>53</ele>
        <time>2020-12-20T11:33:47.000Z</time>
      </trkpt>
      <trkpt lat="47.11699" lon="-1.86371">
        <ele>53</ele>
        <time>2020-12-20T11:33:49.000Z</time>
      </trkpt>
      <trkpt lat="47.11696" lon="-1.8639">
        <ele>53</ele>
        <time>2020-12-20T11:33:51.000Z</time>
      </trkpt>
      <trkpt lat="47.11692" lon="-1.86409">
        <ele>53</ele>
        <time>2020-12-20T11:33:53.000Z</time>
      </trkpt>
      <trkpt lat="47.11689" lon="-1.86428">
        <ele>53</ele>
        <time>2020-12-20T11:33:55.000Z</time>
      </trkpt>
      <trkpt lat="47.11684" lon="-1.86446">
        <ele>53</ele>
        <time>2020-12-20T11:33:57.000Z</time>
      </trkpt>
      <trkpt lat="47.1168" lon="-1.86464">
        <ele>54</ele>
        <time>2020-12-20T11:33:59.000Z</time>
      </trkpt>
      <trkpt lat="47.11676" lon="-1.86482">
        <ele>54</ele>
        <time>2020-12-20T11:34:01.000Z</time>
      </trkpt>
      <trkpt lat="47.11672" lon="-1.86498">
        <ele>54</ele>
        <time>2020-12-20T11:34:03.000Z</time>
      </trkpt>
      <trkpt lat="47.11668" lon="-1.86517">
        <ele>54</ele>
        <time>2020-12-20T11:34:05.000Z</time>
      </trkpt>
      <trkpt lat="47.11666" lon="-1.86535">
        <ele>54</ele>
        <time>2020-12-20T11:34:07.000Z</time>
      </trkpt>
      <trkpt lat="47.11664" lon="-1.86553">
        <ele>54</ele>
        <time>2020-12-20T11:34:09.000Z</time>
      </trkpt>
      <trkpt lat="47.11666" lon="-1.86571">
        <ele>55</ele>
        <time>2020-12-20T11:34:11.000Z</time>
      </trkpt>
      <trkpt lat="47.11668" lon="-1.86587">
        <ele>55</ele>
        <time>2020-12-20T11:34:13.000Z</time>
      </trkpt>
      <trkpt lat="47.11671" lon="-1.86605">
        <ele>55</ele>
        <time>2020-12-20T11:34:15.000Z</time>
      </trkpt>
      <trkpt lat="47.11673" lon="-1.86624">
        <ele>55</ele>
        <time>2020-12-20T11:34:17.000Z</time>
      </trkpt>
      <trkpt lat="47.11674" lon="-1.86642">
        <ele>56</ele>
        <time>2020-12-20T11:34:19.000Z</time>
      </trkpt>
      <trkpt lat="47.11674" lon="-1.86662">
        <ele>55</ele>
        <time>2020-12-20T11:34:21.000Z</time>
      </trkpt>
      <trkpt lat="47.11674" lon="-1.86681">
        <ele>55</ele>
        <time>2020-12-20T11:34:23.000Z</time>
      </trkpt>
      <trkpt lat="47.11673" lon="-1.86701">
        <ele>54</ele>
        <time>2020-12-20T11:34:25.000Z</time>
      </trkpt>
      <trkpt lat="47.11673" lon="-1.86721">
        <ele>54</ele>
        <time>2020-12-20T11:34:27.000Z</time>
      </trkpt>
      <trkpt lat="47.11672" lon="-1.86742">
        <ele>54</ele>
        <time>2020-12-20T11:34:29.000Z</time>
      </trkpt>
      <trkpt lat="47.11671" lon="-1.86762">
        <ele>54</ele>
        <time>2020-12-20T11:34:31.000Z</time>
      </trkpt>
      <trkpt lat="47.1167" lon="-1.86783">
        <ele>53</ele>
        <time>2020-12-20T11:34:33.000Z</time>
      </trkpt>
      <trkpt lat="47.1167" lon="-1.86804">
        <ele>53</ele>
        <time>2020-12-20T11:34:35.000Z</time>
      </trkpt>
      <trkpt lat="47.1167" lon="-1.86825">
        <ele>52</ele>
        <time>2020-12-20T11:34:37.000Z</time>
      </trkpt>
      <trkpt lat="47.11669" lon="-1.86847">
        <ele>52</ele>
        <time>2020-12-20T11:34:39.000Z</time>
      </trkpt>
      <trkpt lat="47.11669" lon="-1.86867">
        <ele>52</ele>
        <time>2020-12-20T11:34:41.000Z</time>
      </trkpt>
      <trkpt lat="47.11668" lon="-1.86887">
        <ele>52</ele>
        <time>2020-12-20T11:34:43.000Z</time>
      </trkpt>
      <trkpt lat="47.11668" lon="-1.86906">
        <ele>52</ele>
        <time>2020-12-20T11:34:45.000Z</time>
      </trkpt>
      <trkpt lat="47.11668" lon="-1.86925">
        <ele>52</ele>
        <time>2020-12-20T11:34:47.000Z</time>
      </trkpt>
      <trkpt lat="47.11667" lon="-1.86944">
        <ele>52</ele>
        <time>2020-12-20T11:34:49.000Z</time>
      </trkpt>
      <trkpt lat="47.11666" lon="-1.86963">
        <ele>53</ele>
        <time>2020-12-20T11:34:51.000Z</time>
      </trkpt>
      <trkpt lat="47.11662" lon="-1.86981">
        <ele>53</ele>
        <time>2020-12-20T11:34:53.000Z</time>
      </trkpt>
      <trkpt lat="47.11658" lon="-1.86999">
        <ele>54</ele>
        <time>2020-12-20T11:34:55.000Z</time>
      </trkpt>
      <trkpt lat="47.11654" lon="-1.87017">
        <ele>55</ele>
        <time>2020-12-20T11:34:57.000Z</time>
      </trkpt>
      <trkpt lat="47.11649" lon="-1.87036">
        <ele>56</ele>
        <time>2020-12-20T11:34:59.000Z</time>
      </trkpt>
      <trkpt lat="47.11643" lon="-1.87054">
        <ele>55</ele>
        <time>2020-12-20T11:35:01.000Z</time>
      </trkpt>
      <trkpt lat="47.11637" lon="-1.87072">
        <ele>55</ele>
        <time>2020-12-20T11:35:03.000Z</time>
      </trkpt>
      <trkpt lat="47.11631" lon="-1.87091">
        <ele>55</ele>
        <time>2020-12-20T11:35:05.000Z</time>
      </trkpt>
      <trkpt lat="47.11626" lon="-1.8711">
        <ele>55</ele>
        <time>2020-12-20T11:35:07.000Z</time>
      </trkpt>
      <trkpt lat="47.11623" lon="-1.87129">
        <ele>55</ele>
        <time>2020-12-20T11:35:09.000Z</time>
      </trkpt>
      <trkpt lat="47.11621" lon="-1.87149">
        <ele>54</ele>
        <time>2020-12-20T11:35:11.000Z</time>
      </trkpt>
      <trkpt lat="47.11622" lon="-1.87167">
        <ele>54</ele>
        <time>2020-12-20T11:35:13.000Z</time>
      </trkpt>
      <trkpt lat="47.11625" lon="-1.87186">
        <ele>54</ele>
        <time>2020-12-20T11:35:15.000Z</time>
      </trkpt>
      <trkpt lat="47.11629" lon="-1.87203">
        <ele>54</ele>
        <time>2020-12-20T11:35:17.000Z</time>
      </trkpt>
      <trkpt lat="47.11633" lon="-1.8722">
        <ele>55</ele>
        <time>2020-12-20T11:35:19.000Z</time>
      </trkpt>
      <trkpt lat="47.11638" lon="-1.87236">
        <ele>55</ele>
        <time>2020-12-20T11:35:21.000Z</time>
      </trkpt>
      <trkpt lat="47.11643" lon="-1.87254">
        <ele>54</ele>
        <time>2020-12-20T11:35:23.000Z</time>
      </trkpt>
      <trkpt lat="47.11647" lon="-1.87273">
        <ele>54</ele>
        <time>2020-12-20T11:35:25.000Z</time>
      </trkpt>
      <trkpt lat="47.11651" lon="-1.87291">
        <ele>54</ele>
        <time>2020-12-20T11:35:27.000Z</time>
      </trkpt>
      <trkpt lat="47.11655" lon="-1.87308">
        <ele>53</ele>
        <time>2020-12-20T11:35:29.000Z</time>
      </trkpt>
      <trkpt lat="47.11659" lon="-1.87325">
        <ele>53</ele>
        <time>2020-12-20T11:35:31.000Z</time>
      </trkpt>
      <trkpt lat="47.11665" lon="-1.8734">
        <ele>53</ele>
        <time>2020-12-20T11:35:33.000Z</time>
      </trkpt>
      <trkpt lat="47.11674" lon="-1.87355">
        <ele>54</ele>
        <time>2020-12-20T11:35:35.000Z</time>
      </trkpt>
      <trkpt lat="47.11683" lon="-1.87368">
        <ele>54</ele>
        <time>2020-12-20T11:35:37.000Z</time>
      </trkpt>
      <trkpt lat="47.11692" lon="-1.87381">
        <ele>54</ele>
        <time>2020-12-20T11:35:39.000Z</time>
      </trkpt>
      <trkpt lat="47.117" lon="-1.87393">
        <ele>54</ele>
        <time>2020-12-20T11:35:41.000Z</time>
      </trkpt>
      <trkpt lat="47.1171" lon="-1.87405">
        <ele>55</ele>
        <time>2020-12-20T11:35:43.000Z</time>
      </trkpt>
      <trkpt lat="47.11719" lon="-1.87418">
        <ele>55</ele>
        <time>2020-12-20T11:35:45.000Z</time>
      </trkpt>
      <trkpt lat="47.11727" lon="-1.8743">
        <ele>54</ele>
        <time>2020-12-20T11:35:47.000Z</time>
      </trkpt>
      <trkpt lat="47.11735" lon="-1.87443">
        <ele>55</ele>
        <time>2020-12-20T11:35:49.000Z</time>
      </trkpt>
      <trkpt lat="47.11742" lon="-1.87458">
        <ele>55</ele>
        <time>2020-12-20T11:35:51.000Z</time>
      </trkpt>
      <trkpt lat="47.11748" lon="-1.87475">
        <ele>55</ele>
        <time>2020-12-20T11:35:53.000Z</time>
      </trkpt>
      <trkpt lat="47.11752" lon="-1.87493">
        <ele>56</ele>
        <time>2020-12-20T11:35:55.000Z</time>
      </trkpt>
      <trkpt lat="47.11756" lon="-1.87511">
        <ele>56</ele>
        <time>2020-12-20T11:35:57.000Z</time>
      </trkpt>
      <trkpt lat="47.11759" lon="-1.87529">
        <ele>57</ele>
        <time>2020-12-20T11:35:59.000Z</time>
      </trkpt>
      <trkpt lat="47.11762" lon="-1.87547">
        <ele>58</ele>
        <time>2020-12-20T11:36:01.000Z</time>
      </trkpt>
      <trkpt lat="47.11765" lon="-1.87565">
        <ele>58</ele>
        <time>2020-12-20T11:36:03.000Z</time>
      </trkpt>
      <trkpt lat="47.11768" lon="-1.87583">
        <ele>58</ele>
        <time>2020-12-20T11:36:05.000Z</time>
      </trkpt>
      <trkpt lat="47.11771" lon="-1.876">
        <ele>58</ele>
        <time>2020-12-20T11:36:07.000Z</time>
      </trkpt>
      <trkpt lat="47.11774" lon="-1.87617">
        <ele>58</ele>
        <time>2020-12-20T11:36:09.000Z</time>
      </trkpt>
      <trkpt lat="47.11778" lon="-1.87634">
        <ele>59</ele>
        <time>2020-12-20T11:36:11.000Z</time>
      </trkpt>
      <trkpt lat="47.1178" lon="-1.8765">
        <ele>59</ele>
        <time>2020-12-20T11:36:13.000Z</time>
      </trkpt>
      <trkpt lat="47.11782" lon="-1.87663">
        <ele>59</ele>
        <time>2020-12-20T11:36:15.000Z</time>
      </trkpt>
      <trkpt lat="47.11785" lon="-1.87682">
        <ele>59</ele>
        <time>2020-12-20T11:36:18.000Z</time>
      </trkpt>
      <trkpt lat="47.11788" lon="-1.87696">
        <ele>59</ele>
        <time>2020-12-20T11:36:21.000Z</time>
      </trkpt>
      <trkpt lat="47.1179" lon="-1.8771">
        <ele>60</ele>
        <time>2020-12-20T11:36:23.000Z</time>
      </trkpt>
      <trkpt lat="47.11791" lon="-1.87726">
        <ele>60</ele>
        <time>2020-12-20T11:36:25.000Z</time>
      </trkpt>
      <trkpt lat="47.1179" lon="-1.87743">
        <ele>60</ele>
        <time>2020-12-20T11:36:27.000Z</time>
      </trkpt>
      <trkpt lat="47.11788" lon="-1.87759">
        <ele>60</ele>
        <time>2020-12-20T11:36:29.000Z</time>
      </trkpt>
      <trkpt lat="47.11785" lon="-1.87777">
        <ele>60</ele>
        <time>2020-12-20T11:36:31.000Z</time>
      </trkpt>
      <trkpt lat="47.11782" lon="-1.87793">
        <ele>60</ele>
        <time>2020-12-20T11:36:33.000Z</time>
      </trkpt>
      <trkpt lat="47.11779" lon="-1.87809">
        <ele>60</ele>
        <time>2020-12-20T11:36:35.000Z</time>
      </trkpt>
      <trkpt lat="47.11776" lon="-1.87825">
        <ele>60</ele>
        <time>2020-12-20T11:36:37.000Z</time>
      </trkpt>
      <trkpt lat="47.11774" lon="-1.87841">
        <ele>59</ele>
        <time>2020-12-20T11:36:39.000Z</time>
      </trkpt>
      <trkpt lat="47.11772" lon="-1.87858">
        <ele>59</ele>
        <time>2020-12-20T11:36:41.000Z</time>
      </trkpt>
      <trkpt lat="47.1177" lon="-1.87876">
        <ele>59</ele>
        <time>2020-12-20T11:36:43.000Z</time>
      </trkpt>
      <trkpt lat="47.11771" lon="-1.87894">
        <ele>58</ele>
        <time>2020-12-20T11:36:45.000Z</time>
      </trkpt>
      <trkpt lat="47.11774" lon="-1.87911">
        <ele>58</ele>
        <time>2020-12-20T11:36:47.000Z</time>
      </trkpt>
      <trkpt lat="47.11779" lon="-1.87927">
        <ele>58</ele>
        <time>2020-12-20T11:36:49.000Z</time>
      </trkpt>
      <trkpt lat="47.11785" lon="-1.87943">
        <ele>58</ele>
        <time>2020-12-20T11:36:51.000Z</time>
      </trkpt>
      <trkpt lat="47.1179" lon="-1.8796">
        <ele>58</ele>
        <time>2020-12-20T11:36:53.000Z</time>
      </trkpt>
      <trkpt lat="47.11794" lon="-1.87977">
        <ele>57</ele>
        <time>2020-12-20T11:36:55.000Z</time>
      </trkpt>
      <trkpt lat="47.11797" lon="-1.87995">
        <ele>57</ele>
        <time>2020-12-20T11:36:57.000Z</time>
      </trkpt>
      <trkpt lat="47.11801" lon="-1.88012">
        <ele>57</ele>
        <time>2020-12-20T11:36:59.000Z</time>
      </trkpt>
      <trkpt lat="47.11807" lon="-1.88028">
        <ele>57</ele>
        <time>2020-12-20T11:37:01.000Z</time>
      </trkpt>
      <trkpt lat="47.11815" lon="-1.88046">
        <ele>56</ele>
        <time>2020-12-20T11:37:03.000Z</time>
      </trkpt>
      <trkpt lat="47.11823" lon="-1.8806">
        <ele>55</ele>
        <time>2020-12-20T11:37:05.000Z</time>
      </trkpt>
      <trkpt lat="47.11832" lon="-1.88074">
        <ele>55</ele>
        <time>2020-12-20T11:37:07.000Z</time>
      </trkpt>
      <trkpt lat="47.1184" lon="-1.88087">
        <ele>56</ele>
        <time>2020-12-20T11:37:09.000Z</time>
      </trkpt>
      <trkpt lat="47.11848" lon="-1.88102">
        <ele>57</ele>
        <time>2020-12-20T11:37:11.000Z</time>
      </trkpt>
      <trkpt lat="47.11856" lon="-1.88115">
        <ele>57</ele>
        <time>2020-12-20T11:37:13.000Z</time>
      </trkpt>
      <trkpt lat="47.11864" lon="-1.88129">
        <ele>58</ele>
        <time>2020-12-20T11:37:15.000Z</time>
      </trkpt>
      <trkpt lat="47.11872" lon="-1.88143">
        <ele>57</ele>
        <time>2020-12-20T11:37:17.000Z</time>
      </trkpt>
      <trkpt lat="47.11881" lon="-1.88156">
        <ele>57</ele>
        <time>2020-12-20T11:37:19.000Z</time>
      </trkpt>
      <trkpt lat="47.11889" lon="-1.8817">
        <ele>57</ele>
        <time>2020-12-20T11:37:21.000Z</time>
      </trkpt>
      <trkpt lat="47.11896" lon="-1.88185">
        <ele>58</ele>
        <time>2020-12-20T11:37:23.000Z</time>
      </trkpt>
      <trkpt lat="47.11904" lon="-1.88199">
        <ele>58</ele>
        <time>2020-12-20T11:37:25.000Z</time>
      </trkpt>
      <trkpt lat="47.11914" lon="-1.88212">
        <ele>58</ele>
        <time>2020-12-20T11:37:27.000Z</time>
      </trkpt>
      <trkpt lat="47.11924" lon="-1.88224">
        <ele>58</ele>
        <time>2020-12-20T11:37:29.000Z</time>
      </trkpt>
      <trkpt lat="47.11936" lon="-1.88232">
        <ele>58</ele>
        <time>2020-12-20T11:37:31.000Z</time>
      </trkpt>
      <trkpt lat="47.11949" lon="-1.88235">
        <ele>58</ele>
        <time>2020-12-20T11:37:33.000Z</time>
      </trkpt>
      <trkpt lat="47.11961" lon="-1.88236">
        <ele>58</ele>
        <time>2020-12-20T11:37:35.000Z</time>
      </trkpt>
      <trkpt lat="47.11973" lon="-1.88236">
        <ele>58</ele>
        <time>2020-12-20T11:37:37.000Z</time>
      </trkpt>
      <trkpt lat="47.11985" lon="-1.88236">
        <ele>58</ele>
        <time>2020-12-20T11:37:39.000Z</time>
      </trkpt>
      <trkpt lat="47.11997" lon="-1.88235">
        <ele>59</ele>
        <time>2020-12-20T11:37:41.000Z</time>
      </trkpt>
      <trkpt lat="47.12009" lon="-1.88235">
        <ele>59</ele>
        <time>2020-12-20T11:37:43.000Z</time>
      </trkpt>
      <trkpt lat="47.12021" lon="-1.88234">
        <ele>59</ele>
        <time>2020-12-20T11:37:45.000Z</time>
      </trkpt>
      <trkpt lat="47.12033" lon="-1.88234">
        <ele>59</ele>
        <time>2020-12-20T11:37:47.000Z</time>
      </trkpt>
      <trkpt lat="47.12045" lon="-1.88237">
        <ele>59</ele>
        <time>2020-12-20T11:37:49.000Z</time>
      </trkpt>
      <trkpt lat="47.12055" lon="-1.88242">
        <ele>60</ele>
        <time>2020-12-20T11:37:51.000Z</time>
      </trkpt>
      <trkpt lat="47.12065" lon="-1.8825">
        <ele>61</ele>
        <time>2020-12-20T11:37:53.000Z</time>
      </trkpt>
      <trkpt lat="47.12074" lon="-1.88261">
        <ele>61</ele>
        <time>2020-12-20T11:37:55.000Z</time>
      </trkpt>
      <trkpt lat="47.12083" lon="-1.88272">
        <ele>62</ele>
        <time>2020-12-20T11:37:57.000Z</time>
      </trkpt>
      <trkpt lat="47.1209" lon="-1.88285">
        <ele>62</ele>
        <time>2020-12-20T11:37:59.000Z</time>
      </trkpt>
      <trkpt lat="47.12099" lon="-1.88299">
        <ele>62</ele>
        <time>2020-12-20T11:38:01.000Z</time>
      </trkpt>
      <trkpt lat="47.12106" lon="-1.88313">
        <ele>62</ele>
        <time>2020-12-20T11:38:03.000Z</time>
      </trkpt>
      <trkpt lat="47.12114" lon="-1.88326">
        <ele>62</ele>
        <time>2020-12-20T11:38:05.000Z</time>
      </trkpt>
      <trkpt lat="47.12121" lon="-1.8834">
        <ele>62</ele>
        <time>2020-12-20T11:38:07.000Z</time>
      </trkpt>
      <trkpt lat="47.12128" lon="-1.88355">
        <ele>62</ele>
        <time>2020-12-20T11:38:09.000Z</time>
      </trkpt>
      <trkpt lat="47.12135" lon="-1.8837">
        <ele>62</ele>
        <time>2020-12-20T11:38:11.000Z</time>
      </trkpt>
      <trkpt lat="47.12142" lon="-1.88386">
        <ele>62</ele>
        <time>2020-12-20T11:38:13.000Z</time>
      </trkpt>
      <trkpt lat="47.12147" lon="-1.88401">
        <ele>62</ele>
        <time>2020-12-20T11:38:15.000Z</time>
      </trkpt>
      <trkpt lat="47.12153" lon="-1.88417">
        <ele>62</ele>
        <time>2020-12-20T11:38:17.000Z</time>
      </trkpt>
      <trkpt lat="47.12159" lon="-1.88433">
        <ele>62</ele>
        <time>2020-12-20T11:38:19.000Z</time>
      </trkpt>
      <trkpt lat="47.12166" lon="-1.88449">
        <ele>61</ele>
        <time>2020-12-20T11:38:21.000Z</time>
      </trkpt>
      <trkpt lat="47.12173" lon="-1.88466">
        <ele>61</ele>
        <time>2020-12-20T11:38:23.000Z</time>
      </trkpt>
      <trkpt lat="47.1218" lon="-1.88481">
        <ele>60</ele>
        <time>2020-12-20T11:38:25.000Z</time>
      </trkpt>
      <trkpt lat="47.12187" lon="-1.88498">
        <ele>60</ele>
        <time>2020-12-20T11:38:27.000Z</time>
      </trkpt>
      <trkpt lat="47.12195" lon="-1.88515">
        <ele>60</ele>
        <time>2020-12-20T11:38:29.000Z</time>
      </trkpt>
      <trkpt lat="47.12203" lon="-1.88531">
        <ele>60</ele>
        <time>2020-12-20T11:38:31.000Z</time>
      </trkpt>
      <trkpt lat="47.1221" lon="-1.88549">
        <ele>60</ele>
        <time>2020-12-20T11:38:33.000Z</time>
      </trkpt>
      <trkpt lat="47.12218" lon="-1.88565">
        <ele>60</ele>
        <time>2020-12-20T11:38:35.000Z</time>
      </trkpt>
      <trkpt lat="47.12226" lon="-1.88582">
        <ele>60</ele>
        <time>2020-12-20T11:38:37.000Z</time>
      </trkpt>
      <trkpt lat="47.12233" lon="-1.88598">
        <ele>59</ele>
        <time>2020-12-20T11:38:39.000Z</time>
      </trkpt>
      <trkpt lat="47.12241" lon="-1.88614">
        <ele>58</ele>
        <time>2020-12-20T11:38:41.000Z</time>
      </trkpt>
      <trkpt lat="47.1225" lon="-1.8863">
        <ele>57</ele>
        <time>2020-12-20T11:38:43.000Z</time>
      </trkpt>
      <trkpt lat="47.12258" lon="-1.88645">
        <ele>57</ele>
        <time>2020-12-20T11:38:45.000Z</time>
      </trkpt>
      <trkpt lat="47.12266" lon="-1.8866">
        <ele>57</ele>
        <time>2020-12-20T11:38:47.000Z</time>
      </trkpt>
      <trkpt lat="47.12275" lon="-1.88674">
        <ele>57</ele>
        <time>2020-12-20T11:38:49.000Z</time>
      </trkpt>
      <trkpt lat="47.12283" lon="-1.88688">
        <ele>57</ele>
        <time>2020-12-20T11:38:51.000Z</time>
      </trkpt>
      <trkpt lat="47.12291" lon="-1.88702">
        <ele>58</ele>
        <time>2020-12-20T11:38:53.000Z</time>
      </trkpt>
      <trkpt lat="47.12298" lon="-1.88716">
        <ele>58</ele>
        <time>2020-12-20T11:38:55.000Z</time>
      </trkpt>
      <trkpt lat="47.12306" lon="-1.88731">
        <ele>58</ele>
        <time>2020-12-20T11:38:57.000Z</time>
      </trkpt>
      <trkpt lat="47.12315" lon="-1.88746">
        <ele>58</ele>
        <time>2020-12-20T11:38:59.000Z</time>
      </trkpt>
      <trkpt lat="47.12322" lon="-1.88762">
        <ele>58</ele>
        <time>2020-12-20T11:39:01.000Z</time>
      </trkpt>
      <trkpt lat="47.1233" lon="-1.88776">
        <ele>58</ele>
        <time>2020-12-20T11:39:03.000Z</time>
      </trkpt>
      <trkpt lat="47.12337" lon="-1.88792">
        <ele>58</ele>
        <time>2020-12-20T11:39:05.000Z</time>
      </trkpt>
      <trkpt lat="47.12345" lon="-1.88807">
        <ele>59</ele>
        <time>2020-12-20T11:39:07.000Z</time>
      </trkpt>
      <trkpt lat="47.12353" lon="-1.88822">
        <ele>59</ele>
        <time>2020-12-20T11:39:09.000Z</time>
      </trkpt>
      <trkpt lat="47.12361" lon="-1.88838">
        <ele>59</ele>
        <time>2020-12-20T11:39:11.000Z</time>
      </trkpt>
      <trkpt lat="47.12368" lon="-1.88854">
        <ele>60</ele>
        <time>2020-12-20T11:39:13.000Z</time>
      </trkpt>
      <trkpt lat="47.12376" lon="-1.88871">
        <ele>60</ele>
        <time>2020-12-20T11:39:15.000Z</time>
      </trkpt>
      <trkpt lat="47.12383" lon="-1.88887">
        <ele>60</ele>
        <time>2020-12-20T11:39:17.000Z</time>
      </trkpt>
      <trkpt lat="47.1239" lon="-1.88902">
        <ele>60</ele>
        <time>2020-12-20T11:39:19.000Z</time>
      </trkpt>
      <trkpt lat="47.12398" lon="-1.88918">
        <ele>61</ele>
        <time>2020-12-20T11:39:21.000Z</time>
      </trkpt>
      <trkpt lat="47.12405" lon="-1.88933">
        <ele>61</ele>
        <time>2020-12-20T11:39:23.000Z</time>
      </trkpt>
      <trkpt lat="47.12413" lon="-1.88949">
        <ele>60</ele>
        <time>2020-12-20T11:39:25.000Z</time>
      </trkpt>
      <trkpt lat="47.1242" lon="-1.88965">
        <ele>60</ele>
        <time>2020-12-20T11:39:27.000Z</time>
      </trkpt>
      <trkpt lat="47.12427" lon="-1.88981">
        <ele>61</ele>
        <time>2020-12-20T11:39:29.000Z</time>
      </trkpt>
      <trkpt lat="47.12434" lon="-1.88996">
        <ele>61</ele>
        <time>2020-12-20T11:39:31.000Z</time>
      </trkpt>
      <trkpt lat="47.12441" lon="-1.89012">
        <ele>61</ele>
        <time>2020-12-20T11:39:33.000Z</time>
      </trkpt>
      <trkpt lat="47.12449" lon="-1.89028">
        <ele>61</ele>
        <time>2020-12-20T11:39:35.000Z</time>
      </trkpt>
      <trkpt lat="47.12456" lon="-1.89043">
        <ele>61</ele>
        <time>2020-12-20T11:39:37.000Z</time>
      </trkpt>
      <trkpt lat="47.12464" lon="-1.89057">
        <ele>61</ele>
        <time>2020-12-20T11:39:39.000Z</time>
      </trkpt>
      <trkpt lat="47.12472" lon="-1.8907">
        <ele>61</ele>
        <time>2020-12-20T11:39:41.000Z</time>
      </trkpt>
      <trkpt lat="47.12481" lon="-1.89082">
        <ele>62</ele>
        <time>2020-12-20T11:39:43.000Z</time>
      </trkpt>
      <trkpt lat="47.1249" lon="-1.89093">
        <ele>61</ele>
        <time>2020-12-20T11:39:45.000Z</time>
      </trkpt>
      <trkpt lat="47.125" lon="-1.89102">
        <ele>62</ele>
        <time>2020-12-20T11:39:47.000Z</time>
      </trkpt>
      <trkpt lat="47.1251" lon="-1.89111">
        <ele>62</ele>
        <time>2020-12-20T11:39:49.000Z</time>
      </trkpt>
      <trkpt lat="47.1252" lon="-1.8912">
        <ele>62</ele>
        <time>2020-12-20T11:39:51.000Z</time>
      </trkpt>
      <trkpt lat="47.12529" lon="-1.89128">
        <ele>63</ele>
        <time>2020-12-20T11:39:53.000Z</time>
      </trkpt>
      <trkpt lat="47.12539" lon="-1.89138">
        <ele>62</ele>
        <time>2020-12-20T11:39:55.000Z</time>
      </trkpt>
      <trkpt lat="47.12549" lon="-1.89147">
        <ele>62</ele>
        <time>2020-12-20T11:39:57.000Z</time>
      </trkpt>
      <trkpt lat="47.12559" lon="-1.89157">
        <ele>63</ele>
        <time>2020-12-20T11:39:59.000Z</time>
      </trkpt>
      <trkpt lat="47.12569" lon="-1.89166">
        <ele>63</ele>
        <time>2020-12-20T11:40:01.000Z</time>
      </trkpt>
      <trkpt lat="47.12579" lon="-1.89174">
        <ele>63</ele>
        <time>2020-12-20T11:40:03.000Z</time>
      </trkpt>
      <trkpt lat="47.12588" lon="-1.89183">
        <ele>63</ele>
        <time>2020-12-20T11:40:05.000Z</time>
      </trkpt>
      <trkpt lat="47.12598" lon="-1.89192">
        <ele>63</ele>
        <time>2020-12-20T11:40:07.000Z</time>
      </trkpt>
      <trkpt lat="47.12607" lon="-1.89201">
        <ele>63</ele>
        <time>2020-12-20T11:40:09.000Z</time>
      </trkpt>
      <trkpt lat="47.12617" lon="-1.8921">
        <ele>63</ele>
        <time>2020-12-20T11:40:11.000Z</time>
      </trkpt>
      <trkpt lat="47.12626" lon="-1.8922">
        <ele>63</ele>
        <time>2020-12-20T11:40:13.000Z</time>
      </trkpt>
      <trkpt lat="47.12636" lon="-1.89229">
        <ele>64</ele>
        <time>2020-12-20T11:40:15.000Z</time>
      </trkpt>
      <trkpt lat="47.12645" lon="-1.89237">
        <ele>64</ele>
        <time>2020-12-20T11:40:17.000Z</time>
      </trkpt>
      <trkpt lat="47.12654" lon="-1.89246">
        <ele>63</ele>
        <time>2020-12-20T11:40:19.000Z</time>
      </trkpt>
      <trkpt lat="47.12664" lon="-1.89256">
        <ele>63</ele>
        <time>2020-12-20T11:40:21.000Z</time>
      </trkpt>
      <trkpt lat="47.12674" lon="-1.89266">
        <ele>64</ele>
        <time>2020-12-20T11:40:23.000Z</time>
      </trkpt>
      <trkpt lat="47.12684" lon="-1.89275">
        <ele>64</ele>
        <time>2020-12-20T11:40:25.000Z</time>
      </trkpt>
      <trkpt lat="47.12694" lon="-1.89285">
        <ele>64</ele>
        <time>2020-12-20T11:40:27.000Z</time>
      </trkpt>
      <trkpt lat="47.12703" lon="-1.89295">
        <ele>63</ele>
        <time>2020-12-20T11:40:29.000Z</time>
      </trkpt>
      <trkpt lat="47.12713" lon="-1.89304">
        <ele>63</ele>
        <time>2020-12-20T11:40:31.000Z</time>
      </trkpt>
      <trkpt lat="47.12722" lon="-1.89314">
        <ele>63</ele>
        <time>2020-12-20T11:40:33.000Z</time>
      </trkpt>
      <trkpt lat="47.12732" lon="-1.89323">
        <ele>63</ele>
        <time>2020-12-20T11:40:35.000Z</time>
      </trkpt>
      <trkpt lat="47.12741" lon="-1.89333">
        <ele>63</ele>
        <time>2020-12-20T11:40:37.000Z</time>
      </trkpt>
      <trkpt lat="47.1275" lon="-1.89342">
        <ele>63</ele>
        <time>2020-12-20T11:40:39.000Z</time>
      </trkpt>
      <trkpt lat="47.12758" lon="-1.89351">
        <ele>63</ele>
        <time>2020-12-20T11:40:41.000Z</time>
      </trkpt>
      <trkpt lat="47.12768" lon="-1.89362">
        <ele>63</ele>
        <time>2020-12-20T11:40:44.000Z</time>
      </trkpt>
      <trkpt lat="47.12776" lon="-1.89369">
        <ele>63</ele>
        <time>2020-12-20T11:40:48.000Z</time>
      </trkpt>
      <trkpt lat="47.12785" lon="-1.89379">
        <ele>64</ele>
        <time>2020-12-20T11:41:22.000Z</time>
      </trkpt>
      <trkpt lat="47.12794" lon="-1.89389">
        <ele>63</ele>
        <time>2020-12-20T11:41:24.000Z</time>
      </trkpt>
      <trkpt lat="47.12804" lon="-1.89399">
        <ele>64</ele>
        <time>2020-12-20T11:41:26.000Z</time>
      </trkpt>
      <trkpt lat="47.12814" lon="-1.8941">
        <ele>64</ele>
        <time>2020-12-20T11:41:28.000Z</time>
      </trkpt>
      <trkpt lat="47.12825" lon="-1.8942">
        <ele>64</ele>
        <time>2020-12-20T11:41:30.000Z</time>
      </trkpt>
      <trkpt lat="47.12835" lon="-1.89431">
        <ele>64</ele>
        <time>2020-12-20T11:41:32.000Z</time>
      </trkpt>
      <trkpt lat="47.12845" lon="-1.8944">
        <ele>64</ele>
        <time>2020-12-20T11:41:34.000Z</time>
      </trkpt>
      <trkpt lat="47.12854" lon="-1.89449">
        <ele>64</ele>
        <time>2020-12-20T11:41:36.000Z</time>
      </trkpt>
      <trkpt lat="47.12863" lon="-1.89459">
        <ele>64</ele>
        <time>2020-12-20T11:41:38.000Z</time>
      </trkpt>
      <trkpt lat="47.12873" lon="-1.89469">
        <ele>64</ele>
        <time>2020-12-20T11:41:40.000Z</time>
      </trkpt>
      <trkpt lat="47.12883" lon="-1.89479">
        <ele>65</ele>
        <time>2020-12-20T11:41:42.000Z</time>
      </trkpt>
      <trkpt lat="47.12893" lon="-1.89489">
        <ele>64</ele>
        <time>2020-12-20T11:41:44.000Z</time>
      </trkpt>
      <trkpt lat="47.12902" lon="-1.89498">
        <ele>64</ele>
        <time>2020-12-20T11:41:46.000Z</time>
      </trkpt>
      <trkpt lat="47.12913" lon="-1.89508">
        <ele>64</ele>
        <time>2020-12-20T11:41:48.000Z</time>
      </trkpt>
      <trkpt lat="47.12924" lon="-1.8952">
        <ele>64</ele>
        <time>2020-12-20T11:41:50.000Z</time>
      </trkpt>
      <trkpt lat="47.12935" lon="-1.89531">
        <ele>64</ele>
        <time>2020-12-20T11:41:52.000Z</time>
      </trkpt>
      <trkpt lat="47.12945" lon="-1.89541">
        <ele>65</ele>
        <time>2020-12-20T11:41:54.000Z</time>
      </trkpt>
      <trkpt lat="47.12956" lon="-1.89553">
        <ele>65</ele>
        <time>2020-12-20T11:41:56.000Z</time>
      </trkpt>
      <trkpt lat="47.12968" lon="-1.89564">
        <ele>64</ele>
        <time>2020-12-20T11:41:58.000Z</time>
      </trkpt>
      <trkpt lat="47.12979" lon="-1.89577">
        <ele>63</ele>
        <time>2020-12-20T11:42:00.000Z</time>
      </trkpt>
      <trkpt lat="47.1299" lon="-1.89589">
        <ele>63</ele>
        <time>2020-12-20T11:42:02.000Z</time>
      </trkpt>
      <trkpt lat="47.13002" lon="-1.896">
        <ele>63</ele>
        <time>2020-12-20T11:42:04.000Z</time>
      </trkpt>
      <trkpt lat="47.13013" lon="-1.89612">
        <ele>63</ele>
        <time>2020-12-20T11:42:06.000Z</time>
      </trkpt>
      <trkpt lat="47.13025" lon="-1.89624">
        <ele>63</ele>
        <time>2020-12-20T11:42:08.000Z</time>
      </trkpt>
      <trkpt lat="47.13037" lon="-1.89636">
        <ele>63</ele>
        <time>2020-12-20T11:42:10.000Z</time>
      </trkpt>
      <trkpt lat="47.13048" lon="-1.89648">
        <ele>63</ele>
        <time>2020-12-20T11:42:12.000Z</time>
      </trkpt>
      <trkpt lat="47.13059" lon="-1.8966">
        <ele>62</ele>
        <time>2020-12-20T11:42:14.000Z</time>
      </trkpt>
      <trkpt lat="47.1307" lon="-1.89672">
        <ele>62</ele>
        <time>2020-12-20T11:42:16.000Z</time>
      </trkpt>
      <trkpt lat="47.13082" lon="-1.89684">
        <ele>61</ele>
        <time>2020-12-20T11:42:18.000Z</time>
      </trkpt>
      <trkpt lat="47.13093" lon="-1.89697">
        <ele>61</ele>
        <time>2020-12-20T11:42:20.000Z</time>
      </trkpt>
      <trkpt lat="47.13104" lon="-1.89708">
        <ele>61</ele>
        <time>2020-12-20T11:42:22.000Z</time>
      </trkpt>
      <trkpt lat="47.13115" lon="-1.89719">
        <ele>61</ele>
        <time>2020-12-20T11:42:24.000Z</time>
      </trkpt>
      <trkpt lat="47.13126" lon="-1.8973">
        <ele>61</ele>
        <time>2020-12-20T11:42:26.000Z</time>
      </trkpt>
      <trkpt lat="47.13137" lon="-1.89742">
        <ele>62</ele>
        <time>2020-12-20T11:42:28.000Z</time>
      </trkpt>
      <trkpt lat="47.13148" lon="-1.89754">
        <ele>62</ele>
        <time>2020-12-20T11:42:30.000Z</time>
      </trkpt>
      <trkpt lat="47.1316" lon="-1.89767">
        <ele>62</ele>
        <time>2020-12-20T11:42:32.000Z</time>
      </trkpt>
      <trkpt lat="47.13171" lon="-1.89778">
        <ele>62</ele>
        <time>2020-12-20T11:42:34.000Z</time>
      </trkpt>
      <trkpt lat="47.13182" lon="-1.8979">
        <ele>62</ele>
        <time>2020-12-20T11:42:36.000Z</time>
      </trkpt>
      <trkpt lat="47.13193" lon="-1.89802">
        <ele>62</ele>
        <time>2020-12-20T11:42:38.000Z</time>
      </trkpt>
      <trkpt lat="47.13204" lon="-1.89814">
        <ele>62</ele>
        <time>2020-12-20T11:42:40.000Z</time>
      </trkpt>
      <trkpt lat="47.13215" lon="-1.89825">
        <ele>63</ele>
        <time>2020-12-20T11:42:42.000Z</time>
      </trkpt>
      <trkpt lat="47.13226" lon="-1.89837">
        <ele>63</ele>
        <time>2020-12-20T11:42:44.000Z</time>
      </trkpt>
      <trkpt lat="47.13237" lon="-1.89849">
        <ele>62</ele>
        <time>2020-12-20T11:42:46.000Z</time>
      </trkpt>
      <trkpt lat="47.13249" lon="-1.8986">
        <ele>62</ele>
        <time>2020-12-20T11:42:48.000Z</time>
      </trkpt>
      <trkpt lat="47.1326" lon="-1.89871">
        <ele>63</ele>
        <time>2020-12-20T11:42:50.000Z</time>
      </trkpt>
      <trkpt lat="47.13271" lon="-1.89884">
        <ele>63</ele>
        <time>2020-12-20T11:42:52.000Z</time>
      </trkpt>
      <trkpt lat="47.13282" lon="-1.89895">
        <ele>63</ele>
        <time>2020-12-20T11:42:54.000Z</time>
      </trkpt>
      <trkpt lat="47.13294" lon="-1.89907">
        <ele>63</ele>
        <time>2020-12-20T11:42:56.000Z</time>
      </trkpt>
      <trkpt lat="47.13305" lon="-1.89918">
        <ele>63</ele>
        <time>2020-12-20T11:42:58.000Z</time>
      </trkpt>
      <trkpt lat="47.13316" lon="-1.89929">
        <ele>63</ele>
        <time>2020-12-20T11:43:00.000Z</time>
      </trkpt>
      <trkpt lat="47.13328" lon="-1.89941">
        <ele>62</ele>
        <time>2020-12-20T11:43:02.000Z</time>
      </trkpt>
      <trkpt lat="47.13338" lon="-1.89954">
        <ele>61</ele>
        <time>2020-12-20T11:43:04.000Z</time>
      </trkpt>
      <trkpt lat="47.13349" lon="-1.89965">
        <ele>62</ele>
        <time>2020-12-20T11:43:06.000Z</time>
      </trkpt>
      <trkpt lat="47.1336" lon="-1.89977">
        <ele>62</ele>
        <time>2020-12-20T11:43:08.000Z</time>
      </trkpt>
      <trkpt lat="47.13371" lon="-1.89988">
        <ele>62</ele>
        <time>2020-12-20T11:43:10.000Z</time>
      </trkpt>
      <trkpt lat="47.13382" lon="-1.9">
        <ele>62</ele>
        <time>2020-12-20T11:43:12.000Z</time>
      </trkpt>
      <trkpt lat="47.13392" lon="-1.90011">
        <ele>62</ele>
        <time>2020-12-20T11:43:14.000Z</time>
      </trkpt>
      <trkpt lat="47.13403" lon="-1.90022">
        <ele>63</ele>
        <time>2020-12-20T11:43:16.000Z</time>
      </trkpt>
      <trkpt lat="47.13414" lon="-1.90034">
        <ele>62</ele>
        <time>2020-12-20T11:43:18.000Z</time>
      </trkpt>
      <trkpt lat="47.13425" lon="-1.90046">
        <ele>62</ele>
        <time>2020-12-20T11:43:20.000Z</time>
      </trkpt>
      <trkpt lat="47.13435" lon="-1.90057">
        <ele>62</ele>
        <time>2020-12-20T11:43:22.000Z</time>
      </trkpt>
      <trkpt lat="47.13446" lon="-1.90067">
        <ele>62</ele>
        <time>2020-12-20T11:43:24.000Z</time>
      </trkpt>
      <trkpt lat="47.13456" lon="-1.90078">
        <ele>62</ele>
        <time>2020-12-20T11:43:26.000Z</time>
      </trkpt>
      <trkpt lat="47.13467" lon="-1.90089">
        <ele>62</ele>
        <time>2020-12-20T11:43:28.000Z</time>
      </trkpt>
      <trkpt lat="47.13478" lon="-1.901">
        <ele>62</ele>
        <time>2020-12-20T11:43:30.000Z</time>
      </trkpt>
      <trkpt lat="47.13488" lon="-1.90111">
        <ele>62</ele>
        <time>2020-12-20T11:43:32.000Z</time>
      </trkpt>
      <trkpt lat="47.13498" lon="-1.90122">
        <ele>62</ele>
        <time>2020-12-20T11:43:34.000Z</time>
      </trkpt>
      <trkpt lat="47.13509" lon="-1.90133">
        <ele>62</ele>
        <time>2020-12-20T11:43:36.000Z</time>
      </trkpt>
      <trkpt lat="47.13518" lon="-1.90144">
        <ele>62</ele>
        <time>2020-12-20T11:43:38.000Z</time>
      </trkpt>
      <trkpt lat="47.13528" lon="-1.90154">
        <ele>63</ele>
        <time>2020-12-20T11:43:40.000Z</time>
      </trkpt>
      <trkpt lat="47.13537" lon="-1.90163">
        <ele>63</ele>
        <time>2020-12-20T11:43:42.000Z</time>
      </trkpt>
      <trkpt lat="47.13547" lon="-1.90173">
        <ele>64</ele>
        <time>2020-12-20T11:43:44.000Z</time>
      </trkpt>
      <trkpt lat="47.13556" lon="-1.90183">
        <ele>64</ele>
        <time>2020-12-20T11:43:46.000Z</time>
      </trkpt>
      <trkpt lat="47.13566" lon="-1.90193">
        <ele>64</ele>
        <time>2020-12-20T11:43:48.000Z</time>
      </trkpt>
      <trkpt lat="47.13574" lon="-1.90203">
        <ele>64</ele>
        <time>2020-12-20T11:43:50.000Z</time>
      </trkpt>
      <trkpt lat="47.13583" lon="-1.90212">
        <ele>64</ele>
        <time>2020-12-20T11:43:52.000Z</time>
      </trkpt>
      <trkpt lat="47.13597" lon="-1.90226">
        <ele>64</ele>
        <time>2020-12-20T11:43:55.000Z</time>
      </trkpt>
      <trkpt lat="47.13605" lon="-1.90234">
        <ele>64</ele>
        <time>2020-12-20T11:43:57.000Z</time>
      </trkpt>
      <trkpt lat="47.13614" lon="-1.90243">
        <ele>65</ele>
        <time>2020-12-20T11:43:59.000Z</time>
      </trkpt>
      <trkpt lat="47.13627" lon="-1.90257">
        <ele>65</ele>
        <time>2020-12-20T11:44:02.000Z</time>
      </trkpt>
      <trkpt lat="47.1364" lon="-1.90272">
        <ele>65</ele>
        <time>2020-12-20T11:44:05.000Z</time>
      </trkpt>
      <trkpt lat="47.13649" lon="-1.90282">
        <ele>65</ele>
        <time>2020-12-20T11:44:07.000Z</time>
      </trkpt>
      <trkpt lat="47.13663" lon="-1.90297">
        <ele>65</ele>
        <time>2020-12-20T11:44:10.000Z</time>
      </trkpt>
      <trkpt lat="47.13673" lon="-1.90306">
        <ele>65</ele>
        <time>2020-12-20T11:44:12.000Z</time>
      </trkpt>
      <trkpt lat="47.13682" lon="-1.90317">
        <ele>66</ele>
        <time>2020-12-20T11:44:14.000Z</time>
      </trkpt>
      <trkpt lat="47.13692" lon="-1.90326">
        <ele>66</ele>
        <time>2020-12-20T11:44:16.000Z</time>
      </trkpt>
      <trkpt lat="47.13701" lon="-1.90336">
        <ele>66</ele>
        <time>2020-12-20T11:44:18.000Z</time>
      </trkpt>
      <trkpt lat="47.13711" lon="-1.90345">
        <ele>66</ele>
        <time>2020-12-20T11:44:20.000Z</time>
      </trkpt>
      <trkpt lat="47.1372" lon="-1.90354">
        <ele>67</ele>
        <time>2020-12-20T11:44:22.000Z</time>
      </trkpt>
      <trkpt lat="47.13734" lon="-1.9037">
        <ele>67</ele>
        <time>2020-12-20T11:44:25.000Z</time>
      </trkpt>
      <trkpt lat="47.13743" lon="-1.9038">
        <ele>68</ele>
        <time>2020-12-20T11:44:27.000Z</time>
      </trkpt>
      <trkpt lat="47.13753" lon="-1.9039">
        <ele>68</ele>
        <time>2020-12-20T11:44:29.000Z</time>
      </trkpt>
      <trkpt lat="47.13762" lon="-1.90399">
        <ele>68</ele>
        <time>2020-12-20T11:44:31.000Z</time>
      </trkpt>
      <trkpt lat="47.13771" lon="-1.90409">
        <ele>68</ele>
        <time>2020-12-20T11:44:33.000Z</time>
      </trkpt>
      <trkpt lat="47.13785" lon="-1.90424">
        <ele>68</ele>
        <time>2020-12-20T11:44:36.000Z</time>
      </trkpt>
      <trkpt lat="47.13795" lon="-1.90434">
        <ele>68</ele>
        <time>2020-12-20T11:44:38.000Z</time>
      </trkpt>
      <trkpt lat="47.13809" lon="-1.90449">
        <ele>68</ele>
        <time>2020-12-20T11:44:41.000Z</time>
      </trkpt>
      <trkpt lat="47.13823" lon="-1.90464">
        <ele>68</ele>
        <time>2020-12-20T11:44:44.000Z</time>
      </trkpt>
      <trkpt lat="47.13832" lon="-1.90473">
        <ele>69</ele>
        <time>2020-12-20T11:44:46.000Z</time>
      </trkpt>
      <trkpt lat="47.13841" lon="-1.90483">
        <ele>68</ele>
        <time>2020-12-20T11:44:48.000Z</time>
      </trkpt>
      <trkpt lat="47.1385" lon="-1.90492">
        <ele>68</ele>
        <time>2020-12-20T11:44:50.000Z</time>
      </trkpt>
      <trkpt lat="47.13859" lon="-1.90503">
        <ele>68</ele>
        <time>2020-12-20T11:44:52.000Z</time>
      </trkpt>
      <trkpt lat="47.13874" lon="-1.90516">
        <ele>69</ele>
        <time>2020-12-20T11:44:55.000Z</time>
      </trkpt>
      <trkpt lat="47.13887" lon="-1.9053">
        <ele>70</ele>
        <time>2020-12-20T11:44:58.000Z</time>
      </trkpt>
      <trkpt lat="47.13896" lon="-1.9054">
        <ele>71</ele>
        <time>2020-12-20T11:45:00.000Z</time>
      </trkpt>
      <trkpt lat="47.13905" lon="-1.90549">
        <ele>70</ele>
        <time>2020-12-20T11:45:02.000Z</time>
      </trkpt>
      <trkpt lat="47.13919" lon="-1.90565">
        <ele>70</ele>
        <time>2020-12-20T11:45:05.000Z</time>
      </trkpt>
      <trkpt lat="47.13928" lon="-1.90575">
        <ele>70</ele>
        <time>2020-12-20T11:45:07.000Z</time>
      </trkpt>
      <trkpt lat="47.13937" lon="-1.90585">
        <ele>70</ele>
        <time>2020-12-20T11:45:09.000Z</time>
      </trkpt>
      <trkpt lat="47.13951" lon="-1.90599">
        <ele>69</ele>
        <time>2020-12-20T11:45:12.000Z</time>
      </trkpt>
      <trkpt lat="47.13959" lon="-1.90608">
        <ele>70</ele>
        <time>2020-12-20T11:45:14.000Z</time>
      </trkpt>
      <trkpt lat="47.13968" lon="-1.90617">
        <ele>70</ele>
        <time>2020-12-20T11:45:16.000Z</time>
      </trkpt>
      <trkpt lat="47.13977" lon="-1.90627">
        <ele>70</ele>
        <time>2020-12-20T11:45:19.000Z</time>
      </trkpt>
      <trkpt lat="47.13991" lon="-1.90631">
        <ele>70</ele>
        <time>2020-12-20T11:45:23.000Z</time>
      </trkpt>
      <trkpt lat="47.14001" lon="-1.90629">
        <ele>70</ele>
        <time>2020-12-20T11:45:25.000Z</time>
      </trkpt>
      <trkpt lat="47.14012" lon="-1.90627">
        <ele>70</ele>
        <time>2020-12-20T11:45:27.000Z</time>
      </trkpt>
      <trkpt lat="47.14024" lon="-1.90624">
        <ele>71</ele>
        <time>2020-12-20T11:45:29.000Z</time>
      </trkpt>
      <trkpt lat="47.14035" lon="-1.90623">
        <ele>71</ele>
        <time>2020-12-20T11:45:31.000Z</time>
      </trkpt>
      <trkpt lat="47.14048" lon="-1.90621">
        <ele>71</ele>
        <time>2020-12-20T11:45:33.000Z</time>
      </trkpt>
      <trkpt lat="47.14059" lon="-1.9062">
        <ele>71</ele>
        <time>2020-12-20T11:45:35.000Z</time>
      </trkpt>
      <trkpt lat="47.14072" lon="-1.90619">
        <ele>71</ele>
        <time>2020-12-20T11:45:37.000Z</time>
      </trkpt>
      <trkpt lat="47.14085" lon="-1.90618">
        <ele>71</ele>
        <time>2020-12-20T11:45:39.000Z</time>
      </trkpt>
      <trkpt lat="47.14098" lon="-1.90618">
        <ele>71</ele>
        <time>2020-12-20T11:45:41.000Z</time>
      </trkpt>
      <trkpt lat="47.1411" lon="-1.90617">
        <ele>71</ele>
        <time>2020-12-20T11:45:43.000Z</time>
      </trkpt>
      <trkpt lat="47.14127" lon="-1.90618">
        <ele>71</ele>
        <time>2020-12-20T11:45:46.000Z</time>
      </trkpt>
      <trkpt lat="47.14137" lon="-1.90618">
        <ele>71</ele>
        <time>2020-12-20T11:45:48.000Z</time>
      </trkpt>
      <trkpt lat="47.14147" lon="-1.90616">
        <ele>70</ele>
        <time>2020-12-20T11:45:50.000Z</time>
      </trkpt>
      <trkpt lat="47.14157" lon="-1.90619">
        <ele>71</ele>
        <time>2020-12-20T11:45:52.000Z</time>
      </trkpt>
      <trkpt lat="47.14166" lon="-1.90628">
        <ele>71</ele>
        <time>2020-12-20T11:45:54.000Z</time>
      </trkpt>
      <trkpt lat="47.14173" lon="-1.90642">
        <ele>71</ele>
        <time>2020-12-20T11:45:56.000Z</time>
      </trkpt>
      <trkpt lat="47.14179" lon="-1.90657">
        <ele>70</ele>
        <time>2020-12-20T11:45:58.000Z</time>
      </trkpt>
      <trkpt lat="47.14186" lon="-1.90674">
        <ele>70</ele>
        <time>2020-12-20T11:46:00.000Z</time>
      </trkpt>
      <trkpt lat="47.14193" lon="-1.90691">
        <ele>70</ele>
        <time>2020-12-20T11:46:02.000Z</time>
      </trkpt>
      <trkpt lat="47.14199" lon="-1.90708">
        <ele>70</ele>
        <time>2020-12-20T11:46:04.000Z</time>
      </trkpt>
      <trkpt lat="47.14206" lon="-1.90725">
        <ele>70</ele>
        <time>2020-12-20T11:46:06.000Z</time>
      </trkpt>
      <trkpt lat="47.14212" lon="-1.90742">
        <ele>70</ele>
        <time>2020-12-20T11:46:08.000Z</time>
      </trkpt>
      <trkpt lat="47.14218" lon="-1.90759">
        <ele>70</ele>
        <time>2020-12-20T11:46:10.000Z</time>
      </trkpt>
      <trkpt lat="47.14225" lon="-1.90776">
        <ele>70</ele>
        <time>2020-12-20T11:46:12.000Z</time>
      </trkpt>
      <trkpt lat="47.14231" lon="-1.90793">
        <ele>70</ele>
        <time>2020-12-20T11:46:14.000Z</time>
      </trkpt>
      <trkpt lat="47.14237" lon="-1.90811">
        <ele>70</ele>
        <time>2020-12-20T11:46:16.000Z</time>
      </trkpt>
      <trkpt lat="47.14243" lon="-1.90828">
        <ele>71</ele>
        <time>2020-12-20T11:46:18.000Z</time>
      </trkpt>
      <trkpt lat="47.1425" lon="-1.90845">
        <ele>71</ele>
        <time>2020-12-20T11:46:20.000Z</time>
      </trkpt>
      <trkpt lat="47.14256" lon="-1.90861">
        <ele>71</ele>
        <time>2020-12-20T11:46:22.000Z</time>
      </trkpt>
      <trkpt lat="47.14262" lon="-1.90878">
        <ele>71</ele>
        <time>2020-12-20T11:46:24.000Z</time>
      </trkpt>
      <trkpt lat="47.14269" lon="-1.90895">
        <ele>70</ele>
        <time>2020-12-20T11:46:26.000Z</time>
      </trkpt>
      <trkpt lat="47.14275" lon="-1.90911">
        <ele>70</ele>
        <time>2020-12-20T11:46:28.000Z</time>
      </trkpt>
      <trkpt lat="47.14281" lon="-1.90927">
        <ele>71</ele>
        <time>2020-12-20T11:46:30.000Z</time>
      </trkpt>
      <trkpt lat="47.14287" lon="-1.90943">
        <ele>71</ele>
        <time>2020-12-20T11:46:32.000Z</time>
      </trkpt>
      <trkpt lat="47.14293" lon="-1.9096">
        <ele>70</ele>
        <time>2020-12-20T11:46:34.000Z</time>
      </trkpt>
      <trkpt lat="47.143" lon="-1.90977">
        <ele>70</ele>
        <time>2020-12-20T11:46:36.000Z</time>
      </trkpt>
      <trkpt lat="47.14308" lon="-1.90992">
        <ele>70</ele>
        <time>2020-12-20T11:46:38.000Z</time>
      </trkpt>
      <trkpt lat="47.14317" lon="-1.91006">
        <ele>70</ele>
        <time>2020-12-20T11:46:40.000Z</time>
      </trkpt>
      <trkpt lat="47.14327" lon="-1.91017">
        <ele>70</ele>
        <time>2020-12-20T11:46:42.000Z</time>
      </trkpt>
      <trkpt lat="47.14338" lon="-1.91028">
        <ele>70</ele>
        <time>2020-12-20T11:46:44.000Z</time>
      </trkpt>
      <trkpt lat="47.14348" lon="-1.91039">
        <ele>70</ele>
        <time>2020-12-20T11:46:46.000Z</time>
      </trkpt>
      <trkpt lat="47.14358" lon="-1.9105">
        <ele>70</ele>
        <time>2020-12-20T11:46:48.000Z</time>
      </trkpt>
      <trkpt lat="47.14367" lon="-1.9106">
        <ele>71</ele>
        <time>2020-12-20T11:46:50.000Z</time>
      </trkpt>
      <trkpt lat="47.14377" lon="-1.91071">
        <ele>71</ele>
        <time>2020-12-20T11:46:52.000Z</time>
      </trkpt>
      <trkpt lat="47.14388" lon="-1.9108">
        <ele>72</ele>
        <time>2020-12-20T11:46:54.000Z</time>
      </trkpt>
      <trkpt lat="47.14398" lon="-1.91092">
        <ele>72</ele>
        <time>2020-12-20T11:46:56.000Z</time>
      </trkpt>
      <trkpt lat="47.14408" lon="-1.91102">
        <ele>72</ele>
        <time>2020-12-20T11:46:58.000Z</time>
      </trkpt>
      <trkpt lat="47.14417" lon="-1.91112">
        <ele>72</ele>
        <time>2020-12-20T11:47:00.000Z</time>
      </trkpt>
      <trkpt lat="47.14427" lon="-1.91123">
        <ele>72</ele>
        <time>2020-12-20T11:47:02.000Z</time>
      </trkpt>
      <trkpt lat="47.14437" lon="-1.91133">
        <ele>72</ele>
        <time>2020-12-20T11:47:04.000Z</time>
      </trkpt>
      <trkpt lat="47.14447" lon="-1.91144">
        <ele>72</ele>
        <time>2020-12-20T11:47:06.000Z</time>
      </trkpt>
      <trkpt lat="47.14462" lon="-1.9116">
        <ele>73</ele>
        <time>2020-12-20T11:47:09.000Z</time>
      </trkpt>
      <trkpt lat="47.14472" lon="-1.91171">
        <ele>73</ele>
        <time>2020-12-20T11:47:11.000Z</time>
      </trkpt>
      <trkpt lat="47.14482" lon="-1.91182">
        <ele>73</ele>
        <time>2020-12-20T11:47:13.000Z</time>
      </trkpt>
      <trkpt lat="47.14492" lon="-1.91193">
        <ele>72</ele>
        <time>2020-12-20T11:47:15.000Z</time>
      </trkpt>
      <trkpt lat="47.14502" lon="-1.91204">
        <ele>72</ele>
        <time>2020-12-20T11:47:17.000Z</time>
      </trkpt>
      <trkpt lat="47.14513" lon="-1.91215">
        <ele>72</ele>
        <time>2020-12-20T11:47:19.000Z</time>
      </trkpt>
      <trkpt lat="47.14523" lon="-1.91226">
        <ele>73</ele>
        <time>2020-12-20T11:47:21.000Z</time>
      </trkpt>
      <trkpt lat="47.14533" lon="-1.91236">
        <ele>72</ele>
        <time>2020-12-20T11:47:23.000Z</time>
      </trkpt>
      <trkpt lat="47.14543" lon="-1.91247">
        <ele>72</ele>
        <time>2020-12-20T11:47:25.000Z</time>
      </trkpt>
      <trkpt lat="47.14553" lon="-1.91258">
        <ele>72</ele>
        <time>2020-12-20T11:47:27.000Z</time>
      </trkpt>
      <trkpt lat="47.14562" lon="-1.91269">
        <ele>72</ele>
        <time>2020-12-20T11:47:29.000Z</time>
      </trkpt>
      <trkpt lat="47.14573" lon="-1.91278">
        <ele>72</ele>
        <time>2020-12-20T11:47:31.000Z</time>
      </trkpt>
      <trkpt lat="47.14583" lon="-1.9129">
        <ele>72</ele>
        <time>2020-12-20T11:47:33.000Z</time>
      </trkpt>
      <trkpt lat="47.14593" lon="-1.91301">
        <ele>72</ele>
        <time>2020-12-20T11:47:35.000Z</time>
      </trkpt>
      <trkpt lat="47.14604" lon="-1.91312">
        <ele>72</ele>
        <time>2020-12-20T11:47:37.000Z</time>
      </trkpt>
      <trkpt lat="47.14615" lon="-1.91324">
        <ele>72</ele>
        <time>2020-12-20T11:47:39.000Z</time>
      </trkpt>
      <trkpt lat="47.14627" lon="-1.91337">
        <ele>71</ele>
        <time>2020-12-20T11:47:41.000Z</time>
      </trkpt>
      <trkpt lat="47.14639" lon="-1.9135">
        <ele>71</ele>
        <time>2020-12-20T11:47:43.000Z</time>
      </trkpt>
      <trkpt lat="47.1465" lon="-1.91362">
        <ele>71</ele>
        <time>2020-12-20T11:47:45.000Z</time>
      </trkpt>
      <trkpt lat="47.14661" lon="-1.91375">
        <ele>71</ele>
        <time>2020-12-20T11:47:47.000Z</time>
      </trkpt>
      <trkpt lat="47.14673" lon="-1.91386">
        <ele>70</ele>
        <time>2020-12-20T11:47:49.000Z</time>
      </trkpt>
      <trkpt lat="47.14684" lon="-1.91399">
        <ele>70</ele>
        <time>2020-12-20T11:47:51.000Z</time>
      </trkpt>
      <trkpt lat="47.14695" lon="-1.91412">
        <ele>70</ele>
        <time>2020-12-20T11:47:53.000Z</time>
      </trkpt>
      <trkpt lat="47.14705" lon="-1.91424">
        <ele>69</ele>
        <time>2020-12-20T11:47:55.000Z</time>
      </trkpt>
      <trkpt lat="47.14715" lon="-1.91435">
        <ele>69</ele>
        <time>2020-12-20T11:47:57.000Z</time>
      </trkpt>
      <trkpt lat="47.14726" lon="-1.91447">
        <ele>68</ele>
        <time>2020-12-20T11:47:59.000Z</time>
      </trkpt>
      <trkpt lat="47.14736" lon="-1.91458">
        <ele>67</ele>
        <time>2020-12-20T11:48:01.000Z</time>
      </trkpt>
      <trkpt lat="47.14747" lon="-1.91469">
        <ele>66</ele>
        <time>2020-12-20T11:48:03.000Z</time>
      </trkpt>
      <trkpt lat="47.14758" lon="-1.91481">
        <ele>66</ele>
        <time>2020-12-20T11:48:05.000Z</time>
      </trkpt>
      <trkpt lat="47.1477" lon="-1.91492">
        <ele>66</ele>
        <time>2020-12-20T11:48:07.000Z</time>
      </trkpt>
      <trkpt lat="47.1478" lon="-1.91504">
        <ele>66</ele>
        <time>2020-12-20T11:48:09.000Z</time>
      </trkpt>
      <trkpt lat="47.14792" lon="-1.91516">
        <ele>66</ele>
        <time>2020-12-20T11:48:11.000Z</time>
      </trkpt>
      <trkpt lat="47.14802" lon="-1.91527">
        <ele>66</ele>
        <time>2020-12-20T11:48:13.000Z</time>
      </trkpt>
      <trkpt lat="47.14811" lon="-1.91538">
        <ele>66</ele>
        <time>2020-12-20T11:48:15.000Z</time>
      </trkpt>
      <trkpt lat="47.14822" lon="-1.91548">
        <ele>66</ele>
        <time>2020-12-20T11:48:17.000Z</time>
      </trkpt>
      <trkpt lat="47.14832" lon="-1.91558">
        <ele>67</ele>
        <time>2020-12-20T11:48:19.000Z</time>
      </trkpt>
      <trkpt lat="47.14842" lon="-1.91569">
        <ele>67</ele>
        <time>2020-12-20T11:48:21.000Z</time>
      </trkpt>
      <trkpt lat="47.14852" lon="-1.91579">
        <ele>68</ele>
        <time>2020-12-20T11:48:23.000Z</time>
      </trkpt>
      <trkpt lat="47.14862" lon="-1.91589">
        <ele>68</ele>
        <time>2020-12-20T11:48:25.000Z</time>
      </trkpt>
      <trkpt lat="47.14871" lon="-1.91599">
        <ele>69</ele>
        <time>2020-12-20T11:48:27.000Z</time>
      </trkpt>
      <trkpt lat="47.1488" lon="-1.91609">
        <ele>69</ele>
        <time>2020-12-20T11:48:29.000Z</time>
      </trkpt>
      <trkpt lat="47.1489" lon="-1.91619">
        <ele>70</ele>
        <time>2020-12-20T11:48:31.000Z</time>
      </trkpt>
      <trkpt lat="47.14899" lon="-1.91629">
        <ele>70</ele>
        <time>2020-12-20T11:48:33.000Z</time>
      </trkpt>
      <trkpt lat="47.14909" lon="-1.91639">
        <ele>71</ele>
        <time>2020-12-20T11:48:35.000Z</time>
      </trkpt>
      <trkpt lat="47.14918" lon="-1.91649">
        <ele>71</ele>
        <time>2020-12-20T11:48:37.000Z</time>
      </trkpt>
      <trkpt lat="47.14927" lon="-1.91659">
        <ele>71</ele>
        <time>2020-12-20T11:48:39.000Z</time>
      </trkpt>
      <trkpt lat="47.14935" lon="-1.9167">
        <ele>72</ele>
        <time>2020-12-20T11:48:41.000Z</time>
      </trkpt>
      <trkpt lat="47.14945" lon="-1.91679">
        <ele>72</ele>
        <time>2020-12-20T11:48:43.000Z</time>
      </trkpt>
      <trkpt lat="47.14954" lon="-1.91689">
        <ele>72</ele>
        <time>2020-12-20T11:48:45.000Z</time>
      </trkpt>
      <trkpt lat="47.14963" lon="-1.91699">
        <ele>72</ele>
        <time>2020-12-20T11:48:47.000Z</time>
      </trkpt>
      <trkpt lat="47.14972" lon="-1.91708">
        <ele>72</ele>
        <time>2020-12-20T11:48:49.000Z</time>
      </trkpt>
      <trkpt lat="47.1498" lon="-1.91718">
        <ele>73</ele>
        <time>2020-12-20T11:48:51.000Z</time>
      </trkpt>
      <trkpt lat="47.14989" lon="-1.91727">
        <ele>73</ele>
        <time>2020-12-20T11:48:53.000Z</time>
      </trkpt>
      <trkpt lat="47.14998" lon="-1.91736">
        <ele>74</ele>
        <time>2020-12-20T11:48:55.000Z</time>
      </trkpt>
      <trkpt lat="47.15007" lon="-1.91746">
        <ele>74</ele>
        <time>2020-12-20T11:48:57.000Z</time>
      </trkpt>
      <trkpt lat="47.15016" lon="-1.91756">
        <ele>74</ele>
        <time>2020-12-20T11:48:59.000Z</time>
      </trkpt>
      <trkpt lat="47.15024" lon="-1.91765">
        <ele>74</ele>
        <time>2020-12-20T11:49:01.000Z</time>
      </trkpt>
      <trkpt lat="47.15032" lon="-1.91775">
        <ele>74</ele>
        <time>2020-12-20T11:49:03.000Z</time>
      </trkpt>
      <trkpt lat="47.1504" lon="-1.91784">
        <ele>74</ele>
        <time>2020-12-20T11:49:05.000Z</time>
      </trkpt>
      <trkpt lat="47.15049" lon="-1.91793">
        <ele>75</ele>
        <time>2020-12-20T11:49:07.000Z</time>
      </trkpt>
      <trkpt lat="47.15058" lon="-1.91802">
        <ele>74</ele>
        <time>2020-12-20T11:49:09.000Z</time>
      </trkpt>
      <trkpt lat="47.15067" lon="-1.91812">
        <ele>75</ele>
        <time>2020-12-20T11:49:11.000Z</time>
      </trkpt>
      <trkpt lat="47.15075" lon="-1.91821">
        <ele>75</ele>
        <time>2020-12-20T11:49:13.000Z</time>
      </trkpt>
      <trkpt lat="47.15084" lon="-1.91831">
        <ele>75</ele>
        <time>2020-12-20T11:49:15.000Z</time>
      </trkpt>
      <trkpt lat="47.15093" lon="-1.9184">
        <ele>76</ele>
        <time>2020-12-20T11:49:17.000Z</time>
      </trkpt>
      <trkpt lat="47.15101" lon="-1.91849">
        <ele>76</ele>
        <time>2020-12-20T11:49:19.000Z</time>
      </trkpt>
      <trkpt lat="47.1511" lon="-1.91858">
        <ele>76</ele>
        <time>2020-12-20T11:49:21.000Z</time>
      </trkpt>
      <trkpt lat="47.15119" lon="-1.91867">
        <ele>76</ele>
        <time>2020-12-20T11:49:23.000Z</time>
      </trkpt>
      <trkpt lat="47.15127" lon="-1.91876">
        <ele>77</ele>
        <time>2020-12-20T11:49:25.000Z</time>
      </trkpt>
      <trkpt lat="47.15136" lon="-1.91884">
        <ele>77</ele>
        <time>2020-12-20T11:49:27.000Z</time>
      </trkpt>
      <trkpt lat="47.15144" lon="-1.91893">
        <ele>77</ele>
        <time>2020-12-20T11:49:29.000Z</time>
      </trkpt>
      <trkpt lat="47.15152" lon="-1.91903">
        <ele>77</ele>
        <time>2020-12-20T11:49:31.000Z</time>
      </trkpt>
      <trkpt lat="47.15161" lon="-1.91912">
        <ele>77</ele>
        <time>2020-12-20T11:49:33.000Z</time>
      </trkpt>
      <trkpt lat="47.1517" lon="-1.91923">
        <ele>78</ele>
        <time>2020-12-20T11:49:35.000Z</time>
      </trkpt>
      <trkpt lat="47.15178" lon="-1.91932">
        <ele>78</ele>
        <time>2020-12-20T11:49:37.000Z</time>
      </trkpt>
      <trkpt lat="47.15186" lon="-1.91941">
        <ele>78</ele>
        <time>2020-12-20T11:49:39.000Z</time>
      </trkpt>
      <trkpt lat="47.15195" lon="-1.9195">
        <ele>79</ele>
        <time>2020-12-20T11:49:41.000Z</time>
      </trkpt>
      <trkpt lat="47.15204" lon="-1.9196">
        <ele>79</ele>
        <time>2020-12-20T11:49:43.000Z</time>
      </trkpt>
      <trkpt lat="47.15213" lon="-1.91968">
        <ele>79</ele>
        <time>2020-12-20T11:49:45.000Z</time>
      </trkpt>
      <trkpt lat="47.15221" lon="-1.91978">
        <ele>79</ele>
        <time>2020-12-20T11:49:47.000Z</time>
      </trkpt>
      <trkpt lat="47.1523" lon="-1.91988">
        <ele>80</ele>
        <time>2020-12-20T11:49:49.000Z</time>
      </trkpt>
      <trkpt lat="47.15239" lon="-1.91996">
        <ele>80</ele>
        <time>2020-12-20T11:49:51.000Z</time>
      </trkpt>
      <trkpt lat="47.15247" lon="-1.92006">
        <ele>81</ele>
        <time>2020-12-20T11:49:53.000Z</time>
      </trkpt>
      <trkpt lat="47.15256" lon="-1.92015">
        <ele>81</ele>
        <time>2020-12-20T11:49:55.000Z</time>
      </trkpt>
      <trkpt lat="47.15263" lon="-1.92024">
        <ele>82</ele>
        <time>2020-12-20T11:49:57.000Z</time>
      </trkpt>
      <trkpt lat="47.15272" lon="-1.92033">
        <ele>82</ele>
        <time>2020-12-20T11:49:59.000Z</time>
      </trkpt>
      <trkpt lat="47.1528" lon="-1.92042">
        <ele>82</ele>
        <time>2020-12-20T11:50:01.000Z</time>
      </trkpt>
      <trkpt lat="47.15288" lon="-1.92051">
        <ele>83</ele>
        <time>2020-12-20T11:50:03.000Z</time>
      </trkpt>
      <trkpt lat="47.15297" lon="-1.9206">
        <ele>82</ele>
        <time>2020-12-20T11:50:05.000Z</time>
      </trkpt>
      <trkpt lat="47.15305" lon="-1.92069">
        <ele>83</ele>
        <time>2020-12-20T11:50:07.000Z</time>
      </trkpt>
      <trkpt lat="47.15313" lon="-1.92078">
        <ele>83</ele>
        <time>2020-12-20T11:50:09.000Z</time>
      </trkpt>
      <trkpt lat="47.15322" lon="-1.92088">
        <ele>83</ele>
        <time>2020-12-20T11:50:11.000Z</time>
      </trkpt>
      <trkpt lat="47.15331" lon="-1.92097">
        <ele>84</ele>
        <time>2020-12-20T11:50:13.000Z</time>
      </trkpt>
      <trkpt lat="47.1534" lon="-1.92106">
        <ele>84</ele>
        <time>2020-12-20T11:50:15.000Z</time>
      </trkpt>
      <trkpt lat="47.15349" lon="-1.92115">
        <ele>84</ele>
        <time>2020-12-20T11:50:17.000Z</time>
      </trkpt>
      <trkpt lat="47.15357" lon="-1.92125">
        <ele>84</ele>
        <time>2020-12-20T11:50:19.000Z</time>
      </trkpt>
      <trkpt lat="47.15366" lon="-1.92135">
        <ele>84</ele>
        <time>2020-12-20T11:50:21.000Z</time>
      </trkpt>
      <trkpt lat="47.15375" lon="-1.92143">
        <ele>84</ele>
        <time>2020-12-20T11:50:23.000Z</time>
      </trkpt>
      <trkpt lat="47.15383" lon="-1.92151">
        <ele>85</ele>
        <time>2020-12-20T11:50:25.000Z</time>
      </trkpt>
      <trkpt lat="47.15391" lon="-1.92161">
        <ele>85</ele>
        <time>2020-12-20T11:50:27.000Z</time>
      </trkpt>
      <trkpt lat="47.15399" lon="-1.9217">
        <ele>85</ele>
        <time>2020-12-20T11:50:29.000Z</time>
      </trkpt>
      <trkpt lat="47.15408" lon="-1.92179">
        <ele>85</ele>
        <time>2020-12-20T11:50:31.000Z</time>
      </trkpt>
      <trkpt lat="47.15417" lon="-1.92189">
        <ele>86</ele>
        <time>2020-12-20T11:50:33.000Z</time>
      </trkpt>
      <trkpt lat="47.15425" lon="-1.92198">
        <ele>86</ele>
        <time>2020-12-20T11:50:35.000Z</time>
      </trkpt>
      <trkpt lat="47.15434" lon="-1.92207">
        <ele>86</ele>
        <time>2020-12-20T11:50:37.000Z</time>
      </trkpt>
      <trkpt lat="47.15442" lon="-1.92216">
        <ele>87</ele>
        <time>2020-12-20T11:50:39.000Z</time>
      </trkpt>
      <trkpt lat="47.1545" lon="-1.92224">
        <ele>87</ele>
        <time>2020-12-20T11:50:41.000Z</time>
      </trkpt>
      <trkpt lat="47.15459" lon="-1.92233">
        <ele>87</ele>
        <time>2020-12-20T11:50:43.000Z</time>
      </trkpt>
      <trkpt lat="47.15467" lon="-1.92242">
        <ele>87</ele>
        <time>2020-12-20T11:50:45.000Z</time>
      </trkpt>
      <trkpt lat="47.15477" lon="-1.92253">
        <ele>87</ele>
        <time>2020-12-20T11:50:47.000Z</time>
      </trkpt>
      <trkpt lat="47.15486" lon="-1.92263">
        <ele>87</ele>
        <time>2020-12-20T11:50:49.000Z</time>
      </trkpt>
      <trkpt lat="47.15496" lon="-1.92273">
        <ele>86</ele>
        <time>2020-12-20T11:50:51.000Z</time>
      </trkpt>
      <trkpt lat="47.15504" lon="-1.92282">
        <ele>87</ele>
        <time>2020-12-20T11:50:53.000Z</time>
      </trkpt>
      <trkpt lat="47.15512" lon="-1.92291">
        <ele>88</ele>
        <time>2020-12-20T11:50:55.000Z</time>
      </trkpt>
      <trkpt lat="47.15521" lon="-1.92298">
        <ele>88</ele>
        <time>2020-12-20T11:50:57.000Z</time>
      </trkpt>
      <trkpt lat="47.15529" lon="-1.92308">
        <ele>89</ele>
        <time>2020-12-20T11:50:59.000Z</time>
      </trkpt>
      <trkpt lat="47.15537" lon="-1.92316">
        <ele>89</ele>
        <time>2020-12-20T11:51:01.000Z</time>
      </trkpt>
      <trkpt lat="47.15546" lon="-1.92326">
        <ele>89</ele>
        <time>2020-12-20T11:51:03.000Z</time>
      </trkpt>
      <trkpt lat="47.15554" lon="-1.92334">
        <ele>89</ele>
        <time>2020-12-20T11:51:05.000Z</time>
      </trkpt>
      <trkpt lat="47.15563" lon="-1.92342">
        <ele>89</ele>
        <time>2020-12-20T11:51:07.000Z</time>
      </trkpt>
      <trkpt lat="47.15573" lon="-1.92351">
        <ele>88</ele>
        <time>2020-12-20T11:51:09.000Z</time>
      </trkpt>
      <trkpt lat="47.15582" lon="-1.92361">
        <ele>88</ele>
        <time>2020-12-20T11:51:11.000Z</time>
      </trkpt>
      <trkpt lat="47.15591" lon="-1.9237">
        <ele>88</ele>
        <time>2020-12-20T11:51:13.000Z</time>
      </trkpt>
      <trkpt lat="47.156" lon="-1.92381">
        <ele>87</ele>
        <time>2020-12-20T11:51:15.000Z</time>
      </trkpt>
      <trkpt lat="47.15609" lon="-1.92391">
        <ele>87</ele>
        <time>2020-12-20T11:51:17.000Z</time>
      </trkpt>
      <trkpt lat="47.15619" lon="-1.92402">
        <ele>87</ele>
        <time>2020-12-20T11:51:19.000Z</time>
      </trkpt>
      <trkpt lat="47.15629" lon="-1.92411">
        <ele>86</ele>
        <time>2020-12-20T11:51:21.000Z</time>
      </trkpt>
      <trkpt lat="47.15639" lon="-1.92421">
        <ele>86</ele>
        <time>2020-12-20T11:51:23.000Z</time>
      </trkpt>
      <trkpt lat="47.15649" lon="-1.92432">
        <ele>85</ele>
        <time>2020-12-20T11:51:25.000Z</time>
      </trkpt>
      <trkpt lat="47.15661" lon="-1.92443">
        <ele>84</ele>
        <time>2020-12-20T11:51:27.000Z</time>
      </trkpt>
      <trkpt lat="47.15673" lon="-1.92456">
        <ele>84</ele>
        <time>2020-12-20T11:51:29.000Z</time>
      </trkpt>
      <trkpt lat="47.15684" lon="-1.92468">
        <ele>84</ele>
        <time>2020-12-20T11:51:31.000Z</time>
      </trkpt>
      <trkpt lat="47.15696" lon="-1.92481">
        <ele>84</ele>
        <time>2020-12-20T11:51:33.000Z</time>
      </trkpt>
      <trkpt lat="47.15706" lon="-1.92494">
        <ele>84</ele>
        <time>2020-12-20T11:51:35.000Z</time>
      </trkpt>
      <trkpt lat="47.15715" lon="-1.92506">
        <ele>84</ele>
        <time>2020-12-20T11:51:37.000Z</time>
      </trkpt>
      <trkpt lat="47.15722" lon="-1.92515">
        <ele>84</ele>
        <time>2020-12-20T11:51:39.000Z</time>
      </trkpt>
      <trkpt lat="47.1573" lon="-1.92524">
        <ele>84</ele>
        <time>2020-12-20T11:51:41.000Z</time>
      </trkpt>
      <trkpt lat="47.15739" lon="-1.92533">
        <ele>84</ele>
        <time>2020-12-20T11:51:43.000Z</time>
      </trkpt>
      <trkpt lat="47.15747" lon="-1.92542">
        <ele>83</ele>
        <time>2020-12-20T11:51:45.000Z</time>
      </trkpt>
      <trkpt lat="47.15754" lon="-1.92551">
        <ele>82</ele>
        <time>2020-12-20T11:51:47.000Z</time>
      </trkpt>
      <trkpt lat="47.15762" lon="-1.92558">
        <ele>81</ele>
        <time>2020-12-20T11:51:49.000Z</time>
      </trkpt>
      <trkpt lat="47.1577" lon="-1.92565">
        <ele>82</ele>
        <time>2020-12-20T11:51:51.000Z</time>
      </trkpt>
      <trkpt lat="47.15779" lon="-1.92575">
        <ele>82</ele>
        <time>2020-12-20T11:51:53.000Z</time>
      </trkpt>
      <trkpt lat="47.1579" lon="-1.92585">
        <ele>83</ele>
        <time>2020-12-20T11:51:55.000Z</time>
      </trkpt>
      <trkpt lat="47.15799" lon="-1.92595">
        <ele>83</ele>
        <time>2020-12-20T11:51:57.000Z</time>
      </trkpt>
      <trkpt lat="47.15808" lon="-1.92606">
        <ele>83</ele>
        <time>2020-12-20T11:51:59.000Z</time>
      </trkpt>
      <trkpt lat="47.15816" lon="-1.92616">
        <ele>83</ele>
        <time>2020-12-20T11:52:01.000Z</time>
      </trkpt>
      <trkpt lat="47.15825" lon="-1.92625">
        <ele>83</ele>
        <time>2020-12-20T11:52:03.000Z</time>
      </trkpt>
      <trkpt lat="47.15834" lon="-1.92635">
        <ele>83</ele>
        <time>2020-12-20T11:52:05.000Z</time>
      </trkpt>
      <trkpt lat="47.15842" lon="-1.92644">
        <ele>83</ele>
        <time>2020-12-20T11:52:07.000Z</time>
      </trkpt>
      <trkpt lat="47.1585" lon="-1.92653">
        <ele>84</ele>
        <time>2020-12-20T11:52:09.000Z</time>
      </trkpt>
      <trkpt lat="47.15859" lon="-1.92661">
        <ele>84</ele>
        <time>2020-12-20T11:52:11.000Z</time>
      </trkpt>
      <trkpt lat="47.15868" lon="-1.92671">
        <ele>86</ele>
        <time>2020-12-20T11:52:13.000Z</time>
      </trkpt>
      <trkpt lat="47.15877" lon="-1.92682">
        <ele>87</ele>
        <time>2020-12-20T11:52:15.000Z</time>
      </trkpt>
      <trkpt lat="47.15886" lon="-1.92692">
        <ele>87</ele>
        <time>2020-12-20T11:52:17.000Z</time>
      </trkpt>
      <trkpt lat="47.15895" lon="-1.92703">
        <ele>87</ele>
        <time>2020-12-20T11:52:19.000Z</time>
      </trkpt>
      <trkpt lat="47.15905" lon="-1.92713">
        <ele>87</ele>
        <time>2020-12-20T11:52:21.000Z</time>
      </trkpt>
      <trkpt lat="47.15914" lon="-1.92721">
        <ele>87</ele>
        <time>2020-12-20T11:52:23.000Z</time>
      </trkpt>
      <trkpt lat="47.15923" lon="-1.92732">
        <ele>87</ele>
        <time>2020-12-20T11:52:25.000Z</time>
      </trkpt>
      <trkpt lat="47.15932" lon="-1.92742">
        <ele>87</ele>
        <time>2020-12-20T11:52:27.000Z</time>
      </trkpt>
      <trkpt lat="47.15941" lon="-1.92753">
        <ele>86</ele>
        <time>2020-12-20T11:52:29.000Z</time>
      </trkpt>
      <trkpt lat="47.15949" lon="-1.92765">
        <ele>87</ele>
        <time>2020-12-20T11:52:31.000Z</time>
      </trkpt>
      <trkpt lat="47.15958" lon="-1.92774">
        <ele>87</ele>
        <time>2020-12-20T11:52:33.000Z</time>
      </trkpt>
      <trkpt lat="47.15967" lon="-1.92783">
        <ele>87</ele>
        <time>2020-12-20T11:52:35.000Z</time>
      </trkpt>
      <trkpt lat="47.15977" lon="-1.92792">
        <ele>87</ele>
        <time>2020-12-20T11:52:37.000Z</time>
      </trkpt>
      <trkpt lat="47.15985" lon="-1.92802">
        <ele>87</ele>
        <time>2020-12-20T11:52:39.000Z</time>
      </trkpt>
      <trkpt lat="47.15994" lon="-1.92812">
        <ele>87</ele>
        <time>2020-12-20T11:52:41.000Z</time>
      </trkpt>
      <trkpt lat="47.16004" lon="-1.92823">
        <ele>86</ele>
        <time>2020-12-20T11:52:43.000Z</time>
      </trkpt>
      <trkpt lat="47.16012" lon="-1.92833">
        <ele>86</ele>
        <time>2020-12-20T11:52:45.000Z</time>
      </trkpt>
      <trkpt lat="47.16022" lon="-1.92843">
        <ele>86</ele>
        <time>2020-12-20T11:52:47.000Z</time>
      </trkpt>
      <trkpt lat="47.16032" lon="-1.92852">
        <ele>86</ele>
        <time>2020-12-20T11:52:49.000Z</time>
      </trkpt>
      <trkpt lat="47.16041" lon="-1.92862">
        <ele>87</ele>
        <time>2020-12-20T11:52:51.000Z</time>
      </trkpt>
      <trkpt lat="47.16049" lon="-1.92871">
        <ele>87</ele>
        <time>2020-12-20T11:52:53.000Z</time>
      </trkpt>
      <trkpt lat="47.16058" lon="-1.92879">
        <ele>87</ele>
        <time>2020-12-20T11:52:55.000Z</time>
      </trkpt>
      <trkpt lat="47.16067" lon="-1.92888">
        <ele>87</ele>
        <time>2020-12-20T11:52:57.000Z</time>
      </trkpt>
      <trkpt lat="47.16076" lon="-1.92897">
        <ele>88</ele>
        <time>2020-12-20T11:52:59.000Z</time>
      </trkpt>
      <trkpt lat="47.16084" lon="-1.92906">
        <ele>88</ele>
        <time>2020-12-20T11:53:01.000Z</time>
      </trkpt>
      <trkpt lat="47.16094" lon="-1.92916">
        <ele>90</ele>
        <time>2020-12-20T11:53:03.000Z</time>
      </trkpt>
      <trkpt lat="47.16103" lon="-1.92925">
        <ele>89</ele>
        <time>2020-12-20T11:53:05.000Z</time>
      </trkpt>
      <trkpt lat="47.16114" lon="-1.92934">
        <ele>89</ele>
        <time>2020-12-20T11:53:07.000Z</time>
      </trkpt>
      <trkpt lat="47.16124" lon="-1.92944">
        <ele>89</ele>
        <time>2020-12-20T11:53:09.000Z</time>
      </trkpt>
      <trkpt lat="47.16133" lon="-1.92956">
        <ele>89</ele>
        <time>2020-12-20T11:53:11.000Z</time>
      </trkpt>
      <trkpt lat="47.16141" lon="-1.92964">
        <ele>89</ele>
        <time>2020-12-20T11:53:13.000Z</time>
      </trkpt>
      <trkpt lat="47.16151" lon="-1.92966">
        <ele>88</ele>
        <time>2020-12-20T11:53:15.000Z</time>
      </trkpt>
      <trkpt lat="47.1616" lon="-1.92963">
        <ele>89</ele>
        <time>2020-12-20T11:53:17.000Z</time>
      </trkpt>
      <trkpt lat="47.1617" lon="-1.92958">
        <ele>89</ele>
        <time>2020-12-20T11:53:19.000Z</time>
      </trkpt>
      <trkpt lat="47.1618" lon="-1.92951">
        <ele>89</ele>
        <time>2020-12-20T11:53:21.000Z</time>
      </trkpt>
      <trkpt lat="47.16189" lon="-1.92944">
        <ele>89</ele>
        <time>2020-12-20T11:53:23.000Z</time>
      </trkpt>
      <trkpt lat="47.16197" lon="-1.92937">
        <ele>88</ele>
        <time>2020-12-20T11:53:25.000Z</time>
      </trkpt>
      <trkpt lat="47.16207" lon="-1.92932">
        <ele>88</ele>
        <time>2020-12-20T11:53:27.000Z</time>
      </trkpt>
      <trkpt lat="47.16216" lon="-1.9294">
        <ele>88</ele>
        <time>2020-12-20T11:53:29.000Z</time>
      </trkpt>
      <trkpt lat="47.16221" lon="-1.92956">
        <ele>88</ele>
        <time>2020-12-20T11:53:31.000Z</time>
      </trkpt>
      <trkpt lat="47.16224" lon="-1.92972">
        <ele>88</ele>
        <time>2020-12-20T11:53:33.000Z</time>
      </trkpt>
      <trkpt lat="47.16229" lon="-1.92988">
        <ele>88</ele>
        <time>2020-12-20T11:53:35.000Z</time>
      </trkpt>
      <trkpt lat="47.16232" lon="-1.93004">
        <ele>88</ele>
        <time>2020-12-20T11:53:37.000Z</time>
      </trkpt>
      <trkpt lat="47.16236" lon="-1.9302">
        <ele>89</ele>
        <time>2020-12-20T11:53:39.000Z</time>
      </trkpt>
      <trkpt lat="47.16239" lon="-1.93035">
        <ele>89</ele>
        <time>2020-12-20T11:53:41.000Z</time>
      </trkpt>
      <trkpt lat="47.16243" lon="-1.93051">
        <ele>89</ele>
        <time>2020-12-20T11:53:43.000Z</time>
      </trkpt>
      <trkpt lat="47.16247" lon="-1.93066">
        <ele>90</ele>
        <time>2020-12-20T11:53:45.000Z</time>
      </trkpt>
      <trkpt lat="47.1625" lon="-1.93081">
        <ele>90</ele>
        <time>2020-12-20T11:53:47.000Z</time>
      </trkpt>
      <trkpt lat="47.16253" lon="-1.93096">
        <ele>90</ele>
        <time>2020-12-20T11:53:49.000Z</time>
      </trkpt>
      <trkpt lat="47.16257" lon="-1.93111">
        <ele>91</ele>
        <time>2020-12-20T11:53:51.000Z</time>
      </trkpt>
      <trkpt lat="47.16261" lon="-1.93126">
        <ele>91</ele>
        <time>2020-12-20T11:53:53.000Z</time>
      </trkpt>
      <trkpt lat="47.16264" lon="-1.93141">
        <ele>90</ele>
        <time>2020-12-20T11:53:55.000Z</time>
      </trkpt>
      <trkpt lat="47.1627" lon="-1.93154">
        <ele>89</ele>
        <time>2020-12-20T11:53:57.000Z</time>
      </trkpt>
      <trkpt lat="47.16276" lon="-1.93165">
        <ele>90</ele>
        <time>2020-12-20T11:53:59.000Z</time>
      </trkpt>
      <trkpt lat="47.16283" lon="-1.93176">
        <ele>90</ele>
        <time>2020-12-20T11:54:01.000Z</time>
      </trkpt>
      <trkpt lat="47.1629" lon="-1.93187">
        <ele>90</ele>
        <time>2020-12-20T11:54:03.000Z</time>
      </trkpt>
      <trkpt lat="47.16297" lon="-1.93198">
        <ele>91</ele>
        <time>2020-12-20T11:54:05.000Z</time>
      </trkpt>
      <trkpt lat="47.16304" lon="-1.93209">
        <ele>91</ele>
        <time>2020-12-20T11:54:07.000Z</time>
      </trkpt>
      <trkpt lat="47.16311" lon="-1.93221">
        <ele>92</ele>
        <time>2020-12-20T11:54:09.000Z</time>
      </trkpt>
      <trkpt lat="47.16318" lon="-1.93233">
        <ele>92</ele>
        <time>2020-12-20T11:54:11.000Z</time>
      </trkpt>
      <trkpt lat="47.16324" lon="-1.93247">
        <ele>93</ele>
        <time>2020-12-20T11:54:13.000Z</time>
      </trkpt>
      <trkpt lat="47.1633" lon="-1.93259">
        <ele>93</ele>
        <time>2020-12-20T11:54:15.000Z</time>
      </trkpt>
      <trkpt lat="47.16335" lon="-1.93271">
        <ele>94</ele>
        <time>2020-12-20T11:54:17.000Z</time>
      </trkpt>
      <trkpt lat="47.16341" lon="-1.93284">
        <ele>94</ele>
        <time>2020-12-20T11:54:19.000Z</time>
      </trkpt>
      <trkpt lat="47.16347" lon="-1.93297">
        <ele>95</ele>
        <time>2020-12-20T11:54:21.000Z</time>
      </trkpt>
      <trkpt lat="47.16352" lon="-1.9331">
        <ele>96</ele>
        <time>2020-12-20T11:54:23.000Z</time>
      </trkpt>
      <trkpt lat="47.16357" lon="-1.93324">
        <ele>97</ele>
        <time>2020-12-20T11:54:25.000Z</time>
      </trkpt>
      <trkpt lat="47.16362" lon="-1.93337">
        <ele>98</ele>
        <time>2020-12-20T11:54:27.000Z</time>
      </trkpt>
      <trkpt lat="47.16366" lon="-1.9335">
        <ele>98</ele>
        <time>2020-12-20T11:54:29.000Z</time>
      </trkpt>
      <trkpt lat="47.1637" lon="-1.93364">
        <ele>99</ele>
        <time>2020-12-20T11:54:31.000Z</time>
      </trkpt>
      <trkpt lat="47.16375" lon="-1.93378">
        <ele>99</ele>
        <time>2020-12-20T11:54:33.000Z</time>
      </trkpt>
      <trkpt lat="47.16381" lon="-1.9339">
        <ele>98</ele>
        <time>2020-12-20T11:54:35.000Z</time>
      </trkpt>
      <trkpt lat="47.16388" lon="-1.93398">
        <ele>99</ele>
        <time>2020-12-20T11:54:37.000Z</time>
      </trkpt>
      <trkpt lat="47.16397" lon="-1.93404">
        <ele>99</ele>
        <time>2020-12-20T11:54:39.000Z</time>
      </trkpt>
      <trkpt lat="47.16407" lon="-1.93408">
        <ele>98</ele>
        <time>2020-12-20T11:54:41.000Z</time>
      </trkpt>
      <trkpt lat="47.16418" lon="-1.9341">
        <ele>98</ele>
        <time>2020-12-20T11:54:43.000Z</time>
      </trkpt>
      <trkpt lat="47.1643" lon="-1.93411">
        <ele>98</ele>
        <time>2020-12-20T11:54:45.000Z</time>
      </trkpt>
      <trkpt lat="47.16441" lon="-1.93411">
        <ele>98</ele>
        <time>2020-12-20T11:54:47.000Z</time>
      </trkpt>
      <trkpt lat="47.16453" lon="-1.93414">
        <ele>98</ele>
        <time>2020-12-20T11:54:49.000Z</time>
      </trkpt>
      <trkpt lat="47.16464" lon="-1.93416">
        <ele>98</ele>
        <time>2020-12-20T11:54:51.000Z</time>
      </trkpt>
      <trkpt lat="47.16475" lon="-1.93418">
        <ele>98</ele>
        <time>2020-12-20T11:54:53.000Z</time>
      </trkpt>
      <trkpt lat="47.16486" lon="-1.9342">
        <ele>98</ele>
        <time>2020-12-20T11:54:55.000Z</time>
      </trkpt>
      <trkpt lat="47.16497" lon="-1.93422">
        <ele>98</ele>
        <time>2020-12-20T11:54:57.000Z</time>
      </trkpt>
      <trkpt lat="47.16508" lon="-1.93424">
        <ele>99</ele>
        <time>2020-12-20T11:54:59.000Z</time>
      </trkpt>
      <trkpt lat="47.16519" lon="-1.93426">
        <ele>99</ele>
        <time>2020-12-20T11:55:01.000Z</time>
      </trkpt>
      <trkpt lat="47.16532" lon="-1.93429">
        <ele>98</ele>
        <time>2020-12-20T11:55:03.000Z</time>
      </trkpt>
      <trkpt lat="47.16544" lon="-1.93433">
        <ele>98</ele>
        <time>2020-12-20T11:55:05.000Z</time>
      </trkpt>
      <trkpt lat="47.16555" lon="-1.93437">
        <ele>98</ele>
        <time>2020-12-20T11:55:07.000Z</time>
      </trkpt>
      <trkpt lat="47.16566" lon="-1.93445">
        <ele>98</ele>
        <time>2020-12-20T11:55:09.000Z</time>
      </trkpt>
      <trkpt lat="47.16577" lon="-1.93453">
        <ele>98</ele>
        <time>2020-12-20T11:55:11.000Z</time>
      </trkpt>
      <trkpt lat="47.16587" lon="-1.93463">
        <ele>98</ele>
        <time>2020-12-20T11:55:13.000Z</time>
      </trkpt>
      <trkpt lat="47.16598" lon="-1.93473">
        <ele>98</ele>
        <time>2020-12-20T11:55:15.000Z</time>
      </trkpt>
      <trkpt lat="47.16607" lon="-1.93484">
        <ele>98</ele>
        <time>2020-12-20T11:55:17.000Z</time>
      </trkpt>
      <trkpt lat="47.16617" lon="-1.93495">
        <ele>98</ele>
        <time>2020-12-20T11:55:19.000Z</time>
      </trkpt>
      <trkpt lat="47.16627" lon="-1.93504">
        <ele>99</ele>
        <time>2020-12-20T11:55:21.000Z</time>
      </trkpt>
      <trkpt lat="47.16637" lon="-1.93515">
        <ele>99</ele>
        <time>2020-12-20T11:55:23.000Z</time>
      </trkpt>
      <trkpt lat="47.16647" lon="-1.93525">
        <ele>99</ele>
        <time>2020-12-20T11:55:25.000Z</time>
      </trkpt>
      <trkpt lat="47.16656" lon="-1.93535">
        <ele>99</ele>
        <time>2020-12-20T11:55:27.000Z</time>
      </trkpt>
      <trkpt lat="47.16666" lon="-1.93544">
        <ele>99</ele>
        <time>2020-12-20T11:55:29.000Z</time>
      </trkpt>
      <trkpt lat="47.16676" lon="-1.93555">
        <ele>98</ele>
        <time>2020-12-20T11:55:31.000Z</time>
      </trkpt>
      <trkpt lat="47.16684" lon="-1.93566">
        <ele>98</ele>
        <time>2020-12-20T11:55:33.000Z</time>
      </trkpt>
      <trkpt lat="47.16692" lon="-1.93579">
        <ele>98</ele>
        <time>2020-12-20T11:55:35.000Z</time>
      </trkpt>
      <trkpt lat="47.16701" lon="-1.93593">
        <ele>98</ele>
        <time>2020-12-20T11:55:37.000Z</time>
      </trkpt>
      <trkpt lat="47.16708" lon="-1.93605">
        <ele>98</ele>
        <time>2020-12-20T11:55:39.000Z</time>
      </trkpt>
      <trkpt lat="47.16716" lon="-1.93619">
        <ele>98</ele>
        <time>2020-12-20T11:55:41.000Z</time>
      </trkpt>
      <trkpt lat="47.16724" lon="-1.93631">
        <ele>98</ele>
        <time>2020-12-20T11:55:43.000Z</time>
      </trkpt>
      <trkpt lat="47.16733" lon="-1.93643">
        <ele>98</ele>
        <time>2020-12-20T11:55:45.000Z</time>
      </trkpt>
      <trkpt lat="47.16742" lon="-1.93654">
        <ele>99</ele>
        <time>2020-12-20T11:55:47.000Z</time>
      </trkpt>
      <trkpt lat="47.16752" lon="-1.93664">
        <ele>99</ele>
        <time>2020-12-20T11:55:49.000Z</time>
      </trkpt>
      <trkpt lat="47.16762" lon="-1.93672">
        <ele>99</ele>
        <time>2020-12-20T11:55:51.000Z</time>
      </trkpt>
      <trkpt lat="47.16772" lon="-1.93679">
        <ele>99</ele>
        <time>2020-12-20T11:55:53.000Z</time>
      </trkpt>
      <trkpt lat="47.16783" lon="-1.93687">
        <ele>100</ele>
        <time>2020-12-20T11:55:55.000Z</time>
      </trkpt>
      <trkpt lat="47.16793" lon="-1.93695">
        <ele>100</ele>
        <time>2020-12-20T11:55:57.000Z</time>
      </trkpt>
      <trkpt lat="47.16804" lon="-1.93702">
        <ele>100</ele>
        <time>2020-12-20T11:55:59.000Z</time>
      </trkpt>
      <trkpt lat="47.16814" lon="-1.93709">
        <ele>100</ele>
        <time>2020-12-20T11:56:01.000Z</time>
      </trkpt>
      <trkpt lat="47.16824" lon="-1.93716">
        <ele>100</ele>
        <time>2020-12-20T11:56:03.000Z</time>
      </trkpt>
      <trkpt lat="47.16835" lon="-1.93724">
        <ele>100</ele>
        <time>2020-12-20T11:56:05.000Z</time>
      </trkpt>
      <trkpt lat="47.16846" lon="-1.93732">
        <ele>100</ele>
        <time>2020-12-20T11:56:07.000Z</time>
      </trkpt>
      <trkpt lat="47.16857" lon="-1.93741">
        <ele>100</ele>
        <time>2020-12-20T11:56:09.000Z</time>
      </trkpt>
      <trkpt lat="47.16869" lon="-1.9375">
        <ele>100</ele>
        <time>2020-12-20T11:56:11.000Z</time>
      </trkpt>
      <trkpt lat="47.16879" lon="-1.9376">
        <ele>100</ele>
        <time>2020-12-20T11:56:13.000Z</time>
      </trkpt>
      <trkpt lat="47.16892" lon="-1.9377">
        <ele>99</ele>
        <time>2020-12-20T11:56:15.000Z</time>
      </trkpt>
      <trkpt lat="47.16903" lon="-1.93782">
        <ele>99</ele>
        <time>2020-12-20T11:56:17.000Z</time>
      </trkpt>
      <trkpt lat="47.16914" lon="-1.93796">
        <ele>99</ele>
        <time>2020-12-20T11:56:19.000Z</time>
      </trkpt>
      <trkpt lat="47.16924" lon="-1.93811">
        <ele>99</ele>
        <time>2020-12-20T11:56:21.000Z</time>
      </trkpt>
      <trkpt lat="47.16933" lon="-1.93826">
        <ele>99</ele>
        <time>2020-12-20T11:56:23.000Z</time>
      </trkpt>
      <trkpt lat="47.16941" lon="-1.93843">
        <ele>99</ele>
        <time>2020-12-20T11:56:25.000Z</time>
      </trkpt>
      <trkpt lat="47.1695" lon="-1.93858">
        <ele>99</ele>
        <time>2020-12-20T11:56:27.000Z</time>
      </trkpt>
      <trkpt lat="47.16959" lon="-1.93874">
        <ele>100</ele>
        <time>2020-12-20T11:56:29.000Z</time>
      </trkpt>
      <trkpt lat="47.16968" lon="-1.9389">
        <ele>99</ele>
        <time>2020-12-20T11:56:31.000Z</time>
      </trkpt>
      <trkpt lat="47.16976" lon="-1.93905">
        <ele>99</ele>
        <time>2020-12-20T11:56:33.000Z</time>
      </trkpt>
      <trkpt lat="47.16984" lon="-1.9392">
        <ele>99</ele>
        <time>2020-12-20T11:56:35.000Z</time>
      </trkpt>
      <trkpt lat="47.16992" lon="-1.93935">
        <ele>99</ele>
        <time>2020-12-20T11:56:37.000Z</time>
      </trkpt>
      <trkpt lat="47.17001" lon="-1.93951">
        <ele>99</ele>
        <time>2020-12-20T11:56:39.000Z</time>
      </trkpt>
      <trkpt lat="47.1701" lon="-1.93965">
        <ele>98</ele>
        <time>2020-12-20T11:56:41.000Z</time>
      </trkpt>
      <trkpt lat="47.17018" lon="-1.93981">
        <ele>99</ele>
        <time>2020-12-20T11:56:43.000Z</time>
      </trkpt>
      <trkpt lat="47.17026" lon="-1.93995">
        <ele>99</ele>
        <time>2020-12-20T11:56:45.000Z</time>
      </trkpt>
      <trkpt lat="47.17034" lon="-1.94009">
        <ele>98</ele>
        <time>2020-12-20T11:56:47.000Z</time>
      </trkpt>
      <trkpt lat="47.17042" lon="-1.94024">
        <ele>97</ele>
        <time>2020-12-20T11:56:49.000Z</time>
      </trkpt>
      <trkpt lat="47.17049" lon="-1.94039">
        <ele>98</ele>
        <time>2020-12-20T11:56:51.000Z</time>
      </trkpt>
      <trkpt lat="47.17057" lon="-1.94054">
        <ele>97</ele>
        <time>2020-12-20T11:56:53.000Z</time>
      </trkpt>
      <trkpt lat="47.17066" lon="-1.94067">
        <ele>97</ele>
        <time>2020-12-20T11:56:55.000Z</time>
      </trkpt>
      <trkpt lat="47.17075" lon="-1.94077">
        <ele>97</ele>
        <time>2020-12-20T11:56:57.000Z</time>
      </trkpt>
      <trkpt lat="47.17084" lon="-1.94084">
        <ele>97</ele>
        <time>2020-12-20T11:56:59.000Z</time>
      </trkpt>
      <trkpt lat="47.17092" lon="-1.94091">
        <ele>96</ele>
        <time>2020-12-20T11:57:02.000Z</time>
      </trkpt>
      <trkpt lat="47.17093" lon="-1.94107">
        <ele>97</ele>
        <time>2020-12-20T11:57:06.000Z</time>
      </trkpt>
      <trkpt lat="47.17089" lon="-1.94119">
        <ele>97</ele>
        <time>2020-12-20T11:57:08.000Z</time>
      </trkpt>
      <trkpt lat="47.17092" lon="-1.94134">
        <ele>97</ele>
        <time>2020-12-20T11:57:10.000Z</time>
      </trkpt>
      <trkpt lat="47.17099" lon="-1.94146">
        <ele>97</ele>
        <time>2020-12-20T11:57:12.000Z</time>
      </trkpt>
      <trkpt lat="47.17106" lon="-1.94161">
        <ele>97</ele>
        <time>2020-12-20T11:57:14.000Z</time>
      </trkpt>
      <trkpt lat="47.17112" lon="-1.94177">
        <ele>97</ele>
        <time>2020-12-20T11:57:16.000Z</time>
      </trkpt>
      <trkpt lat="47.17117" lon="-1.94192">
        <ele>98</ele>
        <time>2020-12-20T11:57:18.000Z</time>
      </trkpt>
      <trkpt lat="47.17123" lon="-1.94207">
        <ele>98</ele>
        <time>2020-12-20T11:57:20.000Z</time>
      </trkpt>
      <trkpt lat="47.17128" lon="-1.94221">
        <ele>98</ele>
        <time>2020-12-20T11:57:22.000Z</time>
      </trkpt>
      <trkpt lat="47.17134" lon="-1.94235">
        <ele>99</ele>
        <time>2020-12-20T11:57:24.000Z</time>
      </trkpt>
      <trkpt lat="47.17139" lon="-1.9425">
        <ele>99</ele>
        <time>2020-12-20T11:57:26.000Z</time>
      </trkpt>
      <trkpt lat="47.17144" lon="-1.94265">
        <ele>100</ele>
        <time>2020-12-20T11:57:28.000Z</time>
      </trkpt>
      <trkpt lat="47.1715" lon="-1.9428">
        <ele>100</ele>
        <time>2020-12-20T11:57:30.000Z</time>
      </trkpt>
      <trkpt lat="47.17154" lon="-1.94295">
        <ele>100</ele>
        <time>2020-12-20T11:57:32.000Z</time>
      </trkpt>
      <trkpt lat="47.1716" lon="-1.9431">
        <ele>101</ele>
        <time>2020-12-20T11:57:34.000Z</time>
      </trkpt>
      <trkpt lat="47.17165" lon="-1.94325">
        <ele>101</ele>
        <time>2020-12-20T11:57:36.000Z</time>
      </trkpt>
      <trkpt lat="47.17169" lon="-1.94341">
        <ele>101</ele>
        <time>2020-12-20T11:57:38.000Z</time>
      </trkpt>
      <trkpt lat="47.17174" lon="-1.94356">
        <ele>101</ele>
        <time>2020-12-20T11:57:40.000Z</time>
      </trkpt>
      <trkpt lat="47.17178" lon="-1.94371">
        <ele>101</ele>
        <time>2020-12-20T11:57:42.000Z</time>
      </trkpt>
      <trkpt lat="47.17183" lon="-1.94386">
        <ele>101</ele>
        <time>2020-12-20T11:57:44.000Z</time>
      </trkpt>
      <trkpt lat="47.17188" lon="-1.944">
        <ele>101</ele>
        <time>2020-12-20T11:57:46.000Z</time>
      </trkpt>
      <trkpt lat="47.17193" lon="-1.94415">
        <ele>102</ele>
        <time>2020-12-20T11:57:48.000Z</time>
      </trkpt>
      <trkpt lat="47.17199" lon="-1.94429">
        <ele>102</ele>
        <time>2020-12-20T11:57:50.000Z</time>
      </trkpt>
      <trkpt lat="47.17204" lon="-1.94442">
        <ele>103</ele>
        <time>2020-12-20T11:57:52.000Z</time>
      </trkpt>
      <trkpt lat="47.17209" lon="-1.94457">
        <ele>104</ele>
        <time>2020-12-20T11:57:54.000Z</time>
      </trkpt>
      <trkpt lat="47.17214" lon="-1.94472">
        <ele>103</ele>
        <time>2020-12-20T11:57:56.000Z</time>
      </trkpt>
      <trkpt lat="47.17219" lon="-1.94487">
        <ele>103</ele>
        <time>2020-12-20T11:57:58.000Z</time>
      </trkpt>
      <trkpt lat="47.17224" lon="-1.94502">
        <ele>103</ele>
        <time>2020-12-20T11:58:00.000Z</time>
      </trkpt>
      <trkpt lat="47.17229" lon="-1.94517">
        <ele>104</ele>
        <time>2020-12-20T11:58:02.000Z</time>
      </trkpt>
      <trkpt lat="47.17233" lon="-1.94532">
        <ele>104</ele>
        <time>2020-12-20T11:58:04.000Z</time>
      </trkpt>
      <trkpt lat="47.17238" lon="-1.94545">
        <ele>104</ele>
        <time>2020-12-20T11:58:06.000Z</time>
      </trkpt>
      <trkpt lat="47.17243" lon="-1.94559">
        <ele>104</ele>
        <time>2020-12-20T11:58:08.000Z</time>
      </trkpt>
      <trkpt lat="47.17248" lon="-1.94573">
        <ele>104</ele>
        <time>2020-12-20T11:58:10.000Z</time>
      </trkpt>
      <trkpt lat="47.17253" lon="-1.94587">
        <ele>104</ele>
        <time>2020-12-20T11:58:12.000Z</time>
      </trkpt>
      <trkpt lat="47.17257" lon="-1.94601">
        <ele>104</ele>
        <time>2020-12-20T11:58:14.000Z</time>
      </trkpt>
      <trkpt lat="47.17262" lon="-1.94616">
        <ele>105</ele>
        <time>2020-12-20T11:58:16.000Z</time>
      </trkpt>
      <trkpt lat="47.17266" lon="-1.94631">
        <ele>105</ele>
        <time>2020-12-20T11:58:18.000Z</time>
      </trkpt>
      <trkpt lat="47.17271" lon="-1.94646">
        <ele>104</ele>
        <time>2020-12-20T11:58:20.000Z</time>
      </trkpt>
      <trkpt lat="47.17276" lon="-1.94661">
        <ele>104</ele>
        <time>2020-12-20T11:58:22.000Z</time>
      </trkpt>
      <trkpt lat="47.17281" lon="-1.94677">
        <ele>104</ele>
        <time>2020-12-20T11:58:24.000Z</time>
      </trkpt>
      <trkpt lat="47.17285" lon="-1.94692">
        <ele>105</ele>
        <time>2020-12-20T11:58:26.000Z</time>
      </trkpt>
      <trkpt lat="47.17289" lon="-1.94707">
        <ele>105</ele>
        <time>2020-12-20T11:58:28.000Z</time>
      </trkpt>
      <trkpt lat="47.17292" lon="-1.9472">
        <ele>105</ele>
        <time>2020-12-20T11:58:30.000Z</time>
      </trkpt>
      <trkpt lat="47.17295" lon="-1.94733">
        <ele>105</ele>
        <time>2020-12-20T11:58:32.000Z</time>
      </trkpt>
      <trkpt lat="47.173" lon="-1.9475">
        <ele>105</ele>
        <time>2020-12-20T11:58:35.000Z</time>
      </trkpt>
      <trkpt lat="47.17301" lon="-1.94766">
        <ele>105</ele>
        <time>2020-12-20T11:58:38.000Z</time>
      </trkpt>
      <trkpt lat="47.17301" lon="-1.94781">
        <ele>105</ele>
        <time>2020-12-20T11:58:40.000Z</time>
      </trkpt>
      <trkpt lat="47.17307" lon="-1.94797">
        <ele>105</ele>
        <time>2020-12-20T11:58:42.000Z</time>
      </trkpt>
      <trkpt lat="47.17315" lon="-1.94811">
        <ele>105</ele>
        <time>2020-12-20T11:58:44.000Z</time>
      </trkpt>
      <trkpt lat="47.17322" lon="-1.94823">
        <ele>105</ele>
        <time>2020-12-20T11:58:46.000Z</time>
      </trkpt>
      <trkpt lat="47.17329" lon="-1.94837">
        <ele>105</ele>
        <time>2020-12-20T11:58:48.000Z</time>
      </trkpt>
      <trkpt lat="47.17336" lon="-1.94849">
        <ele>106</ele>
        <time>2020-12-20T11:58:50.000Z</time>
      </trkpt>
      <trkpt lat="47.17343" lon="-1.94862">
        <ele>106</ele>
        <time>2020-12-20T11:58:52.000Z</time>
      </trkpt>
      <trkpt lat="47.1735" lon="-1.94875">
        <ele>106</ele>
        <time>2020-12-20T11:58:54.000Z</time>
      </trkpt>
      <trkpt lat="47.17357" lon="-1.94887">
        <ele>105</ele>
        <time>2020-12-20T11:58:56.000Z</time>
      </trkpt>
      <trkpt lat="47.17364" lon="-1.949">
        <ele>105</ele>
        <time>2020-12-20T11:58:58.000Z</time>
      </trkpt>
      <trkpt lat="47.17371" lon="-1.94913">
        <ele>105</ele>
        <time>2020-12-20T11:59:00.000Z</time>
      </trkpt>
      <trkpt lat="47.17378" lon="-1.94925">
        <ele>105</ele>
        <time>2020-12-20T11:59:02.000Z</time>
      </trkpt>
      <trkpt lat="47.17385" lon="-1.94938">
        <ele>105</ele>
        <time>2020-12-20T11:59:04.000Z</time>
      </trkpt>
      <trkpt lat="47.17391" lon="-1.9495">
        <ele>106</ele>
        <time>2020-12-20T11:59:06.000Z</time>
      </trkpt>
      <trkpt lat="47.17398" lon="-1.94963">
        <ele>106</ele>
        <time>2020-12-20T11:59:08.000Z</time>
      </trkpt>
      <trkpt lat="47.17405" lon="-1.94976">
        <ele>106</ele>
        <time>2020-12-20T11:59:10.000Z</time>
      </trkpt>
      <trkpt lat="47.17412" lon="-1.94989">
        <ele>105</ele>
        <time>2020-12-20T11:59:12.000Z</time>
      </trkpt>
      <trkpt lat="47.17419" lon="-1.95002">
        <ele>105</ele>
        <time>2020-12-20T11:59:14.000Z</time>
      </trkpt>
      <trkpt lat="47.17426" lon="-1.95015">
        <ele>104</ele>
        <time>2020-12-20T11:59:16.000Z</time>
      </trkpt>
      <trkpt lat="47.17433" lon="-1.95029">
        <ele>104</ele>
        <time>2020-12-20T11:59:18.000Z</time>
      </trkpt>
      <trkpt lat="47.1744" lon="-1.95043">
        <ele>104</ele>
        <time>2020-12-20T11:59:20.000Z</time>
      </trkpt>
      <trkpt lat="47.17448" lon="-1.95057">
        <ele>104</ele>
        <time>2020-12-20T11:59:22.000Z</time>
      </trkpt>
      <trkpt lat="47.17456" lon="-1.9507">
        <ele>103</ele>
        <time>2020-12-20T11:59:24.000Z</time>
      </trkpt>
      <trkpt lat="47.17463" lon="-1.95084">
        <ele>103</ele>
        <time>2020-12-20T11:59:26.000Z</time>
      </trkpt>
      <trkpt lat="47.17472" lon="-1.95099">
        <ele>103</ele>
        <time>2020-12-20T11:59:28.000Z</time>
      </trkpt>
      <trkpt lat="47.1748" lon="-1.95115">
        <ele>103</ele>
        <time>2020-12-20T11:59:30.000Z</time>
      </trkpt>
      <trkpt lat="47.17488" lon="-1.95132">
        <ele>103</ele>
        <time>2020-12-20T11:59:32.000Z</time>
      </trkpt>
      <trkpt lat="47.17495" lon="-1.9515">
        <ele>103</ele>
        <time>2020-12-20T11:59:34.000Z</time>
      </trkpt>
      <trkpt lat="47.17502" lon="-1.95169">
        <ele>102</ele>
        <time>2020-12-20T11:59:36.000Z</time>
      </trkpt>
      <trkpt lat="47.17509" lon="-1.95189">
        <ele>102</ele>
        <time>2020-12-20T11:59:38.000Z</time>
      </trkpt>
      <trkpt lat="47.17515" lon="-1.9521">
        <ele>101</ele>
        <time>2020-12-20T11:59:40.000Z</time>
      </trkpt>
      <trkpt lat="47.1752" lon="-1.95231">
        <ele>100</ele>
        <time>2020-12-20T11:59:42.000Z</time>
      </trkpt>
      <trkpt lat="47.17525" lon="-1.95254">
        <ele>99</ele>
        <time>2020-12-20T11:59:44.000Z</time>
      </trkpt>
      <trkpt lat="47.17529" lon="-1.95277">
        <ele>99</ele>
        <time>2020-12-20T11:59:46.000Z</time>
      </trkpt>
      <trkpt lat="47.17533" lon="-1.95302">
        <ele>98</ele>
        <time>2020-12-20T11:59:48.000Z</time>
      </trkpt>
      <trkpt lat="47.17537" lon="-1.95325">
        <ele>98</ele>
        <time>2020-12-20T11:59:50.000Z</time>
      </trkpt>
      <trkpt lat="47.1754" lon="-1.95348">
        <ele>97</ele>
        <time>2020-12-20T11:59:52.000Z</time>
      </trkpt>
      <trkpt lat="47.17543" lon="-1.95371">
        <ele>97</ele>
        <time>2020-12-20T11:59:54.000Z</time>
      </trkpt>
      <trkpt lat="47.17546" lon="-1.95392">
        <ele>96</ele>
        <time>2020-12-20T11:59:56.000Z</time>
      </trkpt>
      <trkpt lat="47.17549" lon="-1.95414">
        <ele>96</ele>
        <time>2020-12-20T11:59:58.000Z</time>
      </trkpt>
      <trkpt lat="47.17552" lon="-1.95437">
        <ele>96</ele>
        <time>2020-12-20T12:00:00.000Z</time>
      </trkpt>
      <trkpt lat="47.17556" lon="-1.9546">
        <ele>96</ele>
        <time>2020-12-20T12:00:02.000Z</time>
      </trkpt>
      <trkpt lat="47.17561" lon="-1.95484">
        <ele>95</ele>
        <time>2020-12-20T12:00:04.000Z</time>
      </trkpt>
      <trkpt lat="47.17564" lon="-1.95507">
        <ele>95</ele>
        <time>2020-12-20T12:00:06.000Z</time>
      </trkpt>
      <trkpt lat="47.17567" lon="-1.9553">
        <ele>95</ele>
        <time>2020-12-20T12:00:08.000Z</time>
      </trkpt>
      <trkpt lat="47.17571" lon="-1.95552">
        <ele>95</ele>
        <time>2020-12-20T12:00:10.000Z</time>
      </trkpt>
      <trkpt lat="47.17575" lon="-1.95575">
        <ele>95</ele>
        <time>2020-12-20T12:00:12.000Z</time>
      </trkpt>
      <trkpt lat="47.17577" lon="-1.95599">
        <ele>95</ele>
        <time>2020-12-20T12:00:14.000Z</time>
      </trkpt>
      <trkpt lat="47.17578" lon="-1.95623">
        <ele>94</ele>
        <time>2020-12-20T12:00:16.000Z</time>
      </trkpt>
      <trkpt lat="47.1758" lon="-1.95646">
        <ele>94</ele>
        <time>2020-12-20T12:00:18.000Z</time>
      </trkpt>
      <trkpt lat="47.1758" lon="-1.95669">
        <ele>93</ele>
        <time>2020-12-20T12:00:20.000Z</time>
      </trkpt>
      <trkpt lat="47.1758" lon="-1.95692">
        <ele>93</ele>
        <time>2020-12-20T12:00:22.000Z</time>
      </trkpt>
      <trkpt lat="47.1758" lon="-1.95713">
        <ele>93</ele>
        <time>2020-12-20T12:00:24.000Z</time>
      </trkpt>
      <trkpt lat="47.17579" lon="-1.95734">
        <ele>92</ele>
        <time>2020-12-20T12:00:26.000Z</time>
      </trkpt>
      <trkpt lat="47.1758" lon="-1.95753">
        <ele>92</ele>
        <time>2020-12-20T12:00:28.000Z</time>
      </trkpt>
      <trkpt lat="47.1758" lon="-1.95771">
        <ele>92</ele>
        <time>2020-12-20T12:00:30.000Z</time>
      </trkpt>
      <trkpt lat="47.1758" lon="-1.9579">
        <ele>93</ele>
        <time>2020-12-20T12:00:32.000Z</time>
      </trkpt>
      <trkpt lat="47.1758" lon="-1.95807">
        <ele>92</ele>
        <time>2020-12-20T12:00:34.000Z</time>
      </trkpt>
      <trkpt lat="47.17579" lon="-1.95825">
        <ele>92</ele>
        <time>2020-12-20T12:00:36.000Z</time>
      </trkpt>
      <trkpt lat="47.17579" lon="-1.95841">
        <ele>91</ele>
        <time>2020-12-20T12:00:38.000Z</time>
      </trkpt>
      <trkpt lat="47.17579" lon="-1.95858">
        <ele>92</ele>
        <time>2020-12-20T12:00:40.000Z</time>
      </trkpt>
      <trkpt lat="47.17579" lon="-1.95875">
        <ele>92</ele>
        <time>2020-12-20T12:00:42.000Z</time>
      </trkpt>
      <trkpt lat="47.17579" lon="-1.95891">
        <ele>93</ele>
        <time>2020-12-20T12:00:44.000Z</time>
      </trkpt>
      <trkpt lat="47.17579" lon="-1.95907">
        <ele>93</ele>
        <time>2020-12-20T12:00:46.000Z</time>
      </trkpt>
      <trkpt lat="47.17579" lon="-1.95922">
        <ele>92</ele>
        <time>2020-12-20T12:00:48.000Z</time>
      </trkpt>
      <trkpt lat="47.1758" lon="-1.95938">
        <ele>93</ele>
        <time>2020-12-20T12:00:50.000Z</time>
      </trkpt>
      <trkpt lat="47.1758" lon="-1.95953">
        <ele>93</ele>
        <time>2020-12-20T12:00:52.000Z</time>
      </trkpt>
      <trkpt lat="47.1758" lon="-1.95968">
        <ele>93</ele>
        <time>2020-12-20T12:00:54.000Z</time>
      </trkpt>
      <trkpt lat="47.1758" lon="-1.95985">
        <ele>94</ele>
        <time>2020-12-20T12:00:56.000Z</time>
      </trkpt>
      <trkpt lat="47.1758" lon="-1.96001">
        <ele>95</ele>
        <time>2020-12-20T12:00:58.000Z</time>
      </trkpt>
      <trkpt lat="47.1758" lon="-1.96016">
        <ele>96</ele>
        <time>2020-12-20T12:01:00.000Z</time>
      </trkpt>
      <trkpt lat="47.1758" lon="-1.96033">
        <ele>96</ele>
        <time>2020-12-20T12:01:02.000Z</time>
      </trkpt>
      <trkpt lat="47.1758" lon="-1.96048">
        <ele>96</ele>
        <time>2020-12-20T12:01:04.000Z</time>
      </trkpt>
      <trkpt lat="47.17581" lon="-1.96065">
        <ele>96</ele>
        <time>2020-12-20T12:01:06.000Z</time>
      </trkpt>
      <trkpt lat="47.17581" lon="-1.9608">
        <ele>96</ele>
        <time>2020-12-20T12:01:08.000Z</time>
      </trkpt>
      <trkpt lat="47.17581" lon="-1.96095">
        <ele>96</ele>
        <time>2020-12-20T12:01:10.000Z</time>
      </trkpt>
      <trkpt lat="47.17582" lon="-1.9611">
        <ele>96</ele>
        <time>2020-12-20T12:01:12.000Z</time>
      </trkpt>
      <trkpt lat="47.17583" lon="-1.96125">
        <ele>96</ele>
        <time>2020-12-20T12:01:14.000Z</time>
      </trkpt>
      <trkpt lat="47.17585" lon="-1.9614">
        <ele>96</ele>
        <time>2020-12-20T12:01:16.000Z</time>
      </trkpt>
      <trkpt lat="47.17588" lon="-1.96155">
        <ele>97</ele>
        <time>2020-12-20T12:01:18.000Z</time>
      </trkpt>
      <trkpt lat="47.17592" lon="-1.9617">
        <ele>97</ele>
        <time>2020-12-20T12:01:20.000Z</time>
      </trkpt>
      <trkpt lat="47.17595" lon="-1.96184">
        <ele>98</ele>
        <time>2020-12-20T12:01:22.000Z</time>
      </trkpt>
      <trkpt lat="47.17599" lon="-1.96198">
        <ele>99</ele>
        <time>2020-12-20T12:01:24.000Z</time>
      </trkpt>
      <trkpt lat="47.17602" lon="-1.96213">
        <ele>99</ele>
        <time>2020-12-20T12:01:26.000Z</time>
      </trkpt>
      <trkpt lat="47.17605" lon="-1.96228">
        <ele>98</ele>
        <time>2020-12-20T12:01:28.000Z</time>
      </trkpt>
      <trkpt lat="47.17608" lon="-1.96242">
        <ele>98</ele>
        <time>2020-12-20T12:01:30.000Z</time>
      </trkpt>
      <trkpt lat="47.17612" lon="-1.96258">
        <ele>98</ele>
        <time>2020-12-20T12:01:32.000Z</time>
      </trkpt>
      <trkpt lat="47.17615" lon="-1.96273">
        <ele>99</ele>
        <time>2020-12-20T12:01:34.000Z</time>
      </trkpt>
      <trkpt lat="47.17618" lon="-1.96287">
        <ele>99</ele>
        <time>2020-12-20T12:01:36.000Z</time>
      </trkpt>
      <trkpt lat="47.17621" lon="-1.96303">
        <ele>99</ele>
        <time>2020-12-20T12:01:38.000Z</time>
      </trkpt>
      <trkpt lat="47.17624" lon="-1.96318">
        <ele>99</ele>
        <time>2020-12-20T12:01:40.000Z</time>
      </trkpt>
      <trkpt lat="47.17628" lon="-1.96333">
        <ele>99</ele>
        <time>2020-12-20T12:01:42.000Z</time>
      </trkpt>
      <trkpt lat="47.17631" lon="-1.96349">
        <ele>99</ele>
        <time>2020-12-20T12:01:44.000Z</time>
      </trkpt>
      <trkpt lat="47.17634" lon="-1.96364">
        <ele>99</ele>
        <time>2020-12-20T12:01:46.000Z</time>
      </trkpt>
      <trkpt lat="47.17637" lon="-1.96379">
        <ele>99</ele>
        <time>2020-12-20T12:01:48.000Z</time>
      </trkpt>
      <trkpt lat="47.1764" lon="-1.96395">
        <ele>100</ele>
        <time>2020-12-20T12:01:50.000Z</time>
      </trkpt>
      <trkpt lat="47.17643" lon="-1.9641">
        <ele>99</ele>
        <time>2020-12-20T12:01:52.000Z</time>
      </trkpt>
      <trkpt lat="47.17646" lon="-1.96426">
        <ele>99</ele>
        <time>2020-12-20T12:01:54.000Z</time>
      </trkpt>
      <trkpt lat="47.1765" lon="-1.9644">
        <ele>99</ele>
        <time>2020-12-20T12:01:56.000Z</time>
      </trkpt>
      <trkpt lat="47.17653" lon="-1.96455">
        <ele>100</ele>
        <time>2020-12-20T12:01:58.000Z</time>
      </trkpt>
      <trkpt lat="47.17656" lon="-1.96469">
        <ele>100</ele>
        <time>2020-12-20T12:02:00.000Z</time>
      </trkpt>
      <trkpt lat="47.17659" lon="-1.96484">
        <ele>99</ele>
        <time>2020-12-20T12:02:02.000Z</time>
      </trkpt>
      <trkpt lat="47.17662" lon="-1.965">
        <ele>99</ele>
        <time>2020-12-20T12:02:04.000Z</time>
      </trkpt>
      <trkpt lat="47.17665" lon="-1.96515">
        <ele>100</ele>
        <time>2020-12-20T12:02:06.000Z</time>
      </trkpt>
      <trkpt lat="47.17668" lon="-1.96529">
        <ele>100</ele>
        <time>2020-12-20T12:02:08.000Z</time>
      </trkpt>
      <trkpt lat="47.17674" lon="-1.96546">
        <ele>101</ele>
        <time>2020-12-20T12:02:11.000Z</time>
      </trkpt>
      <trkpt lat="47.1768" lon="-1.96558">
        <ele>101</ele>
        <time>2020-12-20T12:02:14.000Z</time>
      </trkpt>
      <trkpt lat="47.17691" lon="-1.9656">
        <ele>102</ele>
        <time>2020-12-20T12:02:17.000Z</time>
      </trkpt>
      <trkpt lat="47.17701" lon="-1.96553">
        <ele>102</ele>
        <time>2020-12-20T12:02:19.000Z</time>
      </trkpt>
      <trkpt lat="47.17712" lon="-1.96545">
        <ele>102</ele>
        <time>2020-12-20T12:02:21.000Z</time>
      </trkpt>
      <trkpt lat="47.17724" lon="-1.96539">
        <ele>102</ele>
        <time>2020-12-20T12:02:23.000Z</time>
      </trkpt>
      <trkpt lat="47.17737" lon="-1.96532">
        <ele>102</ele>
        <time>2020-12-20T12:02:25.000Z</time>
      </trkpt>
      <trkpt lat="47.17749" lon="-1.96526">
        <ele>102</ele>
        <time>2020-12-20T12:02:27.000Z</time>
      </trkpt>
      <trkpt lat="47.17761" lon="-1.96521">
        <ele>102</ele>
        <time>2020-12-20T12:02:29.000Z</time>
      </trkpt>
      <trkpt lat="47.17773" lon="-1.96515">
        <ele>102</ele>
        <time>2020-12-20T12:02:31.000Z</time>
      </trkpt>
      <trkpt lat="47.17785" lon="-1.9651">
        <ele>102</ele>
        <time>2020-12-20T12:02:33.000Z</time>
      </trkpt>
      <trkpt lat="47.17797" lon="-1.96506">
        <ele>102</ele>
        <time>2020-12-20T12:02:35.000Z</time>
      </trkpt>
      <trkpt lat="47.1781" lon="-1.96502">
        <ele>102</ele>
        <time>2020-12-20T12:02:37.000Z</time>
      </trkpt>
      <trkpt lat="47.17822" lon="-1.96499">
        <ele>102</ele>
        <time>2020-12-20T12:02:39.000Z</time>
      </trkpt>
      <trkpt lat="47.17835" lon="-1.96495">
        <ele>102</ele>
        <time>2020-12-20T12:02:41.000Z</time>
      </trkpt>
      <trkpt lat="47.17849" lon="-1.96493">
        <ele>102</ele>
        <time>2020-12-20T12:02:43.000Z</time>
      </trkpt>
      <trkpt lat="47.17862" lon="-1.96491">
        <ele>102</ele>
        <time>2020-12-20T12:02:45.000Z</time>
      </trkpt>
      <trkpt lat="47.17876" lon="-1.96487">
        <ele>102</ele>
        <time>2020-12-20T12:02:47.000Z</time>
      </trkpt>
      <trkpt lat="47.17889" lon="-1.96485">
        <ele>102</ele>
        <time>2020-12-20T12:02:49.000Z</time>
      </trkpt>
      <trkpt lat="47.17902" lon="-1.96481">
        <ele>102</ele>
        <time>2020-12-20T12:02:51.000Z</time>
      </trkpt>
      <trkpt lat="47.17915" lon="-1.96478">
        <ele>102</ele>
        <time>2020-12-20T12:02:53.000Z</time>
      </trkpt>
      <trkpt lat="47.17929" lon="-1.96475">
        <ele>102</ele>
        <time>2020-12-20T12:02:55.000Z</time>
      </trkpt>
      <trkpt lat="47.17942" lon="-1.96472">
        <ele>102</ele>
        <time>2020-12-20T12:02:57.000Z</time>
      </trkpt>
      <trkpt lat="47.17956" lon="-1.96469">
        <ele>102</ele>
        <time>2020-12-20T12:02:59.000Z</time>
      </trkpt>
      <trkpt lat="47.1797" lon="-1.96465">
        <ele>101</ele>
        <time>2020-12-20T12:03:01.000Z</time>
      </trkpt>
      <trkpt lat="47.17983" lon="-1.96462">
        <ele>101</ele>
        <time>2020-12-20T12:03:03.000Z</time>
      </trkpt>
      <trkpt lat="47.17997" lon="-1.96459">
        <ele>101</ele>
        <time>2020-12-20T12:03:05.000Z</time>
      </trkpt>
      <trkpt lat="47.18011" lon="-1.96456">
        <ele>101</ele>
        <time>2020-12-20T12:03:07.000Z</time>
      </trkpt>
      <trkpt lat="47.18025" lon="-1.96453">
        <ele>101</ele>
        <time>2020-12-20T12:03:09.000Z</time>
      </trkpt>
      <trkpt lat="47.18039" lon="-1.9645">
        <ele>100</ele>
        <time>2020-12-20T12:03:11.000Z</time>
      </trkpt>
      <trkpt lat="47.18054" lon="-1.96447">
        <ele>100</ele>
        <time>2020-12-20T12:03:13.000Z</time>
      </trkpt>
      <trkpt lat="47.18067" lon="-1.96445">
        <ele>100</ele>
        <time>2020-12-20T12:03:15.000Z</time>
      </trkpt>
      <trkpt lat="47.18081" lon="-1.96441">
        <ele>100</ele>
        <time>2020-12-20T12:03:17.000Z</time>
      </trkpt>
      <trkpt lat="47.18095" lon="-1.96438">
        <ele>100</ele>
        <time>2020-12-20T12:03:19.000Z</time>
      </trkpt>
      <trkpt lat="47.18108" lon="-1.96435">
        <ele>100</ele>
        <time>2020-12-20T12:03:21.000Z</time>
      </trkpt>
      <trkpt lat="47.18122" lon="-1.96432">
        <ele>101</ele>
        <time>2020-12-20T12:03:23.000Z</time>
      </trkpt>
      <trkpt lat="47.18134" lon="-1.96428">
        <ele>101</ele>
        <time>2020-12-20T12:03:25.000Z</time>
      </trkpt>
      <trkpt lat="47.18146" lon="-1.96425">
        <ele>102</ele>
        <time>2020-12-20T12:03:27.000Z</time>
      </trkpt>
      <trkpt lat="47.18158" lon="-1.96422">
        <ele>102</ele>
        <time>2020-12-20T12:03:29.000Z</time>
      </trkpt>
      <trkpt lat="47.1817" lon="-1.9642">
        <ele>102</ele>
        <time>2020-12-20T12:03:31.000Z</time>
      </trkpt>
      <trkpt lat="47.18183" lon="-1.96416">
        <ele>102</ele>
        <time>2020-12-20T12:03:33.000Z</time>
      </trkpt>
      <trkpt lat="47.18195" lon="-1.96413">
        <ele>102</ele>
        <time>2020-12-20T12:03:35.000Z</time>
      </trkpt>
      <trkpt lat="47.18207" lon="-1.96411">
        <ele>102</ele>
        <time>2020-12-20T12:03:37.000Z</time>
      </trkpt>
      <trkpt lat="47.1822" lon="-1.96408">
        <ele>102</ele>
        <time>2020-12-20T12:03:39.000Z</time>
      </trkpt>
      <trkpt lat="47.18232" lon="-1.96406">
        <ele>102</ele>
        <time>2020-12-20T12:03:41.000Z</time>
      </trkpt>
      <trkpt lat="47.18243" lon="-1.96402">
        <ele>102</ele>
        <time>2020-12-20T12:03:43.000Z</time>
      </trkpt>
      <trkpt lat="47.18255" lon="-1.96399">
        <ele>101</ele>
        <time>2020-12-20T12:03:45.000Z</time>
      </trkpt>
      <trkpt lat="47.18268" lon="-1.96395">
        <ele>101</ele>
        <time>2020-12-20T12:03:47.000Z</time>
      </trkpt>
      <trkpt lat="47.18281" lon="-1.96392">
        <ele>102</ele>
        <time>2020-12-20T12:03:49.000Z</time>
      </trkpt>
      <trkpt lat="47.18293" lon="-1.9639">
        <ele>102</ele>
        <time>2020-12-20T12:03:51.000Z</time>
      </trkpt>
      <trkpt lat="47.18306" lon="-1.96388">
        <ele>102</ele>
        <time>2020-12-20T12:03:53.000Z</time>
      </trkpt>
      <trkpt lat="47.18318" lon="-1.96384">
        <ele>102</ele>
        <time>2020-12-20T12:03:55.000Z</time>
      </trkpt>
      <trkpt lat="47.18332" lon="-1.96379">
        <ele>101</ele>
        <time>2020-12-20T12:03:57.000Z</time>
      </trkpt>
      <trkpt lat="47.18344" lon="-1.96376">
        <ele>102</ele>
        <time>2020-12-20T12:03:59.000Z</time>
      </trkpt>
      <trkpt lat="47.18357" lon="-1.96373">
        <ele>102</ele>
        <time>2020-12-20T12:04:01.000Z</time>
      </trkpt>
      <trkpt lat="47.18369" lon="-1.9637">
        <ele>103</ele>
        <time>2020-12-20T12:04:03.000Z</time>
      </trkpt>
      <trkpt lat="47.18381" lon="-1.96365">
        <ele>104</ele>
        <time>2020-12-20T12:04:05.000Z</time>
      </trkpt>
      <trkpt lat="47.18392" lon="-1.9636">
        <ele>104</ele>
        <time>2020-12-20T12:04:07.000Z</time>
      </trkpt>
      <trkpt lat="47.18403" lon="-1.96355">
        <ele>105</ele>
        <time>2020-12-20T12:04:09.000Z</time>
      </trkpt>
      <trkpt lat="47.18413" lon="-1.96351">
        <ele>105</ele>
        <time>2020-12-20T12:04:11.000Z</time>
      </trkpt>
      <trkpt lat="47.18423" lon="-1.96347">
        <ele>106</ele>
        <time>2020-12-20T12:04:13.000Z</time>
      </trkpt>
      <trkpt lat="47.18435" lon="-1.96347">
        <ele>106</ele>
        <time>2020-12-20T12:04:15.000Z</time>
      </trkpt>
      <trkpt lat="47.18446" lon="-1.96352">
        <ele>107</ele>
        <time>2020-12-20T12:04:17.000Z</time>
      </trkpt>
      <trkpt lat="47.18457" lon="-1.96356">
        <ele>107</ele>
        <time>2020-12-20T12:04:19.000Z</time>
      </trkpt>
      <trkpt lat="47.1847" lon="-1.96353">
        <ele>107</ele>
        <time>2020-12-20T12:04:21.000Z</time>
      </trkpt>
      <trkpt lat="47.1848" lon="-1.96344">
        <ele>107</ele>
        <time>2020-12-20T12:04:23.000Z</time>
      </trkpt>
      <trkpt lat="47.18491" lon="-1.96335">
        <ele>106</ele>
        <time>2020-12-20T12:04:25.000Z</time>
      </trkpt>
      <trkpt lat="47.18502" lon="-1.96329">
        <ele>106</ele>
        <time>2020-12-20T12:04:27.000Z</time>
      </trkpt>
      <trkpt lat="47.18515" lon="-1.96324">
        <ele>106</ele>
        <time>2020-12-20T12:04:29.000Z</time>
      </trkpt>
      <trkpt lat="47.18528" lon="-1.96319">
        <ele>105</ele>
        <time>2020-12-20T12:04:31.000Z</time>
      </trkpt>
      <trkpt lat="47.18541" lon="-1.96314">
        <ele>105</ele>
        <time>2020-12-20T12:04:33.000Z</time>
      </trkpt>
      <trkpt lat="47.18555" lon="-1.96308">
        <ele>103</ele>
        <time>2020-12-20T12:04:35.000Z</time>
      </trkpt>
      <trkpt lat="47.18569" lon="-1.96301">
        <ele>103</ele>
        <time>2020-12-20T12:04:37.000Z</time>
      </trkpt>
      <trkpt lat="47.18584" lon="-1.96295">
        <ele>102</ele>
        <time>2020-12-20T12:04:39.000Z</time>
      </trkpt>
      <trkpt lat="47.18599" lon="-1.9629">
        <ele>101</ele>
        <time>2020-12-20T12:04:41.000Z</time>
      </trkpt>
      <trkpt lat="47.18615" lon="-1.96283">
        <ele>101</ele>
        <time>2020-12-20T12:04:43.000Z</time>
      </trkpt>
      <trkpt lat="47.18631" lon="-1.96277">
        <ele>100</ele>
        <time>2020-12-20T12:04:45.000Z</time>
      </trkpt>
      <trkpt lat="47.18648" lon="-1.9627">
        <ele>100</ele>
        <time>2020-12-20T12:04:47.000Z</time>
      </trkpt>
      <trkpt lat="47.18657" lon="-1.96266">
        <ele>99</ele>
        <time>2020-12-20T12:04:48.000Z</time>
      </trkpt>
      <trkpt lat="47.18666" lon="-1.96261">
        <ele>99</ele>
        <time>2020-12-20T12:04:49.000Z</time>
      </trkpt>
      <trkpt lat="47.18675" lon="-1.96257">
        <ele>98</ele>
        <time>2020-12-20T12:04:50.000Z</time>
      </trkpt>
      <trkpt lat="47.18684" lon="-1.96253">
        <ele>98</ele>
        <time>2020-12-20T12:04:51.000Z</time>
      </trkpt>
      <trkpt lat="47.18693" lon="-1.96249">
        <ele>97</ele>
        <time>2020-12-20T12:04:52.000Z</time>
      </trkpt>
      <trkpt lat="47.18703" lon="-1.96246">
        <ele>97</ele>
        <time>2020-12-20T12:04:53.000Z</time>
      </trkpt>
      <trkpt lat="47.18712" lon="-1.96242">
        <ele>96</ele>
        <time>2020-12-20T12:04:54.000Z</time>
      </trkpt>
      <trkpt lat="47.18722" lon="-1.96238">
        <ele>96</ele>
        <time>2020-12-20T12:04:55.000Z</time>
      </trkpt>
      <trkpt lat="47.18732" lon="-1.96233">
        <ele>95</ele>
        <time>2020-12-20T12:04:56.000Z</time>
      </trkpt>
      <trkpt lat="47.18742" lon="-1.96229">
        <ele>95</ele>
        <time>2020-12-20T12:04:57.000Z</time>
      </trkpt>
      <trkpt lat="47.18753" lon="-1.96225">
        <ele>94</ele>
        <time>2020-12-20T12:04:58.000Z</time>
      </trkpt>
      <trkpt lat="47.18762" lon="-1.9622">
        <ele>94</ele>
        <time>2020-12-20T12:04:59.000Z</time>
      </trkpt>
      <trkpt lat="47.18772" lon="-1.96216">
        <ele>94</ele>
        <time>2020-12-20T12:05:00.000Z</time>
      </trkpt>
      <trkpt lat="47.18783" lon="-1.96212">
        <ele>94</ele>
        <time>2020-12-20T12:05:01.000Z</time>
      </trkpt>
      <trkpt lat="47.18793" lon="-1.96208">
        <ele>94</ele>
        <time>2020-12-20T12:05:02.000Z</time>
      </trkpt>
      <trkpt lat="47.18804" lon="-1.96203">
        <ele>93</ele>
        <time>2020-12-20T12:05:03.000Z</time>
      </trkpt>
      <trkpt lat="47.18814" lon="-1.96199">
        <ele>93</ele>
        <time>2020-12-20T12:05:04.000Z</time>
      </trkpt>
      <trkpt lat="47.18824" lon="-1.96195">
        <ele>92</ele>
        <time>2020-12-20T12:05:05.000Z</time>
      </trkpt>
      <trkpt lat="47.18834" lon="-1.96191">
        <ele>92</ele>
        <time>2020-12-20T12:05:06.000Z</time>
      </trkpt>
      <trkpt lat="47.18844" lon="-1.96187">
        <ele>92</ele>
        <time>2020-12-20T12:05:07.000Z</time>
      </trkpt>
      <trkpt lat="47.18854" lon="-1.96183">
        <ele>91</ele>
        <time>2020-12-20T12:05:08.000Z</time>
      </trkpt>
      <trkpt lat="47.18865" lon="-1.9618">
        <ele>90</ele>
        <time>2020-12-20T12:05:09.000Z</time>
      </trkpt>
      <trkpt lat="47.18875" lon="-1.96176">
        <ele>89</ele>
        <time>2020-12-20T12:05:10.000Z</time>
      </trkpt>
      <trkpt lat="47.18885" lon="-1.96172">
        <ele>88</ele>
        <time>2020-12-20T12:05:11.000Z</time>
      </trkpt>
      <trkpt lat="47.18896" lon="-1.96168">
        <ele>88</ele>
        <time>2020-12-20T12:05:12.000Z</time>
      </trkpt>
      <trkpt lat="47.18906" lon="-1.96164">
        <ele>87</ele>
        <time>2020-12-20T12:05:13.000Z</time>
      </trkpt>
      <trkpt lat="47.18916" lon="-1.9616">
        <ele>86</ele>
        <time>2020-12-20T12:05:14.000Z</time>
      </trkpt>
      <trkpt lat="47.18926" lon="-1.96157">
        <ele>86</ele>
        <time>2020-12-20T12:05:15.000Z</time>
      </trkpt>
      <trkpt lat="47.18937" lon="-1.96153">
        <ele>85</ele>
        <time>2020-12-20T12:05:16.000Z</time>
      </trkpt>
      <trkpt lat="47.18947" lon="-1.96149">
        <ele>84</ele>
        <time>2020-12-20T12:05:17.000Z</time>
      </trkpt>
      <trkpt lat="47.18956" lon="-1.96146">
        <ele>84</ele>
        <time>2020-12-20T12:05:18.000Z</time>
      </trkpt>
      <trkpt lat="47.18966" lon="-1.96142">
        <ele>83</ele>
        <time>2020-12-20T12:05:19.000Z</time>
      </trkpt>
      <trkpt lat="47.18976" lon="-1.96138">
        <ele>83</ele>
        <time>2020-12-20T12:05:20.000Z</time>
      </trkpt>
      <trkpt lat="47.18986" lon="-1.96135">
        <ele>82</ele>
        <time>2020-12-20T12:05:21.000Z</time>
      </trkpt>
      <trkpt lat="47.18996" lon="-1.96131">
        <ele>82</ele>
        <time>2020-12-20T12:05:22.000Z</time>
      </trkpt>
      <trkpt lat="47.19006" lon="-1.96127">
        <ele>82</ele>
        <time>2020-12-20T12:05:23.000Z</time>
      </trkpt>
      <trkpt lat="47.19016" lon="-1.96123">
        <ele>81</ele>
        <time>2020-12-20T12:05:24.000Z</time>
      </trkpt>
      <trkpt lat="47.19026" lon="-1.96119">
        <ele>80</ele>
        <time>2020-12-20T12:05:25.000Z</time>
      </trkpt>
      <trkpt lat="47.19035" lon="-1.96115">
        <ele>79</ele>
        <time>2020-12-20T12:05:26.000Z</time>
      </trkpt>
      <trkpt lat="47.19045" lon="-1.96111">
        <ele>79</ele>
        <time>2020-12-20T12:05:27.000Z</time>
      </trkpt>
      <trkpt lat="47.19054" lon="-1.96107">
        <ele>78</ele>
        <time>2020-12-20T12:05:28.000Z</time>
      </trkpt>
      <trkpt lat="47.19063" lon="-1.96103">
        <ele>78</ele>
        <time>2020-12-20T12:05:29.000Z</time>
      </trkpt>
      <trkpt lat="47.19073" lon="-1.96099">
        <ele>78</ele>
        <time>2020-12-20T12:05:30.000Z</time>
      </trkpt>
      <trkpt lat="47.19082" lon="-1.96096">
        <ele>77</ele>
        <time>2020-12-20T12:05:31.000Z</time>
      </trkpt>
      <trkpt lat="47.19092" lon="-1.96093">
        <ele>77</ele>
        <time>2020-12-20T12:05:32.000Z</time>
      </trkpt>
      <trkpt lat="47.19101" lon="-1.96089">
        <ele>77</ele>
        <time>2020-12-20T12:05:33.000Z</time>
      </trkpt>
      <trkpt lat="47.1911" lon="-1.96086">
        <ele>76</ele>
        <time>2020-12-20T12:05:34.000Z</time>
      </trkpt>
      <trkpt lat="47.1912" lon="-1.96083">
        <ele>76</ele>
        <time>2020-12-20T12:05:35.000Z</time>
      </trkpt>
      <trkpt lat="47.1913" lon="-1.96081">
        <ele>76</ele>
        <time>2020-12-20T12:05:36.000Z</time>
      </trkpt>
      <trkpt lat="47.1914" lon="-1.96081">
        <ele>76</ele>
        <time>2020-12-20T12:05:37.000Z</time>
      </trkpt>
      <trkpt lat="47.1915" lon="-1.96081">
        <ele>76</ele>
        <time>2020-12-20T12:05:38.000Z</time>
      </trkpt>
      <trkpt lat="47.1916" lon="-1.96082">
        <ele>75</ele>
        <time>2020-12-20T12:05:39.000Z</time>
      </trkpt>
      <trkpt lat="47.1917" lon="-1.96082">
        <ele>75</ele>
        <time>2020-12-20T12:05:40.000Z</time>
      </trkpt>
      <trkpt lat="47.1918" lon="-1.96082">
        <ele>75</ele>
        <time>2020-12-20T12:05:41.000Z</time>
      </trkpt>
      <trkpt lat="47.19189" lon="-1.96082">
        <ele>74</ele>
        <time>2020-12-20T12:05:42.000Z</time>
      </trkpt>
      <trkpt lat="47.19199" lon="-1.96082">
        <ele>74</ele>
        <time>2020-12-20T12:05:43.000Z</time>
      </trkpt>
      <trkpt lat="47.19209" lon="-1.96082">
        <ele>74</ele>
        <time>2020-12-20T12:05:44.000Z</time>
      </trkpt>
      <trkpt lat="47.19218" lon="-1.96082">
        <ele>74</ele>
        <time>2020-12-20T12:05:45.000Z</time>
      </trkpt>
      <trkpt lat="47.19228" lon="-1.96083">
        <ele>74</ele>
        <time>2020-12-20T12:05:46.000Z</time>
      </trkpt>
      <trkpt lat="47.19237" lon="-1.96084">
        <ele>73</ele>
        <time>2020-12-20T12:05:47.000Z</time>
      </trkpt>
      <trkpt lat="47.19246" lon="-1.96084">
        <ele>73</ele>
        <time>2020-12-20T12:05:48.000Z</time>
      </trkpt>
      <trkpt lat="47.19256" lon="-1.96085">
        <ele>73</ele>
        <time>2020-12-20T12:05:49.000Z</time>
      </trkpt>
      <trkpt lat="47.19273" lon="-1.96087">
        <ele>73</ele>
        <time>2020-12-20T12:05:51.000Z</time>
      </trkpt>
      <trkpt lat="47.19289" lon="-1.96087">
        <ele>73</ele>
        <time>2020-12-20T12:05:53.000Z</time>
      </trkpt>
      <trkpt lat="47.19305" lon="-1.96088">
        <ele>73</ele>
        <time>2020-12-20T12:05:55.000Z</time>
      </trkpt>
      <trkpt lat="47.19321" lon="-1.96087">
        <ele>73</ele>
        <time>2020-12-20T12:05:57.000Z</time>
      </trkpt>
      <trkpt lat="47.19336" lon="-1.96088">
        <ele>73</ele>
        <time>2020-12-20T12:05:59.000Z</time>
      </trkpt>
      <trkpt lat="47.19351" lon="-1.9609">
        <ele>73</ele>
        <time>2020-12-20T12:06:01.000Z</time>
      </trkpt>
      <trkpt lat="47.19364" lon="-1.9609">
        <ele>73</ele>
        <time>2020-12-20T12:06:03.000Z</time>
      </trkpt>
      <trkpt lat="47.19377" lon="-1.96091">
        <ele>73</ele>
        <time>2020-12-20T12:06:05.000Z</time>
      </trkpt>
      <trkpt lat="47.19389" lon="-1.96096">
        <ele>73</ele>
        <time>2020-12-20T12:06:07.000Z</time>
      </trkpt>
      <trkpt lat="47.194" lon="-1.96103">
        <ele>74</ele>
        <time>2020-12-20T12:06:09.000Z</time>
      </trkpt>
      <trkpt lat="47.1941" lon="-1.9611">
        <ele>74</ele>
        <time>2020-12-20T12:06:11.000Z</time>
      </trkpt>
      <trkpt lat="47.19421" lon="-1.96118">
        <ele>75</ele>
        <time>2020-12-20T12:06:13.000Z</time>
      </trkpt>
      <trkpt lat="47.19432" lon="-1.96127">
        <ele>74</ele>
        <time>2020-12-20T12:06:15.000Z</time>
      </trkpt>
      <trkpt lat="47.19442" lon="-1.96135">
        <ele>74</ele>
        <time>2020-12-20T12:06:17.000Z</time>
      </trkpt>
      <trkpt lat="47.19453" lon="-1.96144">
        <ele>74</ele>
        <time>2020-12-20T12:06:19.000Z</time>
      </trkpt>
      <trkpt lat="47.19463" lon="-1.96153">
        <ele>74</ele>
        <time>2020-12-20T12:06:21.000Z</time>
      </trkpt>
      <trkpt lat="47.19473" lon="-1.96162">
        <ele>74</ele>
        <time>2020-12-20T12:06:23.000Z</time>
      </trkpt>
      <trkpt lat="47.19483" lon="-1.9617">
        <ele>74</ele>
        <time>2020-12-20T12:06:25.000Z</time>
      </trkpt>
      <trkpt lat="47.19493" lon="-1.96178">
        <ele>74</ele>
        <time>2020-12-20T12:06:27.000Z</time>
      </trkpt>
      <trkpt lat="47.19504" lon="-1.96187">
        <ele>74</ele>
        <time>2020-12-20T12:06:29.000Z</time>
      </trkpt>
      <trkpt lat="47.19515" lon="-1.96195">
        <ele>75</ele>
        <time>2020-12-20T12:06:31.000Z</time>
      </trkpt>
      <trkpt lat="47.19527" lon="-1.96202">
        <ele>75</ele>
        <time>2020-12-20T12:06:33.000Z</time>
      </trkpt>
      <trkpt lat="47.19539" lon="-1.96207">
        <ele>75</ele>
        <time>2020-12-20T12:06:35.000Z</time>
      </trkpt>
      <trkpt lat="47.19551" lon="-1.96209">
        <ele>74</ele>
        <time>2020-12-20T12:06:37.000Z</time>
      </trkpt>
      <trkpt lat="47.19564" lon="-1.96211">
        <ele>74</ele>
        <time>2020-12-20T12:06:39.000Z</time>
      </trkpt>
      <trkpt lat="47.19578" lon="-1.96212">
        <ele>73</ele>
        <time>2020-12-20T12:06:41.000Z</time>
      </trkpt>
      <trkpt lat="47.19592" lon="-1.96212">
        <ele>73</ele>
        <time>2020-12-20T12:06:43.000Z</time>
      </trkpt>
      <trkpt lat="47.19605" lon="-1.96212">
        <ele>73</ele>
        <time>2020-12-20T12:06:45.000Z</time>
      </trkpt>
      <trkpt lat="47.1962" lon="-1.96212">
        <ele>73</ele>
        <time>2020-12-20T12:06:47.000Z</time>
      </trkpt>
      <trkpt lat="47.19634" lon="-1.96213">
        <ele>73</ele>
        <time>2020-12-20T12:06:49.000Z</time>
      </trkpt>
      <trkpt lat="47.19648" lon="-1.96213">
        <ele>72</ele>
        <time>2020-12-20T12:06:51.000Z</time>
      </trkpt>
      <trkpt lat="47.19663" lon="-1.96213">
        <ele>72</ele>
        <time>2020-12-20T12:06:53.000Z</time>
      </trkpt>
      <trkpt lat="47.19678" lon="-1.96213">
        <ele>72</ele>
        <time>2020-12-20T12:06:55.000Z</time>
      </trkpt>
      <trkpt lat="47.19692" lon="-1.96213">
        <ele>72</ele>
        <time>2020-12-20T12:06:57.000Z</time>
      </trkpt>
      <trkpt lat="47.19706" lon="-1.96212">
        <ele>71</ele>
        <time>2020-12-20T12:06:59.000Z</time>
      </trkpt>
      <trkpt lat="47.1972" lon="-1.96211">
        <ele>70</ele>
        <time>2020-12-20T12:07:01.000Z</time>
      </trkpt>
      <trkpt lat="47.19736" lon="-1.96213">
        <ele>70</ele>
        <time>2020-12-20T12:07:03.000Z</time>
      </trkpt>
      <trkpt lat="47.19752" lon="-1.96217">
        <ele>70</ele>
        <time>2020-12-20T12:07:05.000Z</time>
      </trkpt>
      <trkpt lat="47.19766" lon="-1.9622">
        <ele>69</ele>
        <time>2020-12-20T12:07:07.000Z</time>
      </trkpt>
      <trkpt lat="47.1978" lon="-1.96221">
        <ele>68</ele>
        <time>2020-12-20T12:07:09.000Z</time>
      </trkpt>
      <trkpt lat="47.19793" lon="-1.96222">
        <ele>68</ele>
        <time>2020-12-20T12:07:11.000Z</time>
      </trkpt>
      <trkpt lat="47.19806" lon="-1.96223">
        <ele>69</ele>
        <time>2020-12-20T12:07:13.000Z</time>
      </trkpt>
      <trkpt lat="47.1982" lon="-1.96224">
        <ele>70</ele>
        <time>2020-12-20T12:07:15.000Z</time>
      </trkpt>
      <trkpt lat="47.19833" lon="-1.96225">
        <ele>70</ele>
        <time>2020-12-20T12:07:17.000Z</time>
      </trkpt>
      <trkpt lat="47.19846" lon="-1.96225">
        <ele>70</ele>
        <time>2020-12-20T12:07:19.000Z</time>
      </trkpt>
      <trkpt lat="47.1986" lon="-1.96227">
        <ele>69</ele>
        <time>2020-12-20T12:07:21.000Z</time>
      </trkpt>
      <trkpt lat="47.19872" lon="-1.96228">
        <ele>69</ele>
        <time>2020-12-20T12:07:23.000Z</time>
      </trkpt>
      <trkpt lat="47.19884" lon="-1.96231">
        <ele>69</ele>
        <time>2020-12-20T12:07:25.000Z</time>
      </trkpt>
      <trkpt lat="47.19897" lon="-1.96235">
        <ele>70</ele>
        <time>2020-12-20T12:07:27.000Z</time>
      </trkpt>
      <trkpt lat="47.19909" lon="-1.9624">
        <ele>70</ele>
        <time>2020-12-20T12:07:29.000Z</time>
      </trkpt>
      <trkpt lat="47.19922" lon="-1.96247">
        <ele>70</ele>
        <time>2020-12-20T12:07:31.000Z</time>
      </trkpt>
      <trkpt lat="47.19935" lon="-1.96255">
        <ele>70</ele>
        <time>2020-12-20T12:07:33.000Z</time>
      </trkpt>
      <trkpt lat="47.19948" lon="-1.96262">
        <ele>70</ele>
        <time>2020-12-20T12:07:35.000Z</time>
      </trkpt>
      <trkpt lat="47.19961" lon="-1.96269">
        <ele>70</ele>
        <time>2020-12-20T12:07:37.000Z</time>
      </trkpt>
      <trkpt lat="47.19974" lon="-1.96277">
        <ele>70</ele>
        <time>2020-12-20T12:07:39.000Z</time>
      </trkpt>
      <trkpt lat="47.19987" lon="-1.96283">
        <ele>69</ele>
        <time>2020-12-20T12:07:41.000Z</time>
      </trkpt>
      <trkpt lat="47.2" lon="-1.96289">
        <ele>68</ele>
        <time>2020-12-20T12:07:43.000Z</time>
      </trkpt>
      <trkpt lat="47.20014" lon="-1.96295">
        <ele>68</ele>
        <time>2020-12-20T12:07:45.000Z</time>
      </trkpt>
      <trkpt lat="47.2003" lon="-1.96303">
        <ele>68</ele>
        <time>2020-12-20T12:07:47.000Z</time>
      </trkpt>
      <trkpt lat="47.20045" lon="-1.96312">
        <ele>68</ele>
        <time>2020-12-20T12:07:49.000Z</time>
      </trkpt>
      <trkpt lat="47.20061" lon="-1.96321">
        <ele>68</ele>
        <time>2020-12-20T12:07:51.000Z</time>
      </trkpt>
      <trkpt lat="47.20078" lon="-1.96331">
        <ele>67</ele>
        <time>2020-12-20T12:07:53.000Z</time>
      </trkpt>
      <trkpt lat="47.20095" lon="-1.96341">
        <ele>65</ele>
        <time>2020-12-20T12:07:55.000Z</time>
      </trkpt>
      <trkpt lat="47.20103" lon="-1.96345">
        <ele>65</ele>
        <time>2020-12-20T12:07:56.000Z</time>
      </trkpt>
      <trkpt lat="47.20112" lon="-1.9635">
        <ele>64</ele>
        <time>2020-12-20T12:07:57.000Z</time>
      </trkpt>
      <trkpt lat="47.20121" lon="-1.96354">
        <ele>63</ele>
        <time>2020-12-20T12:07:58.000Z</time>
      </trkpt>
      <trkpt lat="47.20131" lon="-1.96357">
        <ele>63</ele>
        <time>2020-12-20T12:07:59.000Z</time>
      </trkpt>
      <trkpt lat="47.2014" lon="-1.96359">
        <ele>62</ele>
        <time>2020-12-20T12:08:00.000Z</time>
      </trkpt>
      <trkpt lat="47.20151" lon="-1.9636">
        <ele>61</ele>
        <time>2020-12-20T12:08:01.000Z</time>
      </trkpt>
      <trkpt lat="47.20161" lon="-1.96359">
        <ele>60</ele>
        <time>2020-12-20T12:08:02.000Z</time>
      </trkpt>
      <trkpt lat="47.2017" lon="-1.96357">
        <ele>60</ele>
        <time>2020-12-20T12:08:03.000Z</time>
      </trkpt>
      <trkpt lat="47.2018" lon="-1.96354">
        <ele>59</ele>
        <time>2020-12-20T12:08:04.000Z</time>
      </trkpt>
      <trkpt lat="47.20189" lon="-1.9635">
        <ele>59</ele>
        <time>2020-12-20T12:08:05.000Z</time>
      </trkpt>
      <trkpt lat="47.20197" lon="-1.96347">
        <ele>59</ele>
        <time>2020-12-20T12:08:06.000Z</time>
      </trkpt>
      <trkpt lat="47.20214" lon="-1.96339">
        <ele>59</ele>
        <time>2020-12-20T12:08:08.000Z</time>
      </trkpt>
      <trkpt lat="47.2023" lon="-1.96332">
        <ele>59</ele>
        <time>2020-12-20T12:08:10.000Z</time>
      </trkpt>
      <trkpt lat="47.20246" lon="-1.96326">
        <ele>59</ele>
        <time>2020-12-20T12:08:12.000Z</time>
      </trkpt>
      <trkpt lat="47.2026" lon="-1.9632">
        <ele>59</ele>
        <time>2020-12-20T12:08:14.000Z</time>
      </trkpt>
      <trkpt lat="47.20274" lon="-1.96315">
        <ele>59</ele>
        <time>2020-12-20T12:08:16.000Z</time>
      </trkpt>
      <trkpt lat="47.20288" lon="-1.96309">
        <ele>59</ele>
        <time>2020-12-20T12:08:18.000Z</time>
      </trkpt>
      <trkpt lat="47.20302" lon="-1.96303">
        <ele>60</ele>
        <time>2020-12-20T12:08:20.000Z</time>
      </trkpt>
      <trkpt lat="47.20317" lon="-1.96297">
        <ele>59</ele>
        <time>2020-12-20T12:08:22.000Z</time>
      </trkpt>
      <trkpt lat="47.20331" lon="-1.96291">
        <ele>59</ele>
        <time>2020-12-20T12:08:24.000Z</time>
      </trkpt>
      <trkpt lat="47.20345" lon="-1.96286">
        <ele>60</ele>
        <time>2020-12-20T12:08:26.000Z</time>
      </trkpt>
      <trkpt lat="47.20359" lon="-1.9628">
        <ele>60</ele>
        <time>2020-12-20T12:08:28.000Z</time>
      </trkpt>
      <trkpt lat="47.20373" lon="-1.96274">
        <ele>60</ele>
        <time>2020-12-20T12:08:30.000Z</time>
      </trkpt>
      <trkpt lat="47.20387" lon="-1.96269">
        <ele>60</ele>
        <time>2020-12-20T12:08:32.000Z</time>
      </trkpt>
      <trkpt lat="47.20402" lon="-1.96262">
        <ele>60</ele>
        <time>2020-12-20T12:08:34.000Z</time>
      </trkpt>
      <trkpt lat="47.20416" lon="-1.96257">
        <ele>59</ele>
        <time>2020-12-20T12:08:36.000Z</time>
      </trkpt>
      <trkpt lat="47.20431" lon="-1.96252">
        <ele>59</ele>
        <time>2020-12-20T12:08:38.000Z</time>
      </trkpt>
      <trkpt lat="47.20445" lon="-1.96246">
        <ele>59</ele>
        <time>2020-12-20T12:08:40.000Z</time>
      </trkpt>
      <trkpt lat="47.20459" lon="-1.96238">
        <ele>60</ele>
        <time>2020-12-20T12:08:42.000Z</time>
      </trkpt>
      <trkpt lat="47.20473" lon="-1.96228">
        <ele>60</ele>
        <time>2020-12-20T12:08:44.000Z</time>
      </trkpt>
      <trkpt lat="47.20486" lon="-1.96216">
        <ele>60</ele>
        <time>2020-12-20T12:08:46.000Z</time>
      </trkpt>
      <trkpt lat="47.20499" lon="-1.96205">
        <ele>59</ele>
        <time>2020-12-20T12:08:48.000Z</time>
      </trkpt>
      <trkpt lat="47.20513" lon="-1.96193">
        <ele>59</ele>
        <time>2020-12-20T12:08:50.000Z</time>
      </trkpt>
      <trkpt lat="47.20526" lon="-1.96181">
        <ele>59</ele>
        <time>2020-12-20T12:08:52.000Z</time>
      </trkpt>
      <trkpt lat="47.20538" lon="-1.9617">
        <ele>59</ele>
        <time>2020-12-20T12:08:54.000Z</time>
      </trkpt>
      <trkpt lat="47.2055" lon="-1.96159">
        <ele>59</ele>
        <time>2020-12-20T12:08:56.000Z</time>
      </trkpt>
      <trkpt lat="47.20563" lon="-1.96148">
        <ele>60</ele>
        <time>2020-12-20T12:08:58.000Z</time>
      </trkpt>
      <trkpt lat="47.20575" lon="-1.96137">
        <ele>60</ele>
        <time>2020-12-20T12:09:00.000Z</time>
      </trkpt>
      <trkpt lat="47.20587" lon="-1.96125">
        <ele>60</ele>
        <time>2020-12-20T12:09:02.000Z</time>
      </trkpt>
      <trkpt lat="47.20598" lon="-1.96114">
        <ele>60</ele>
        <time>2020-12-20T12:09:04.000Z</time>
      </trkpt>
      <trkpt lat="47.20611" lon="-1.96103">
        <ele>61</ele>
        <time>2020-12-20T12:09:06.000Z</time>
      </trkpt>
      <trkpt lat="47.20624" lon="-1.96092">
        <ele>62</ele>
        <time>2020-12-20T12:09:08.000Z</time>
      </trkpt>
      <trkpt lat="47.20637" lon="-1.96082">
        <ele>62</ele>
        <time>2020-12-20T12:09:10.000Z</time>
      </trkpt>
      <trkpt lat="47.20649" lon="-1.9607">
        <ele>61</ele>
        <time>2020-12-20T12:09:12.000Z</time>
      </trkpt>
      <trkpt lat="47.20661" lon="-1.96058">
        <ele>61</ele>
        <time>2020-12-20T12:09:14.000Z</time>
      </trkpt>
      <trkpt lat="47.20672" lon="-1.96047">
        <ele>62</ele>
        <time>2020-12-20T12:09:16.000Z</time>
      </trkpt>
      <trkpt lat="47.20683" lon="-1.96035">
        <ele>62</ele>
        <time>2020-12-20T12:09:18.000Z</time>
      </trkpt>
      <trkpt lat="47.20694" lon="-1.96023">
        <ele>62</ele>
        <time>2020-12-20T12:09:20.000Z</time>
      </trkpt>
      <trkpt lat="47.20705" lon="-1.96012">
        <ele>61</ele>
        <time>2020-12-20T12:09:22.000Z</time>
      </trkpt>
      <trkpt lat="47.20716" lon="-1.96">
        <ele>62</ele>
        <time>2020-12-20T12:09:24.000Z</time>
      </trkpt>
      <trkpt lat="47.20726" lon="-1.95988">
        <ele>62</ele>
        <time>2020-12-20T12:09:26.000Z</time>
      </trkpt>
      <trkpt lat="47.20737" lon="-1.95975">
        <ele>63</ele>
        <time>2020-12-20T12:09:28.000Z</time>
      </trkpt>
      <trkpt lat="47.20748" lon="-1.95963">
        <ele>63</ele>
        <time>2020-12-20T12:09:30.000Z</time>
      </trkpt>
      <trkpt lat="47.20759" lon="-1.95951">
        <ele>63</ele>
        <time>2020-12-20T12:09:32.000Z</time>
      </trkpt>
      <trkpt lat="47.20769" lon="-1.9594">
        <ele>63</ele>
        <time>2020-12-20T12:09:34.000Z</time>
      </trkpt>
      <trkpt lat="47.2078" lon="-1.95929">
        <ele>64</ele>
        <time>2020-12-20T12:09:36.000Z</time>
      </trkpt>
      <trkpt lat="47.20791" lon="-1.9592">
        <ele>64</ele>
        <time>2020-12-20T12:09:38.000Z</time>
      </trkpt>
      <trkpt lat="47.20803" lon="-1.95912">
        <ele>64</ele>
        <time>2020-12-20T12:09:40.000Z</time>
      </trkpt>
      <trkpt lat="47.20814" lon="-1.95904">
        <ele>65</ele>
        <time>2020-12-20T12:09:42.000Z</time>
      </trkpt>
      <trkpt lat="47.20826" lon="-1.95897">
        <ele>66</ele>
        <time>2020-12-20T12:09:44.000Z</time>
      </trkpt>
      <trkpt lat="47.20838" lon="-1.9589">
        <ele>66</ele>
        <time>2020-12-20T12:09:46.000Z</time>
      </trkpt>
      <trkpt lat="47.2085" lon="-1.95883">
        <ele>66</ele>
        <time>2020-12-20T12:09:48.000Z</time>
      </trkpt>
      <trkpt lat="47.20862" lon="-1.95876">
        <ele>66</ele>
        <time>2020-12-20T12:09:50.000Z</time>
      </trkpt>
      <trkpt lat="47.20874" lon="-1.95869">
        <ele>67</ele>
        <time>2020-12-20T12:09:52.000Z</time>
      </trkpt>
      <trkpt lat="47.20885" lon="-1.95863">
        <ele>66</ele>
        <time>2020-12-20T12:09:54.000Z</time>
      </trkpt>
      <trkpt lat="47.20897" lon="-1.95856">
        <ele>66</ele>
        <time>2020-12-20T12:09:56.000Z</time>
      </trkpt>
      <trkpt lat="47.20909" lon="-1.95849">
        <ele>65</ele>
        <time>2020-12-20T12:09:58.000Z</time>
      </trkpt>
      <trkpt lat="47.20921" lon="-1.95841">
        <ele>65</ele>
        <time>2020-12-20T12:10:00.000Z</time>
      </trkpt>
      <trkpt lat="47.20934" lon="-1.95834">
        <ele>64</ele>
        <time>2020-12-20T12:10:02.000Z</time>
      </trkpt>
      <trkpt lat="47.20948" lon="-1.95826">
        <ele>64</ele>
        <time>2020-12-20T12:10:04.000Z</time>
      </trkpt>
      <trkpt lat="47.20961" lon="-1.95819">
        <ele>64</ele>
        <time>2020-12-20T12:10:06.000Z</time>
      </trkpt>
      <trkpt lat="47.20975" lon="-1.9581">
        <ele>63</ele>
        <time>2020-12-20T12:10:08.000Z</time>
      </trkpt>
      <trkpt lat="47.2099" lon="-1.95802">
        <ele>63</ele>
        <time>2020-12-20T12:10:10.000Z</time>
      </trkpt>
      <trkpt lat="47.21004" lon="-1.95794">
        <ele>62</ele>
        <time>2020-12-20T12:10:12.000Z</time>
      </trkpt>
      <trkpt lat="47.21017" lon="-1.95786">
        <ele>61</ele>
        <time>2020-12-20T12:10:14.000Z</time>
      </trkpt>
      <trkpt lat="47.21031" lon="-1.95776">
        <ele>61</ele>
        <time>2020-12-20T12:10:16.000Z</time>
      </trkpt>
      <trkpt lat="47.21045" lon="-1.95765">
        <ele>60</ele>
        <time>2020-12-20T12:10:18.000Z</time>
      </trkpt>
      <trkpt lat="47.21059" lon="-1.95753">
        <ele>59</ele>
        <time>2020-12-20T12:10:20.000Z</time>
      </trkpt>
      <trkpt lat="47.21072" lon="-1.95741">
        <ele>59</ele>
        <time>2020-12-20T12:10:22.000Z</time>
      </trkpt>
      <trkpt lat="47.21086" lon="-1.95729">
        <ele>58</ele>
        <time>2020-12-20T12:10:24.000Z</time>
      </trkpt>
      <trkpt lat="47.21099" lon="-1.95716">
        <ele>59</ele>
        <time>2020-12-20T12:10:26.000Z</time>
      </trkpt>
      <trkpt lat="47.21114" lon="-1.95702">
        <ele>58</ele>
        <time>2020-12-20T12:10:28.000Z</time>
      </trkpt>
      <trkpt lat="47.21128" lon="-1.9569">
        <ele>58</ele>
        <time>2020-12-20T12:10:30.000Z</time>
      </trkpt>
      <trkpt lat="47.21142" lon="-1.95679">
        <ele>59</ele>
        <time>2020-12-20T12:10:32.000Z</time>
      </trkpt>
      <trkpt lat="47.21157" lon="-1.95669">
        <ele>58</ele>
        <time>2020-12-20T12:10:34.000Z</time>
      </trkpt>
      <trkpt lat="47.21172" lon="-1.9566">
        <ele>58</ele>
        <time>2020-12-20T12:10:36.000Z</time>
      </trkpt>
      <trkpt lat="47.21186" lon="-1.95651">
        <ele>58</ele>
        <time>2020-12-20T12:10:38.000Z</time>
      </trkpt>
      <trkpt lat="47.21202" lon="-1.95644">
        <ele>57</ele>
        <time>2020-12-20T12:10:40.000Z</time>
      </trkpt>
      <trkpt lat="47.21217" lon="-1.95635">
        <ele>56</ele>
        <time>2020-12-20T12:10:42.000Z</time>
      </trkpt>
      <trkpt lat="47.21232" lon="-1.95629">
        <ele>57</ele>
        <time>2020-12-20T12:10:44.000Z</time>
      </trkpt>
      <trkpt lat="47.21247" lon="-1.95621">
        <ele>57</ele>
        <time>2020-12-20T12:10:46.000Z</time>
      </trkpt>
      <trkpt lat="47.2126" lon="-1.95613">
        <ele>57</ele>
        <time>2020-12-20T12:10:48.000Z</time>
      </trkpt>
      <trkpt lat="47.21274" lon="-1.95605">
        <ele>57</ele>
        <time>2020-12-20T12:10:50.000Z</time>
      </trkpt>
      <trkpt lat="47.21288" lon="-1.95597">
        <ele>57</ele>
        <time>2020-12-20T12:10:52.000Z</time>
      </trkpt>
      <trkpt lat="47.21301" lon="-1.95587">
        <ele>58</ele>
        <time>2020-12-20T12:10:54.000Z</time>
      </trkpt>
      <trkpt lat="47.21313" lon="-1.95577">
        <ele>58</ele>
        <time>2020-12-20T12:10:56.000Z</time>
      </trkpt>
      <trkpt lat="47.21326" lon="-1.95567">
        <ele>58</ele>
        <time>2020-12-20T12:10:58.000Z</time>
      </trkpt>
      <trkpt lat="47.21338" lon="-1.95557">
        <ele>57</ele>
        <time>2020-12-20T12:11:00.000Z</time>
      </trkpt>
      <trkpt lat="47.21351" lon="-1.95547">
        <ele>58</ele>
        <time>2020-12-20T12:11:02.000Z</time>
      </trkpt>
      <trkpt lat="47.21362" lon="-1.95537">
        <ele>58</ele>
        <time>2020-12-20T12:11:04.000Z</time>
      </trkpt>
      <trkpt lat="47.21374" lon="-1.95527">
        <ele>59</ele>
        <time>2020-12-20T12:11:06.000Z</time>
      </trkpt>
      <trkpt lat="47.21385" lon="-1.95519">
        <ele>60</ele>
        <time>2020-12-20T12:11:08.000Z</time>
      </trkpt>
      <trkpt lat="47.21396" lon="-1.95511">
        <ele>60</ele>
        <time>2020-12-20T12:11:10.000Z</time>
      </trkpt>
      <trkpt lat="47.21405" lon="-1.95504">
        <ele>61</ele>
        <time>2020-12-20T12:11:12.000Z</time>
      </trkpt>
      <trkpt lat="47.21414" lon="-1.95499">
        <ele>61</ele>
        <time>2020-12-20T12:11:14.000Z</time>
      </trkpt>
      <trkpt lat="47.21424" lon="-1.95495">
        <ele>62</ele>
        <time>2020-12-20T12:11:16.000Z</time>
      </trkpt>
      <trkpt lat="47.21434" lon="-1.95493">
        <ele>62</ele>
        <time>2020-12-20T12:11:18.000Z</time>
      </trkpt>
      <trkpt lat="47.21444" lon="-1.9549">
        <ele>63</ele>
        <time>2020-12-20T12:11:20.000Z</time>
      </trkpt>
      <trkpt lat="47.21454" lon="-1.95488">
        <ele>64</ele>
        <time>2020-12-20T12:11:22.000Z</time>
      </trkpt>
      <trkpt lat="47.21464" lon="-1.95487">
        <ele>64</ele>
        <time>2020-12-20T12:11:24.000Z</time>
      </trkpt>
      <trkpt lat="47.21474" lon="-1.95485">
        <ele>64</ele>
        <time>2020-12-20T12:11:26.000Z</time>
      </trkpt>
      <trkpt lat="47.21484" lon="-1.95484">
        <ele>64</ele>
        <time>2020-12-20T12:11:28.000Z</time>
      </trkpt>
      <trkpt lat="47.21494" lon="-1.95482">
        <ele>65</ele>
        <time>2020-12-20T12:11:30.000Z</time>
      </trkpt>
      <trkpt lat="47.21504" lon="-1.9548">
        <ele>65</ele>
        <time>2020-12-20T12:11:32.000Z</time>
      </trkpt>
      <trkpt lat="47.21514" lon="-1.95478">
        <ele>66</ele>
        <time>2020-12-20T12:11:34.000Z</time>
      </trkpt>
      <trkpt lat="47.21523" lon="-1.95476">
        <ele>66</ele>
        <time>2020-12-20T12:11:36.000Z</time>
      </trkpt>
      <trkpt lat="47.21533" lon="-1.95474">
        <ele>66</ele>
        <time>2020-12-20T12:11:38.000Z</time>
      </trkpt>
      <trkpt lat="47.21543" lon="-1.95473">
        <ele>66</ele>
        <time>2020-12-20T12:11:40.000Z</time>
      </trkpt>
      <trkpt lat="47.21553" lon="-1.95472">
        <ele>66</ele>
        <time>2020-12-20T12:11:42.000Z</time>
      </trkpt>
      <trkpt lat="47.21563" lon="-1.9547">
        <ele>67</ele>
        <time>2020-12-20T12:11:44.000Z</time>
      </trkpt>
      <trkpt lat="47.21573" lon="-1.95468">
        <ele>67</ele>
        <time>2020-12-20T12:11:46.000Z</time>
      </trkpt>
      <trkpt lat="47.21583" lon="-1.95466">
        <ele>67</ele>
        <time>2020-12-20T12:11:48.000Z</time>
      </trkpt>
      <trkpt lat="47.21593" lon="-1.95465">
        <ele>68</ele>
        <time>2020-12-20T12:11:50.000Z</time>
      </trkpt>
      <trkpt lat="47.21603" lon="-1.95463">
        <ele>68</ele>
        <time>2020-12-20T12:11:52.000Z</time>
      </trkpt>
      <trkpt lat="47.21613" lon="-1.95462">
        <ele>69</ele>
        <time>2020-12-20T12:11:54.000Z</time>
      </trkpt>
      <trkpt lat="47.21624" lon="-1.95461">
        <ele>69</ele>
        <time>2020-12-20T12:11:56.000Z</time>
      </trkpt>
      <trkpt lat="47.21634" lon="-1.9546">
        <ele>70</ele>
        <time>2020-12-20T12:11:58.000Z</time>
      </trkpt>
      <trkpt lat="47.21645" lon="-1.9546">
        <ele>71</ele>
        <time>2020-12-20T12:12:00.000Z</time>
      </trkpt>
      <trkpt lat="47.21656" lon="-1.9546">
        <ele>71</ele>
        <time>2020-12-20T12:12:02.000Z</time>
      </trkpt>
      <trkpt lat="47.21666" lon="-1.95459">
        <ele>71</ele>
        <time>2020-12-20T12:12:04.000Z</time>
      </trkpt>
      <trkpt lat="47.21678" lon="-1.95459">
        <ele>71</ele>
        <time>2020-12-20T12:12:06.000Z</time>
      </trkpt>
      <trkpt lat="47.2169" lon="-1.95459">
        <ele>71</ele>
        <time>2020-12-20T12:12:08.000Z</time>
      </trkpt>
      <trkpt lat="47.21703" lon="-1.95457">
        <ele>71</ele>
        <time>2020-12-20T12:12:10.000Z</time>
      </trkpt>
      <trkpt lat="47.21717" lon="-1.95453">
        <ele>71</ele>
        <time>2020-12-20T12:12:12.000Z</time>
      </trkpt>
      <trkpt lat="47.21731" lon="-1.95447">
        <ele>70</ele>
        <time>2020-12-20T12:12:14.000Z</time>
      </trkpt>
      <trkpt lat="47.21745" lon="-1.9544">
        <ele>70</ele>
        <time>2020-12-20T12:12:16.000Z</time>
      </trkpt>
      <trkpt lat="47.2176" lon="-1.95432">
        <ele>69</ele>
        <time>2020-12-20T12:12:18.000Z</time>
      </trkpt>
      <trkpt lat="47.21774" lon="-1.95425">
        <ele>68</ele>
        <time>2020-12-20T12:12:20.000Z</time>
      </trkpt>
      <trkpt lat="47.21788" lon="-1.95417">
        <ele>68</ele>
        <time>2020-12-20T12:12:22.000Z</time>
      </trkpt>
      <trkpt lat="47.21803" lon="-1.95409">
        <ele>68</ele>
        <time>2020-12-20T12:12:24.000Z</time>
      </trkpt>
      <trkpt lat="47.21818" lon="-1.95402">
        <ele>68</ele>
        <time>2020-12-20T12:12:26.000Z</time>
      </trkpt>
      <trkpt lat="47.21832" lon="-1.95395">
        <ele>68</ele>
        <time>2020-12-20T12:12:28.000Z</time>
      </trkpt>
      <trkpt lat="47.21846" lon="-1.9539">
        <ele>68</ele>
        <time>2020-12-20T12:12:30.000Z</time>
      </trkpt>
      <trkpt lat="47.21861" lon="-1.95387">
        <ele>68</ele>
        <time>2020-12-20T12:12:32.000Z</time>
      </trkpt>
      <trkpt lat="47.21875" lon="-1.95385">
        <ele>68</ele>
        <time>2020-12-20T12:12:34.000Z</time>
      </trkpt>
      <trkpt lat="47.2189" lon="-1.95385">
        <ele>68</ele>
        <time>2020-12-20T12:12:36.000Z</time>
      </trkpt>
      <trkpt lat="47.21904" lon="-1.95383">
        <ele>68</ele>
        <time>2020-12-20T12:12:38.000Z</time>
      </trkpt>
      <trkpt lat="47.21918" lon="-1.9538">
        <ele>68</ele>
        <time>2020-12-20T12:12:40.000Z</time>
      </trkpt>
      <trkpt lat="47.21931" lon="-1.95375">
        <ele>68</ele>
        <time>2020-12-20T12:12:42.000Z</time>
      </trkpt>
      <trkpt lat="47.21945" lon="-1.9537">
        <ele>68</ele>
        <time>2020-12-20T12:12:44.000Z</time>
      </trkpt>
      <trkpt lat="47.21959" lon="-1.95364">
        <ele>69</ele>
        <time>2020-12-20T12:12:46.000Z</time>
      </trkpt>
      <trkpt lat="47.21972" lon="-1.95357">
        <ele>68</ele>
        <time>2020-12-20T12:12:48.000Z</time>
      </trkpt>
      <trkpt lat="47.21984" lon="-1.95351">
        <ele>69</ele>
        <time>2020-12-20T12:12:50.000Z</time>
      </trkpt>
      <trkpt lat="47.21996" lon="-1.95346">
        <ele>69</ele>
        <time>2020-12-20T12:12:52.000Z</time>
      </trkpt>
      <trkpt lat="47.22007" lon="-1.9534">
        <ele>68</ele>
        <time>2020-12-20T12:12:54.000Z</time>
      </trkpt>
      <trkpt lat="47.22019" lon="-1.95334">
        <ele>68</ele>
        <time>2020-12-20T12:12:56.000Z</time>
      </trkpt>
      <trkpt lat="47.2203" lon="-1.95329">
        <ele>69</ele>
        <time>2020-12-20T12:12:58.000Z</time>
      </trkpt>
      <trkpt lat="47.22042" lon="-1.95323">
        <ele>69</ele>
        <time>2020-12-20T12:13:00.000Z</time>
      </trkpt>
      <trkpt lat="47.22053" lon="-1.95317">
        <ele>69</ele>
        <time>2020-12-20T12:13:02.000Z</time>
      </trkpt>
      <trkpt lat="47.22064" lon="-1.95312">
        <ele>70</ele>
        <time>2020-12-20T12:13:04.000Z</time>
      </trkpt>
      <trkpt lat="47.22075" lon="-1.95305">
        <ele>70</ele>
        <time>2020-12-20T12:13:06.000Z</time>
      </trkpt>
      <trkpt lat="47.22087" lon="-1.95299">
        <ele>71</ele>
        <time>2020-12-20T12:13:08.000Z</time>
      </trkpt>
      <trkpt lat="47.22099" lon="-1.95293">
        <ele>72</ele>
        <time>2020-12-20T12:13:10.000Z</time>
      </trkpt>
      <trkpt lat="47.22112" lon="-1.95286">
        <ele>72</ele>
        <time>2020-12-20T12:13:12.000Z</time>
      </trkpt>
      <trkpt lat="47.22125" lon="-1.9528">
        <ele>73</ele>
        <time>2020-12-20T12:13:14.000Z</time>
      </trkpt>
      <trkpt lat="47.22137" lon="-1.95274">
        <ele>73</ele>
        <time>2020-12-20T12:13:16.000Z</time>
      </trkpt>
      <trkpt lat="47.22149" lon="-1.95268">
        <ele>74</ele>
        <time>2020-12-20T12:13:18.000Z</time>
      </trkpt>
      <trkpt lat="47.22161" lon="-1.95263">
        <ele>74</ele>
        <time>2020-12-20T12:13:20.000Z</time>
      </trkpt>
      <trkpt lat="47.22173" lon="-1.95258">
        <ele>74</ele>
        <time>2020-12-20T12:13:22.000Z</time>
      </trkpt>
      <trkpt lat="47.22184" lon="-1.95251">
        <ele>74</ele>
        <time>2020-12-20T12:13:24.000Z</time>
      </trkpt>
      <trkpt lat="47.22195" lon="-1.95243">
        <ele>75</ele>
        <time>2020-12-20T12:13:26.000Z</time>
      </trkpt>
      <trkpt lat="47.22207" lon="-1.95235">
        <ele>75</ele>
        <time>2020-12-20T12:13:28.000Z</time>
      </trkpt>
      <trkpt lat="47.22218" lon="-1.95227">
        <ele>75</ele>
        <time>2020-12-20T12:13:30.000Z</time>
      </trkpt>
      <trkpt lat="47.22229" lon="-1.95218">
        <ele>76</ele>
        <time>2020-12-20T12:13:32.000Z</time>
      </trkpt>
      <trkpt lat="47.2224" lon="-1.9521">
        <ele>76</ele>
        <time>2020-12-20T12:13:34.000Z</time>
      </trkpt>
      <trkpt lat="47.22251" lon="-1.95202">
        <ele>76</ele>
        <time>2020-12-20T12:13:36.000Z</time>
      </trkpt>
      <trkpt lat="47.22262" lon="-1.95193">
        <ele>76</ele>
        <time>2020-12-20T12:13:38.000Z</time>
      </trkpt>
      <trkpt lat="47.22272" lon="-1.95185">
        <ele>77</ele>
        <time>2020-12-20T12:13:40.000Z</time>
      </trkpt>
      <trkpt lat="47.22282" lon="-1.95176">
        <ele>77</ele>
        <time>2020-12-20T12:13:42.000Z</time>
      </trkpt>
      <trkpt lat="47.22292" lon="-1.95168">
        <ele>77</ele>
        <time>2020-12-20T12:13:44.000Z</time>
      </trkpt>
      <trkpt lat="47.22303" lon="-1.9516">
        <ele>78</ele>
        <time>2020-12-20T12:13:46.000Z</time>
      </trkpt>
      <trkpt lat="47.22314" lon="-1.95151">
        <ele>78</ele>
        <time>2020-12-20T12:13:48.000Z</time>
      </trkpt>
      <trkpt lat="47.22324" lon="-1.95142">
        <ele>78</ele>
        <time>2020-12-20T12:13:50.000Z</time>
      </trkpt>
      <trkpt lat="47.22335" lon="-1.95133">
        <ele>79</ele>
        <time>2020-12-20T12:13:52.000Z</time>
      </trkpt>
      <trkpt lat="47.22345" lon="-1.95124">
        <ele>79</ele>
        <time>2020-12-20T12:13:54.000Z</time>
      </trkpt>
      <trkpt lat="47.22355" lon="-1.95115">
        <ele>79</ele>
        <time>2020-12-20T12:13:56.000Z</time>
      </trkpt>
      <trkpt lat="47.22365" lon="-1.95106">
        <ele>79</ele>
        <time>2020-12-20T12:13:58.000Z</time>
      </trkpt>
      <trkpt lat="47.22376" lon="-1.95097">
        <ele>80</ele>
        <time>2020-12-20T12:14:00.000Z</time>
      </trkpt>
      <trkpt lat="47.22387" lon="-1.95089">
        <ele>80</ele>
        <time>2020-12-20T12:14:02.000Z</time>
      </trkpt>
      <trkpt lat="47.22399" lon="-1.95082">
        <ele>80</ele>
        <time>2020-12-20T12:14:04.000Z</time>
      </trkpt>
      <trkpt lat="47.2241" lon="-1.95075">
        <ele>80</ele>
        <time>2020-12-20T12:14:06.000Z</time>
      </trkpt>
      <trkpt lat="47.22421" lon="-1.95069">
        <ele>81</ele>
        <time>2020-12-20T12:14:08.000Z</time>
      </trkpt>
      <trkpt lat="47.22433" lon="-1.95064">
        <ele>81</ele>
        <time>2020-12-20T12:14:10.000Z</time>
      </trkpt>
      <trkpt lat="47.22445" lon="-1.95059">
        <ele>81</ele>
        <time>2020-12-20T12:14:12.000Z</time>
      </trkpt>
      <trkpt lat="47.22457" lon="-1.95055">
        <ele>81</ele>
        <time>2020-12-20T12:14:14.000Z</time>
      </trkpt>
      <trkpt lat="47.22469" lon="-1.95052">
        <ele>81</ele>
        <time>2020-12-20T12:14:16.000Z</time>
      </trkpt>
      <trkpt lat="47.22481" lon="-1.95049">
        <ele>82</ele>
        <time>2020-12-20T12:14:18.000Z</time>
      </trkpt>
      <trkpt lat="47.22493" lon="-1.95045">
        <ele>82</ele>
        <time>2020-12-20T12:14:20.000Z</time>
      </trkpt>
      <trkpt lat="47.22504" lon="-1.95042">
        <ele>82</ele>
        <time>2020-12-20T12:14:22.000Z</time>
      </trkpt>
      <trkpt lat="47.22517" lon="-1.95039">
        <ele>82</ele>
        <time>2020-12-20T12:14:24.000Z</time>
      </trkpt>
      <trkpt lat="47.22529" lon="-1.95036">
        <ele>82</ele>
        <time>2020-12-20T12:14:26.000Z</time>
      </trkpt>
      <trkpt lat="47.22541" lon="-1.95033">
        <ele>83</ele>
        <time>2020-12-20T12:14:28.000Z</time>
      </trkpt>
      <trkpt lat="47.22553" lon="-1.9503">
        <ele>83</ele>
        <time>2020-12-20T12:14:30.000Z</time>
      </trkpt>
      <trkpt lat="47.22565" lon="-1.95026">
        <ele>84</ele>
        <time>2020-12-20T12:14:32.000Z</time>
      </trkpt>
      <trkpt lat="47.22577" lon="-1.95024">
        <ele>84</ele>
        <time>2020-12-20T12:14:34.000Z</time>
      </trkpt>
      <trkpt lat="47.22588" lon="-1.95021">
        <ele>84</ele>
        <time>2020-12-20T12:14:36.000Z</time>
      </trkpt>
      <trkpt lat="47.226" lon="-1.95018">
        <ele>84</ele>
        <time>2020-12-20T12:14:38.000Z</time>
      </trkpt>
      <trkpt lat="47.22612" lon="-1.95014">
        <ele>84</ele>
        <time>2020-12-20T12:14:40.000Z</time>
      </trkpt>
      <trkpt lat="47.22623" lon="-1.95009">
        <ele>84</ele>
        <time>2020-12-20T12:14:42.000Z</time>
      </trkpt>
      <trkpt lat="47.22634" lon="-1.95002">
        <ele>85</ele>
        <time>2020-12-20T12:14:44.000Z</time>
      </trkpt>
      <trkpt lat="47.22645" lon="-1.94994">
        <ele>85</ele>
        <time>2020-12-20T12:14:46.000Z</time>
      </trkpt>
      <trkpt lat="47.22655" lon="-1.94985">
        <ele>85</ele>
        <time>2020-12-20T12:14:48.000Z</time>
      </trkpt>
      <trkpt lat="47.22665" lon="-1.94974">
        <ele>85</ele>
        <time>2020-12-20T12:14:50.000Z</time>
      </trkpt>
      <trkpt lat="47.22675" lon="-1.94963">
        <ele>85</ele>
        <time>2020-12-20T12:14:52.000Z</time>
      </trkpt>
      <trkpt lat="47.22686" lon="-1.94951">
        <ele>85</ele>
        <time>2020-12-20T12:14:54.000Z</time>
      </trkpt>
      <trkpt lat="47.22696" lon="-1.9494">
        <ele>84</ele>
        <time>2020-12-20T12:14:56.000Z</time>
      </trkpt>
      <trkpt lat="47.22707" lon="-1.94929">
        <ele>84</ele>
        <time>2020-12-20T12:14:58.000Z</time>
      </trkpt>
      <trkpt lat="47.22719" lon="-1.94921">
        <ele>84</ele>
        <time>2020-12-20T12:15:00.000Z</time>
      </trkpt>
      <trkpt lat="47.22731" lon="-1.94913">
        <ele>84</ele>
        <time>2020-12-20T12:15:02.000Z</time>
      </trkpt>
      <trkpt lat="47.22744" lon="-1.94905">
        <ele>84</ele>
        <time>2020-12-20T12:15:04.000Z</time>
      </trkpt>
      <trkpt lat="47.22758" lon="-1.94897">
        <ele>83</ele>
        <time>2020-12-20T12:15:06.000Z</time>
      </trkpt>
      <trkpt lat="47.22771" lon="-1.9489">
        <ele>83</ele>
        <time>2020-12-20T12:15:08.000Z</time>
      </trkpt>
      <trkpt lat="47.22785" lon="-1.94882">
        <ele>83</ele>
        <time>2020-12-20T12:15:10.000Z</time>
      </trkpt>
      <trkpt lat="47.22798" lon="-1.94873">
        <ele>83</ele>
        <time>2020-12-20T12:15:12.000Z</time>
      </trkpt>
      <trkpt lat="47.22812" lon="-1.94865">
        <ele>83</ele>
        <time>2020-12-20T12:15:14.000Z</time>
      </trkpt>
      <trkpt lat="47.22825" lon="-1.94857">
        <ele>83</ele>
        <time>2020-12-20T12:15:16.000Z</time>
      </trkpt>
      <trkpt lat="47.22839" lon="-1.94849">
        <ele>83</ele>
        <time>2020-12-20T12:15:18.000Z</time>
      </trkpt>
      <trkpt lat="47.22853" lon="-1.94841">
        <ele>82</ele>
        <time>2020-12-20T12:15:20.000Z</time>
      </trkpt>
      <trkpt lat="47.22867" lon="-1.94833">
        <ele>82</ele>
        <time>2020-12-20T12:15:22.000Z</time>
      </trkpt>
      <trkpt lat="47.2288" lon="-1.94826">
        <ele>82</ele>
        <time>2020-12-20T12:15:24.000Z</time>
      </trkpt>
      <trkpt lat="47.22894" lon="-1.94818">
        <ele>82</ele>
        <time>2020-12-20T12:15:26.000Z</time>
      </trkpt>
      <trkpt lat="47.22907" lon="-1.9481">
        <ele>82</ele>
        <time>2020-12-20T12:15:28.000Z</time>
      </trkpt>
      <trkpt lat="47.2292" lon="-1.94802">
        <ele>82</ele>
        <time>2020-12-20T12:15:30.000Z</time>
      </trkpt>
      <trkpt lat="47.22933" lon="-1.94794">
        <ele>82</ele>
        <time>2020-12-20T12:15:32.000Z</time>
      </trkpt>
      <trkpt lat="47.22946" lon="-1.94786">
        <ele>82</ele>
        <time>2020-12-20T12:15:34.000Z</time>
      </trkpt>
      <trkpt lat="47.22959" lon="-1.94777">
        <ele>82</ele>
        <time>2020-12-20T12:15:36.000Z</time>
      </trkpt>
      <trkpt lat="47.22971" lon="-1.94766">
        <ele>82</ele>
        <time>2020-12-20T12:15:38.000Z</time>
      </trkpt>
      <trkpt lat="47.22983" lon="-1.94754">
        <ele>82</ele>
        <time>2020-12-20T12:15:40.000Z</time>
      </trkpt>
      <trkpt lat="47.22993" lon="-1.94741">
        <ele>82</ele>
        <time>2020-12-20T12:15:42.000Z</time>
      </trkpt>
      <trkpt lat="47.23003" lon="-1.94727">
        <ele>82</ele>
        <time>2020-12-20T12:15:44.000Z</time>
      </trkpt>
      <trkpt lat="47.23012" lon="-1.94713">
        <ele>82</ele>
        <time>2020-12-20T12:15:46.000Z</time>
      </trkpt>
      <trkpt lat="47.23022" lon="-1.94698">
        <ele>82</ele>
        <time>2020-12-20T12:15:48.000Z</time>
      </trkpt>
      <trkpt lat="47.23032" lon="-1.94683">
        <ele>83</ele>
        <time>2020-12-20T12:15:50.000Z</time>
      </trkpt>
      <trkpt lat="47.23042" lon="-1.94668">
        <ele>83</ele>
        <time>2020-12-20T12:15:52.000Z</time>
      </trkpt>
      <trkpt lat="47.2305" lon="-1.94652">
        <ele>82</ele>
        <time>2020-12-20T12:15:54.000Z</time>
      </trkpt>
      <trkpt lat="47.23059" lon="-1.94636">
        <ele>82</ele>
        <time>2020-12-20T12:15:56.000Z</time>
      </trkpt>
      <trkpt lat="47.23067" lon="-1.94619">
        <ele>82</ele>
        <time>2020-12-20T12:15:58.000Z</time>
      </trkpt>
      <trkpt lat="47.23074" lon="-1.94601">
        <ele>83</ele>
        <time>2020-12-20T12:16:00.000Z</time>
      </trkpt>
      <trkpt lat="47.23079" lon="-1.94583">
        <ele>83</ele>
        <time>2020-12-20T12:16:02.000Z</time>
      </trkpt>
      <trkpt lat="47.23085" lon="-1.94566">
        <ele>83</ele>
        <time>2020-12-20T12:16:04.000Z</time>
      </trkpt>
      <trkpt lat="47.23091" lon="-1.94548">
        <ele>83</ele>
        <time>2020-12-20T12:16:06.000Z</time>
      </trkpt>
      <trkpt lat="47.23098" lon="-1.9453">
        <ele>83</ele>
        <time>2020-12-20T12:16:08.000Z</time>
      </trkpt>
      <trkpt lat="47.23104" lon="-1.94512">
        <ele>83</ele>
        <time>2020-12-20T12:16:10.000Z</time>
      </trkpt>
      <trkpt lat="47.2311" lon="-1.94495">
        <ele>83</ele>
        <time>2020-12-20T12:16:12.000Z</time>
      </trkpt>
      <trkpt lat="47.23117" lon="-1.94478">
        <ele>82</ele>
        <time>2020-12-20T12:16:14.000Z</time>
      </trkpt>
      <trkpt lat="47.23124" lon="-1.94463">
        <ele>82</ele>
        <time>2020-12-20T12:16:16.000Z</time>
      </trkpt>
      <trkpt lat="47.23133" lon="-1.94448">
        <ele>82</ele>
        <time>2020-12-20T12:16:18.000Z</time>
      </trkpt>
      <trkpt lat="47.23142" lon="-1.94434">
        <ele>82</ele>
        <time>2020-12-20T12:16:20.000Z</time>
      </trkpt>
      <trkpt lat="47.23153" lon="-1.94423">
        <ele>82</ele>
        <time>2020-12-20T12:16:22.000Z</time>
      </trkpt>
      <trkpt lat="47.23165" lon="-1.94412">
        <ele>83</ele>
        <time>2020-12-20T12:16:24.000Z</time>
      </trkpt>
      <trkpt lat="47.23178" lon="-1.94402">
        <ele>82</ele>
        <time>2020-12-20T12:16:26.000Z</time>
      </trkpt>
      <trkpt lat="47.23192" lon="-1.94393">
        <ele>83</ele>
        <time>2020-12-20T12:16:28.000Z</time>
      </trkpt>
      <trkpt lat="47.23205" lon="-1.94385">
        <ele>84</ele>
        <time>2020-12-20T12:16:30.000Z</time>
      </trkpt>
      <trkpt lat="47.23218" lon="-1.94376">
        <ele>84</ele>
        <time>2020-12-20T12:16:32.000Z</time>
      </trkpt>
      <trkpt lat="47.23231" lon="-1.94366">
        <ele>83</ele>
        <time>2020-12-20T12:16:34.000Z</time>
      </trkpt>
      <trkpt lat="47.23244" lon="-1.94357">
        <ele>83</ele>
        <time>2020-12-20T12:16:36.000Z</time>
      </trkpt>
      <trkpt lat="47.23256" lon="-1.94347">
        <ele>83</ele>
        <time>2020-12-20T12:16:38.000Z</time>
      </trkpt>
      <trkpt lat="47.2327" lon="-1.94337">
        <ele>83</ele>
        <time>2020-12-20T12:16:40.000Z</time>
      </trkpt>
      <trkpt lat="47.23283" lon="-1.94327">
        <ele>82</ele>
        <time>2020-12-20T12:16:42.000Z</time>
      </trkpt>
      <trkpt lat="47.23296" lon="-1.94316">
        <ele>82</ele>
        <time>2020-12-20T12:16:44.000Z</time>
      </trkpt>
      <trkpt lat="47.23308" lon="-1.94305">
        <ele>81</ele>
        <time>2020-12-20T12:16:46.000Z</time>
      </trkpt>
      <trkpt lat="47.23321" lon="-1.94294">
        <ele>81</ele>
        <time>2020-12-20T12:16:48.000Z</time>
      </trkpt>
      <trkpt lat="47.23333" lon="-1.94282">
        <ele>81</ele>
        <time>2020-12-20T12:16:50.000Z</time>
      </trkpt>
      <trkpt lat="47.23346" lon="-1.94271">
        <ele>81</ele>
        <time>2020-12-20T12:16:52.000Z</time>
      </trkpt>
      <trkpt lat="47.23358" lon="-1.94259">
        <ele>80</ele>
        <time>2020-12-20T12:16:54.000Z</time>
      </trkpt>
      <trkpt lat="47.2337" lon="-1.94248">
        <ele>80</ele>
        <time>2020-12-20T12:16:56.000Z</time>
      </trkpt>
      <trkpt lat="47.23383" lon="-1.94237">
        <ele>79</ele>
        <time>2020-12-20T12:16:58.000Z</time>
      </trkpt>
      <trkpt lat="47.23395" lon="-1.94224">
        <ele>79</ele>
        <time>2020-12-20T12:17:00.000Z</time>
      </trkpt>
      <trkpt lat="47.23408" lon="-1.94213">
        <ele>79</ele>
        <time>2020-12-20T12:17:02.000Z</time>
      </trkpt>
      <trkpt lat="47.23421" lon="-1.94201">
        <ele>79</ele>
        <time>2020-12-20T12:17:04.000Z</time>
      </trkpt>
      <trkpt lat="47.23435" lon="-1.94191">
        <ele>80</ele>
        <time>2020-12-20T12:17:06.000Z</time>
      </trkpt>
      <trkpt lat="47.23447" lon="-1.94181">
        <ele>81</ele>
        <time>2020-12-20T12:17:08.000Z</time>
      </trkpt>
      <trkpt lat="47.2346" lon="-1.94171">
        <ele>81</ele>
        <time>2020-12-20T12:17:10.000Z</time>
      </trkpt>
      <trkpt lat="47.23473" lon="-1.94161">
        <ele>81</ele>
        <time>2020-12-20T12:17:12.000Z</time>
      </trkpt>
      <trkpt lat="47.23485" lon="-1.94152">
        <ele>81</ele>
        <time>2020-12-20T12:17:14.000Z</time>
      </trkpt>
      <trkpt lat="47.23497" lon="-1.94143">
        <ele>80</ele>
        <time>2020-12-20T12:17:16.000Z</time>
      </trkpt>
      <trkpt lat="47.23509" lon="-1.94134">
        <ele>81</ele>
        <time>2020-12-20T12:17:18.000Z</time>
      </trkpt>
      <trkpt lat="47.23522" lon="-1.94125">
        <ele>81</ele>
        <time>2020-12-20T12:17:20.000Z</time>
      </trkpt>
      <trkpt lat="47.23531" lon="-1.94115">
        <ele>81</ele>
        <time>2020-12-20T12:17:22.000Z</time>
      </trkpt>
      <trkpt lat="47.2354" lon="-1.94105">
        <ele>81</ele>
        <time>2020-12-20T12:17:24.000Z</time>
      </trkpt>
      <trkpt lat="47.23549" lon="-1.94094">
        <ele>81</ele>
        <time>2020-12-20T12:17:26.000Z</time>
      </trkpt>
      <trkpt lat="47.23556" lon="-1.94086">
        <ele>81</ele>
        <time>2020-12-20T12:17:28.000Z</time>
      </trkpt>
      <trkpt lat="47.23565" lon="-1.94079">
        <ele>81</ele>
        <time>2020-12-20T12:17:30.000Z</time>
      </trkpt>
      <trkpt lat="47.23577" lon="-1.94072">
        <ele>81</ele>
        <time>2020-12-20T12:17:32.000Z</time>
      </trkpt>
      <trkpt lat="47.2359" lon="-1.94066">
        <ele>80</ele>
        <time>2020-12-20T12:17:34.000Z</time>
      </trkpt>
      <trkpt lat="47.23604" lon="-1.94058">
        <ele>79</ele>
        <time>2020-12-20T12:17:36.000Z</time>
      </trkpt>
      <trkpt lat="47.23618" lon="-1.94049">
        <ele>78</ele>
        <time>2020-12-20T12:17:38.000Z</time>
      </trkpt>
      <trkpt lat="47.23633" lon="-1.94036">
        <ele>78</ele>
        <time>2020-12-20T12:17:40.000Z</time>
      </trkpt>
      <trkpt lat="47.23647" lon="-1.94021">
        <ele>77</ele>
        <time>2020-12-20T12:17:42.000Z</time>
      </trkpt>
      <trkpt lat="47.23655" lon="-1.94013">
        <ele>76</ele>
        <time>2020-12-20T12:17:43.000Z</time>
      </trkpt>
      <trkpt lat="47.23662" lon="-1.94005">
        <ele>76</ele>
        <time>2020-12-20T12:17:44.000Z</time>
      </trkpt>
      <trkpt lat="47.2367" lon="-1.93997">
        <ele>75</ele>
        <time>2020-12-20T12:17:45.000Z</time>
      </trkpt>
      <trkpt lat="47.23678" lon="-1.93989">
        <ele>75</ele>
        <time>2020-12-20T12:17:46.000Z</time>
      </trkpt>
      <trkpt lat="47.23685" lon="-1.9398">
        <ele>74</ele>
        <time>2020-12-20T12:17:47.000Z</time>
      </trkpt>
      <trkpt lat="47.23693" lon="-1.93972">
        <ele>74</ele>
        <time>2020-12-20T12:17:48.000Z</time>
      </trkpt>
      <trkpt lat="47.23701" lon="-1.93963">
        <ele>73</ele>
        <time>2020-12-20T12:17:49.000Z</time>
      </trkpt>
      <trkpt lat="47.23709" lon="-1.93954">
        <ele>73</ele>
        <time>2020-12-20T12:17:50.000Z</time>
      </trkpt>
      <trkpt lat="47.23717" lon="-1.93946">
        <ele>72</ele>
        <time>2020-12-20T12:17:51.000Z</time>
      </trkpt>
      <trkpt lat="47.23725" lon="-1.93937">
        <ele>72</ele>
        <time>2020-12-20T12:17:52.000Z</time>
      </trkpt>
      <trkpt lat="47.23733" lon="-1.93928">
        <ele>72</ele>
        <time>2020-12-20T12:17:53.000Z</time>
      </trkpt>
      <trkpt lat="47.23741" lon="-1.93919">
        <ele>71</ele>
        <time>2020-12-20T12:17:54.000Z</time>
      </trkpt>
      <trkpt lat="47.23748" lon="-1.9391">
        <ele>71</ele>
        <time>2020-12-20T12:17:55.000Z</time>
      </trkpt>
      <trkpt lat="47.23755" lon="-1.93901">
        <ele>71</ele>
        <time>2020-12-20T12:17:56.000Z</time>
      </trkpt>
      <trkpt lat="47.23763" lon="-1.93892">
        <ele>71</ele>
        <time>2020-12-20T12:17:57.000Z</time>
      </trkpt>
      <trkpt lat="47.23771" lon="-1.93884">
        <ele>70</ele>
        <time>2020-12-20T12:17:58.000Z</time>
      </trkpt>
      <trkpt lat="47.23778" lon="-1.93877">
        <ele>71</ele>
        <time>2020-12-20T12:17:59.000Z</time>
      </trkpt>
      <trkpt lat="47.23786" lon="-1.9387">
        <ele>71</ele>
        <time>2020-12-20T12:18:00.000Z</time>
      </trkpt>
      <trkpt lat="47.23794" lon="-1.93863">
        <ele>71</ele>
        <time>2020-12-20T12:18:01.000Z</time>
      </trkpt>
      <trkpt lat="47.23803" lon="-1.93858">
        <ele>70</ele>
        <time>2020-12-20T12:18:02.000Z</time>
      </trkpt>
      <trkpt lat="47.23819" lon="-1.93848">
        <ele>70</ele>
        <time>2020-12-20T12:18:04.000Z</time>
      </trkpt>
      <trkpt lat="47.23836" lon="-1.9384">
        <ele>70</ele>
        <time>2020-12-20T12:18:06.000Z</time>
      </trkpt>
      <trkpt lat="47.23853" lon="-1.93833">
        <ele>69</ele>
        <time>2020-12-20T12:18:08.000Z</time>
      </trkpt>
      <trkpt lat="47.2387" lon="-1.93827">
        <ele>69</ele>
        <time>2020-12-20T12:18:10.000Z</time>
      </trkpt>
      <trkpt lat="47.23887" lon="-1.9382">
        <ele>69</ele>
        <time>2020-12-20T12:18:12.000Z</time>
      </trkpt>
      <trkpt lat="47.23903" lon="-1.93813">
        <ele>68</ele>
        <time>2020-12-20T12:18:14.000Z</time>
      </trkpt>
      <trkpt lat="47.23919" lon="-1.93808">
        <ele>67</ele>
        <time>2020-12-20T12:18:16.000Z</time>
      </trkpt>
      <trkpt lat="47.23935" lon="-1.93801">
        <ele>67</ele>
        <time>2020-12-20T12:18:18.000Z</time>
      </trkpt>
      <trkpt lat="47.23952" lon="-1.93794">
        <ele>67</ele>
        <time>2020-12-20T12:18:20.000Z</time>
      </trkpt>
      <trkpt lat="47.23968" lon="-1.93787">
        <ele>67</ele>
        <time>2020-12-20T12:18:22.000Z</time>
      </trkpt>
      <trkpt lat="47.23983" lon="-1.9378">
        <ele>68</ele>
        <time>2020-12-20T12:18:24.000Z</time>
      </trkpt>
      <trkpt lat="47.23999" lon="-1.93774">
        <ele>68</ele>
        <time>2020-12-20T12:18:26.000Z</time>
      </trkpt>
      <trkpt lat="47.24015" lon="-1.93768">
        <ele>67</ele>
        <time>2020-12-20T12:18:28.000Z</time>
      </trkpt>
      <trkpt lat="47.2403" lon="-1.93761">
        <ele>66</ele>
        <time>2020-12-20T12:18:30.000Z</time>
      </trkpt>
      <trkpt lat="47.24044" lon="-1.93755">
        <ele>66</ele>
        <time>2020-12-20T12:18:32.000Z</time>
      </trkpt>
      <trkpt lat="47.24059" lon="-1.9375">
        <ele>65</ele>
        <time>2020-12-20T12:18:34.000Z</time>
      </trkpt>
      <trkpt lat="47.24073" lon="-1.93744">
        <ele>65</ele>
        <time>2020-12-20T12:18:36.000Z</time>
      </trkpt>
      <trkpt lat="47.24088" lon="-1.93736">
        <ele>65</ele>
        <time>2020-12-20T12:18:38.000Z</time>
      </trkpt>
      <trkpt lat="47.24102" lon="-1.93728">
        <ele>66</ele>
        <time>2020-12-20T12:18:40.000Z</time>
      </trkpt>
      <trkpt lat="47.24115" lon="-1.9372">
        <ele>66</ele>
        <time>2020-12-20T12:18:42.000Z</time>
      </trkpt>
      <trkpt lat="47.24127" lon="-1.9371">
        <ele>65</ele>
        <time>2020-12-20T12:18:44.000Z</time>
      </trkpt>
      <trkpt lat="47.24138" lon="-1.937">
        <ele>65</ele>
        <time>2020-12-20T12:18:46.000Z</time>
      </trkpt>
      <trkpt lat="47.24148" lon="-1.93689">
        <ele>65</ele>
        <time>2020-12-20T12:18:48.000Z</time>
      </trkpt>
      <trkpt lat="47.24158" lon="-1.93679">
        <ele>65</ele>
        <time>2020-12-20T12:18:50.000Z</time>
      </trkpt>
      <trkpt lat="47.24167" lon="-1.93668">
        <ele>66</ele>
        <time>2020-12-20T12:18:52.000Z</time>
      </trkpt>
      <trkpt lat="47.24176" lon="-1.93659">
        <ele>66</ele>
        <time>2020-12-20T12:18:54.000Z</time>
      </trkpt>
      <trkpt lat="47.24185" lon="-1.93649">
        <ele>67</ele>
        <time>2020-12-20T12:18:56.000Z</time>
      </trkpt>
      <trkpt lat="47.24194" lon="-1.9364">
        <ele>67</ele>
        <time>2020-12-20T12:18:58.000Z</time>
      </trkpt>
      <trkpt lat="47.24203" lon="-1.9363">
        <ele>68</ele>
        <time>2020-12-20T12:19:00.000Z</time>
      </trkpt>
      <trkpt lat="47.24211" lon="-1.93622">
        <ele>68</ele>
        <time>2020-12-20T12:19:02.000Z</time>
      </trkpt>
      <trkpt lat="47.24219" lon="-1.93613">
        <ele>68</ele>
        <time>2020-12-20T12:19:04.000Z</time>
      </trkpt>
      <trkpt lat="47.24228" lon="-1.93604">
        <ele>69</ele>
        <time>2020-12-20T12:19:06.000Z</time>
      </trkpt>
      <trkpt lat="47.24236" lon="-1.93595">
        <ele>69</ele>
        <time>2020-12-20T12:19:08.000Z</time>
      </trkpt>
      <trkpt lat="47.24245" lon="-1.93587">
        <ele>69</ele>
        <time>2020-12-20T12:19:10.000Z</time>
      </trkpt>
      <trkpt lat="47.24253" lon="-1.93577">
        <ele>69</ele>
        <time>2020-12-20T12:19:12.000Z</time>
      </trkpt>
      <trkpt lat="47.24261" lon="-1.93568">
        <ele>70</ele>
        <time>2020-12-20T12:19:14.000Z</time>
      </trkpt>
      <trkpt lat="47.24269" lon="-1.93559">
        <ele>70</ele>
        <time>2020-12-20T12:19:16.000Z</time>
      </trkpt>
      <trkpt lat="47.24277" lon="-1.93551">
        <ele>70</ele>
        <time>2020-12-20T12:19:18.000Z</time>
      </trkpt>
      <trkpt lat="47.24285" lon="-1.93543">
        <ele>71</ele>
        <time>2020-12-20T12:19:20.000Z</time>
      </trkpt>
      <trkpt lat="47.24293" lon="-1.93534">
        <ele>72</ele>
        <time>2020-12-20T12:19:22.000Z</time>
      </trkpt>
      <trkpt lat="47.243" lon="-1.93524">
        <ele>72</ele>
        <time>2020-12-20T12:19:24.000Z</time>
      </trkpt>
      <trkpt lat="47.24308" lon="-1.93515">
        <ele>73</ele>
        <time>2020-12-20T12:19:26.000Z</time>
      </trkpt>
      <trkpt lat="47.24316" lon="-1.93507">
        <ele>73</ele>
        <time>2020-12-20T12:19:28.000Z</time>
      </trkpt>
      <trkpt lat="47.24324" lon="-1.93501">
        <ele>73</ele>
        <time>2020-12-20T12:19:30.000Z</time>
      </trkpt>
      <trkpt lat="47.24334" lon="-1.93496">
        <ele>74</ele>
        <time>2020-12-20T12:19:32.000Z</time>
      </trkpt>
      <trkpt lat="47.24343" lon="-1.93491">
        <ele>74</ele>
        <time>2020-12-20T12:19:34.000Z</time>
      </trkpt>
      <trkpt lat="47.24353" lon="-1.93486">
        <ele>74</ele>
        <time>2020-12-20T12:19:36.000Z</time>
      </trkpt>
      <trkpt lat="47.24361" lon="-1.93479">
        <ele>75</ele>
        <time>2020-12-20T12:19:38.000Z</time>
      </trkpt>
      <trkpt lat="47.24369" lon="-1.9347">
        <ele>76</ele>
        <time>2020-12-20T12:19:40.000Z</time>
      </trkpt>
      <trkpt lat="47.24376" lon="-1.9346">
        <ele>76</ele>
        <time>2020-12-20T12:19:42.000Z</time>
      </trkpt>
      <trkpt lat="47.24383" lon="-1.93451">
        <ele>76</ele>
        <time>2020-12-20T12:19:44.000Z</time>
      </trkpt>
      <trkpt lat="47.24392" lon="-1.93438">
        <ele>77</ele>
        <time>2020-12-20T12:19:47.000Z</time>
      </trkpt>
      <trkpt lat="47.24393" lon="-1.93422">
        <ele>76</ele>
        <time>2020-12-20T12:19:52.000Z</time>
      </trkpt>
      <trkpt lat="47.24387" lon="-1.93406">
        <ele>77</ele>
        <time>2020-12-20T12:19:55.000Z</time>
      </trkpt>
      <trkpt lat="47.24392" lon="-1.93392">
        <ele>77</ele>
        <time>2020-12-20T12:19:58.000Z</time>
      </trkpt>
      <trkpt lat="47.24402" lon="-1.93385">
        <ele>78</ele>
        <time>2020-12-20T12:20:00.000Z</time>
      </trkpt>
      <trkpt lat="47.24413" lon="-1.9338">
        <ele>79</ele>
        <time>2020-12-20T12:20:02.000Z</time>
      </trkpt>
      <trkpt lat="47.24423" lon="-1.93374">
        <ele>79</ele>
        <time>2020-12-20T12:20:04.000Z</time>
      </trkpt>
      <trkpt lat="47.24433" lon="-1.9337">
        <ele>79</ele>
        <time>2020-12-20T12:20:06.000Z</time>
      </trkpt>
      <trkpt lat="47.24442" lon="-1.93366">
        <ele>79</ele>
        <time>2020-12-20T12:20:08.000Z</time>
      </trkpt>
      <trkpt lat="47.2445" lon="-1.93356">
        <ele>79</ele>
        <time>2020-12-20T12:20:11.000Z</time>
      </trkpt>
      <trkpt lat="47.24449" lon="-1.93343">
        <ele>78</ele>
        <time>2020-12-20T12:20:13.000Z</time>
      </trkpt>
      <trkpt lat="47.24446" lon="-1.93329">
        <ele>79</ele>
        <time>2020-12-20T12:20:15.000Z</time>
      </trkpt>
      <trkpt lat="47.24441" lon="-1.93316">
        <ele>79</ele>
        <time>2020-12-20T12:20:17.000Z</time>
      </trkpt>
      <trkpt lat="47.24436" lon="-1.93303">
        <ele>80</ele>
        <time>2020-12-20T12:20:19.000Z</time>
      </trkpt>
      <trkpt lat="47.24433" lon="-1.93288">
        <ele>80</ele>
        <time>2020-12-20T12:20:21.000Z</time>
      </trkpt>
      <trkpt lat="47.2443" lon="-1.93273">
        <ele>80</ele>
        <time>2020-12-20T12:20:23.000Z</time>
      </trkpt>
      <trkpt lat="47.24428" lon="-1.93256">
        <ele>80</ele>
        <time>2020-12-20T12:20:25.000Z</time>
      </trkpt>
      <trkpt lat="47.24426" lon="-1.93238">
        <ele>80</ele>
        <time>2020-12-20T12:20:27.000Z</time>
      </trkpt>
      <trkpt lat="47.24426" lon="-1.93219">
        <ele>80</ele>
        <time>2020-12-20T12:20:29.000Z</time>
      </trkpt>
      <trkpt lat="47.24429" lon="-1.93199">
        <ele>80</ele>
        <time>2020-12-20T12:20:31.000Z</time>
      </trkpt>
      <trkpt lat="47.24434" lon="-1.93179">
        <ele>79</ele>
        <time>2020-12-20T12:20:33.000Z</time>
      </trkpt>
      <trkpt lat="47.24443" lon="-1.93157">
        <ele>78</ele>
        <time>2020-12-20T12:20:35.000Z</time>
      </trkpt>
      <trkpt lat="47.24457" lon="-1.9314">
        <ele>78</ele>
        <time>2020-12-20T12:20:37.000Z</time>
      </trkpt>
      <trkpt lat="47.24473" lon="-1.93127">
        <ele>77</ele>
        <time>2020-12-20T12:20:39.000Z</time>
      </trkpt>
      <trkpt lat="47.2448" lon="-1.9312">
        <ele>77</ele>
        <time>2020-12-20T12:20:40.000Z</time>
      </trkpt>
      <trkpt lat="47.24489" lon="-1.93113">
        <ele>77</ele>
        <time>2020-12-20T12:20:41.000Z</time>
      </trkpt>
      <trkpt lat="47.24497" lon="-1.93105">
        <ele>76</ele>
        <time>2020-12-20T12:20:42.000Z</time>
      </trkpt>
      <trkpt lat="47.24505" lon="-1.93098">
        <ele>76</ele>
        <time>2020-12-20T12:20:43.000Z</time>
      </trkpt>
      <trkpt lat="47.24514" lon="-1.93091">
        <ele>75</ele>
        <time>2020-12-20T12:20:44.000Z</time>
      </trkpt>
      <trkpt lat="47.24523" lon="-1.93083">
        <ele>74</ele>
        <time>2020-12-20T12:20:45.000Z</time>
      </trkpt>
      <trkpt lat="47.24533" lon="-1.93074">
        <ele>73</ele>
        <time>2020-12-20T12:20:46.000Z</time>
      </trkpt>
      <trkpt lat="47.24542" lon="-1.93066">
        <ele>72</ele>
        <time>2020-12-20T12:20:47.000Z</time>
      </trkpt>
      <trkpt lat="47.24551" lon="-1.93058">
        <ele>71</ele>
        <time>2020-12-20T12:20:48.000Z</time>
      </trkpt>
      <trkpt lat="47.24559" lon="-1.93049">
        <ele>70</ele>
        <time>2020-12-20T12:20:49.000Z</time>
      </trkpt>
      <trkpt lat="47.24569" lon="-1.9304">
        <ele>69</ele>
        <time>2020-12-20T12:20:50.000Z</time>
      </trkpt>
      <trkpt lat="47.24577" lon="-1.9303">
        <ele>68</ele>
        <time>2020-12-20T12:20:51.000Z</time>
      </trkpt>
      <trkpt lat="47.24586" lon="-1.93021">
        <ele>67</ele>
        <time>2020-12-20T12:20:52.000Z</time>
      </trkpt>
      <trkpt lat="47.24595" lon="-1.93011">
        <ele>66</ele>
        <time>2020-12-20T12:20:53.000Z</time>
      </trkpt>
      <trkpt lat="47.24604" lon="-1.93001">
        <ele>65</ele>
        <time>2020-12-20T12:20:54.000Z</time>
      </trkpt>
      <trkpt lat="47.24613" lon="-1.92992">
        <ele>64</ele>
        <time>2020-12-20T12:20:55.000Z</time>
      </trkpt>
      <trkpt lat="47.24622" lon="-1.92983">
        <ele>63</ele>
        <time>2020-12-20T12:20:56.000Z</time>
      </trkpt>
      <trkpt lat="47.24631" lon="-1.92973">
        <ele>62</ele>
        <time>2020-12-20T12:20:57.000Z</time>
      </trkpt>
      <trkpt lat="47.2464" lon="-1.92963">
        <ele>62</ele>
        <time>2020-12-20T12:20:58.000Z</time>
      </trkpt>
      <trkpt lat="47.24649" lon="-1.92954">
        <ele>61</ele>
        <time>2020-12-20T12:20:59.000Z</time>
      </trkpt>
      <trkpt lat="47.24657" lon="-1.92944">
        <ele>61</ele>
        <time>2020-12-20T12:21:00.000Z</time>
      </trkpt>
      <trkpt lat="47.24666" lon="-1.92936">
        <ele>61</ele>
        <time>2020-12-20T12:21:01.000Z</time>
      </trkpt>
      <trkpt lat="47.24675" lon="-1.92927">
        <ele>60</ele>
        <time>2020-12-20T12:21:02.000Z</time>
      </trkpt>
      <trkpt lat="47.24683" lon="-1.92918">
        <ele>60</ele>
        <time>2020-12-20T12:21:03.000Z</time>
      </trkpt>
      <trkpt lat="47.2469" lon="-1.92909">
        <ele>59</ele>
        <time>2020-12-20T12:21:04.000Z</time>
      </trkpt>
      <trkpt lat="47.24699" lon="-1.929">
        <ele>59</ele>
        <time>2020-12-20T12:21:05.000Z</time>
      </trkpt>
      <trkpt lat="47.24707" lon="-1.92892">
        <ele>59</ele>
        <time>2020-12-20T12:21:06.000Z</time>
      </trkpt>
      <trkpt lat="47.24714" lon="-1.92882">
        <ele>58</ele>
        <time>2020-12-20T12:21:07.000Z</time>
      </trkpt>
      <trkpt lat="47.24721" lon="-1.92873">
        <ele>58</ele>
        <time>2020-12-20T12:21:08.000Z</time>
      </trkpt>
      <trkpt lat="47.24728" lon="-1.92863">
        <ele>58</ele>
        <time>2020-12-20T12:21:09.000Z</time>
      </trkpt>
      <trkpt lat="47.24734" lon="-1.92852">
        <ele>58</ele>
        <time>2020-12-20T12:21:10.000Z</time>
      </trkpt>
      <trkpt lat="47.2474" lon="-1.92842">
        <ele>58</ele>
        <time>2020-12-20T12:21:11.000Z</time>
      </trkpt>
      <trkpt lat="47.2475" lon="-1.92821">
        <ele>57</ele>
        <time>2020-12-20T12:21:13.000Z</time>
      </trkpt>
      <trkpt lat="47.2476" lon="-1.92801">
        <ele>58</ele>
        <time>2020-12-20T12:21:15.000Z</time>
      </trkpt>
      <trkpt lat="47.24771" lon="-1.92783">
        <ele>58</ele>
        <time>2020-12-20T12:21:17.000Z</time>
      </trkpt>
      <trkpt lat="47.24782" lon="-1.92768">
        <ele>58</ele>
        <time>2020-12-20T12:21:19.000Z</time>
      </trkpt>
      <trkpt lat="47.24791" lon="-1.92755">
        <ele>59</ele>
        <time>2020-12-20T12:21:21.000Z</time>
      </trkpt>
      <trkpt lat="47.24801" lon="-1.92741">
        <ele>60</ele>
        <time>2020-12-20T12:21:23.000Z</time>
      </trkpt>
      <trkpt lat="47.24811" lon="-1.92728">
        <ele>60</ele>
        <time>2020-12-20T12:21:25.000Z</time>
      </trkpt>
      <trkpt lat="47.2482" lon="-1.92715">
        <ele>60</ele>
        <time>2020-12-20T12:21:27.000Z</time>
      </trkpt>
      <trkpt lat="47.24829" lon="-1.92702">
        <ele>61</ele>
        <time>2020-12-20T12:21:29.000Z</time>
      </trkpt>
      <trkpt lat="47.24838" lon="-1.92688">
        <ele>60</ele>
        <time>2020-12-20T12:21:31.000Z</time>
      </trkpt>
      <trkpt lat="47.24845" lon="-1.92676">
        <ele>60</ele>
        <time>2020-12-20T12:21:33.000Z</time>
      </trkpt>
      <trkpt lat="47.24854" lon="-1.9266">
        <ele>61</ele>
        <time>2020-12-20T12:21:35.000Z</time>
      </trkpt>
      <trkpt lat="47.24862" lon="-1.92644">
        <ele>60</ele>
        <time>2020-12-20T12:21:37.000Z</time>
      </trkpt>
      <trkpt lat="47.2487" lon="-1.92625">
        <ele>60</ele>
        <time>2020-12-20T12:21:39.000Z</time>
      </trkpt>
      <trkpt lat="47.24876" lon="-1.92605">
        <ele>61</ele>
        <time>2020-12-20T12:21:41.000Z</time>
      </trkpt>
      <trkpt lat="47.24883" lon="-1.92586">
        <ele>61</ele>
        <time>2020-12-20T12:21:43.000Z</time>
      </trkpt>
      <trkpt lat="47.24888" lon="-1.92566">
        <ele>61</ele>
        <time>2020-12-20T12:21:45.000Z</time>
      </trkpt>
      <trkpt lat="47.24893" lon="-1.92546">
        <ele>61</ele>
        <time>2020-12-20T12:21:47.000Z</time>
      </trkpt>
      <trkpt lat="47.249" lon="-1.92529">
        <ele>61</ele>
        <time>2020-12-20T12:21:49.000Z</time>
      </trkpt>
      <trkpt lat="47.24907" lon="-1.9251">
        <ele>61</ele>
        <time>2020-12-20T12:21:51.000Z</time>
      </trkpt>
      <trkpt lat="47.24915" lon="-1.92493">
        <ele>62</ele>
        <time>2020-12-20T12:21:53.000Z</time>
      </trkpt>
      <trkpt lat="47.24923" lon="-1.92476">
        <ele>61</ele>
        <time>2020-12-20T12:21:55.000Z</time>
      </trkpt>
      <trkpt lat="47.24933" lon="-1.92458">
        <ele>61</ele>
        <time>2020-12-20T12:21:57.000Z</time>
      </trkpt>
      <trkpt lat="47.24943" lon="-1.9244">
        <ele>61</ele>
        <time>2020-12-20T12:21:59.000Z</time>
      </trkpt>
      <trkpt lat="47.24953" lon="-1.92422">
        <ele>60</ele>
        <time>2020-12-20T12:22:01.000Z</time>
      </trkpt>
      <trkpt lat="47.24963" lon="-1.92403">
        <ele>59</ele>
        <time>2020-12-20T12:22:03.000Z</time>
      </trkpt>
      <trkpt lat="47.24975" lon="-1.92383">
        <ele>58</ele>
        <time>2020-12-20T12:22:05.000Z</time>
      </trkpt>
      <trkpt lat="47.24981" lon="-1.92374">
        <ele>57</ele>
        <time>2020-12-20T12:22:06.000Z</time>
      </trkpt>
      <trkpt lat="47.24988" lon="-1.92364">
        <ele>57</ele>
        <time>2020-12-20T12:22:07.000Z</time>
      </trkpt>
      <trkpt lat="47.24995" lon="-1.92352">
        <ele>57</ele>
        <time>2020-12-20T12:22:08.000Z</time>
      </trkpt>
      <trkpt lat="47.25001" lon="-1.92342">
        <ele>56</ele>
        <time>2020-12-20T12:22:09.000Z</time>
      </trkpt>
      <trkpt lat="47.25012" lon="-1.92322">
        <ele>56</ele>
        <time>2020-12-20T12:22:11.000Z</time>
      </trkpt>
      <trkpt lat="47.25024" lon="-1.92303">
        <ele>56</ele>
        <time>2020-12-20T12:22:13.000Z</time>
      </trkpt>
      <trkpt lat="47.25036" lon="-1.92284">
        <ele>56</ele>
        <time>2020-12-20T12:22:15.000Z</time>
      </trkpt>
      <trkpt lat="47.25048" lon="-1.92265">
        <ele>56</ele>
        <time>2020-12-20T12:22:17.000Z</time>
      </trkpt>
      <trkpt lat="47.25059" lon="-1.92246">
        <ele>56</ele>
        <time>2020-12-20T12:22:19.000Z</time>
      </trkpt>
      <trkpt lat="47.2507" lon="-1.92227">
        <ele>56</ele>
        <time>2020-12-20T12:22:21.000Z</time>
      </trkpt>
      <trkpt lat="47.25081" lon="-1.92209">
        <ele>56</ele>
        <time>2020-12-20T12:22:23.000Z</time>
      </trkpt>
      <trkpt lat="47.25091" lon="-1.9219">
        <ele>55</ele>
        <time>2020-12-20T12:22:25.000Z</time>
      </trkpt>
      <trkpt lat="47.25102" lon="-1.92171">
        <ele>55</ele>
        <time>2020-12-20T12:22:27.000Z</time>
      </trkpt>
      <trkpt lat="47.25113" lon="-1.92153">
        <ele>55</ele>
        <time>2020-12-20T12:22:29.000Z</time>
      </trkpt>
      <trkpt lat="47.25124" lon="-1.92135">
        <ele>55</ele>
        <time>2020-12-20T12:22:31.000Z</time>
      </trkpt>
      <trkpt lat="47.25134" lon="-1.92118">
        <ele>55</ele>
        <time>2020-12-20T12:22:33.000Z</time>
      </trkpt>
      <trkpt lat="47.25144" lon="-1.92099">
        <ele>54</ele>
        <time>2020-12-20T12:22:35.000Z</time>
      </trkpt>
      <trkpt lat="47.25153" lon="-1.92079">
        <ele>54</ele>
        <time>2020-12-20T12:22:37.000Z</time>
      </trkpt>
      <trkpt lat="47.2516" lon="-1.92058">
        <ele>53</ele>
        <time>2020-12-20T12:22:39.000Z</time>
      </trkpt>
      <trkpt lat="47.25165" lon="-1.92037">
        <ele>53</ele>
        <time>2020-12-20T12:22:41.000Z</time>
      </trkpt>
      <trkpt lat="47.25169" lon="-1.92015">
        <ele>53</ele>
        <time>2020-12-20T12:22:43.000Z</time>
      </trkpt>
      <trkpt lat="47.25173" lon="-1.91994">
        <ele>54</ele>
        <time>2020-12-20T12:22:45.000Z</time>
      </trkpt>
      <trkpt lat="47.25178" lon="-1.91972">
        <ele>54</ele>
        <time>2020-12-20T12:22:47.000Z</time>
      </trkpt>
      <trkpt lat="47.25184" lon="-1.91951">
        <ele>55</ele>
        <time>2020-12-20T12:22:49.000Z</time>
      </trkpt>
      <trkpt lat="47.25193" lon="-1.91932">
        <ele>55</ele>
        <time>2020-12-20T12:22:51.000Z</time>
      </trkpt>
      <trkpt lat="47.25203" lon="-1.91916">
        <ele>55</ele>
        <time>2020-12-20T12:22:53.000Z</time>
      </trkpt>
      <trkpt lat="47.25215" lon="-1.91901">
        <ele>54</ele>
        <time>2020-12-20T12:22:55.000Z</time>
      </trkpt>
      <trkpt lat="47.25228" lon="-1.91887">
        <ele>54</ele>
        <time>2020-12-20T12:22:57.000Z</time>
      </trkpt>
      <trkpt lat="47.25241" lon="-1.91873">
        <ele>54</ele>
        <time>2020-12-20T12:22:59.000Z</time>
      </trkpt>
      <trkpt lat="47.25254" lon="-1.91859">
        <ele>55</ele>
        <time>2020-12-20T12:23:01.000Z</time>
      </trkpt>
      <trkpt lat="47.25267" lon="-1.91845">
        <ele>55</ele>
        <time>2020-12-20T12:23:03.000Z</time>
      </trkpt>
      <trkpt lat="47.2528" lon="-1.91831">
        <ele>55</ele>
        <time>2020-12-20T12:23:05.000Z</time>
      </trkpt>
      <trkpt lat="47.25293" lon="-1.91817">
        <ele>55</ele>
        <time>2020-12-20T12:23:07.000Z</time>
      </trkpt>
      <trkpt lat="47.25305" lon="-1.91804">
        <ele>55</ele>
        <time>2020-12-20T12:23:09.000Z</time>
      </trkpt>
      <trkpt lat="47.25318" lon="-1.9179">
        <ele>55</ele>
        <time>2020-12-20T12:23:11.000Z</time>
      </trkpt>
      <trkpt lat="47.2533" lon="-1.91777">
        <ele>55</ele>
        <time>2020-12-20T12:23:13.000Z</time>
      </trkpt>
      <trkpt lat="47.25342" lon="-1.91764">
        <ele>55</ele>
        <time>2020-12-20T12:23:15.000Z</time>
      </trkpt>
      <trkpt lat="47.25354" lon="-1.91753">
        <ele>55</ele>
        <time>2020-12-20T12:23:17.000Z</time>
      </trkpt>
      <trkpt lat="47.25368" lon="-1.91744">
        <ele>55</ele>
        <time>2020-12-20T12:23:19.000Z</time>
      </trkpt>
      <trkpt lat="47.25382" lon="-1.9174">
        <ele>55</ele>
        <time>2020-12-20T12:23:21.000Z</time>
      </trkpt>
      <trkpt lat="47.25395" lon="-1.91736">
        <ele>55</ele>
        <time>2020-12-20T12:23:23.000Z</time>
      </trkpt>
      <trkpt lat="47.25409" lon="-1.91732">
        <ele>56</ele>
        <time>2020-12-20T12:23:25.000Z</time>
      </trkpt>
      <trkpt lat="47.25422" lon="-1.91725">
        <ele>55</ele>
        <time>2020-12-20T12:23:27.000Z</time>
      </trkpt>
      <trkpt lat="47.25434" lon="-1.91715">
        <ele>56</ele>
        <time>2020-12-20T12:23:29.000Z</time>
      </trkpt>
      <trkpt lat="47.25445" lon="-1.91704">
        <ele>56</ele>
        <time>2020-12-20T12:23:31.000Z</time>
      </trkpt>
      <trkpt lat="47.25457" lon="-1.91692">
        <ele>57</ele>
        <time>2020-12-20T12:23:33.000Z</time>
      </trkpt>
      <trkpt lat="47.25467" lon="-1.9168">
        <ele>57</ele>
        <time>2020-12-20T12:23:35.000Z</time>
      </trkpt>
      <trkpt lat="47.25477" lon="-1.91666">
        <ele>57</ele>
        <time>2020-12-20T12:23:37.000Z</time>
      </trkpt>
      <trkpt lat="47.25486" lon="-1.91656">
        <ele>58</ele>
        <time>2020-12-20T12:23:39.000Z</time>
      </trkpt>
      <trkpt lat="47.25496" lon="-1.91645">
        <ele>58</ele>
        <time>2020-12-20T12:23:41.000Z</time>
      </trkpt>
      <trkpt lat="47.25506" lon="-1.91635">
        <ele>58</ele>
        <time>2020-12-20T12:23:43.000Z</time>
      </trkpt>
      <trkpt lat="47.25517" lon="-1.91626">
        <ele>58</ele>
        <time>2020-12-20T12:23:45.000Z</time>
      </trkpt>
      <trkpt lat="47.25528" lon="-1.91616">
        <ele>57</ele>
        <time>2020-12-20T12:23:47.000Z</time>
      </trkpt>
      <trkpt lat="47.25539" lon="-1.91605">
        <ele>57</ele>
        <time>2020-12-20T12:23:49.000Z</time>
      </trkpt>
      <trkpt lat="47.25551" lon="-1.91593">
        <ele>57</ele>
        <time>2020-12-20T12:23:51.000Z</time>
      </trkpt>
      <trkpt lat="47.25565" lon="-1.91583">
        <ele>56</ele>
        <time>2020-12-20T12:23:53.000Z</time>
      </trkpt>
      <trkpt lat="47.25578" lon="-1.9157">
        <ele>55</ele>
        <time>2020-12-20T12:23:55.000Z</time>
      </trkpt>
      <trkpt lat="47.25591" lon="-1.91557">
        <ele>54</ele>
        <time>2020-12-20T12:23:57.000Z</time>
      </trkpt>
      <trkpt lat="47.25605" lon="-1.91543">
        <ele>53</ele>
        <time>2020-12-20T12:23:59.000Z</time>
      </trkpt>
      <trkpt lat="47.2562" lon="-1.91529">
        <ele>52</ele>
        <time>2020-12-20T12:24:01.000Z</time>
      </trkpt>
      <trkpt lat="47.25634" lon="-1.91516">
        <ele>52</ele>
        <time>2020-12-20T12:24:03.000Z</time>
      </trkpt>
      <trkpt lat="47.25648" lon="-1.91507">
        <ele>52</ele>
        <time>2020-12-20T12:24:05.000Z</time>
      </trkpt>
      <trkpt lat="47.25663" lon="-1.91498">
        <ele>52</ele>
        <time>2020-12-20T12:24:07.000Z</time>
      </trkpt>
      <trkpt lat="47.25677" lon="-1.91489">
        <ele>52</ele>
        <time>2020-12-20T12:24:09.000Z</time>
      </trkpt>
      <trkpt lat="47.2569" lon="-1.9148">
        <ele>52</ele>
        <time>2020-12-20T12:24:11.000Z</time>
      </trkpt>
      <trkpt lat="47.25704" lon="-1.91471">
        <ele>52</ele>
        <time>2020-12-20T12:24:13.000Z</time>
      </trkpt>
      <trkpt lat="47.25718" lon="-1.91463">
        <ele>52</ele>
        <time>2020-12-20T12:24:15.000Z</time>
      </trkpt>
      <trkpt lat="47.25738" lon="-1.91451">
        <ele>52</ele>
        <time>2020-12-20T12:24:18.000Z</time>
      </trkpt>
      <trkpt lat="47.25751" lon="-1.91443">
        <ele>52</ele>
        <time>2020-12-20T12:24:20.000Z</time>
      </trkpt>
      <trkpt lat="47.25764" lon="-1.91434">
        <ele>51</ele>
        <time>2020-12-20T12:24:22.000Z</time>
      </trkpt>
      <trkpt lat="47.25773" lon="-1.91418">
        <ele>51</ele>
        <time>2020-12-20T12:24:24.000Z</time>
      </trkpt>
      <trkpt lat="47.2578" lon="-1.914">
        <ele>51</ele>
        <time>2020-12-20T12:24:26.000Z</time>
      </trkpt>
      <trkpt lat="47.25789" lon="-1.91383">
        <ele>50</ele>
        <time>2020-12-20T12:24:28.000Z</time>
      </trkpt>
      <trkpt lat="47.25794" lon="-1.91367">
        <ele>50</ele>
        <time>2020-12-20T12:24:30.000Z</time>
      </trkpt>
      <trkpt lat="47.25791" lon="-1.91348">
        <ele>49</ele>
        <time>2020-12-20T12:24:32.000Z</time>
      </trkpt>
      <trkpt lat="47.25784" lon="-1.91331">
        <ele>49</ele>
        <time>2020-12-20T12:24:34.000Z</time>
      </trkpt>
      <trkpt lat="47.25774" lon="-1.91317">
        <ele>49</ele>
        <time>2020-12-20T12:24:36.000Z</time>
      </trkpt>
      <trkpt lat="47.25765" lon="-1.91301">
        <ele>49</ele>
        <time>2020-12-20T12:24:38.000Z</time>
      </trkpt>
      <trkpt lat="47.25757" lon="-1.91285">
        <ele>49</ele>
        <time>2020-12-20T12:24:40.000Z</time>
      </trkpt>
      <trkpt lat="47.25748" lon="-1.91269">
        <ele>49</ele>
        <time>2020-12-20T12:24:42.000Z</time>
      </trkpt>
      <trkpt lat="47.25739" lon="-1.91252">
        <ele>49</ele>
        <time>2020-12-20T12:24:44.000Z</time>
      </trkpt>
      <trkpt lat="47.2573" lon="-1.91235">
        <ele>49</ele>
        <time>2020-12-20T12:24:46.000Z</time>
      </trkpt>
      <trkpt lat="47.25721" lon="-1.91218">
        <ele>49</ele>
        <time>2020-12-20T12:24:48.000Z</time>
      </trkpt>
      <trkpt lat="47.25713" lon="-1.91201">
        <ele>49</ele>
        <time>2020-12-20T12:24:50.000Z</time>
      </trkpt>
      <trkpt lat="47.25703" lon="-1.91185">
        <ele>49</ele>
        <time>2020-12-20T12:24:52.000Z</time>
      </trkpt>
      <trkpt lat="47.25694" lon="-1.91169">
        <ele>50</ele>
        <time>2020-12-20T12:24:54.000Z</time>
      </trkpt>
      <trkpt lat="47.25685" lon="-1.91153">
        <ele>50</ele>
        <time>2020-12-20T12:24:56.000Z</time>
      </trkpt>
      <trkpt lat="47.25672" lon="-1.91128">
        <ele>50</ele>
        <time>2020-12-20T12:24:59.000Z</time>
      </trkpt>
      <trkpt lat="47.25663" lon="-1.91112">
        <ele>51</ele>
        <time>2020-12-20T12:25:01.000Z</time>
      </trkpt>
      <trkpt lat="47.25655" lon="-1.91097">
        <ele>51</ele>
        <time>2020-12-20T12:25:03.000Z</time>
      </trkpt>
      <trkpt lat="47.25647" lon="-1.91081">
        <ele>51</ele>
        <time>2020-12-20T12:25:05.000Z</time>
      </trkpt>
      <trkpt lat="47.25638" lon="-1.91066">
        <ele>51</ele>
        <time>2020-12-20T12:25:07.000Z</time>
      </trkpt>
      <trkpt lat="47.2563" lon="-1.91051">
        <ele>51</ele>
        <time>2020-12-20T12:25:09.000Z</time>
      </trkpt>
      <trkpt lat="47.25621" lon="-1.91036">
        <ele>51</ele>
        <time>2020-12-20T12:25:11.000Z</time>
      </trkpt>
      <trkpt lat="47.25613" lon="-1.9102">
        <ele>51</ele>
        <time>2020-12-20T12:25:13.000Z</time>
      </trkpt>
      <trkpt lat="47.25605" lon="-1.91005">
        <ele>51</ele>
        <time>2020-12-20T12:25:15.000Z</time>
      </trkpt>
      <trkpt lat="47.25596" lon="-1.90989">
        <ele>51</ele>
        <time>2020-12-20T12:25:17.000Z</time>
      </trkpt>
      <trkpt lat="47.25588" lon="-1.90974">
        <ele>51</ele>
        <time>2020-12-20T12:25:19.000Z</time>
      </trkpt>
      <trkpt lat="47.25579" lon="-1.90958">
        <ele>51</ele>
        <time>2020-12-20T12:25:21.000Z</time>
      </trkpt>
      <trkpt lat="47.25571" lon="-1.90943">
        <ele>50</ele>
        <time>2020-12-20T12:25:23.000Z</time>
      </trkpt>
      <trkpt lat="47.25563" lon="-1.90928">
        <ele>50</ele>
        <time>2020-12-20T12:25:25.000Z</time>
      </trkpt>
      <trkpt lat="47.2555" lon="-1.90906">
        <ele>50</ele>
        <time>2020-12-20T12:25:28.000Z</time>
      </trkpt>
      <trkpt lat="47.25542" lon="-1.90892">
        <ele>50</ele>
        <time>2020-12-20T12:25:30.000Z</time>
      </trkpt>
      <trkpt lat="47.2553" lon="-1.9087">
        <ele>50</ele>
        <time>2020-12-20T12:25:33.000Z</time>
      </trkpt>
      <trkpt lat="47.25518" lon="-1.90848">
        <ele>50</ele>
        <time>2020-12-20T12:25:36.000Z</time>
      </trkpt>
      <trkpt lat="47.2551" lon="-1.90834">
        <ele>50</ele>
        <time>2020-12-20T12:25:38.000Z</time>
      </trkpt>
      <trkpt lat="47.25503" lon="-1.90819">
        <ele>50</ele>
        <time>2020-12-20T12:25:40.000Z</time>
      </trkpt>
      <trkpt lat="47.25495" lon="-1.90805">
        <ele>50</ele>
        <time>2020-12-20T12:25:42.000Z</time>
      </trkpt>
      <trkpt lat="47.25488" lon="-1.90791">
        <ele>50</ele>
        <time>2020-12-20T12:25:44.000Z</time>
      </trkpt>
      <trkpt lat="47.25481" lon="-1.90776">
        <ele>50</ele>
        <time>2020-12-20T12:25:46.000Z</time>
      </trkpt>
      <trkpt lat="47.25473" lon="-1.90761">
        <ele>50</ele>
        <time>2020-12-20T12:25:48.000Z</time>
      </trkpt>
      <trkpt lat="47.25464" lon="-1.90747">
        <ele>50</ele>
        <time>2020-12-20T12:25:50.000Z</time>
      </trkpt>
      <trkpt lat="47.25457" lon="-1.90732">
        <ele>50</ele>
        <time>2020-12-20T12:25:52.000Z</time>
      </trkpt>
      <trkpt lat="47.25449" lon="-1.90717">
        <ele>51</ele>
        <time>2020-12-20T12:25:54.000Z</time>
      </trkpt>
      <trkpt lat="47.2544" lon="-1.90703">
        <ele>51</ele>
        <time>2020-12-20T12:25:56.000Z</time>
      </trkpt>
      <trkpt lat="47.25432" lon="-1.90689">
        <ele>51</ele>
        <time>2020-12-20T12:25:58.000Z</time>
      </trkpt>
      <trkpt lat="47.25425" lon="-1.90674">
        <ele>51</ele>
        <time>2020-12-20T12:26:00.000Z</time>
      </trkpt>
      <trkpt lat="47.25416" lon="-1.9066">
        <ele>51</ele>
        <time>2020-12-20T12:26:02.000Z</time>
      </trkpt>
      <trkpt lat="47.25409" lon="-1.90645">
        <ele>51</ele>
        <time>2020-12-20T12:26:04.000Z</time>
      </trkpt>
      <trkpt lat="47.25401" lon="-1.90631">
        <ele>51</ele>
        <time>2020-12-20T12:26:06.000Z</time>
      </trkpt>
      <trkpt lat="47.25393" lon="-1.90616">
        <ele>51</ele>
        <time>2020-12-20T12:26:08.000Z</time>
      </trkpt>
      <trkpt lat="47.25385" lon="-1.90602">
        <ele>51</ele>
        <time>2020-12-20T12:26:10.000Z</time>
      </trkpt>
      <trkpt lat="47.25377" lon="-1.90587">
        <ele>50</ele>
        <time>2020-12-20T12:26:12.000Z</time>
      </trkpt>
      <trkpt lat="47.25369" lon="-1.90573">
        <ele>51</ele>
        <time>2020-12-20T12:26:14.000Z</time>
      </trkpt>
      <trkpt lat="47.25361" lon="-1.90558">
        <ele>50</ele>
        <time>2020-12-20T12:26:16.000Z</time>
      </trkpt>
      <trkpt lat="47.25353" lon="-1.90543">
        <ele>50</ele>
        <time>2020-12-20T12:26:18.000Z</time>
      </trkpt>
      <trkpt lat="47.25345" lon="-1.90529">
        <ele>50</ele>
        <time>2020-12-20T12:26:20.000Z</time>
      </trkpt>
      <trkpt lat="47.25337" lon="-1.90514">
        <ele>50</ele>
        <time>2020-12-20T12:26:22.000Z</time>
      </trkpt>
      <trkpt lat="47.25329" lon="-1.905">
        <ele>50</ele>
        <time>2020-12-20T12:26:24.000Z</time>
      </trkpt>
      <trkpt lat="47.25321" lon="-1.90487">
        <ele>50</ele>
        <time>2020-12-20T12:26:26.000Z</time>
      </trkpt>
      <trkpt lat="47.25313" lon="-1.90473">
        <ele>50</ele>
        <time>2020-12-20T12:26:28.000Z</time>
      </trkpt>
      <trkpt lat="47.25305" lon="-1.90457">
        <ele>50</ele>
        <time>2020-12-20T12:26:30.000Z</time>
      </trkpt>
      <trkpt lat="47.25297" lon="-1.90443">
        <ele>50</ele>
        <time>2020-12-20T12:26:32.000Z</time>
      </trkpt>
      <trkpt lat="47.25288" lon="-1.90429">
        <ele>50</ele>
        <time>2020-12-20T12:26:34.000Z</time>
      </trkpt>
      <trkpt lat="47.2528" lon="-1.90415">
        <ele>50</ele>
        <time>2020-12-20T12:26:36.000Z</time>
      </trkpt>
      <trkpt lat="47.25272" lon="-1.904">
        <ele>51</ele>
        <time>2020-12-20T12:26:38.000Z</time>
      </trkpt>
      <trkpt lat="47.2526" lon="-1.90377">
        <ele>51</ele>
        <time>2020-12-20T12:26:41.000Z</time>
      </trkpt>
      <trkpt lat="47.25251" lon="-1.90362">
        <ele>51</ele>
        <time>2020-12-20T12:26:43.000Z</time>
      </trkpt>
      <trkpt lat="47.25243" lon="-1.90347">
        <ele>51</ele>
        <time>2020-12-20T12:26:45.000Z</time>
      </trkpt>
      <trkpt lat="47.25235" lon="-1.90332">
        <ele>51</ele>
        <time>2020-12-20T12:26:47.000Z</time>
      </trkpt>
      <trkpt lat="47.25227" lon="-1.90318">
        <ele>51</ele>
        <time>2020-12-20T12:26:49.000Z</time>
      </trkpt>
      <trkpt lat="47.25219" lon="-1.90304">
        <ele>51</ele>
        <time>2020-12-20T12:26:51.000Z</time>
      </trkpt>
      <trkpt lat="47.25211" lon="-1.90289">
        <ele>50</ele>
        <time>2020-12-20T12:26:53.000Z</time>
      </trkpt>
      <trkpt lat="47.25203" lon="-1.90274">
        <ele>51</ele>
        <time>2020-12-20T12:26:55.000Z</time>
      </trkpt>
      <trkpt lat="47.25191" lon="-1.90252">
        <ele>50</ele>
        <time>2020-12-20T12:26:58.000Z</time>
      </trkpt>
      <trkpt lat="47.25183" lon="-1.90237">
        <ele>51</ele>
        <time>2020-12-20T12:27:00.000Z</time>
      </trkpt>
      <trkpt lat="47.25174" lon="-1.90222">
        <ele>50</ele>
        <time>2020-12-20T12:27:02.000Z</time>
      </trkpt>
      <trkpt lat="47.25166" lon="-1.90208">
        <ele>51</ele>
        <time>2020-12-20T12:27:04.000Z</time>
      </trkpt>
      <trkpt lat="47.25158" lon="-1.90193">
        <ele>50</ele>
        <time>2020-12-20T12:27:06.000Z</time>
      </trkpt>
      <trkpt lat="47.2515" lon="-1.90178">
        <ele>50</ele>
        <time>2020-12-20T12:27:08.000Z</time>
      </trkpt>
      <trkpt lat="47.25142" lon="-1.90163">
        <ele>50</ele>
        <time>2020-12-20T12:27:10.000Z</time>
      </trkpt>
      <trkpt lat="47.25134" lon="-1.90149">
        <ele>50</ele>
        <time>2020-12-20T12:27:12.000Z</time>
      </trkpt>
      <trkpt lat="47.25125" lon="-1.90135">
        <ele>51</ele>
        <time>2020-12-20T12:27:14.000Z</time>
      </trkpt>
      <trkpt lat="47.25116" lon="-1.90123">
        <ele>50</ele>
        <time>2020-12-20T12:27:16.000Z</time>
      </trkpt>
      <trkpt lat="47.25107" lon="-1.90112">
        <ele>50</ele>
        <time>2020-12-20T12:27:18.000Z</time>
      </trkpt>
      <trkpt lat="47.25095" lon="-1.90105">
        <ele>50</ele>
        <time>2020-12-20T12:27:20.000Z</time>
      </trkpt>
      <trkpt lat="47.25082" lon="-1.90101">
        <ele>49</ele>
        <time>2020-12-20T12:27:22.000Z</time>
      </trkpt>
      <trkpt lat="47.2507" lon="-1.90096">
        <ele>50</ele>
        <time>2020-12-20T12:27:24.000Z</time>
      </trkpt>
      <trkpt lat="47.25055" lon="-1.90081">
        <ele>50</ele>
        <time>2020-12-20T12:27:27.000Z</time>
      </trkpt>
      <trkpt lat="47.25045" lon="-1.90068">
        <ele>50</ele>
        <time>2020-12-20T12:27:29.000Z</time>
      </trkpt>
      <trkpt lat="47.25037" lon="-1.90053">
        <ele>50</ele>
        <time>2020-12-20T12:27:31.000Z</time>
      </trkpt>
      <trkpt lat="47.2503" lon="-1.90037">
        <ele>50</ele>
        <time>2020-12-20T12:27:33.000Z</time>
      </trkpt>
      <trkpt lat="47.25022" lon="-1.9002">
        <ele>50</ele>
        <time>2020-12-20T12:27:35.000Z</time>
      </trkpt>
      <trkpt lat="47.25015" lon="-1.90004">
        <ele>50</ele>
        <time>2020-12-20T12:27:37.000Z</time>
      </trkpt>
      <trkpt lat="47.25008" lon="-1.89988">
        <ele>50</ele>
        <time>2020-12-20T12:27:39.000Z</time>
      </trkpt>
      <trkpt lat="47.25" lon="-1.89972">
        <ele>50</ele>
        <time>2020-12-20T12:27:41.000Z</time>
      </trkpt>
      <trkpt lat="47.24993" lon="-1.89957">
        <ele>50</ele>
        <time>2020-12-20T12:27:43.000Z</time>
      </trkpt>
      <trkpt lat="47.24985" lon="-1.89941">
        <ele>51</ele>
        <time>2020-12-20T12:27:45.000Z</time>
      </trkpt>
      <trkpt lat="47.24979" lon="-1.89925">
        <ele>51</ele>
        <time>2020-12-20T12:27:47.000Z</time>
      </trkpt>
      <trkpt lat="47.24974" lon="-1.89908">
        <ele>51</ele>
        <time>2020-12-20T12:27:49.000Z</time>
      </trkpt>
      <trkpt lat="47.24972" lon="-1.89889">
        <ele>51</ele>
        <time>2020-12-20T12:27:51.000Z</time>
      </trkpt>
      <trkpt lat="47.24972" lon="-1.8987">
        <ele>51</ele>
        <time>2020-12-20T12:27:53.000Z</time>
      </trkpt>
      <trkpt lat="47.24973" lon="-1.8985">
        <ele>51</ele>
        <time>2020-12-20T12:27:55.000Z</time>
      </trkpt>
      <trkpt lat="47.24973" lon="-1.89831">
        <ele>51</ele>
        <time>2020-12-20T12:27:57.000Z</time>
      </trkpt>
      <trkpt lat="47.2497" lon="-1.89813">
        <ele>51</ele>
        <time>2020-12-20T12:27:59.000Z</time>
      </trkpt>
      <trkpt lat="47.24965" lon="-1.89795">
        <ele>51</ele>
        <time>2020-12-20T12:28:01.000Z</time>
      </trkpt>
      <trkpt lat="47.24958" lon="-1.89779">
        <ele>51</ele>
        <time>2020-12-20T12:28:03.000Z</time>
      </trkpt>
      <trkpt lat="47.24951" lon="-1.89763">
        <ele>51</ele>
        <time>2020-12-20T12:28:05.000Z</time>
      </trkpt>
      <trkpt lat="47.24944" lon="-1.89747">
        <ele>52</ele>
        <time>2020-12-20T12:28:07.000Z</time>
      </trkpt>
      <trkpt lat="47.24937" lon="-1.89731">
        <ele>51</ele>
        <time>2020-12-20T12:28:09.000Z</time>
      </trkpt>
      <trkpt lat="47.24931" lon="-1.89714">
        <ele>52</ele>
        <time>2020-12-20T12:28:11.000Z</time>
      </trkpt>
      <trkpt lat="47.24924" lon="-1.89698">
        <ele>52</ele>
        <time>2020-12-20T12:28:13.000Z</time>
      </trkpt>
      <trkpt lat="47.24917" lon="-1.89682">
        <ele>52</ele>
        <time>2020-12-20T12:28:15.000Z</time>
      </trkpt>
      <trkpt lat="47.24911" lon="-1.89665">
        <ele>52</ele>
        <time>2020-12-20T12:28:17.000Z</time>
      </trkpt>
      <trkpt lat="47.24905" lon="-1.8965">
        <ele>52</ele>
        <time>2020-12-20T12:28:19.000Z</time>
      </trkpt>
      <trkpt lat="47.24898" lon="-1.89633">
        <ele>52</ele>
        <time>2020-12-20T12:28:21.000Z</time>
      </trkpt>
      <trkpt lat="47.24892" lon="-1.89617">
        <ele>52</ele>
        <time>2020-12-20T12:28:23.000Z</time>
      </trkpt>
      <trkpt lat="47.24885" lon="-1.89601">
        <ele>52</ele>
        <time>2020-12-20T12:28:25.000Z</time>
      </trkpt>
      <trkpt lat="47.24878" lon="-1.89584">
        <ele>51</ele>
        <time>2020-12-20T12:28:27.000Z</time>
      </trkpt>
      <trkpt lat="47.24872" lon="-1.89569">
        <ele>51</ele>
        <time>2020-12-20T12:28:29.000Z</time>
      </trkpt>
      <trkpt lat="47.24865" lon="-1.89553">
        <ele>52</ele>
        <time>2020-12-20T12:28:31.000Z</time>
      </trkpt>
      <trkpt lat="47.24859" lon="-1.89537">
        <ele>52</ele>
        <time>2020-12-20T12:28:33.000Z</time>
      </trkpt>
      <trkpt lat="47.24853" lon="-1.89522">
        <ele>52</ele>
        <time>2020-12-20T12:28:35.000Z</time>
      </trkpt>
      <trkpt lat="47.24846" lon="-1.89506">
        <ele>52</ele>
        <time>2020-12-20T12:28:37.000Z</time>
      </trkpt>
      <trkpt lat="47.2484" lon="-1.8949">
        <ele>52</ele>
        <time>2020-12-20T12:28:39.000Z</time>
      </trkpt>
      <trkpt lat="47.24834" lon="-1.89473">
        <ele>53</ele>
        <time>2020-12-20T12:28:41.000Z</time>
      </trkpt>
      <trkpt lat="47.24827" lon="-1.89457">
        <ele>53</ele>
        <time>2020-12-20T12:28:43.000Z</time>
      </trkpt>
      <trkpt lat="47.24821" lon="-1.89441">
        <ele>53</ele>
        <time>2020-12-20T12:28:45.000Z</time>
      </trkpt>
      <trkpt lat="47.24814" lon="-1.89425">
        <ele>53</ele>
        <time>2020-12-20T12:28:47.000Z</time>
      </trkpt>
      <trkpt lat="47.24807" lon="-1.89409">
        <ele>53</ele>
        <time>2020-12-20T12:28:49.000Z</time>
      </trkpt>
      <trkpt lat="47.24801" lon="-1.89393">
        <ele>52</ele>
        <time>2020-12-20T12:28:51.000Z</time>
      </trkpt>
      <trkpt lat="47.24795" lon="-1.89377">
        <ele>52</ele>
        <time>2020-12-20T12:28:53.000Z</time>
      </trkpt>
      <trkpt lat="47.24789" lon="-1.89361">
        <ele>52</ele>
        <time>2020-12-20T12:28:55.000Z</time>
      </trkpt>
      <trkpt lat="47.24782" lon="-1.89345">
        <ele>52</ele>
        <time>2020-12-20T12:28:57.000Z</time>
      </trkpt>
      <trkpt lat="47.24776" lon="-1.89329">
        <ele>52</ele>
        <time>2020-12-20T12:28:59.000Z</time>
      </trkpt>
      <trkpt lat="47.24769" lon="-1.89314">
        <ele>52</ele>
        <time>2020-12-20T12:29:01.000Z</time>
      </trkpt>
      <trkpt lat="47.24763" lon="-1.89299">
        <ele>52</ele>
        <time>2020-12-20T12:29:03.000Z</time>
      </trkpt>
      <trkpt lat="47.24757" lon="-1.89283">
        <ele>52</ele>
        <time>2020-12-20T12:29:05.000Z</time>
      </trkpt>
      <trkpt lat="47.24751" lon="-1.89268">
        <ele>52</ele>
        <time>2020-12-20T12:29:07.000Z</time>
      </trkpt>
      <trkpt lat="47.24745" lon="-1.89252">
        <ele>52</ele>
        <time>2020-12-20T12:29:09.000Z</time>
      </trkpt>
      <trkpt lat="47.24738" lon="-1.89236">
        <ele>52</ele>
        <time>2020-12-20T12:29:11.000Z</time>
      </trkpt>
      <trkpt lat="47.24732" lon="-1.8922">
        <ele>52</ele>
        <time>2020-12-20T12:29:13.000Z</time>
      </trkpt>
      <trkpt lat="47.24725" lon="-1.89204">
        <ele>52</ele>
        <time>2020-12-20T12:29:15.000Z</time>
      </trkpt>
      <trkpt lat="47.24719" lon="-1.89189">
        <ele>52</ele>
        <time>2020-12-20T12:29:17.000Z</time>
      </trkpt>
      <trkpt lat="47.24713" lon="-1.89173">
        <ele>52</ele>
        <time>2020-12-20T12:29:19.000Z</time>
      </trkpt>
      <trkpt lat="47.24707" lon="-1.89157">
        <ele>52</ele>
        <time>2020-12-20T12:29:21.000Z</time>
      </trkpt>
      <trkpt lat="47.247" lon="-1.89141">
        <ele>52</ele>
        <time>2020-12-20T12:29:23.000Z</time>
      </trkpt>
      <trkpt lat="47.24694" lon="-1.89125">
        <ele>52</ele>
        <time>2020-12-20T12:29:25.000Z</time>
      </trkpt>
      <trkpt lat="47.24688" lon="-1.8911">
        <ele>52</ele>
        <time>2020-12-20T12:29:27.000Z</time>
      </trkpt>
      <trkpt lat="47.24682" lon="-1.89094">
        <ele>52</ele>
        <time>2020-12-20T12:29:29.000Z</time>
      </trkpt>
      <trkpt lat="47.24676" lon="-1.89078">
        <ele>53</ele>
        <time>2020-12-20T12:29:31.000Z</time>
      </trkpt>
      <trkpt lat="47.24669" lon="-1.89062">
        <ele>53</ele>
        <time>2020-12-20T12:29:33.000Z</time>
      </trkpt>
      <trkpt lat="47.24663" lon="-1.89045">
        <ele>53</ele>
        <time>2020-12-20T12:29:35.000Z</time>
      </trkpt>
      <trkpt lat="47.24656" lon="-1.89029">
        <ele>53</ele>
        <time>2020-12-20T12:29:37.000Z</time>
      </trkpt>
      <trkpt lat="47.24649" lon="-1.89013">
        <ele>53</ele>
        <time>2020-12-20T12:29:39.000Z</time>
      </trkpt>
      <trkpt lat="47.24643" lon="-1.88997">
        <ele>52</ele>
        <time>2020-12-20T12:29:41.000Z</time>
      </trkpt>
      <trkpt lat="47.24636" lon="-1.88981">
        <ele>52</ele>
        <time>2020-12-20T12:29:43.000Z</time>
      </trkpt>
      <trkpt lat="47.2463" lon="-1.88965">
        <ele>52</ele>
        <time>2020-12-20T12:29:45.000Z</time>
      </trkpt>
      <trkpt lat="47.24623" lon="-1.88949">
        <ele>51</ele>
        <time>2020-12-20T12:29:47.000Z</time>
      </trkpt>
      <trkpt lat="47.24617" lon="-1.88932">
        <ele>52</ele>
        <time>2020-12-20T12:29:49.000Z</time>
      </trkpt>
      <trkpt lat="47.24611" lon="-1.88917">
        <ele>51</ele>
        <time>2020-12-20T12:29:51.000Z</time>
      </trkpt>
      <trkpt lat="47.24604" lon="-1.88901">
        <ele>51</ele>
        <time>2020-12-20T12:29:53.000Z</time>
      </trkpt>
      <trkpt lat="47.24598" lon="-1.88886">
        <ele>51</ele>
        <time>2020-12-20T12:29:55.000Z</time>
      </trkpt>
      <trkpt lat="47.24592" lon="-1.8887">
        <ele>51</ele>
        <time>2020-12-20T12:29:57.000Z</time>
      </trkpt>
      <trkpt lat="47.24586" lon="-1.88855">
        <ele>51</ele>
        <time>2020-12-20T12:29:59.000Z</time>
      </trkpt>
      <trkpt lat="47.24579" lon="-1.8884">
        <ele>51</ele>
        <time>2020-12-20T12:30:01.000Z</time>
      </trkpt>
      <trkpt lat="47.24573" lon="-1.88824">
        <ele>51</ele>
        <time>2020-12-20T12:30:03.000Z</time>
      </trkpt>
      <trkpt lat="47.24566" lon="-1.88808">
        <ele>51</ele>
        <time>2020-12-20T12:30:05.000Z</time>
      </trkpt>
      <trkpt lat="47.2456" lon="-1.88792">
        <ele>51</ele>
        <time>2020-12-20T12:30:07.000Z</time>
      </trkpt>
      <trkpt lat="47.24553" lon="-1.88777">
        <ele>52</ele>
        <time>2020-12-20T12:30:09.000Z</time>
      </trkpt>
      <trkpt lat="47.24547" lon="-1.88761">
        <ele>52</ele>
        <time>2020-12-20T12:30:11.000Z</time>
      </trkpt>
      <trkpt lat="47.2454" lon="-1.88745">
        <ele>52</ele>
        <time>2020-12-20T12:30:13.000Z</time>
      </trkpt>
      <trkpt lat="47.24534" lon="-1.88729">
        <ele>52</ele>
        <time>2020-12-20T12:30:15.000Z</time>
      </trkpt>
      <trkpt lat="47.24527" lon="-1.88712">
        <ele>52</ele>
        <time>2020-12-20T12:30:17.000Z</time>
      </trkpt>
      <trkpt lat="47.2452" lon="-1.88696">
        <ele>52</ele>
        <time>2020-12-20T12:30:19.000Z</time>
      </trkpt>
      <trkpt lat="47.24514" lon="-1.8868">
        <ele>52</ele>
        <time>2020-12-20T12:30:21.000Z</time>
      </trkpt>
      <trkpt lat="47.24507" lon="-1.88664">
        <ele>52</ele>
        <time>2020-12-20T12:30:23.000Z</time>
      </trkpt>
      <trkpt lat="47.24501" lon="-1.88648">
        <ele>52</ele>
        <time>2020-12-20T12:30:25.000Z</time>
      </trkpt>
      <trkpt lat="47.24494" lon="-1.88632">
        <ele>52</ele>
        <time>2020-12-20T12:30:27.000Z</time>
      </trkpt>
      <trkpt lat="47.24488" lon="-1.88616">
        <ele>52</ele>
        <time>2020-12-20T12:30:29.000Z</time>
      </trkpt>
      <trkpt lat="47.24481" lon="-1.886">
        <ele>52</ele>
        <time>2020-12-20T12:30:31.000Z</time>
      </trkpt>
      <trkpt lat="47.24474" lon="-1.88585">
        <ele>52</ele>
        <time>2020-12-20T12:30:33.000Z</time>
      </trkpt>
      <trkpt lat="47.24468" lon="-1.8857">
        <ele>52</ele>
        <time>2020-12-20T12:30:35.000Z</time>
      </trkpt>
      <trkpt lat="47.24461" lon="-1.88555">
        <ele>52</ele>
        <time>2020-12-20T12:30:37.000Z</time>
      </trkpt>
      <trkpt lat="47.24455" lon="-1.88539">
        <ele>52</ele>
        <time>2020-12-20T12:30:39.000Z</time>
      </trkpt>
      <trkpt lat="47.24448" lon="-1.88523">
        <ele>52</ele>
        <time>2020-12-20T12:30:41.000Z</time>
      </trkpt>
      <trkpt lat="47.24441" lon="-1.88508">
        <ele>52</ele>
        <time>2020-12-20T12:30:43.000Z</time>
      </trkpt>
      <trkpt lat="47.24434" lon="-1.88492">
        <ele>52</ele>
        <time>2020-12-20T12:30:45.000Z</time>
      </trkpt>
      <trkpt lat="47.24428" lon="-1.88476">
        <ele>52</ele>
        <time>2020-12-20T12:30:47.000Z</time>
      </trkpt>
      <trkpt lat="47.24421" lon="-1.8846">
        <ele>52</ele>
        <time>2020-12-20T12:30:49.000Z</time>
      </trkpt>
      <trkpt lat="47.24414" lon="-1.88445">
        <ele>52</ele>
        <time>2020-12-20T12:30:51.000Z</time>
      </trkpt>
      <trkpt lat="47.24407" lon="-1.88431">
        <ele>53</ele>
        <time>2020-12-20T12:30:53.000Z</time>
      </trkpt>
      <trkpt lat="47.24399" lon="-1.88415">
        <ele>52</ele>
        <time>2020-12-20T12:30:55.000Z</time>
      </trkpt>
      <trkpt lat="47.24393" lon="-1.884">
        <ele>52</ele>
        <time>2020-12-20T12:30:57.000Z</time>
      </trkpt>
      <trkpt lat="47.24386" lon="-1.88385">
        <ele>52</ele>
        <time>2020-12-20T12:30:59.000Z</time>
      </trkpt>
      <trkpt lat="47.24379" lon="-1.8837">
        <ele>52</ele>
        <time>2020-12-20T12:31:01.000Z</time>
      </trkpt>
      <trkpt lat="47.24371" lon="-1.88354">
        <ele>53</ele>
        <time>2020-12-20T12:31:03.000Z</time>
      </trkpt>
      <trkpt lat="47.24364" lon="-1.88339">
        <ele>52</ele>
        <time>2020-12-20T12:31:05.000Z</time>
      </trkpt>
      <trkpt lat="47.24357" lon="-1.88324">
        <ele>53</ele>
        <time>2020-12-20T12:31:07.000Z</time>
      </trkpt>
      <trkpt lat="47.2435" lon="-1.88308">
        <ele>53</ele>
        <time>2020-12-20T12:31:09.000Z</time>
      </trkpt>
      <trkpt lat="47.24342" lon="-1.88293">
        <ele>53</ele>
        <time>2020-12-20T12:31:11.000Z</time>
      </trkpt>
      <trkpt lat="47.24335" lon="-1.88279">
        <ele>53</ele>
        <time>2020-12-20T12:31:13.000Z</time>
      </trkpt>
      <trkpt lat="47.24328" lon="-1.88263">
        <ele>53</ele>
        <time>2020-12-20T12:31:15.000Z</time>
      </trkpt>
      <trkpt lat="47.2432" lon="-1.88248">
        <ele>53</ele>
        <time>2020-12-20T12:31:17.000Z</time>
      </trkpt>
      <trkpt lat="47.24313" lon="-1.88233">
        <ele>53</ele>
        <time>2020-12-20T12:31:19.000Z</time>
      </trkpt>
      <trkpt lat="47.24306" lon="-1.88217">
        <ele>53</ele>
        <time>2020-12-20T12:31:21.000Z</time>
      </trkpt>
      <trkpt lat="47.24299" lon="-1.88202">
        <ele>53</ele>
        <time>2020-12-20T12:31:23.000Z</time>
      </trkpt>
      <trkpt lat="47.24292" lon="-1.88187">
        <ele>53</ele>
        <time>2020-12-20T12:31:25.000Z</time>
      </trkpt>
      <trkpt lat="47.24284" lon="-1.88172">
        <ele>54</ele>
        <time>2020-12-20T12:31:27.000Z</time>
      </trkpt>
      <trkpt lat="47.24277" lon="-1.88157">
        <ele>53</ele>
        <time>2020-12-20T12:31:29.000Z</time>
      </trkpt>
      <trkpt lat="47.24269" lon="-1.88142">
        <ele>54</ele>
        <time>2020-12-20T12:31:31.000Z</time>
      </trkpt>
      <trkpt lat="47.24262" lon="-1.88127">
        <ele>54</ele>
        <time>2020-12-20T12:31:33.000Z</time>
      </trkpt>
      <trkpt lat="47.24254" lon="-1.88112">
        <ele>54</ele>
        <time>2020-12-20T12:31:35.000Z</time>
      </trkpt>
      <trkpt lat="47.24247" lon="-1.88097">
        <ele>54</ele>
        <time>2020-12-20T12:31:37.000Z</time>
      </trkpt>
      <trkpt lat="47.24239" lon="-1.88081">
        <ele>54</ele>
        <time>2020-12-20T12:31:39.000Z</time>
      </trkpt>
      <trkpt lat="47.24231" lon="-1.88066">
        <ele>54</ele>
        <time>2020-12-20T12:31:41.000Z</time>
      </trkpt>
      <trkpt lat="47.24223" lon="-1.8805">
        <ele>54</ele>
        <time>2020-12-20T12:31:43.000Z</time>
      </trkpt>
      <trkpt lat="47.24216" lon="-1.88035">
        <ele>54</ele>
        <time>2020-12-20T12:31:45.000Z</time>
      </trkpt>
      <trkpt lat="47.24208" lon="-1.8802">
        <ele>54</ele>
        <time>2020-12-20T12:31:47.000Z</time>
      </trkpt>
      <trkpt lat="47.24201" lon="-1.88004">
        <ele>53</ele>
        <time>2020-12-20T12:31:49.000Z</time>
      </trkpt>
      <trkpt lat="47.24193" lon="-1.87989">
        <ele>53</ele>
        <time>2020-12-20T12:31:51.000Z</time>
      </trkpt>
      <trkpt lat="47.24186" lon="-1.87974">
        <ele>54</ele>
        <time>2020-12-20T12:31:53.000Z</time>
      </trkpt>
      <trkpt lat="47.24178" lon="-1.87959">
        <ele>54</ele>
        <time>2020-12-20T12:31:55.000Z</time>
      </trkpt>
      <trkpt lat="47.2417" lon="-1.87944">
        <ele>53</ele>
        <time>2020-12-20T12:31:57.000Z</time>
      </trkpt>
      <trkpt lat="47.24162" lon="-1.87927">
        <ele>54</ele>
        <time>2020-12-20T12:31:59.000Z</time>
      </trkpt>
      <trkpt lat="47.24154" lon="-1.87911">
        <ele>53</ele>
        <time>2020-12-20T12:32:01.000Z</time>
      </trkpt>
      <trkpt lat="47.24146" lon="-1.87896">
        <ele>53</ele>
        <time>2020-12-20T12:32:03.000Z</time>
      </trkpt>
      <trkpt lat="47.24138" lon="-1.8788">
        <ele>53</ele>
        <time>2020-12-20T12:32:05.000Z</time>
      </trkpt>
      <trkpt lat="47.24131" lon="-1.87864">
        <ele>53</ele>
        <time>2020-12-20T12:32:07.000Z</time>
      </trkpt>
      <trkpt lat="47.24123" lon="-1.87849">
        <ele>53</ele>
        <time>2020-12-20T12:32:09.000Z</time>
      </trkpt>
      <trkpt lat="47.24115" lon="-1.87834">
        <ele>53</ele>
        <time>2020-12-20T12:32:11.000Z</time>
      </trkpt>
      <trkpt lat="47.24108" lon="-1.87819">
        <ele>53</ele>
        <time>2020-12-20T12:32:13.000Z</time>
      </trkpt>
      <trkpt lat="47.241" lon="-1.87804">
        <ele>53</ele>
        <time>2020-12-20T12:32:15.000Z</time>
      </trkpt>
      <trkpt lat="47.24093" lon="-1.87789">
        <ele>53</ele>
        <time>2020-12-20T12:32:17.000Z</time>
      </trkpt>
      <trkpt lat="47.24086" lon="-1.87774">
        <ele>53</ele>
        <time>2020-12-20T12:32:19.000Z</time>
      </trkpt>
      <trkpt lat="47.24079" lon="-1.87759">
        <ele>53</ele>
        <time>2020-12-20T12:32:21.000Z</time>
      </trkpt>
      <trkpt lat="47.24071" lon="-1.87744">
        <ele>53</ele>
        <time>2020-12-20T12:32:23.000Z</time>
      </trkpt>
      <trkpt lat="47.24064" lon="-1.8773">
        <ele>53</ele>
        <time>2020-12-20T12:32:25.000Z</time>
      </trkpt>
      <trkpt lat="47.24056" lon="-1.87715">
        <ele>53</ele>
        <time>2020-12-20T12:32:27.000Z</time>
      </trkpt>
      <trkpt lat="47.24048" lon="-1.877">
        <ele>54</ele>
        <time>2020-12-20T12:32:29.000Z</time>
      </trkpt>
      <trkpt lat="47.24041" lon="-1.87685">
        <ele>54</ele>
        <time>2020-12-20T12:32:31.000Z</time>
      </trkpt>
      <trkpt lat="47.24034" lon="-1.87669">
        <ele>54</ele>
        <time>2020-12-20T12:32:33.000Z</time>
      </trkpt>
      <trkpt lat="47.24026" lon="-1.87654">
        <ele>54</ele>
        <time>2020-12-20T12:32:35.000Z</time>
      </trkpt>
      <trkpt lat="47.24019" lon="-1.8764">
        <ele>54</ele>
        <time>2020-12-20T12:32:37.000Z</time>
      </trkpt>
      <trkpt lat="47.24011" lon="-1.87625">
        <ele>54</ele>
        <time>2020-12-20T12:32:39.000Z</time>
      </trkpt>
      <trkpt lat="47.24004" lon="-1.8761">
        <ele>54</ele>
        <time>2020-12-20T12:32:41.000Z</time>
      </trkpt>
      <trkpt lat="47.23997" lon="-1.87595">
        <ele>54</ele>
        <time>2020-12-20T12:32:43.000Z</time>
      </trkpt>
      <trkpt lat="47.23989" lon="-1.87581">
        <ele>54</ele>
        <time>2020-12-20T12:32:45.000Z</time>
      </trkpt>
      <trkpt lat="47.23982" lon="-1.87567">
        <ele>54</ele>
        <time>2020-12-20T12:32:47.000Z</time>
      </trkpt>
      <trkpt lat="47.23974" lon="-1.87552">
        <ele>54</ele>
        <time>2020-12-20T12:32:49.000Z</time>
      </trkpt>
      <trkpt lat="47.23966" lon="-1.87537">
        <ele>53</ele>
        <time>2020-12-20T12:32:51.000Z</time>
      </trkpt>
      <trkpt lat="47.23959" lon="-1.87523">
        <ele>53</ele>
        <time>2020-12-20T12:32:53.000Z</time>
      </trkpt>
      <trkpt lat="47.23952" lon="-1.87508">
        <ele>53</ele>
        <time>2020-12-20T12:32:55.000Z</time>
      </trkpt>
      <trkpt lat="47.23944" lon="-1.87493">
        <ele>53</ele>
        <time>2020-12-20T12:32:57.000Z</time>
      </trkpt>
      <trkpt lat="47.23936" lon="-1.87478">
        <ele>52</ele>
        <time>2020-12-20T12:32:59.000Z</time>
      </trkpt>
      <trkpt lat="47.23928" lon="-1.87462">
        <ele>53</ele>
        <time>2020-12-20T12:33:01.000Z</time>
      </trkpt>
      <trkpt lat="47.23921" lon="-1.87447">
        <ele>53</ele>
        <time>2020-12-20T12:33:03.000Z</time>
      </trkpt>
      <trkpt lat="47.23914" lon="-1.87431">
        <ele>53</ele>
        <time>2020-12-20T12:33:05.000Z</time>
      </trkpt>
      <trkpt lat="47.23906" lon="-1.87416">
        <ele>53</ele>
        <time>2020-12-20T12:33:07.000Z</time>
      </trkpt>
      <trkpt lat="47.23898" lon="-1.87401">
        <ele>53</ele>
        <time>2020-12-20T12:33:09.000Z</time>
      </trkpt>
      <trkpt lat="47.23891" lon="-1.87387">
        <ele>53</ele>
        <time>2020-12-20T12:33:11.000Z</time>
      </trkpt>
      <trkpt lat="47.23883" lon="-1.87372">
        <ele>53</ele>
        <time>2020-12-20T12:33:13.000Z</time>
      </trkpt>
      <trkpt lat="47.23877" lon="-1.87357">
        <ele>53</ele>
        <time>2020-12-20T12:33:15.000Z</time>
      </trkpt>
      <trkpt lat="47.2387" lon="-1.87342">
        <ele>53</ele>
        <time>2020-12-20T12:33:17.000Z</time>
      </trkpt>
      <trkpt lat="47.23863" lon="-1.87326">
        <ele>53</ele>
        <time>2020-12-20T12:33:19.000Z</time>
      </trkpt>
      <trkpt lat="47.23855" lon="-1.87311">
        <ele>53</ele>
        <time>2020-12-20T12:33:21.000Z</time>
      </trkpt>
      <trkpt lat="47.23848" lon="-1.87297">
        <ele>53</ele>
        <time>2020-12-20T12:33:23.000Z</time>
      </trkpt>
      <trkpt lat="47.23841" lon="-1.87283">
        <ele>53</ele>
        <time>2020-12-20T12:33:25.000Z</time>
      </trkpt>
      <trkpt lat="47.23835" lon="-1.87269">
        <ele>53</ele>
        <time>2020-12-20T12:33:27.000Z</time>
      </trkpt>
      <trkpt lat="47.2383" lon="-1.87255">
        <ele>53</ele>
        <time>2020-12-20T12:33:29.000Z</time>
      </trkpt>
      <trkpt lat="47.23825" lon="-1.87241">
        <ele>53</ele>
        <time>2020-12-20T12:33:31.000Z</time>
      </trkpt>
      <trkpt lat="47.23818" lon="-1.87227">
        <ele>53</ele>
        <time>2020-12-20T12:33:33.000Z</time>
      </trkpt>
      <trkpt lat="47.23814" lon="-1.87213">
        <ele>53</ele>
        <time>2020-12-20T12:33:35.000Z</time>
      </trkpt>
      <trkpt lat="47.23815" lon="-1.87196">
        <ele>53</ele>
        <time>2020-12-20T12:33:37.000Z</time>
      </trkpt>
      <trkpt lat="47.23825" lon="-1.87183">
        <ele>53</ele>
        <time>2020-12-20T12:33:39.000Z</time>
      </trkpt>
      <trkpt lat="47.23835" lon="-1.87173">
        <ele>53</ele>
        <time>2020-12-20T12:33:41.000Z</time>
      </trkpt>
      <trkpt lat="47.23844" lon="-1.87163">
        <ele>52</ele>
        <time>2020-12-20T12:33:43.000Z</time>
      </trkpt>
      <trkpt lat="47.23851" lon="-1.87151">
        <ele>52</ele>
        <time>2020-12-20T12:33:45.000Z</time>
      </trkpt>
      <trkpt lat="47.23853" lon="-1.87135">
        <ele>52</ele>
        <time>2020-12-20T12:33:47.000Z</time>
      </trkpt>
      <trkpt lat="47.23848" lon="-1.8712">
        <ele>52</ele>
        <time>2020-12-20T12:33:49.000Z</time>
      </trkpt>
      <trkpt lat="47.23841" lon="-1.87106">
        <ele>53</ele>
        <time>2020-12-20T12:33:51.000Z</time>
      </trkpt>
      <trkpt lat="47.23834" lon="-1.8709">
        <ele>54</ele>
        <time>2020-12-20T12:33:53.000Z</time>
      </trkpt>
      <trkpt lat="47.23826" lon="-1.87076">
        <ele>54</ele>
        <time>2020-12-20T12:33:55.000Z</time>
      </trkpt>
      <trkpt lat="47.23819" lon="-1.87062">
        <ele>54</ele>
        <time>2020-12-20T12:33:57.000Z</time>
      </trkpt>
      <trkpt lat="47.23813" lon="-1.87049">
        <ele>54</ele>
        <time>2020-12-20T12:33:59.000Z</time>
      </trkpt>
      <trkpt lat="47.23806" lon="-1.87035">
        <ele>54</ele>
        <time>2020-12-20T12:34:01.000Z</time>
      </trkpt>
      <trkpt lat="47.23799" lon="-1.87022">
        <ele>54</ele>
        <time>2020-12-20T12:34:03.000Z</time>
      </trkpt>
      <trkpt lat="47.23795" lon="-1.87006">
        <ele>54</ele>
        <time>2020-12-20T12:34:05.000Z</time>
      </trkpt>
      <trkpt lat="47.23792" lon="-1.86989">
        <ele>54</ele>
        <time>2020-12-20T12:34:07.000Z</time>
      </trkpt>
      <trkpt lat="47.23788" lon="-1.86972">
        <ele>54</ele>
        <time>2020-12-20T12:34:09.000Z</time>
      </trkpt>
      <trkpt lat="47.23782" lon="-1.86956">
        <ele>54</ele>
        <time>2020-12-20T12:34:11.000Z</time>
      </trkpt>
      <trkpt lat="47.23775" lon="-1.8694">
        <ele>54</ele>
        <time>2020-12-20T12:34:13.000Z</time>
      </trkpt>
      <trkpt lat="47.23768" lon="-1.86925">
        <ele>53</ele>
        <time>2020-12-20T12:34:15.000Z</time>
      </trkpt>
      <trkpt lat="47.23761" lon="-1.86911">
        <ele>53</ele>
        <time>2020-12-20T12:34:17.000Z</time>
      </trkpt>
      <trkpt lat="47.23754" lon="-1.86896">
        <ele>53</ele>
        <time>2020-12-20T12:34:19.000Z</time>
      </trkpt>
      <trkpt lat="47.23746" lon="-1.86881">
        <ele>53</ele>
        <time>2020-12-20T12:34:21.000Z</time>
      </trkpt>
      <trkpt lat="47.23739" lon="-1.86867">
        <ele>53</ele>
        <time>2020-12-20T12:34:23.000Z</time>
      </trkpt>
      <trkpt lat="47.23732" lon="-1.86852">
        <ele>53</ele>
        <time>2020-12-20T12:34:25.000Z</time>
      </trkpt>
      <trkpt lat="47.23725" lon="-1.86837">
        <ele>53</ele>
        <time>2020-12-20T12:34:27.000Z</time>
      </trkpt>
      <trkpt lat="47.23718" lon="-1.86823">
        <ele>53</ele>
        <time>2020-12-20T12:34:29.000Z</time>
      </trkpt>
      <trkpt lat="47.2371" lon="-1.86808">
        <ele>53</ele>
        <time>2020-12-20T12:34:31.000Z</time>
      </trkpt>
      <trkpt lat="47.23703" lon="-1.86793">
        <ele>53</ele>
        <time>2020-12-20T12:34:33.000Z</time>
      </trkpt>
      <trkpt lat="47.23696" lon="-1.86778">
        <ele>53</ele>
        <time>2020-12-20T12:34:35.000Z</time>
      </trkpt>
      <trkpt lat="47.23689" lon="-1.86763">
        <ele>53</ele>
        <time>2020-12-20T12:34:37.000Z</time>
      </trkpt>
      <trkpt lat="47.23681" lon="-1.86749">
        <ele>53</ele>
        <time>2020-12-20T12:34:39.000Z</time>
      </trkpt>
      <trkpt lat="47.23674" lon="-1.86734">
        <ele>53</ele>
        <time>2020-12-20T12:34:41.000Z</time>
      </trkpt>
      <trkpt lat="47.23666" lon="-1.86718">
        <ele>53</ele>
        <time>2020-12-20T12:34:43.000Z</time>
      </trkpt>
      <trkpt lat="47.23659" lon="-1.86704">
        <ele>53</ele>
        <time>2020-12-20T12:34:45.000Z</time>
      </trkpt>
      <trkpt lat="47.23652" lon="-1.86688">
        <ele>53</ele>
        <time>2020-12-20T12:34:47.000Z</time>
      </trkpt>
      <trkpt lat="47.23645" lon="-1.86673">
        <ele>53</ele>
        <time>2020-12-20T12:34:49.000Z</time>
      </trkpt>
      <trkpt lat="47.23637" lon="-1.86658">
        <ele>53</ele>
        <time>2020-12-20T12:34:51.000Z</time>
      </trkpt>
      <trkpt lat="47.2363" lon="-1.86643">
        <ele>53</ele>
        <time>2020-12-20T12:34:53.000Z</time>
      </trkpt>
      <trkpt lat="47.23622" lon="-1.86628">
        <ele>53</ele>
        <time>2020-12-20T12:34:55.000Z</time>
      </trkpt>
      <trkpt lat="47.23614" lon="-1.86613">
        <ele>53</ele>
        <time>2020-12-20T12:34:57.000Z</time>
      </trkpt>
      <trkpt lat="47.23607" lon="-1.86598">
        <ele>53</ele>
        <time>2020-12-20T12:34:59.000Z</time>
      </trkpt>
      <trkpt lat="47.236" lon="-1.86583">
        <ele>53</ele>
        <time>2020-12-20T12:35:01.000Z</time>
      </trkpt>
      <trkpt lat="47.23593" lon="-1.86568">
        <ele>53</ele>
        <time>2020-12-20T12:35:03.000Z</time>
      </trkpt>
      <trkpt lat="47.23585" lon="-1.86553">
        <ele>52</ele>
        <time>2020-12-20T12:35:05.000Z</time>
      </trkpt>
      <trkpt lat="47.23578" lon="-1.86539">
        <ele>52</ele>
        <time>2020-12-20T12:35:07.000Z</time>
      </trkpt>
      <trkpt lat="47.23571" lon="-1.86525">
        <ele>52</ele>
        <time>2020-12-20T12:35:09.000Z</time>
      </trkpt>
      <trkpt lat="47.23564" lon="-1.86511">
        <ele>52</ele>
        <time>2020-12-20T12:35:11.000Z</time>
      </trkpt>
      <trkpt lat="47.23556" lon="-1.86496">
        <ele>52</ele>
        <time>2020-12-20T12:35:13.000Z</time>
      </trkpt>
      <trkpt lat="47.23549" lon="-1.86482">
        <ele>51</ele>
        <time>2020-12-20T12:35:15.000Z</time>
      </trkpt>
      <trkpt lat="47.23542" lon="-1.86467">
        <ele>51</ele>
        <time>2020-12-20T12:35:17.000Z</time>
      </trkpt>
      <trkpt lat="47.23535" lon="-1.86452">
        <ele>52</ele>
        <time>2020-12-20T12:35:19.000Z</time>
      </trkpt>
      <trkpt lat="47.23528" lon="-1.86438">
        <ele>52</ele>
        <time>2020-12-20T12:35:21.000Z</time>
      </trkpt>
      <trkpt lat="47.23521" lon="-1.86424">
        <ele>52</ele>
        <time>2020-12-20T12:35:23.000Z</time>
      </trkpt>
      <trkpt lat="47.23513" lon="-1.86409">
        <ele>52</ele>
        <time>2020-12-20T12:35:25.000Z</time>
      </trkpt>
      <trkpt lat="47.23507" lon="-1.86395">
        <ele>52</ele>
        <time>2020-12-20T12:35:27.000Z</time>
      </trkpt>
      <trkpt lat="47.23499" lon="-1.86381">
        <ele>52</ele>
        <time>2020-12-20T12:35:29.000Z</time>
      </trkpt>
      <trkpt lat="47.23492" lon="-1.86367">
        <ele>52</ele>
        <time>2020-12-20T12:35:31.000Z</time>
      </trkpt>
      <trkpt lat="47.23485" lon="-1.86352">
        <ele>52</ele>
        <time>2020-12-20T12:35:33.000Z</time>
      </trkpt>
      <trkpt lat="47.23477" lon="-1.86337">
        <ele>53</ele>
        <time>2020-12-20T12:35:35.000Z</time>
      </trkpt>
      <trkpt lat="47.2347" lon="-1.86322">
        <ele>53</ele>
        <time>2020-12-20T12:35:37.000Z</time>
      </trkpt>
      <trkpt lat="47.23462" lon="-1.86308">
        <ele>53</ele>
        <time>2020-12-20T12:35:39.000Z</time>
      </trkpt>
      <trkpt lat="47.23455" lon="-1.86293">
        <ele>53</ele>
        <time>2020-12-20T12:35:41.000Z</time>
      </trkpt>
      <trkpt lat="47.23447" lon="-1.86277">
        <ele>53</ele>
        <time>2020-12-20T12:35:43.000Z</time>
      </trkpt>
      <trkpt lat="47.23439" lon="-1.86262">
        <ele>53</ele>
        <time>2020-12-20T12:35:45.000Z</time>
      </trkpt>
      <trkpt lat="47.23432" lon="-1.86247">
        <ele>54</ele>
        <time>2020-12-20T12:35:47.000Z</time>
      </trkpt>
      <trkpt lat="47.23425" lon="-1.86232">
        <ele>53</ele>
        <time>2020-12-20T12:35:49.000Z</time>
      </trkpt>
      <trkpt lat="47.23418" lon="-1.86217">
        <ele>53</ele>
        <time>2020-12-20T12:35:51.000Z</time>
      </trkpt>
      <trkpt lat="47.2341" lon="-1.86202">
        <ele>53</ele>
        <time>2020-12-20T12:35:53.000Z</time>
      </trkpt>
      <trkpt lat="47.23403" lon="-1.86187">
        <ele>53</ele>
        <time>2020-12-20T12:35:55.000Z</time>
      </trkpt>
      <trkpt lat="47.23396" lon="-1.86173">
        <ele>53</ele>
        <time>2020-12-20T12:35:57.000Z</time>
      </trkpt>
      <trkpt lat="47.23389" lon="-1.86158">
        <ele>53</ele>
        <time>2020-12-20T12:35:59.000Z</time>
      </trkpt>
      <trkpt lat="47.23382" lon="-1.86144">
        <ele>53</ele>
        <time>2020-12-20T12:36:01.000Z</time>
      </trkpt>
      <trkpt lat="47.23374" lon="-1.8613">
        <ele>53</ele>
        <time>2020-12-20T12:36:03.000Z</time>
      </trkpt>
      <trkpt lat="47.23368" lon="-1.86116">
        <ele>53</ele>
        <time>2020-12-20T12:36:05.000Z</time>
      </trkpt>
      <trkpt lat="47.2336" lon="-1.86102">
        <ele>53</ele>
        <time>2020-12-20T12:36:07.000Z</time>
      </trkpt>
      <trkpt lat="47.23353" lon="-1.86088">
        <ele>53</ele>
        <time>2020-12-20T12:36:09.000Z</time>
      </trkpt>
      <trkpt lat="47.23346" lon="-1.86073">
        <ele>53</ele>
        <time>2020-12-20T12:36:11.000Z</time>
      </trkpt>
      <trkpt lat="47.23339" lon="-1.86059">
        <ele>53</ele>
        <time>2020-12-20T12:36:13.000Z</time>
      </trkpt>
      <trkpt lat="47.23331" lon="-1.86045">
        <ele>53</ele>
        <time>2020-12-20T12:36:15.000Z</time>
      </trkpt>
      <trkpt lat="47.23324" lon="-1.8603">
        <ele>53</ele>
        <time>2020-12-20T12:36:17.000Z</time>
      </trkpt>
      <trkpt lat="47.23317" lon="-1.86015">
        <ele>53</ele>
        <time>2020-12-20T12:36:19.000Z</time>
      </trkpt>
      <trkpt lat="47.2331" lon="-1.86001">
        <ele>54</ele>
        <time>2020-12-20T12:36:21.000Z</time>
      </trkpt>
      <trkpt lat="47.23303" lon="-1.85987">
        <ele>54</ele>
        <time>2020-12-20T12:36:23.000Z</time>
      </trkpt>
      <trkpt lat="47.23295" lon="-1.85972">
        <ele>54</ele>
        <time>2020-12-20T12:36:25.000Z</time>
      </trkpt>
      <trkpt lat="47.23288" lon="-1.85958">
        <ele>54</ele>
        <time>2020-12-20T12:36:27.000Z</time>
      </trkpt>
      <trkpt lat="47.2328" lon="-1.85943">
        <ele>54</ele>
        <time>2020-12-20T12:36:29.000Z</time>
      </trkpt>
      <trkpt lat="47.23273" lon="-1.85929">
        <ele>54</ele>
        <time>2020-12-20T12:36:31.000Z</time>
      </trkpt>
      <trkpt lat="47.23266" lon="-1.85914">
        <ele>53</ele>
        <time>2020-12-20T12:36:33.000Z</time>
      </trkpt>
      <trkpt lat="47.23258" lon="-1.859">
        <ele>54</ele>
        <time>2020-12-20T12:36:35.000Z</time>
      </trkpt>
      <trkpt lat="47.23251" lon="-1.85884">
        <ele>54</ele>
        <time>2020-12-20T12:36:37.000Z</time>
      </trkpt>
      <trkpt lat="47.23244" lon="-1.85869">
        <ele>54</ele>
        <time>2020-12-20T12:36:39.000Z</time>
      </trkpt>
      <trkpt lat="47.23237" lon="-1.85854">
        <ele>54</ele>
        <time>2020-12-20T12:36:41.000Z</time>
      </trkpt>
      <trkpt lat="47.23229" lon="-1.8584">
        <ele>54</ele>
        <time>2020-12-20T12:36:43.000Z</time>
      </trkpt>
      <trkpt lat="47.23222" lon="-1.85826">
        <ele>54</ele>
        <time>2020-12-20T12:36:45.000Z</time>
      </trkpt>
      <trkpt lat="47.23215" lon="-1.8581">
        <ele>54</ele>
        <time>2020-12-20T12:36:47.000Z</time>
      </trkpt>
      <trkpt lat="47.23207" lon="-1.85795">
        <ele>55</ele>
        <time>2020-12-20T12:36:49.000Z</time>
      </trkpt>
      <trkpt lat="47.232" lon="-1.8578">
        <ele>55</ele>
        <time>2020-12-20T12:36:51.000Z</time>
      </trkpt>
      <trkpt lat="47.23193" lon="-1.85765">
        <ele>55</ele>
        <time>2020-12-20T12:36:53.000Z</time>
      </trkpt>
      <trkpt lat="47.23186" lon="-1.8575">
        <ele>55</ele>
        <time>2020-12-20T12:36:55.000Z</time>
      </trkpt>
      <trkpt lat="47.23178" lon="-1.85734">
        <ele>55</ele>
        <time>2020-12-20T12:36:57.000Z</time>
      </trkpt>
      <trkpt lat="47.2317" lon="-1.8572">
        <ele>55</ele>
        <time>2020-12-20T12:36:59.000Z</time>
      </trkpt>
      <trkpt lat="47.23163" lon="-1.85705">
        <ele>55</ele>
        <time>2020-12-20T12:37:01.000Z</time>
      </trkpt>
      <trkpt lat="47.23156" lon="-1.8569">
        <ele>55</ele>
        <time>2020-12-20T12:37:03.000Z</time>
      </trkpt>
      <trkpt lat="47.23149" lon="-1.85675">
        <ele>56</ele>
        <time>2020-12-20T12:37:05.000Z</time>
      </trkpt>
      <trkpt lat="47.23142" lon="-1.8566">
        <ele>56</ele>
        <time>2020-12-20T12:37:07.000Z</time>
      </trkpt>
      <trkpt lat="47.23134" lon="-1.85646">
        <ele>56</ele>
        <time>2020-12-20T12:37:09.000Z</time>
      </trkpt>
      <trkpt lat="47.23126" lon="-1.85632">
        <ele>55</ele>
        <time>2020-12-20T12:37:11.000Z</time>
      </trkpt>
      <trkpt lat="47.23119" lon="-1.85617">
        <ele>55</ele>
        <time>2020-12-20T12:37:13.000Z</time>
      </trkpt>
      <trkpt lat="47.23111" lon="-1.85603">
        <ele>55</ele>
        <time>2020-12-20T12:37:15.000Z</time>
      </trkpt>
      <trkpt lat="47.23104" lon="-1.85588">
        <ele>55</ele>
        <time>2020-12-20T12:37:17.000Z</time>
      </trkpt>
      <trkpt lat="47.23097" lon="-1.85573">
        <ele>55</ele>
        <time>2020-12-20T12:37:19.000Z</time>
      </trkpt>
      <trkpt lat="47.2309" lon="-1.85559">
        <ele>54</ele>
        <time>2020-12-20T12:37:21.000Z</time>
      </trkpt>
      <trkpt lat="47.23083" lon="-1.85544">
        <ele>54</ele>
        <time>2020-12-20T12:37:23.000Z</time>
      </trkpt>
      <trkpt lat="47.23076" lon="-1.85528">
        <ele>54</ele>
        <time>2020-12-20T12:37:25.000Z</time>
      </trkpt>
      <trkpt lat="47.23068" lon="-1.85514">
        <ele>54</ele>
        <time>2020-12-20T12:37:27.000Z</time>
      </trkpt>
      <trkpt lat="47.23061" lon="-1.855">
        <ele>54</ele>
        <time>2020-12-20T12:37:29.000Z</time>
      </trkpt>
      <trkpt lat="47.23053" lon="-1.85486">
        <ele>55</ele>
        <time>2020-12-20T12:37:31.000Z</time>
      </trkpt>
      <trkpt lat="47.23046" lon="-1.85472">
        <ele>55</ele>
        <time>2020-12-20T12:37:33.000Z</time>
      </trkpt>
      <trkpt lat="47.23038" lon="-1.85457">
        <ele>55</ele>
        <time>2020-12-20T12:37:35.000Z</time>
      </trkpt>
      <trkpt lat="47.23031" lon="-1.85443">
        <ele>54</ele>
        <time>2020-12-20T12:37:37.000Z</time>
      </trkpt>
      <trkpt lat="47.23024" lon="-1.85428">
        <ele>55</ele>
        <time>2020-12-20T12:37:39.000Z</time>
      </trkpt>
      <trkpt lat="47.23017" lon="-1.85414">
        <ele>55</ele>
        <time>2020-12-20T12:37:41.000Z</time>
      </trkpt>
      <trkpt lat="47.2301" lon="-1.85398">
        <ele>55</ele>
        <time>2020-12-20T12:37:43.000Z</time>
      </trkpt>
      <trkpt lat="47.23003" lon="-1.85383">
        <ele>54</ele>
        <time>2020-12-20T12:37:45.000Z</time>
      </trkpt>
      <trkpt lat="47.22995" lon="-1.85369">
        <ele>55</ele>
        <time>2020-12-20T12:37:47.000Z</time>
      </trkpt>
      <trkpt lat="47.22988" lon="-1.85354">
        <ele>55</ele>
        <time>2020-12-20T12:37:49.000Z</time>
      </trkpt>
      <trkpt lat="47.2298" lon="-1.8534">
        <ele>55</ele>
        <time>2020-12-20T12:37:51.000Z</time>
      </trkpt>
      <trkpt lat="47.22973" lon="-1.85325">
        <ele>55</ele>
        <time>2020-12-20T12:37:53.000Z</time>
      </trkpt>
      <trkpt lat="47.22966" lon="-1.85311">
        <ele>55</ele>
        <time>2020-12-20T12:37:55.000Z</time>
      </trkpt>
      <trkpt lat="47.22958" lon="-1.85296">
        <ele>55</ele>
        <time>2020-12-20T12:37:57.000Z</time>
      </trkpt>
      <trkpt lat="47.22951" lon="-1.85282">
        <ele>55</ele>
        <time>2020-12-20T12:37:59.000Z</time>
      </trkpt>
      <trkpt lat="47.22944" lon="-1.85268">
        <ele>55</ele>
        <time>2020-12-20T12:38:01.000Z</time>
      </trkpt>
      <trkpt lat="47.22936" lon="-1.85253">
        <ele>55</ele>
        <time>2020-12-20T12:38:03.000Z</time>
      </trkpt>
      <trkpt lat="47.22929" lon="-1.85239">
        <ele>55</ele>
        <time>2020-12-20T12:38:05.000Z</time>
      </trkpt>
      <trkpt lat="47.22922" lon="-1.85224">
        <ele>55</ele>
        <time>2020-12-20T12:38:07.000Z</time>
      </trkpt>
      <trkpt lat="47.22915" lon="-1.8521">
        <ele>55</ele>
        <time>2020-12-20T12:38:09.000Z</time>
      </trkpt>
      <trkpt lat="47.22907" lon="-1.85195">
        <ele>54</ele>
        <time>2020-12-20T12:38:11.000Z</time>
      </trkpt>
      <trkpt lat="47.229" lon="-1.85181">
        <ele>55</ele>
        <time>2020-12-20T12:38:13.000Z</time>
      </trkpt>
      <trkpt lat="47.22893" lon="-1.85166">
        <ele>54</ele>
        <time>2020-12-20T12:38:15.000Z</time>
      </trkpt>
      <trkpt lat="47.22886" lon="-1.85151">
        <ele>55</ele>
        <time>2020-12-20T12:38:17.000Z</time>
      </trkpt>
      <trkpt lat="47.22878" lon="-1.85136">
        <ele>55</ele>
        <time>2020-12-20T12:38:19.000Z</time>
      </trkpt>
      <trkpt lat="47.22871" lon="-1.85121">
        <ele>54</ele>
        <time>2020-12-20T12:38:21.000Z</time>
      </trkpt>
      <trkpt lat="47.22864" lon="-1.85107">
        <ele>54</ele>
        <time>2020-12-20T12:38:23.000Z</time>
      </trkpt>
      <trkpt lat="47.22856" lon="-1.85091">
        <ele>54</ele>
        <time>2020-12-20T12:38:25.000Z</time>
      </trkpt>
      <trkpt lat="47.22849" lon="-1.85077">
        <ele>54</ele>
        <time>2020-12-20T12:38:27.000Z</time>
      </trkpt>
      <trkpt lat="47.22842" lon="-1.85064">
        <ele>54</ele>
        <time>2020-12-20T12:38:29.000Z</time>
      </trkpt>
      <trkpt lat="47.22834" lon="-1.85049">
        <ele>54</ele>
        <time>2020-12-20T12:38:31.000Z</time>
      </trkpt>
      <trkpt lat="47.22827" lon="-1.85034">
        <ele>54</ele>
        <time>2020-12-20T12:38:33.000Z</time>
      </trkpt>
      <trkpt lat="47.2282" lon="-1.8502">
        <ele>54</ele>
        <time>2020-12-20T12:38:35.000Z</time>
      </trkpt>
      <trkpt lat="47.22813" lon="-1.85006">
        <ele>54</ele>
        <time>2020-12-20T12:38:37.000Z</time>
      </trkpt>
      <trkpt lat="47.22806" lon="-1.84992">
        <ele>54</ele>
        <time>2020-12-20T12:38:39.000Z</time>
      </trkpt>
      <trkpt lat="47.22799" lon="-1.84978">
        <ele>54</ele>
        <time>2020-12-20T12:38:41.000Z</time>
      </trkpt>
      <trkpt lat="47.22793" lon="-1.84964">
        <ele>54</ele>
        <time>2020-12-20T12:38:43.000Z</time>
      </trkpt>
      <trkpt lat="47.22786" lon="-1.8495">
        <ele>54</ele>
        <time>2020-12-20T12:38:45.000Z</time>
      </trkpt>
      <trkpt lat="47.22779" lon="-1.84937">
        <ele>54</ele>
        <time>2020-12-20T12:38:47.000Z</time>
      </trkpt>
      <trkpt lat="47.22771" lon="-1.84922">
        <ele>54</ele>
        <time>2020-12-20T12:38:49.000Z</time>
      </trkpt>
      <trkpt lat="47.22764" lon="-1.84907">
        <ele>54</ele>
        <time>2020-12-20T12:38:51.000Z</time>
      </trkpt>
      <trkpt lat="47.22757" lon="-1.84893">
        <ele>53</ele>
        <time>2020-12-20T12:38:53.000Z</time>
      </trkpt>
      <trkpt lat="47.2275" lon="-1.84879">
        <ele>53</ele>
        <time>2020-12-20T12:38:55.000Z</time>
      </trkpt>
      <trkpt lat="47.22744" lon="-1.84865">
        <ele>54</ele>
        <time>2020-12-20T12:38:57.000Z</time>
      </trkpt>
      <trkpt lat="47.22737" lon="-1.8485">
        <ele>53</ele>
        <time>2020-12-20T12:38:59.000Z</time>
      </trkpt>
      <trkpt lat="47.2273" lon="-1.84835">
        <ele>54</ele>
        <time>2020-12-20T12:39:01.000Z</time>
      </trkpt>
      <trkpt lat="47.22722" lon="-1.84821">
        <ele>54</ele>
        <time>2020-12-20T12:39:03.000Z</time>
      </trkpt>
      <trkpt lat="47.22715" lon="-1.84807">
        <ele>54</ele>
        <time>2020-12-20T12:39:05.000Z</time>
      </trkpt>
      <trkpt lat="47.22707" lon="-1.84792">
        <ele>54</ele>
        <time>2020-12-20T12:39:07.000Z</time>
      </trkpt>
      <trkpt lat="47.227" lon="-1.84776">
        <ele>55</ele>
        <time>2020-12-20T12:39:09.000Z</time>
      </trkpt>
      <trkpt lat="47.22693" lon="-1.84762">
        <ele>55</ele>
        <time>2020-12-20T12:39:11.000Z</time>
      </trkpt>
      <trkpt lat="47.22685" lon="-1.84747">
        <ele>55</ele>
        <time>2020-12-20T12:39:13.000Z</time>
      </trkpt>
      <trkpt lat="47.22678" lon="-1.84733">
        <ele>55</ele>
        <time>2020-12-20T12:39:15.000Z</time>
      </trkpt>
      <trkpt lat="47.2267" lon="-1.84718">
        <ele>54</ele>
        <time>2020-12-20T12:39:17.000Z</time>
      </trkpt>
      <trkpt lat="47.22663" lon="-1.84703">
        <ele>55</ele>
        <time>2020-12-20T12:39:19.000Z</time>
      </trkpt>
      <trkpt lat="47.22655" lon="-1.84687">
        <ele>55</ele>
        <time>2020-12-20T12:39:21.000Z</time>
      </trkpt>
      <trkpt lat="47.22647" lon="-1.84672">
        <ele>54</ele>
        <time>2020-12-20T12:39:23.000Z</time>
      </trkpt>
      <trkpt lat="47.22639" lon="-1.84655">
        <ele>55</ele>
        <time>2020-12-20T12:39:25.000Z</time>
      </trkpt>
      <trkpt lat="47.22632" lon="-1.8464">
        <ele>55</ele>
        <time>2020-12-20T12:39:27.000Z</time>
      </trkpt>
      <trkpt lat="47.22624" lon="-1.84625">
        <ele>55</ele>
        <time>2020-12-20T12:39:29.000Z</time>
      </trkpt>
      <trkpt lat="47.22616" lon="-1.84609">
        <ele>55</ele>
        <time>2020-12-20T12:39:31.000Z</time>
      </trkpt>
      <trkpt lat="47.22609" lon="-1.84596">
        <ele>55</ele>
        <time>2020-12-20T12:39:33.000Z</time>
      </trkpt>
      <trkpt lat="47.22602" lon="-1.8458">
        <ele>54</ele>
        <time>2020-12-20T12:39:35.000Z</time>
      </trkpt>
      <trkpt lat="47.22594" lon="-1.84564">
        <ele>54</ele>
        <time>2020-12-20T12:39:37.000Z</time>
      </trkpt>
      <trkpt lat="47.22587" lon="-1.8455">
        <ele>55</ele>
        <time>2020-12-20T12:39:39.000Z</time>
      </trkpt>
      <trkpt lat="47.2258" lon="-1.84535">
        <ele>55</ele>
        <time>2020-12-20T12:39:41.000Z</time>
      </trkpt>
      <trkpt lat="47.22573" lon="-1.8452">
        <ele>54</ele>
        <time>2020-12-20T12:39:43.000Z</time>
      </trkpt>
      <trkpt lat="47.22565" lon="-1.84505">
        <ele>54</ele>
        <time>2020-12-20T12:39:45.000Z</time>
      </trkpt>
      <trkpt lat="47.22557" lon="-1.84491">
        <ele>54</ele>
        <time>2020-12-20T12:39:47.000Z</time>
      </trkpt>
      <trkpt lat="47.2255" lon="-1.84477">
        <ele>55</ele>
        <time>2020-12-20T12:39:49.000Z</time>
      </trkpt>
      <trkpt lat="47.22543" lon="-1.84463">
        <ele>55</ele>
        <time>2020-12-20T12:39:51.000Z</time>
      </trkpt>
      <trkpt lat="47.22536" lon="-1.84448">
        <ele>55</ele>
        <time>2020-12-20T12:39:53.000Z</time>
      </trkpt>
      <trkpt lat="47.22528" lon="-1.84434">
        <ele>55</ele>
        <time>2020-12-20T12:39:55.000Z</time>
      </trkpt>
      <trkpt lat="47.22521" lon="-1.8442">
        <ele>55</ele>
        <time>2020-12-20T12:39:57.000Z</time>
      </trkpt>
      <trkpt lat="47.22513" lon="-1.84405">
        <ele>55</ele>
        <time>2020-12-20T12:39:59.000Z</time>
      </trkpt>
      <trkpt lat="47.22507" lon="-1.84391">
        <ele>55</ele>
        <time>2020-12-20T12:40:01.000Z</time>
      </trkpt>
      <trkpt lat="47.22499" lon="-1.84377">
        <ele>55</ele>
        <time>2020-12-20T12:40:03.000Z</time>
      </trkpt>
      <trkpt lat="47.22492" lon="-1.84362">
        <ele>55</ele>
        <time>2020-12-20T12:40:05.000Z</time>
      </trkpt>
      <trkpt lat="47.22485" lon="-1.84347">
        <ele>55</ele>
        <time>2020-12-20T12:40:07.000Z</time>
      </trkpt>
      <trkpt lat="47.22478" lon="-1.84331">
        <ele>55</ele>
        <time>2020-12-20T12:40:09.000Z</time>
      </trkpt>
      <trkpt lat="47.2247" lon="-1.84317">
        <ele>55</ele>
        <time>2020-12-20T12:40:11.000Z</time>
      </trkpt>
      <trkpt lat="47.22463" lon="-1.84302">
        <ele>55</ele>
        <time>2020-12-20T12:40:13.000Z</time>
      </trkpt>
      <trkpt lat="47.22456" lon="-1.84287">
        <ele>55</ele>
        <time>2020-12-20T12:40:15.000Z</time>
      </trkpt>
      <trkpt lat="47.22449" lon="-1.84273">
        <ele>55</ele>
        <time>2020-12-20T12:40:17.000Z</time>
      </trkpt>
      <trkpt lat="47.22443" lon="-1.84259">
        <ele>55</ele>
        <time>2020-12-20T12:40:19.000Z</time>
      </trkpt>
      <trkpt lat="47.22436" lon="-1.84244">
        <ele>55</ele>
        <time>2020-12-20T12:40:21.000Z</time>
      </trkpt>
      <trkpt lat="47.22429" lon="-1.8423">
        <ele>55</ele>
        <time>2020-12-20T12:40:23.000Z</time>
      </trkpt>
      <trkpt lat="47.22422" lon="-1.84216">
        <ele>55</ele>
        <time>2020-12-20T12:40:25.000Z</time>
      </trkpt>
      <trkpt lat="47.22415" lon="-1.84201">
        <ele>55</ele>
        <time>2020-12-20T12:40:27.000Z</time>
      </trkpt>
      <trkpt lat="47.22408" lon="-1.84187">
        <ele>55</ele>
        <time>2020-12-20T12:40:29.000Z</time>
      </trkpt>
      <trkpt lat="47.22401" lon="-1.84172">
        <ele>55</ele>
        <time>2020-12-20T12:40:31.000Z</time>
      </trkpt>
      <trkpt lat="47.22393" lon="-1.84159">
        <ele>55</ele>
        <time>2020-12-20T12:40:33.000Z</time>
      </trkpt>
      <trkpt lat="47.22386" lon="-1.84145">
        <ele>55</ele>
        <time>2020-12-20T12:40:35.000Z</time>
      </trkpt>
      <trkpt lat="47.22379" lon="-1.8413">
        <ele>55</ele>
        <time>2020-12-20T12:40:37.000Z</time>
      </trkpt>
      <trkpt lat="47.22371" lon="-1.84115">
        <ele>55</ele>
        <time>2020-12-20T12:40:39.000Z</time>
      </trkpt>
      <trkpt lat="47.22363" lon="-1.84099">
        <ele>55</ele>
        <time>2020-12-20T12:40:41.000Z</time>
      </trkpt>
      <trkpt lat="47.22357" lon="-1.84083">
        <ele>55</ele>
        <time>2020-12-20T12:40:43.000Z</time>
      </trkpt>
      <trkpt lat="47.2235" lon="-1.84067">
        <ele>55</ele>
        <time>2020-12-20T12:40:45.000Z</time>
      </trkpt>
      <trkpt lat="47.22343" lon="-1.84052">
        <ele>55</ele>
        <time>2020-12-20T12:40:47.000Z</time>
      </trkpt>
      <trkpt lat="47.22336" lon="-1.84037">
        <ele>55</ele>
        <time>2020-12-20T12:40:49.000Z</time>
      </trkpt>
      <trkpt lat="47.22329" lon="-1.84022">
        <ele>55</ele>
        <time>2020-12-20T12:40:51.000Z</time>
      </trkpt>
      <trkpt lat="47.22323" lon="-1.84009">
        <ele>55</ele>
        <time>2020-12-20T12:40:53.000Z</time>
      </trkpt>
      <trkpt lat="47.22315" lon="-1.83995">
        <ele>55</ele>
        <time>2020-12-20T12:40:55.000Z</time>
      </trkpt>
      <trkpt lat="47.22308" lon="-1.8398">
        <ele>55</ele>
        <time>2020-12-20T12:40:57.000Z</time>
      </trkpt>
      <trkpt lat="47.22299" lon="-1.83963">
        <ele>55</ele>
        <time>2020-12-20T12:40:59.000Z</time>
      </trkpt>
      <trkpt lat="47.22291" lon="-1.83947">
        <ele>55</ele>
        <time>2020-12-20T12:41:01.000Z</time>
      </trkpt>
      <trkpt lat="47.22284" lon="-1.83931">
        <ele>55</ele>
        <time>2020-12-20T12:41:03.000Z</time>
      </trkpt>
      <trkpt lat="47.22277" lon="-1.83917">
        <ele>54</ele>
        <time>2020-12-20T12:41:05.000Z</time>
      </trkpt>
      <trkpt lat="47.2227" lon="-1.83902">
        <ele>54</ele>
        <time>2020-12-20T12:41:07.000Z</time>
      </trkpt>
      <trkpt lat="47.22263" lon="-1.83888">
        <ele>54</ele>
        <time>2020-12-20T12:41:09.000Z</time>
      </trkpt>
      <trkpt lat="47.22255" lon="-1.83874">
        <ele>54</ele>
        <time>2020-12-20T12:41:11.000Z</time>
      </trkpt>
      <trkpt lat="47.22248" lon="-1.83859">
        <ele>54</ele>
        <time>2020-12-20T12:41:13.000Z</time>
      </trkpt>
      <trkpt lat="47.22241" lon="-1.83844">
        <ele>54</ele>
        <time>2020-12-20T12:41:15.000Z</time>
      </trkpt>
      <trkpt lat="47.22234" lon="-1.8383">
        <ele>54</ele>
        <time>2020-12-20T12:41:17.000Z</time>
      </trkpt>
      <trkpt lat="47.22227" lon="-1.83816">
        <ele>54</ele>
        <time>2020-12-20T12:41:19.000Z</time>
      </trkpt>
      <trkpt lat="47.2222" lon="-1.83803">
        <ele>54</ele>
        <time>2020-12-20T12:41:21.000Z</time>
      </trkpt>
      <trkpt lat="47.22212" lon="-1.83789">
        <ele>54</ele>
        <time>2020-12-20T12:41:23.000Z</time>
      </trkpt>
      <trkpt lat="47.22204" lon="-1.83776">
        <ele>54</ele>
        <time>2020-12-20T12:41:25.000Z</time>
      </trkpt>
      <trkpt lat="47.22198" lon="-1.83762">
        <ele>55</ele>
        <time>2020-12-20T12:41:27.000Z</time>
      </trkpt>
      <trkpt lat="47.22191" lon="-1.83748">
        <ele>55</ele>
        <time>2020-12-20T12:41:29.000Z</time>
      </trkpt>
      <trkpt lat="47.22184" lon="-1.83734">
        <ele>55</ele>
        <time>2020-12-20T12:41:31.000Z</time>
      </trkpt>
      <trkpt lat="47.22178" lon="-1.83719">
        <ele>54</ele>
        <time>2020-12-20T12:41:33.000Z</time>
      </trkpt>
      <trkpt lat="47.22171" lon="-1.83704">
        <ele>54</ele>
        <time>2020-12-20T12:41:35.000Z</time>
      </trkpt>
      <trkpt lat="47.22164" lon="-1.83691">
        <ele>54</ele>
        <time>2020-12-20T12:41:37.000Z</time>
      </trkpt>
      <trkpt lat="47.22156" lon="-1.83676">
        <ele>54</ele>
        <time>2020-12-20T12:41:39.000Z</time>
      </trkpt>
      <trkpt lat="47.22149" lon="-1.83661">
        <ele>54</ele>
        <time>2020-12-20T12:41:41.000Z</time>
      </trkpt>
      <trkpt lat="47.22142" lon="-1.83647">
        <ele>54</ele>
        <time>2020-12-20T12:41:43.000Z</time>
      </trkpt>
      <trkpt lat="47.22134" lon="-1.83633">
        <ele>55</ele>
        <time>2020-12-20T12:41:45.000Z</time>
      </trkpt>
      <trkpt lat="47.22127" lon="-1.83618">
        <ele>55</ele>
        <time>2020-12-20T12:41:47.000Z</time>
      </trkpt>
      <trkpt lat="47.2212" lon="-1.83604">
        <ele>55</ele>
        <time>2020-12-20T12:41:49.000Z</time>
      </trkpt>
      <trkpt lat="47.22112" lon="-1.8359">
        <ele>55</ele>
        <time>2020-12-20T12:41:51.000Z</time>
      </trkpt>
      <trkpt lat="47.22105" lon="-1.83575">
        <ele>54</ele>
        <time>2020-12-20T12:41:53.000Z</time>
      </trkpt>
      <trkpt lat="47.22098" lon="-1.83561">
        <ele>54</ele>
        <time>2020-12-20T12:41:55.000Z</time>
      </trkpt>
      <trkpt lat="47.22091" lon="-1.83546">
        <ele>54</ele>
        <time>2020-12-20T12:41:57.000Z</time>
      </trkpt>
      <trkpt lat="47.22084" lon="-1.83533">
        <ele>54</ele>
        <time>2020-12-20T12:41:59.000Z</time>
      </trkpt>
      <trkpt lat="47.22076" lon="-1.83518">
        <ele>54</ele>
        <time>2020-12-20T12:42:01.000Z</time>
      </trkpt>
      <trkpt lat="47.22069" lon="-1.83504">
        <ele>54</ele>
        <time>2020-12-20T12:42:03.000Z</time>
      </trkpt>
      <trkpt lat="47.22062" lon="-1.83489">
        <ele>54</ele>
        <time>2020-12-20T12:42:05.000Z</time>
      </trkpt>
      <trkpt lat="47.22055" lon="-1.83475">
        <ele>54</ele>
        <time>2020-12-20T12:42:07.000Z</time>
      </trkpt>
      <trkpt lat="47.22048" lon="-1.83461">
        <ele>54</ele>
        <time>2020-12-20T12:42:09.000Z</time>
      </trkpt>
      <trkpt lat="47.22041" lon="-1.83447">
        <ele>53</ele>
        <time>2020-12-20T12:42:11.000Z</time>
      </trkpt>
      <trkpt lat="47.22034" lon="-1.83432">
        <ele>54</ele>
        <time>2020-12-20T12:42:13.000Z</time>
      </trkpt>
      <trkpt lat="47.22026" lon="-1.83417">
        <ele>54</ele>
        <time>2020-12-20T12:42:15.000Z</time>
      </trkpt>
      <trkpt lat="47.2202" lon="-1.83403">
        <ele>54</ele>
        <time>2020-12-20T12:42:17.000Z</time>
      </trkpt>
      <trkpt lat="47.22013" lon="-1.83388">
        <ele>54</ele>
        <time>2020-12-20T12:42:19.000Z</time>
      </trkpt>
      <trkpt lat="47.22006" lon="-1.83376">
        <ele>54</ele>
        <time>2020-12-20T12:42:21.000Z</time>
      </trkpt>
      <trkpt lat="47.21999" lon="-1.83362">
        <ele>54</ele>
        <time>2020-12-20T12:42:23.000Z</time>
      </trkpt>
      <trkpt lat="47.21992" lon="-1.83348">
        <ele>54</ele>
        <time>2020-12-20T12:42:25.000Z</time>
      </trkpt>
      <trkpt lat="47.21985" lon="-1.83334">
        <ele>54</ele>
        <time>2020-12-20T12:42:27.000Z</time>
      </trkpt>
      <trkpt lat="47.21978" lon="-1.83318">
        <ele>54</ele>
        <time>2020-12-20T12:42:29.000Z</time>
      </trkpt>
      <trkpt lat="47.2197" lon="-1.83304">
        <ele>54</ele>
        <time>2020-12-20T12:42:31.000Z</time>
      </trkpt>
      <trkpt lat="47.21962" lon="-1.83289">
        <ele>54</ele>
        <time>2020-12-20T12:42:33.000Z</time>
      </trkpt>
      <trkpt lat="47.21955" lon="-1.83275">
        <ele>54</ele>
        <time>2020-12-20T12:42:35.000Z</time>
      </trkpt>
      <trkpt lat="47.21948" lon="-1.83259">
        <ele>54</ele>
        <time>2020-12-20T12:42:37.000Z</time>
      </trkpt>
      <trkpt lat="47.2194" lon="-1.83244">
        <ele>54</ele>
        <time>2020-12-20T12:42:39.000Z</time>
      </trkpt>
      <trkpt lat="47.21933" lon="-1.83229">
        <ele>54</ele>
        <time>2020-12-20T12:42:41.000Z</time>
      </trkpt>
      <trkpt lat="47.21926" lon="-1.83214">
        <ele>55</ele>
        <time>2020-12-20T12:42:43.000Z</time>
      </trkpt>
      <trkpt lat="47.21918" lon="-1.832">
        <ele>55</ele>
        <time>2020-12-20T12:42:45.000Z</time>
      </trkpt>
      <trkpt lat="47.21911" lon="-1.83185">
        <ele>55</ele>
        <time>2020-12-20T12:42:47.000Z</time>
      </trkpt>
      <trkpt lat="47.21904" lon="-1.8317">
        <ele>54</ele>
        <time>2020-12-20T12:42:49.000Z</time>
      </trkpt>
      <trkpt lat="47.21897" lon="-1.83155">
        <ele>54</ele>
        <time>2020-12-20T12:42:51.000Z</time>
      </trkpt>
      <trkpt lat="47.21889" lon="-1.83141">
        <ele>54</ele>
        <time>2020-12-20T12:42:53.000Z</time>
      </trkpt>
      <trkpt lat="47.21882" lon="-1.83126">
        <ele>55</ele>
        <time>2020-12-20T12:42:55.000Z</time>
      </trkpt>
      <trkpt lat="47.21875" lon="-1.83112">
        <ele>55</ele>
        <time>2020-12-20T12:42:57.000Z</time>
      </trkpt>
      <trkpt lat="47.21868" lon="-1.83098">
        <ele>55</ele>
        <time>2020-12-20T12:42:59.000Z</time>
      </trkpt>
      <trkpt lat="47.2186" lon="-1.83083">
        <ele>54</ele>
        <time>2020-12-20T12:43:01.000Z</time>
      </trkpt>
      <trkpt lat="47.21853" lon="-1.83069">
        <ele>55</ele>
        <time>2020-12-20T12:43:03.000Z</time>
      </trkpt>
      <trkpt lat="47.21845" lon="-1.83056">
        <ele>55</ele>
        <time>2020-12-20T12:43:05.000Z</time>
      </trkpt>
      <trkpt lat="47.21838" lon="-1.83041">
        <ele>55</ele>
        <time>2020-12-20T12:43:07.000Z</time>
      </trkpt>
      <trkpt lat="47.21831" lon="-1.83026">
        <ele>54</ele>
        <time>2020-12-20T12:43:09.000Z</time>
      </trkpt>
      <trkpt lat="47.21824" lon="-1.83012">
        <ele>54</ele>
        <time>2020-12-20T12:43:11.000Z</time>
      </trkpt>
      <trkpt lat="47.21816" lon="-1.82999">
        <ele>55</ele>
        <time>2020-12-20T12:43:13.000Z</time>
      </trkpt>
      <trkpt lat="47.21808" lon="-1.82985">
        <ele>55</ele>
        <time>2020-12-20T12:43:15.000Z</time>
      </trkpt>
      <trkpt lat="47.218" lon="-1.82972">
        <ele>55</ele>
        <time>2020-12-20T12:43:17.000Z</time>
      </trkpt>
      <trkpt lat="47.21793" lon="-1.82958">
        <ele>55</ele>
        <time>2020-12-20T12:43:19.000Z</time>
      </trkpt>
      <trkpt lat="47.21785" lon="-1.82943">
        <ele>56</ele>
        <time>2020-12-20T12:43:21.000Z</time>
      </trkpt>
      <trkpt lat="47.21777" lon="-1.82929">
        <ele>56</ele>
        <time>2020-12-20T12:43:23.000Z</time>
      </trkpt>
      <trkpt lat="47.21769" lon="-1.82915">
        <ele>56</ele>
        <time>2020-12-20T12:43:25.000Z</time>
      </trkpt>
      <trkpt lat="47.21762" lon="-1.82901">
        <ele>56</ele>
        <time>2020-12-20T12:43:27.000Z</time>
      </trkpt>
      <trkpt lat="47.21755" lon="-1.82887">
        <ele>56</ele>
        <time>2020-12-20T12:43:29.000Z</time>
      </trkpt>
      <trkpt lat="47.21747" lon="-1.82873">
        <ele>56</ele>
        <time>2020-12-20T12:43:31.000Z</time>
      </trkpt>
      <trkpt lat="47.21739" lon="-1.82858">
        <ele>56</ele>
        <time>2020-12-20T12:43:33.000Z</time>
      </trkpt>
      <trkpt lat="47.21732" lon="-1.82844">
        <ele>56</ele>
        <time>2020-12-20T12:43:35.000Z</time>
      </trkpt>
      <trkpt lat="47.21724" lon="-1.82829">
        <ele>55</ele>
        <time>2020-12-20T12:43:37.000Z</time>
      </trkpt>
      <trkpt lat="47.21717" lon="-1.82814">
        <ele>56</ele>
        <time>2020-12-20T12:43:39.000Z</time>
      </trkpt>
      <trkpt lat="47.21709" lon="-1.82799">
        <ele>55</ele>
        <time>2020-12-20T12:43:41.000Z</time>
      </trkpt>
      <trkpt lat="47.21702" lon="-1.82784">
        <ele>55</ele>
        <time>2020-12-20T12:43:43.000Z</time>
      </trkpt>
      <trkpt lat="47.21694" lon="-1.8277">
        <ele>54</ele>
        <time>2020-12-20T12:43:45.000Z</time>
      </trkpt>
      <trkpt lat="47.21685" lon="-1.82756">
        <ele>55</ele>
        <time>2020-12-20T12:43:47.000Z</time>
      </trkpt>
      <trkpt lat="47.21678" lon="-1.82741">
        <ele>55</ele>
        <time>2020-12-20T12:43:49.000Z</time>
      </trkpt>
      <trkpt lat="47.2167" lon="-1.82727">
        <ele>55</ele>
        <time>2020-12-20T12:43:51.000Z</time>
      </trkpt>
      <trkpt lat="47.21662" lon="-1.82713">
        <ele>55</ele>
        <time>2020-12-20T12:43:53.000Z</time>
      </trkpt>
      <trkpt lat="47.21654" lon="-1.82698">
        <ele>55</ele>
        <time>2020-12-20T12:43:55.000Z</time>
      </trkpt>
      <trkpt lat="47.21646" lon="-1.82684">
        <ele>55</ele>
        <time>2020-12-20T12:43:57.000Z</time>
      </trkpt>
      <trkpt lat="47.21639" lon="-1.82671">
        <ele>55</ele>
        <time>2020-12-20T12:43:59.000Z</time>
      </trkpt>
      <trkpt lat="47.21631" lon="-1.82657">
        <ele>55</ele>
        <time>2020-12-20T12:44:01.000Z</time>
      </trkpt>
      <trkpt lat="47.21622" lon="-1.82644">
        <ele>54</ele>
        <time>2020-12-20T12:44:03.000Z</time>
      </trkpt>
      <trkpt lat="47.21614" lon="-1.82632">
        <ele>54</ele>
        <time>2020-12-20T12:44:05.000Z</time>
      </trkpt>
      <trkpt lat="47.21606" lon="-1.8262">
        <ele>55</ele>
        <time>2020-12-20T12:44:07.000Z</time>
      </trkpt>
      <trkpt lat="47.21598" lon="-1.82606">
        <ele>54</ele>
        <time>2020-12-20T12:44:09.000Z</time>
      </trkpt>
      <trkpt lat="47.2159" lon="-1.82591">
        <ele>54</ele>
        <time>2020-12-20T12:44:11.000Z</time>
      </trkpt>
      <trkpt lat="47.21581" lon="-1.82578">
        <ele>54</ele>
        <time>2020-12-20T12:44:13.000Z</time>
      </trkpt>
      <trkpt lat="47.21574" lon="-1.82564">
        <ele>55</ele>
        <time>2020-12-20T12:44:15.000Z</time>
      </trkpt>
      <trkpt lat="47.21566" lon="-1.8255">
        <ele>54</ele>
        <time>2020-12-20T12:44:17.000Z</time>
      </trkpt>
      <trkpt lat="47.21557" lon="-1.82537">
        <ele>55</ele>
        <time>2020-12-20T12:44:19.000Z</time>
      </trkpt>
      <trkpt lat="47.2155" lon="-1.82523">
        <ele>54</ele>
        <time>2020-12-20T12:44:21.000Z</time>
      </trkpt>
      <trkpt lat="47.21542" lon="-1.8251">
        <ele>54</ele>
        <time>2020-12-20T12:44:23.000Z</time>
      </trkpt>
      <trkpt lat="47.21534" lon="-1.82495">
        <ele>54</ele>
        <time>2020-12-20T12:44:25.000Z</time>
      </trkpt>
      <trkpt lat="47.21527" lon="-1.82482">
        <ele>53</ele>
        <time>2020-12-20T12:44:27.000Z</time>
      </trkpt>
      <trkpt lat="47.21519" lon="-1.82468">
        <ele>54</ele>
        <time>2020-12-20T12:44:29.000Z</time>
      </trkpt>
      <trkpt lat="47.21511" lon="-1.82454">
        <ele>54</ele>
        <time>2020-12-20T12:44:31.000Z</time>
      </trkpt>
      <trkpt lat="47.21503" lon="-1.8244">
        <ele>54</ele>
        <time>2020-12-20T12:44:33.000Z</time>
      </trkpt>
      <trkpt lat="47.21495" lon="-1.82427">
        <ele>54</ele>
        <time>2020-12-20T12:44:35.000Z</time>
      </trkpt>
      <trkpt lat="47.21488" lon="-1.82415">
        <ele>55</ele>
        <time>2020-12-20T12:44:37.000Z</time>
      </trkpt>
      <trkpt lat="47.2148" lon="-1.82401">
        <ele>55</ele>
        <time>2020-12-20T12:44:39.000Z</time>
      </trkpt>
      <trkpt lat="47.21472" lon="-1.82388">
        <ele>55</ele>
        <time>2020-12-20T12:44:41.000Z</time>
      </trkpt>
      <trkpt lat="47.21465" lon="-1.82376">
        <ele>55</ele>
        <time>2020-12-20T12:44:43.000Z</time>
      </trkpt>
      <trkpt lat="47.21458" lon="-1.82364">
        <ele>55</ele>
        <time>2020-12-20T12:44:45.000Z</time>
      </trkpt>
      <trkpt lat="47.21451" lon="-1.82352">
        <ele>56</ele>
        <time>2020-12-20T12:44:47.000Z</time>
      </trkpt>
      <trkpt lat="47.21446" lon="-1.82336">
        <ele>57</ele>
        <time>2020-12-20T12:44:49.000Z</time>
      </trkpt>
      <trkpt lat="47.21439" lon="-1.82323">
        <ele>57</ele>
        <time>2020-12-20T12:44:51.000Z</time>
      </trkpt>
      <trkpt lat="47.21432" lon="-1.82309">
        <ele>57</ele>
        <time>2020-12-20T12:44:53.000Z</time>
      </trkpt>
      <trkpt lat="47.21425" lon="-1.82297">
        <ele>56</ele>
        <time>2020-12-20T12:44:55.000Z</time>
      </trkpt>
      <trkpt lat="47.21418" lon="-1.82285">
        <ele>55</ele>
        <time>2020-12-20T12:44:57.000Z</time>
      </trkpt>
      <trkpt lat="47.21407" lon="-1.82277">
        <ele>55</ele>
        <time>2020-12-20T12:44:59.000Z</time>
      </trkpt>
      <trkpt lat="47.21395" lon="-1.82273">
        <ele>55</ele>
        <time>2020-12-20T12:45:01.000Z</time>
      </trkpt>
      <trkpt lat="47.21381" lon="-1.82265">
        <ele>55</ele>
        <time>2020-12-20T12:45:03.000Z</time>
      </trkpt>
      <trkpt lat="47.2137" lon="-1.82252">
        <ele>54</ele>
        <time>2020-12-20T12:45:05.000Z</time>
      </trkpt>
      <trkpt lat="47.2136" lon="-1.82237">
        <ele>53</ele>
        <time>2020-12-20T12:45:07.000Z</time>
      </trkpt>
      <trkpt lat="47.21351" lon="-1.82222">
        <ele>53</ele>
        <time>2020-12-20T12:45:09.000Z</time>
      </trkpt>
      <trkpt lat="47.21341" lon="-1.82207">
        <ele>53</ele>
        <time>2020-12-20T12:45:11.000Z</time>
      </trkpt>
      <trkpt lat="47.21333" lon="-1.82194">
        <ele>54</ele>
        <time>2020-12-20T12:45:13.000Z</time>
      </trkpt>
      <trkpt lat="47.21324" lon="-1.8218">
        <ele>53</ele>
        <time>2020-12-20T12:45:15.000Z</time>
      </trkpt>
      <trkpt lat="47.21316" lon="-1.82167">
        <ele>53</ele>
        <time>2020-12-20T12:45:17.000Z</time>
      </trkpt>
      <trkpt lat="47.21308" lon="-1.82154">
        <ele>53</ele>
        <time>2020-12-20T12:45:19.000Z</time>
      </trkpt>
      <trkpt lat="47.21299" lon="-1.82141">
        <ele>52</ele>
        <time>2020-12-20T12:45:21.000Z</time>
      </trkpt>
      <trkpt lat="47.21291" lon="-1.82127">
        <ele>52</ele>
        <time>2020-12-20T12:45:23.000Z</time>
      </trkpt>
      <trkpt lat="47.21283" lon="-1.82114">
        <ele>52</ele>
        <time>2020-12-20T12:45:25.000Z</time>
      </trkpt>
      <trkpt lat="47.21274" lon="-1.821">
        <ele>52</ele>
        <time>2020-12-20T12:45:27.000Z</time>
      </trkpt>
      <trkpt lat="47.21266" lon="-1.82088">
        <ele>52</ele>
        <time>2020-12-20T12:45:29.000Z</time>
      </trkpt>
      <trkpt lat="47.21258" lon="-1.82074">
        <ele>52</ele>
        <time>2020-12-20T12:45:31.000Z</time>
      </trkpt>
      <trkpt lat="47.2125" lon="-1.82061">
        <ele>51</ele>
        <time>2020-12-20T12:45:33.000Z</time>
      </trkpt>
      <trkpt lat="47.21241" lon="-1.82047">
        <ele>51</ele>
        <time>2020-12-20T12:45:35.000Z</time>
      </trkpt>
      <trkpt lat="47.21234" lon="-1.82034">
        <ele>51</ele>
        <time>2020-12-20T12:45:37.000Z</time>
      </trkpt>
      <trkpt lat="47.21225" lon="-1.82021">
        <ele>51</ele>
        <time>2020-12-20T12:45:39.000Z</time>
      </trkpt>
      <trkpt lat="47.21216" lon="-1.82008">
        <ele>51</ele>
        <time>2020-12-20T12:45:41.000Z</time>
      </trkpt>
      <trkpt lat="47.21207" lon="-1.81994">
        <ele>51</ele>
        <time>2020-12-20T12:45:43.000Z</time>
      </trkpt>
      <trkpt lat="47.21199" lon="-1.8198">
        <ele>51</ele>
        <time>2020-12-20T12:45:45.000Z</time>
      </trkpt>
      <trkpt lat="47.21191" lon="-1.81966">
        <ele>52</ele>
        <time>2020-12-20T12:45:47.000Z</time>
      </trkpt>
      <trkpt lat="47.21183" lon="-1.81953">
        <ele>52</ele>
        <time>2020-12-20T12:45:49.000Z</time>
      </trkpt>
      <trkpt lat="47.21176" lon="-1.81939">
        <ele>51</ele>
        <time>2020-12-20T12:45:51.000Z</time>
      </trkpt>
      <trkpt lat="47.21167" lon="-1.81925">
        <ele>52</ele>
        <time>2020-12-20T12:45:53.000Z</time>
      </trkpt>
      <trkpt lat="47.21159" lon="-1.81911">
        <ele>52</ele>
        <time>2020-12-20T12:45:55.000Z</time>
      </trkpt>
      <trkpt lat="47.21151" lon="-1.81896">
        <ele>52</ele>
        <time>2020-12-20T12:45:57.000Z</time>
      </trkpt>
      <trkpt lat="47.21143" lon="-1.81881">
        <ele>51</ele>
        <time>2020-12-20T12:45:59.000Z</time>
      </trkpt>
      <trkpt lat="47.21134" lon="-1.81866">
        <ele>52</ele>
        <time>2020-12-20T12:46:01.000Z</time>
      </trkpt>
      <trkpt lat="47.21126" lon="-1.81851">
        <ele>51</ele>
        <time>2020-12-20T12:46:03.000Z</time>
      </trkpt>
      <trkpt lat="47.21118" lon="-1.81836">
        <ele>52</ele>
        <time>2020-12-20T12:46:05.000Z</time>
      </trkpt>
      <trkpt lat="47.21109" lon="-1.81823">
        <ele>52</ele>
        <time>2020-12-20T12:46:07.000Z</time>
      </trkpt>
      <trkpt lat="47.211" lon="-1.8181">
        <ele>52</ele>
        <time>2020-12-20T12:46:09.000Z</time>
      </trkpt>
      <trkpt lat="47.21092" lon="-1.81796">
        <ele>52</ele>
        <time>2020-12-20T12:46:11.000Z</time>
      </trkpt>
      <trkpt lat="47.21084" lon="-1.81781">
        <ele>52</ele>
        <time>2020-12-20T12:46:13.000Z</time>
      </trkpt>
      <trkpt lat="47.21076" lon="-1.81766">
        <ele>52</ele>
        <time>2020-12-20T12:46:15.000Z</time>
      </trkpt>
      <trkpt lat="47.21069" lon="-1.81752">
        <ele>52</ele>
        <time>2020-12-20T12:46:17.000Z</time>
      </trkpt>
      <trkpt lat="47.21062" lon="-1.81736">
        <ele>52</ele>
        <time>2020-12-20T12:46:19.000Z</time>
      </trkpt>
      <trkpt lat="47.21054" lon="-1.81719">
        <ele>51</ele>
        <time>2020-12-20T12:46:21.000Z</time>
      </trkpt>
      <trkpt lat="47.21047" lon="-1.81704">
        <ele>52</ele>
        <time>2020-12-20T12:46:23.000Z</time>
      </trkpt>
      <trkpt lat="47.21039" lon="-1.81688">
        <ele>52</ele>
        <time>2020-12-20T12:46:25.000Z</time>
      </trkpt>
      <trkpt lat="47.21032" lon="-1.81673">
        <ele>52</ele>
        <time>2020-12-20T12:46:27.000Z</time>
      </trkpt>
      <trkpt lat="47.21024" lon="-1.81658">
        <ele>52</ele>
        <time>2020-12-20T12:46:29.000Z</time>
      </trkpt>
      <trkpt lat="47.21018" lon="-1.81643">
        <ele>52</ele>
        <time>2020-12-20T12:46:31.000Z</time>
      </trkpt>
      <trkpt lat="47.21011" lon="-1.81628">
        <ele>52</ele>
        <time>2020-12-20T12:46:33.000Z</time>
      </trkpt>
      <trkpt lat="47.21004" lon="-1.81612">
        <ele>52</ele>
        <time>2020-12-20T12:46:35.000Z</time>
      </trkpt>
      <trkpt lat="47.20998" lon="-1.81595">
        <ele>52</ele>
        <time>2020-12-20T12:46:37.000Z</time>
      </trkpt>
      <trkpt lat="47.20991" lon="-1.81579">
        <ele>52</ele>
        <time>2020-12-20T12:46:39.000Z</time>
      </trkpt>
      <trkpt lat="47.20984" lon="-1.81562">
        <ele>52</ele>
        <time>2020-12-20T12:46:41.000Z</time>
      </trkpt>
      <trkpt lat="47.20978" lon="-1.81547">
        <ele>53</ele>
        <time>2020-12-20T12:46:43.000Z</time>
      </trkpt>
      <trkpt lat="47.20971" lon="-1.8153">
        <ele>54</ele>
        <time>2020-12-20T12:46:45.000Z</time>
      </trkpt>
      <trkpt lat="47.20965" lon="-1.81515">
        <ele>53</ele>
        <time>2020-12-20T12:46:47.000Z</time>
      </trkpt>
      <trkpt lat="47.20959" lon="-1.81499">
        <ele>53</ele>
        <time>2020-12-20T12:46:49.000Z</time>
      </trkpt>
      <trkpt lat="47.20953" lon="-1.81482">
        <ele>53</ele>
        <time>2020-12-20T12:46:51.000Z</time>
      </trkpt>
      <trkpt lat="47.20947" lon="-1.81466">
        <ele>53</ele>
        <time>2020-12-20T12:46:53.000Z</time>
      </trkpt>
      <trkpt lat="47.2094" lon="-1.8145">
        <ele>53</ele>
        <time>2020-12-20T12:46:55.000Z</time>
      </trkpt>
      <trkpt lat="47.20934" lon="-1.81434">
        <ele>53</ele>
        <time>2020-12-20T12:46:57.000Z</time>
      </trkpt>
      <trkpt lat="47.20928" lon="-1.81418">
        <ele>53</ele>
        <time>2020-12-20T12:46:59.000Z</time>
      </trkpt>
      <trkpt lat="47.20922" lon="-1.81402">
        <ele>53</ele>
        <time>2020-12-20T12:47:01.000Z</time>
      </trkpt>
      <trkpt lat="47.20916" lon="-1.81386">
        <ele>53</ele>
        <time>2020-12-20T12:47:03.000Z</time>
      </trkpt>
      <trkpt lat="47.20911" lon="-1.8137">
        <ele>53</ele>
        <time>2020-12-20T12:47:05.000Z</time>
      </trkpt>
      <trkpt lat="47.20905" lon="-1.81353">
        <ele>53</ele>
        <time>2020-12-20T12:47:07.000Z</time>
      </trkpt>
      <trkpt lat="47.209" lon="-1.81337">
        <ele>52</ele>
        <time>2020-12-20T12:47:09.000Z</time>
      </trkpt>
      <trkpt lat="47.20895" lon="-1.81321">
        <ele>52</ele>
        <time>2020-12-20T12:47:11.000Z</time>
      </trkpt>
      <trkpt lat="47.20889" lon="-1.81306">
        <ele>53</ele>
        <time>2020-12-20T12:47:13.000Z</time>
      </trkpt>
      <trkpt lat="47.20884" lon="-1.8129">
        <ele>53</ele>
        <time>2020-12-20T12:47:15.000Z</time>
      </trkpt>
      <trkpt lat="47.2088" lon="-1.81273">
        <ele>53</ele>
        <time>2020-12-20T12:47:17.000Z</time>
      </trkpt>
      <trkpt lat="47.20875" lon="-1.81257">
        <ele>52</ele>
        <time>2020-12-20T12:47:19.000Z</time>
      </trkpt>
      <trkpt lat="47.2087" lon="-1.81239">
        <ele>52</ele>
        <time>2020-12-20T12:47:21.000Z</time>
      </trkpt>
      <trkpt lat="47.20864" lon="-1.81221">
        <ele>52</ele>
        <time>2020-12-20T12:47:23.000Z</time>
      </trkpt>
      <trkpt lat="47.2086" lon="-1.81205">
        <ele>53</ele>
        <time>2020-12-20T12:47:25.000Z</time>
      </trkpt>
      <trkpt lat="47.20855" lon="-1.81187">
        <ele>53</ele>
        <time>2020-12-20T12:47:27.000Z</time>
      </trkpt>
      <trkpt lat="47.20851" lon="-1.81171">
        <ele>52</ele>
        <time>2020-12-20T12:47:29.000Z</time>
      </trkpt>
      <trkpt lat="47.20846" lon="-1.81155">
        <ele>52</ele>
        <time>2020-12-20T12:47:31.000Z</time>
      </trkpt>
      <trkpt lat="47.20842" lon="-1.81138">
        <ele>52</ele>
        <time>2020-12-20T12:47:33.000Z</time>
      </trkpt>
      <trkpt lat="47.20838" lon="-1.81121">
        <ele>52</ele>
        <time>2020-12-20T12:47:35.000Z</time>
      </trkpt>
      <trkpt lat="47.20834" lon="-1.81105">
        <ele>53</ele>
        <time>2020-12-20T12:47:37.000Z</time>
      </trkpt>
      <trkpt lat="47.20829" lon="-1.81087">
        <ele>53</ele>
        <time>2020-12-20T12:47:39.000Z</time>
      </trkpt>
      <trkpt lat="47.20825" lon="-1.81071">
        <ele>53</ele>
        <time>2020-12-20T12:47:41.000Z</time>
      </trkpt>
      <trkpt lat="47.20821" lon="-1.81054">
        <ele>53</ele>
        <time>2020-12-20T12:47:43.000Z</time>
      </trkpt>
      <trkpt lat="47.20816" lon="-1.81037">
        <ele>53</ele>
        <time>2020-12-20T12:47:45.000Z</time>
      </trkpt>
      <trkpt lat="47.20812" lon="-1.8102">
        <ele>52</ele>
        <time>2020-12-20T12:47:47.000Z</time>
      </trkpt>
      <trkpt lat="47.20809" lon="-1.81001">
        <ele>53</ele>
        <time>2020-12-20T12:47:49.000Z</time>
      </trkpt>
      <trkpt lat="47.20805" lon="-1.80984">
        <ele>52</ele>
        <time>2020-12-20T12:47:51.000Z</time>
      </trkpt>
      <trkpt lat="47.20802" lon="-1.80967">
        <ele>52</ele>
        <time>2020-12-20T12:47:53.000Z</time>
      </trkpt>
      <trkpt lat="47.20798" lon="-1.80949">
        <ele>52</ele>
        <time>2020-12-20T12:47:55.000Z</time>
      </trkpt>
      <trkpt lat="47.20795" lon="-1.80931">
        <ele>52</ele>
        <time>2020-12-20T12:47:57.000Z</time>
      </trkpt>
      <trkpt lat="47.20792" lon="-1.80913">
        <ele>51</ele>
        <time>2020-12-20T12:47:59.000Z</time>
      </trkpt>
      <trkpt lat="47.20789" lon="-1.80896">
        <ele>50</ele>
        <time>2020-12-20T12:48:01.000Z</time>
      </trkpt>
      <trkpt lat="47.20786" lon="-1.80878">
        <ele>50</ele>
        <time>2020-12-20T12:48:03.000Z</time>
      </trkpt>
      <trkpt lat="47.20783" lon="-1.80859">
        <ele>50</ele>
        <time>2020-12-20T12:48:05.000Z</time>
      </trkpt>
      <trkpt lat="47.20781" lon="-1.80841">
        <ele>49</ele>
        <time>2020-12-20T12:48:07.000Z</time>
      </trkpt>
      <trkpt lat="47.20778" lon="-1.80825">
        <ele>49</ele>
        <time>2020-12-20T12:48:09.000Z</time>
      </trkpt>
      <trkpt lat="47.20775" lon="-1.80808">
        <ele>49</ele>
        <time>2020-12-20T12:48:11.000Z</time>
      </trkpt>
      <trkpt lat="47.20772" lon="-1.80791">
        <ele>50</ele>
        <time>2020-12-20T12:48:13.000Z</time>
      </trkpt>
      <trkpt lat="47.20769" lon="-1.80774">
        <ele>50</ele>
        <time>2020-12-20T12:48:15.000Z</time>
      </trkpt>
      <trkpt lat="47.20765" lon="-1.80757">
        <ele>50</ele>
        <time>2020-12-20T12:48:17.000Z</time>
      </trkpt>
      <trkpt lat="47.20763" lon="-1.80738">
        <ele>50</ele>
        <time>2020-12-20T12:48:19.000Z</time>
      </trkpt>
      <trkpt lat="47.2076" lon="-1.80719">
        <ele>50</ele>
        <time>2020-12-20T12:48:21.000Z</time>
      </trkpt>
      <trkpt lat="47.20758" lon="-1.80701">
        <ele>51</ele>
        <time>2020-12-20T12:48:23.000Z</time>
      </trkpt>
      <trkpt lat="47.20756" lon="-1.80682">
        <ele>51</ele>
        <time>2020-12-20T12:48:25.000Z</time>
      </trkpt>
      <trkpt lat="47.20753" lon="-1.80664">
        <ele>51</ele>
        <time>2020-12-20T12:48:27.000Z</time>
      </trkpt>
      <trkpt lat="47.20751" lon="-1.80646">
        <ele>51</ele>
        <time>2020-12-20T12:48:29.000Z</time>
      </trkpt>
      <trkpt lat="47.20749" lon="-1.80629">
        <ele>52</ele>
        <time>2020-12-20T12:48:31.000Z</time>
      </trkpt>
      <trkpt lat="47.20748" lon="-1.80612">
        <ele>51</ele>
        <time>2020-12-20T12:48:33.000Z</time>
      </trkpt>
      <trkpt lat="47.20746" lon="-1.80594">
        <ele>51</ele>
        <time>2020-12-20T12:48:35.000Z</time>
      </trkpt>
      <trkpt lat="47.20744" lon="-1.80574">
        <ele>51</ele>
        <time>2020-12-20T12:48:37.000Z</time>
      </trkpt>
      <trkpt lat="47.20741" lon="-1.80555">
        <ele>53</ele>
        <time>2020-12-20T12:48:39.000Z</time>
      </trkpt>
      <trkpt lat="47.2074" lon="-1.80534">
        <ele>53</ele>
        <time>2020-12-20T12:48:41.000Z</time>
      </trkpt>
      <trkpt lat="47.20739" lon="-1.80515">
        <ele>53</ele>
        <time>2020-12-20T12:48:43.000Z</time>
      </trkpt>
      <trkpt lat="47.20737" lon="-1.80497">
        <ele>53</ele>
        <time>2020-12-20T12:48:45.000Z</time>
      </trkpt>
      <trkpt lat="47.20735" lon="-1.80479">
        <ele>53</ele>
        <time>2020-12-20T12:48:47.000Z</time>
      </trkpt>
      <trkpt lat="47.20734" lon="-1.80461">
        <ele>53</ele>
        <time>2020-12-20T12:48:49.000Z</time>
      </trkpt>
      <trkpt lat="47.20733" lon="-1.80442">
        <ele>53</ele>
        <time>2020-12-20T12:48:51.000Z</time>
      </trkpt>
      <trkpt lat="47.20733" lon="-1.80424">
        <ele>53</ele>
        <time>2020-12-20T12:48:53.000Z</time>
      </trkpt>
      <trkpt lat="47.20732" lon="-1.80406">
        <ele>53</ele>
        <time>2020-12-20T12:48:55.000Z</time>
      </trkpt>
      <trkpt lat="47.20731" lon="-1.80388">
        <ele>53</ele>
        <time>2020-12-20T12:48:57.000Z</time>
      </trkpt>
      <trkpt lat="47.2073" lon="-1.80371">
        <ele>53</ele>
        <time>2020-12-20T12:48:59.000Z</time>
      </trkpt>
      <trkpt lat="47.20728" lon="-1.80353">
        <ele>52</ele>
        <time>2020-12-20T12:49:01.000Z</time>
      </trkpt>
      <trkpt lat="47.20727" lon="-1.80336">
        <ele>53</ele>
        <time>2020-12-20T12:49:03.000Z</time>
      </trkpt>
      <trkpt lat="47.20725" lon="-1.80318">
        <ele>52</ele>
        <time>2020-12-20T12:49:05.000Z</time>
      </trkpt>
      <trkpt lat="47.20723" lon="-1.80301">
        <ele>52</ele>
        <time>2020-12-20T12:49:07.000Z</time>
      </trkpt>
      <trkpt lat="47.20722" lon="-1.80283">
        <ele>52</ele>
        <time>2020-12-20T12:49:09.000Z</time>
      </trkpt>
      <trkpt lat="47.20721" lon="-1.80265">
        <ele>52</ele>
        <time>2020-12-20T12:49:11.000Z</time>
      </trkpt>
      <trkpt lat="47.2072" lon="-1.80246">
        <ele>52</ele>
        <time>2020-12-20T12:49:13.000Z</time>
      </trkpt>
      <trkpt lat="47.20718" lon="-1.80228">
        <ele>52</ele>
        <time>2020-12-20T12:49:15.000Z</time>
      </trkpt>
      <trkpt lat="47.20716" lon="-1.80209">
        <ele>52</ele>
        <time>2020-12-20T12:49:17.000Z</time>
      </trkpt>
      <trkpt lat="47.20715" lon="-1.80192">
        <ele>53</ele>
        <time>2020-12-20T12:49:19.000Z</time>
      </trkpt>
      <trkpt lat="47.20714" lon="-1.80174">
        <ele>53</ele>
        <time>2020-12-20T12:49:21.000Z</time>
      </trkpt>
      <trkpt lat="47.20714" lon="-1.80156">
        <ele>53</ele>
        <time>2020-12-20T12:49:23.000Z</time>
      </trkpt>
      <trkpt lat="47.20713" lon="-1.80137">
        <ele>52</ele>
        <time>2020-12-20T12:49:25.000Z</time>
      </trkpt>
      <trkpt lat="47.20711" lon="-1.80118">
        <ele>52</ele>
        <time>2020-12-20T12:49:27.000Z</time>
      </trkpt>
      <trkpt lat="47.2071" lon="-1.80099">
        <ele>52</ele>
        <time>2020-12-20T12:49:29.000Z</time>
      </trkpt>
      <trkpt lat="47.20708" lon="-1.8008">
        <ele>52</ele>
        <time>2020-12-20T12:49:31.000Z</time>
      </trkpt>
      <trkpt lat="47.20707" lon="-1.80061">
        <ele>53</ele>
        <time>2020-12-20T12:49:33.000Z</time>
      </trkpt>
      <trkpt lat="47.20705" lon="-1.80043">
        <ele>52</ele>
        <time>2020-12-20T12:49:35.000Z</time>
      </trkpt>
      <trkpt lat="47.20704" lon="-1.80024">
        <ele>52</ele>
        <time>2020-12-20T12:49:37.000Z</time>
      </trkpt>
      <trkpt lat="47.20702" lon="-1.80006">
        <ele>52</ele>
        <time>2020-12-20T12:49:39.000Z</time>
      </trkpt>
      <trkpt lat="47.20701" lon="-1.79988">
        <ele>52</ele>
        <time>2020-12-20T12:49:41.000Z</time>
      </trkpt>
      <trkpt lat="47.20699" lon="-1.79969">
        <ele>52</ele>
        <time>2020-12-20T12:49:43.000Z</time>
      </trkpt>
      <trkpt lat="47.20697" lon="-1.79952">
        <ele>52</ele>
        <time>2020-12-20T12:49:45.000Z</time>
      </trkpt>
      <trkpt lat="47.20697" lon="-1.79933">
        <ele>51</ele>
        <time>2020-12-20T12:49:47.000Z</time>
      </trkpt>
      <trkpt lat="47.20696" lon="-1.79915">
        <ele>51</ele>
        <time>2020-12-20T12:49:49.000Z</time>
      </trkpt>
      <trkpt lat="47.20695" lon="-1.79896">
        <ele>51</ele>
        <time>2020-12-20T12:49:51.000Z</time>
      </trkpt>
      <trkpt lat="47.20694" lon="-1.79876">
        <ele>51</ele>
        <time>2020-12-20T12:49:53.000Z</time>
      </trkpt>
      <trkpt lat="47.20693" lon="-1.79857">
        <ele>51</ele>
        <time>2020-12-20T12:49:55.000Z</time>
      </trkpt>
      <trkpt lat="47.20692" lon="-1.79837">
        <ele>51</ele>
        <time>2020-12-20T12:49:57.000Z</time>
      </trkpt>
      <trkpt lat="47.20691" lon="-1.79818">
        <ele>51</ele>
        <time>2020-12-20T12:49:59.000Z</time>
      </trkpt>
      <trkpt lat="47.2069" lon="-1.79799">
        <ele>51</ele>
        <time>2020-12-20T12:50:01.000Z</time>
      </trkpt>
      <trkpt lat="47.20688" lon="-1.7978">
        <ele>51</ele>
        <time>2020-12-20T12:50:03.000Z</time>
      </trkpt>
      <trkpt lat="47.20687" lon="-1.79761">
        <ele>51</ele>
        <time>2020-12-20T12:50:05.000Z</time>
      </trkpt>
      <trkpt lat="47.20686" lon="-1.79743">
        <ele>51</ele>
        <time>2020-12-20T12:50:07.000Z</time>
      </trkpt>
      <trkpt lat="47.20685" lon="-1.79723">
        <ele>52</ele>
        <time>2020-12-20T12:50:09.000Z</time>
      </trkpt>
      <trkpt lat="47.20684" lon="-1.79705">
        <ele>52</ele>
        <time>2020-12-20T12:50:11.000Z</time>
      </trkpt>
      <trkpt lat="47.20683" lon="-1.79687">
        <ele>52</ele>
        <time>2020-12-20T12:50:13.000Z</time>
      </trkpt>
      <trkpt lat="47.20683" lon="-1.79669">
        <ele>52</ele>
        <time>2020-12-20T12:50:15.000Z</time>
      </trkpt>
      <trkpt lat="47.20683" lon="-1.79649">
        <ele>51</ele>
        <time>2020-12-20T12:50:17.000Z</time>
      </trkpt>
      <trkpt lat="47.20683" lon="-1.79631">
        <ele>51</ele>
        <time>2020-12-20T12:50:19.000Z</time>
      </trkpt>
      <trkpt lat="47.20683" lon="-1.79612">
        <ele>51</ele>
        <time>2020-12-20T12:50:21.000Z</time>
      </trkpt>
      <trkpt lat="47.20683" lon="-1.79593">
        <ele>51</ele>
        <time>2020-12-20T12:50:23.000Z</time>
      </trkpt>
      <trkpt lat="47.20684" lon="-1.79572">
        <ele>51</ele>
        <time>2020-12-20T12:50:25.000Z</time>
      </trkpt>
      <trkpt lat="47.20684" lon="-1.79551">
        <ele>51</ele>
        <time>2020-12-20T12:50:27.000Z</time>
      </trkpt>
      <trkpt lat="47.20684" lon="-1.79531">
        <ele>50</ele>
        <time>2020-12-20T12:50:29.000Z</time>
      </trkpt>
      <trkpt lat="47.20683" lon="-1.79512">
        <ele>50</ele>
        <time>2020-12-20T12:50:31.000Z</time>
      </trkpt>
      <trkpt lat="47.20683" lon="-1.79492">
        <ele>49</ele>
        <time>2020-12-20T12:50:33.000Z</time>
      </trkpt>
      <trkpt lat="47.20684" lon="-1.79473">
        <ele>49</ele>
        <time>2020-12-20T12:50:35.000Z</time>
      </trkpt>
      <trkpt lat="47.20684" lon="-1.79454">
        <ele>49</ele>
        <time>2020-12-20T12:50:37.000Z</time>
      </trkpt>
      <trkpt lat="47.20685" lon="-1.79435">
        <ele>49</ele>
        <time>2020-12-20T12:50:39.000Z</time>
      </trkpt>
      <trkpt lat="47.20688" lon="-1.79417">
        <ele>50</ele>
        <time>2020-12-20T12:50:41.000Z</time>
      </trkpt>
      <trkpt lat="47.20693" lon="-1.79401">
        <ele>51</ele>
        <time>2020-12-20T12:50:43.000Z</time>
      </trkpt>
      <trkpt lat="47.20699" lon="-1.79385">
        <ele>51</ele>
        <time>2020-12-20T12:50:45.000Z</time>
      </trkpt>
      <trkpt lat="47.20705" lon="-1.79367">
        <ele>51</ele>
        <time>2020-12-20T12:50:47.000Z</time>
      </trkpt>
      <trkpt lat="47.20709" lon="-1.7935">
        <ele>51</ele>
        <time>2020-12-20T12:50:49.000Z</time>
      </trkpt>
      <trkpt lat="47.2071" lon="-1.79332">
        <ele>51</ele>
        <time>2020-12-20T12:50:51.000Z</time>
      </trkpt>
      <trkpt lat="47.2071" lon="-1.79314">
        <ele>51</ele>
        <time>2020-12-20T12:50:53.000Z</time>
      </trkpt>
      <trkpt lat="47.20709" lon="-1.79296">
        <ele>51</ele>
        <time>2020-12-20T12:50:55.000Z</time>
      </trkpt>
      <trkpt lat="47.20708" lon="-1.79277">
        <ele>52</ele>
        <time>2020-12-20T12:50:57.000Z</time>
      </trkpt>
      <trkpt lat="47.20706" lon="-1.79258">
        <ele>51</ele>
        <time>2020-12-20T12:50:59.000Z</time>
      </trkpt>
      <trkpt lat="47.20704" lon="-1.7924">
        <ele>52</ele>
        <time>2020-12-20T12:51:01.000Z</time>
      </trkpt>
      <trkpt lat="47.20701" lon="-1.79223">
        <ele>51</ele>
        <time>2020-12-20T12:51:03.000Z</time>
      </trkpt>
      <trkpt lat="47.207" lon="-1.79204">
        <ele>52</ele>
        <time>2020-12-20T12:51:05.000Z</time>
      </trkpt>
      <trkpt lat="47.20701" lon="-1.79185">
        <ele>52</ele>
        <time>2020-12-20T12:51:07.000Z</time>
      </trkpt>
      <trkpt lat="47.20703" lon="-1.79167">
        <ele>52</ele>
        <time>2020-12-20T12:51:09.000Z</time>
      </trkpt>
      <trkpt lat="47.20705" lon="-1.79149">
        <ele>52</ele>
        <time>2020-12-20T12:51:11.000Z</time>
      </trkpt>
      <trkpt lat="47.20708" lon="-1.7913">
        <ele>51</ele>
        <time>2020-12-20T12:51:13.000Z</time>
      </trkpt>
      <trkpt lat="47.2071" lon="-1.79112">
        <ele>51</ele>
        <time>2020-12-20T12:51:15.000Z</time>
      </trkpt>
      <trkpt lat="47.20712" lon="-1.79094">
        <ele>52</ele>
        <time>2020-12-20T12:51:17.000Z</time>
      </trkpt>
      <trkpt lat="47.20715" lon="-1.79077">
        <ele>52</ele>
        <time>2020-12-20T12:51:19.000Z</time>
      </trkpt>
      <trkpt lat="47.2072" lon="-1.79059">
        <ele>52</ele>
        <time>2020-12-20T12:51:21.000Z</time>
      </trkpt>
      <trkpt lat="47.20726" lon="-1.79041">
        <ele>52</ele>
        <time>2020-12-20T12:51:23.000Z</time>
      </trkpt>
      <trkpt lat="47.20733" lon="-1.79026">
        <ele>52</ele>
        <time>2020-12-20T12:51:25.000Z</time>
      </trkpt>
      <trkpt lat="47.20741" lon="-1.79011">
        <ele>52</ele>
        <time>2020-12-20T12:51:27.000Z</time>
      </trkpt>
      <trkpt lat="47.20749" lon="-1.78997">
        <ele>52</ele>
        <time>2020-12-20T12:51:29.000Z</time>
      </trkpt>
      <trkpt lat="47.20758" lon="-1.78983">
        <ele>51</ele>
        <time>2020-12-20T12:51:31.000Z</time>
      </trkpt>
      <trkpt lat="47.20766" lon="-1.78968">
        <ele>51</ele>
        <time>2020-12-20T12:51:33.000Z</time>
      </trkpt>
      <trkpt lat="47.20774" lon="-1.78953">
        <ele>50</ele>
        <time>2020-12-20T12:51:35.000Z</time>
      </trkpt>
      <trkpt lat="47.20781" lon="-1.78936">
        <ele>50</ele>
        <time>2020-12-20T12:51:37.000Z</time>
      </trkpt>
      <trkpt lat="47.20786" lon="-1.78918">
        <ele>50</ele>
        <time>2020-12-20T12:51:39.000Z</time>
      </trkpt>
      <trkpt lat="47.20791" lon="-1.78899">
        <ele>50</ele>
        <time>2020-12-20T12:51:41.000Z</time>
      </trkpt>
      <trkpt lat="47.20796" lon="-1.7888">
        <ele>51</ele>
        <time>2020-12-20T12:51:43.000Z</time>
      </trkpt>
      <trkpt lat="47.208" lon="-1.78861">
        <ele>51</ele>
        <time>2020-12-20T12:51:45.000Z</time>
      </trkpt>
      <trkpt lat="47.20804" lon="-1.78843">
        <ele>51</ele>
        <time>2020-12-20T12:51:47.000Z</time>
      </trkpt>
      <trkpt lat="47.20807" lon="-1.78824">
        <ele>51</ele>
        <time>2020-12-20T12:51:49.000Z</time>
      </trkpt>
      <trkpt lat="47.20812" lon="-1.78806">
        <ele>51</ele>
        <time>2020-12-20T12:51:51.000Z</time>
      </trkpt>
      <trkpt lat="47.20816" lon="-1.78787">
        <ele>52</ele>
        <time>2020-12-20T12:51:53.000Z</time>
      </trkpt>
      <trkpt lat="47.20819" lon="-1.78768">
        <ele>52</ele>
        <time>2020-12-20T12:51:55.000Z</time>
      </trkpt>
      <trkpt lat="47.20823" lon="-1.7875">
        <ele>51</ele>
        <time>2020-12-20T12:51:57.000Z</time>
      </trkpt>
      <trkpt lat="47.20827" lon="-1.78731">
        <ele>52</ele>
        <time>2020-12-20T12:51:59.000Z</time>
      </trkpt>
      <trkpt lat="47.2083" lon="-1.78713">
        <ele>52</ele>
        <time>2020-12-20T12:52:01.000Z</time>
      </trkpt>
      <trkpt lat="47.20831" lon="-1.78694">
        <ele>52</ele>
        <time>2020-12-20T12:52:03.000Z</time>
      </trkpt>
      <trkpt lat="47.20832" lon="-1.78675">
        <ele>53</ele>
        <time>2020-12-20T12:52:05.000Z</time>
      </trkpt>
      <trkpt lat="47.20832" lon="-1.78656">
        <ele>53</ele>
        <time>2020-12-20T12:52:07.000Z</time>
      </trkpt>
      <trkpt lat="47.20829" lon="-1.78637">
        <ele>53</ele>
        <time>2020-12-20T12:52:09.000Z</time>
      </trkpt>
      <trkpt lat="47.20822" lon="-1.78622">
        <ele>54</ele>
        <time>2020-12-20T12:52:11.000Z</time>
      </trkpt>
      <trkpt lat="47.20812" lon="-1.7861">
        <ele>54</ele>
        <time>2020-12-20T12:52:13.000Z</time>
      </trkpt>
      <trkpt lat="47.20802" lon="-1.786">
        <ele>54</ele>
        <time>2020-12-20T12:52:15.000Z</time>
      </trkpt>
      <trkpt lat="47.20791" lon="-1.78592">
        <ele>54</ele>
        <time>2020-12-20T12:52:17.000Z</time>
      </trkpt>
      <trkpt lat="47.2078" lon="-1.78584">
        <ele>54</ele>
        <time>2020-12-20T12:52:19.000Z</time>
      </trkpt>
      <trkpt lat="47.20768" lon="-1.78578">
        <ele>54</ele>
        <time>2020-12-20T12:52:21.000Z</time>
      </trkpt>
      <trkpt lat="47.20756" lon="-1.78573">
        <ele>54</ele>
        <time>2020-12-20T12:52:23.000Z</time>
      </trkpt>
      <trkpt lat="47.20745" lon="-1.78569">
        <ele>54</ele>
        <time>2020-12-20T12:52:25.000Z</time>
      </trkpt>
      <trkpt lat="47.20732" lon="-1.78565">
        <ele>53</ele>
        <time>2020-12-20T12:52:27.000Z</time>
      </trkpt>
      <trkpt lat="47.2072" lon="-1.78562">
        <ele>53</ele>
        <time>2020-12-20T12:52:29.000Z</time>
      </trkpt>
      <trkpt lat="47.20709" lon="-1.78558">
        <ele>53</ele>
        <time>2020-12-20T12:52:31.000Z</time>
      </trkpt>
      <trkpt lat="47.20699" lon="-1.78556">
        <ele>53</ele>
        <time>2020-12-20T12:52:33.000Z</time>
      </trkpt>
      <trkpt lat="47.20689" lon="-1.78554">
        <ele>54</ele>
        <time>2020-12-20T12:52:35.000Z</time>
      </trkpt>
      <trkpt lat="47.2068" lon="-1.78554">
        <ele>54</ele>
        <time>2020-12-20T12:52:37.000Z</time>
      </trkpt>
      <trkpt lat="47.20669" lon="-1.78554">
        <ele>55</ele>
        <time>2020-12-20T12:52:39.000Z</time>
      </trkpt>
      <trkpt lat="47.20659" lon="-1.78551">
        <ele>55</ele>
        <time>2020-12-20T12:52:41.000Z</time>
      </trkpt>
      <trkpt lat="47.20648" lon="-1.78546">
        <ele>55</ele>
        <time>2020-12-20T12:52:43.000Z</time>
      </trkpt>
      <trkpt lat="47.20639" lon="-1.78539">
        <ele>56</ele>
        <time>2020-12-20T12:52:45.000Z</time>
      </trkpt>
      <trkpt lat="47.2063" lon="-1.78531">
        <ele>55</ele>
        <time>2020-12-20T12:52:47.000Z</time>
      </trkpt>
      <trkpt lat="47.20619" lon="-1.78523">
        <ele>55</ele>
        <time>2020-12-20T12:52:49.000Z</time>
      </trkpt>
      <trkpt lat="47.20607" lon="-1.78518">
        <ele>55</ele>
        <time>2020-12-20T12:52:51.000Z</time>
      </trkpt>
      <trkpt lat="47.20594" lon="-1.78517">
        <ele>55</ele>
        <time>2020-12-20T12:52:53.000Z</time>
      </trkpt>
      <trkpt lat="47.20581" lon="-1.78517">
        <ele>55</ele>
        <time>2020-12-20T12:52:55.000Z</time>
      </trkpt>
      <trkpt lat="47.20568" lon="-1.78516">
        <ele>56</ele>
        <time>2020-12-20T12:52:57.000Z</time>
      </trkpt>
      <trkpt lat="47.20556" lon="-1.78515">
        <ele>56</ele>
        <time>2020-12-20T12:52:59.000Z</time>
      </trkpt>
      <trkpt lat="47.20545" lon="-1.78515">
        <ele>56</ele>
        <time>2020-12-20T12:53:01.000Z</time>
      </trkpt>
      <trkpt lat="47.20534" lon="-1.78516">
        <ele>56</ele>
        <time>2020-12-20T12:53:03.000Z</time>
      </trkpt>
      <trkpt lat="47.20523" lon="-1.78516">
        <ele>56</ele>
        <time>2020-12-20T12:53:05.000Z</time>
      </trkpt>
      <trkpt lat="47.20511" lon="-1.78513">
        <ele>57</ele>
        <time>2020-12-20T12:53:07.000Z</time>
      </trkpt>
      <trkpt lat="47.20498" lon="-1.78507">
        <ele>58</ele>
        <time>2020-12-20T12:53:09.000Z</time>
      </trkpt>
      <trkpt lat="47.20486" lon="-1.785">
        <ele>59</ele>
        <time>2020-12-20T12:53:11.000Z</time>
      </trkpt>
      <trkpt lat="47.20475" lon="-1.7849">
        <ele>59</ele>
        <time>2020-12-20T12:53:13.000Z</time>
      </trkpt>
      <trkpt lat="47.20464" lon="-1.78476">
        <ele>58</ele>
        <time>2020-12-20T12:53:15.000Z</time>
      </trkpt>
      <trkpt lat="47.20453" lon="-1.78462">
        <ele>57</ele>
        <time>2020-12-20T12:53:17.000Z</time>
      </trkpt>
      <trkpt lat="47.20442" lon="-1.78447">
        <ele>57</ele>
        <time>2020-12-20T12:53:19.000Z</time>
      </trkpt>
      <trkpt lat="47.20432" lon="-1.78434">
        <ele>56</ele>
        <time>2020-12-20T12:53:21.000Z</time>
      </trkpt>
      <trkpt lat="47.20422" lon="-1.78421">
        <ele>56</ele>
        <time>2020-12-20T12:53:23.000Z</time>
      </trkpt>
      <trkpt lat="47.20413" lon="-1.78405">
        <ele>57</ele>
        <time>2020-12-20T12:53:25.000Z</time>
      </trkpt>
      <trkpt lat="47.20405" lon="-1.78389">
        <ele>56</ele>
        <time>2020-12-20T12:53:27.000Z</time>
      </trkpt>
      <trkpt lat="47.20397" lon="-1.78373">
        <ele>56</ele>
        <time>2020-12-20T12:53:29.000Z</time>
      </trkpt>
      <trkpt lat="47.2039" lon="-1.78357">
        <ele>55</ele>
        <time>2020-12-20T12:53:31.000Z</time>
      </trkpt>
      <trkpt lat="47.20382" lon="-1.78341">
        <ele>55</ele>
        <time>2020-12-20T12:53:33.000Z</time>
      </trkpt>
      <trkpt lat="47.20375" lon="-1.78326">
        <ele>55</ele>
        <time>2020-12-20T12:53:35.000Z</time>
      </trkpt>
      <trkpt lat="47.20368" lon="-1.78312">
        <ele>56</ele>
        <time>2020-12-20T12:53:37.000Z</time>
      </trkpt>
      <trkpt lat="47.20361" lon="-1.78298">
        <ele>55</ele>
        <time>2020-12-20T12:53:39.000Z</time>
      </trkpt>
      <trkpt lat="47.20353" lon="-1.78284">
        <ele>56</ele>
        <time>2020-12-20T12:53:41.000Z</time>
      </trkpt>
      <trkpt lat="47.20345" lon="-1.78271">
        <ele>56</ele>
        <time>2020-12-20T12:53:43.000Z</time>
      </trkpt>
      <trkpt lat="47.20336" lon="-1.78258">
        <ele>56</ele>
        <time>2020-12-20T12:53:45.000Z</time>
      </trkpt>
      <trkpt lat="47.20328" lon="-1.78245">
        <ele>56</ele>
        <time>2020-12-20T12:53:47.000Z</time>
      </trkpt>
      <trkpt lat="47.20318" lon="-1.7823">
        <ele>55</ele>
        <time>2020-12-20T12:53:49.000Z</time>
      </trkpt>
      <trkpt lat="47.20309" lon="-1.78217">
        <ele>56</ele>
        <time>2020-12-20T12:53:51.000Z</time>
      </trkpt>
      <trkpt lat="47.20299" lon="-1.78203">
        <ele>56</ele>
        <time>2020-12-20T12:53:53.000Z</time>
      </trkpt>
      <trkpt lat="47.20291" lon="-1.78189">
        <ele>56</ele>
        <time>2020-12-20T12:53:55.000Z</time>
      </trkpt>
      <trkpt lat="47.20283" lon="-1.78176">
        <ele>57</ele>
        <time>2020-12-20T12:53:57.000Z</time>
      </trkpt>
      <trkpt lat="47.20275" lon="-1.78164">
        <ele>57</ele>
        <time>2020-12-20T12:53:59.000Z</time>
      </trkpt>
      <trkpt lat="47.20268" lon="-1.7815">
        <ele>57</ele>
        <time>2020-12-20T12:54:01.000Z</time>
      </trkpt>
      <trkpt lat="47.20261" lon="-1.78137">
        <ele>57</ele>
        <time>2020-12-20T12:54:03.000Z</time>
      </trkpt>
      <trkpt lat="47.20253" lon="-1.78123">
        <ele>58</ele>
        <time>2020-12-20T12:54:05.000Z</time>
      </trkpt>
      <trkpt lat="47.20246" lon="-1.78111">
        <ele>58</ele>
        <time>2020-12-20T12:54:07.000Z</time>
      </trkpt>
      <trkpt lat="47.20239" lon="-1.78098">
        <ele>59</ele>
        <time>2020-12-20T12:54:09.000Z</time>
      </trkpt>
      <trkpt lat="47.20233" lon="-1.78085">
        <ele>59</ele>
        <time>2020-12-20T12:54:11.000Z</time>
      </trkpt>
      <trkpt lat="47.20226" lon="-1.78072">
        <ele>59</ele>
        <time>2020-12-20T12:54:13.000Z</time>
      </trkpt>
      <trkpt lat="47.20219" lon="-1.78058">
        <ele>59</ele>
        <time>2020-12-20T12:54:15.000Z</time>
      </trkpt>
      <trkpt lat="47.20213" lon="-1.78044">
        <ele>59</ele>
        <time>2020-12-20T12:54:17.000Z</time>
      </trkpt>
      <trkpt lat="47.20207" lon="-1.78031">
        <ele>60</ele>
        <time>2020-12-20T12:54:19.000Z</time>
      </trkpt>
      <trkpt lat="47.20201" lon="-1.78018">
        <ele>60</ele>
        <time>2020-12-20T12:54:21.000Z</time>
      </trkpt>
      <trkpt lat="47.20194" lon="-1.78004">
        <ele>61</ele>
        <time>2020-12-20T12:54:23.000Z</time>
      </trkpt>
      <trkpt lat="47.20188" lon="-1.7799">
        <ele>61</ele>
        <time>2020-12-20T12:54:25.000Z</time>
      </trkpt>
      <trkpt lat="47.20182" lon="-1.77975">
        <ele>62</ele>
        <time>2020-12-20T12:54:27.000Z</time>
      </trkpt>
      <trkpt lat="47.20176" lon="-1.7796">
        <ele>62</ele>
        <time>2020-12-20T12:54:29.000Z</time>
      </trkpt>
      <trkpt lat="47.20172" lon="-1.77945">
        <ele>62</ele>
        <time>2020-12-20T12:54:31.000Z</time>
      </trkpt>
      <trkpt lat="47.20168" lon="-1.77931">
        <ele>62</ele>
        <time>2020-12-20T12:54:33.000Z</time>
      </trkpt>
      <trkpt lat="47.20163" lon="-1.77917">
        <ele>63</ele>
        <time>2020-12-20T12:54:35.000Z</time>
      </trkpt>
      <trkpt lat="47.20159" lon="-1.77902">
        <ele>63</ele>
        <time>2020-12-20T12:54:37.000Z</time>
      </trkpt>
      <trkpt lat="47.20155" lon="-1.77889">
        <ele>63</ele>
        <time>2020-12-20T12:54:39.000Z</time>
      </trkpt>
      <trkpt lat="47.20151" lon="-1.77875">
        <ele>63</ele>
        <time>2020-12-20T12:54:41.000Z</time>
      </trkpt>
      <trkpt lat="47.20147" lon="-1.77861">
        <ele>63</ele>
        <time>2020-12-20T12:54:43.000Z</time>
      </trkpt>
      <trkpt lat="47.20143" lon="-1.77847">
        <ele>63</ele>
        <time>2020-12-20T12:54:45.000Z</time>
      </trkpt>
      <trkpt lat="47.20138" lon="-1.77833">
        <ele>63</ele>
        <time>2020-12-20T12:54:47.000Z</time>
      </trkpt>
      <trkpt lat="47.20133" lon="-1.77819">
        <ele>62</ele>
        <time>2020-12-20T12:54:49.000Z</time>
      </trkpt>
      <trkpt lat="47.20127" lon="-1.77801">
        <ele>62</ele>
        <time>2020-12-20T12:54:51.000Z</time>
      </trkpt>
      <trkpt lat="47.20119" lon="-1.77784">
        <ele>60</ele>
        <time>2020-12-20T12:54:53.000Z</time>
      </trkpt>
      <trkpt lat="47.20105" lon="-1.77777">
        <ele>59</ele>
        <time>2020-12-20T12:54:55.000Z</time>
      </trkpt>
      <trkpt lat="47.2009" lon="-1.77779">
        <ele>59</ele>
        <time>2020-12-20T12:54:57.000Z</time>
      </trkpt>
      <trkpt lat="47.20074" lon="-1.7778">
        <ele>59</ele>
        <time>2020-12-20T12:54:59.000Z</time>
      </trkpt>
      <trkpt lat="47.20059" lon="-1.77779">
        <ele>58</ele>
        <time>2020-12-20T12:55:01.000Z</time>
      </trkpt>
      <trkpt lat="47.20045" lon="-1.77778">
        <ele>57</ele>
        <time>2020-12-20T12:55:03.000Z</time>
      </trkpt>
      <trkpt lat="47.20031" lon="-1.77777">
        <ele>57</ele>
        <time>2020-12-20T12:55:05.000Z</time>
      </trkpt>
      <trkpt lat="47.2002" lon="-1.77772">
        <ele>57</ele>
        <time>2020-12-20T12:55:07.000Z</time>
      </trkpt>
      <trkpt lat="47.20014" lon="-1.77762">
        <ele>57</ele>
        <time>2020-12-20T12:55:09.000Z</time>
      </trkpt>
      <trkpt lat="47.20013" lon="-1.77748">
        <ele>56</ele>
        <time>2020-12-20T12:55:11.000Z</time>
      </trkpt>
      <trkpt lat="47.20014" lon="-1.77735">
        <ele>57</ele>
        <time>2020-12-20T12:55:13.000Z</time>
      </trkpt>
      <trkpt lat="47.20015" lon="-1.7772">
        <ele>57</ele>
        <time>2020-12-20T12:55:15.000Z</time>
      </trkpt>
      <trkpt lat="47.20016" lon="-1.77705">
        <ele>57</ele>
        <time>2020-12-20T12:55:17.000Z</time>
      </trkpt>
      <trkpt lat="47.20015" lon="-1.7769">
        <ele>58</ele>
        <time>2020-12-20T12:55:19.000Z</time>
      </trkpt>
      <trkpt lat="47.20015" lon="-1.77674">
        <ele>58</ele>
        <time>2020-12-20T12:55:21.000Z</time>
      </trkpt>
      <trkpt lat="47.20014" lon="-1.77659">
        <ele>59</ele>
        <time>2020-12-20T12:55:23.000Z</time>
      </trkpt>
      <trkpt lat="47.20013" lon="-1.77643">
        <ele>59</ele>
        <time>2020-12-20T12:55:25.000Z</time>
      </trkpt>
      <trkpt lat="47.20013" lon="-1.77627">
        <ele>59</ele>
        <time>2020-12-20T12:55:27.000Z</time>
      </trkpt>
      <trkpt lat="47.20013" lon="-1.77611">
        <ele>60</ele>
        <time>2020-12-20T12:55:29.000Z</time>
      </trkpt>
      <trkpt lat="47.20012" lon="-1.77596">
        <ele>60</ele>
        <time>2020-12-20T12:55:31.000Z</time>
      </trkpt>
      <trkpt lat="47.20011" lon="-1.77581">
        <ele>60</ele>
        <time>2020-12-20T12:55:33.000Z</time>
      </trkpt>
      <trkpt lat="47.20011" lon="-1.77566">
        <ele>61</ele>
        <time>2020-12-20T12:55:35.000Z</time>
      </trkpt>
      <trkpt lat="47.20012" lon="-1.77551">
        <ele>61</ele>
        <time>2020-12-20T12:55:37.000Z</time>
      </trkpt>
      <trkpt lat="47.20012" lon="-1.77536">
        <ele>61</ele>
        <time>2020-12-20T12:55:39.000Z</time>
      </trkpt>
      <trkpt lat="47.20013" lon="-1.7752">
        <ele>61</ele>
        <time>2020-12-20T12:55:41.000Z</time>
      </trkpt>
      <trkpt lat="47.20013" lon="-1.77506">
        <ele>61</ele>
        <time>2020-12-20T12:55:43.000Z</time>
      </trkpt>
      <trkpt lat="47.20013" lon="-1.77491">
        <ele>61</ele>
        <time>2020-12-20T12:55:45.000Z</time>
      </trkpt>
      <trkpt lat="47.20013" lon="-1.77475">
        <ele>62</ele>
        <time>2020-12-20T12:55:47.000Z</time>
      </trkpt>
      <trkpt lat="47.20013" lon="-1.77459">
        <ele>62</ele>
        <time>2020-12-20T12:55:49.000Z</time>
      </trkpt>
      <trkpt lat="47.20014" lon="-1.77442">
        <ele>63</ele>
        <time>2020-12-20T12:55:51.000Z</time>
      </trkpt>
      <trkpt lat="47.20014" lon="-1.77424">
        <ele>63</ele>
        <time>2020-12-20T12:55:53.000Z</time>
      </trkpt>
      <trkpt lat="47.20014" lon="-1.77406">
        <ele>63</ele>
        <time>2020-12-20T12:55:55.000Z</time>
      </trkpt>
      <trkpt lat="47.20014" lon="-1.77387">
        <ele>63</ele>
        <time>2020-12-20T12:55:57.000Z</time>
      </trkpt>
      <trkpt lat="47.20015" lon="-1.77369">
        <ele>63</ele>
        <time>2020-12-20T12:55:59.000Z</time>
      </trkpt>
      <trkpt lat="47.20015" lon="-1.77349">
        <ele>62</ele>
        <time>2020-12-20T12:56:01.000Z</time>
      </trkpt>
      <trkpt lat="47.20016" lon="-1.7733">
        <ele>63</ele>
        <time>2020-12-20T12:56:03.000Z</time>
      </trkpt>
      <trkpt lat="47.20016" lon="-1.7731">
        <ele>63</ele>
        <time>2020-12-20T12:56:05.000Z</time>
      </trkpt>
      <trkpt lat="47.20017" lon="-1.77291">
        <ele>62</ele>
        <time>2020-12-20T12:56:07.000Z</time>
      </trkpt>
      <trkpt lat="47.20017" lon="-1.77271">
        <ele>62</ele>
        <time>2020-12-20T12:56:09.000Z</time>
      </trkpt>
      <trkpt lat="47.20018" lon="-1.77252">
        <ele>62</ele>
        <time>2020-12-20T12:56:11.000Z</time>
      </trkpt>
      <trkpt lat="47.20018" lon="-1.77231">
        <ele>61</ele>
        <time>2020-12-20T12:56:13.000Z</time>
      </trkpt>
      <trkpt lat="47.20018" lon="-1.77212">
        <ele>61</ele>
        <time>2020-12-20T12:56:15.000Z</time>
      </trkpt>
      <trkpt lat="47.20017" lon="-1.77193">
        <ele>61</ele>
        <time>2020-12-20T12:56:17.000Z</time>
      </trkpt>
      <trkpt lat="47.20018" lon="-1.77175">
        <ele>61</ele>
        <time>2020-12-20T12:56:19.000Z</time>
      </trkpt>
      <trkpt lat="47.2002" lon="-1.77157">
        <ele>61</ele>
        <time>2020-12-20T12:56:21.000Z</time>
      </trkpt>
      <trkpt lat="47.2002" lon="-1.77137">
        <ele>61</ele>
        <time>2020-12-20T12:56:23.000Z</time>
      </trkpt>
      <trkpt lat="47.2002" lon="-1.77118">
        <ele>61</ele>
        <time>2020-12-20T12:56:25.000Z</time>
      </trkpt>
      <trkpt lat="47.2002" lon="-1.771">
        <ele>61</ele>
        <time>2020-12-20T12:56:27.000Z</time>
      </trkpt>
      <trkpt lat="47.2002" lon="-1.77082">
        <ele>61</ele>
        <time>2020-12-20T12:56:29.000Z</time>
      </trkpt>
      <trkpt lat="47.2002" lon="-1.77064">
        <ele>62</ele>
        <time>2020-12-20T12:56:31.000Z</time>
      </trkpt>
      <trkpt lat="47.2002" lon="-1.77047">
        <ele>62</ele>
        <time>2020-12-20T12:56:33.000Z</time>
      </trkpt>
      <trkpt lat="47.20021" lon="-1.77029">
        <ele>62</ele>
        <time>2020-12-20T12:56:35.000Z</time>
      </trkpt>
      <trkpt lat="47.20021" lon="-1.77009">
        <ele>61</ele>
        <time>2020-12-20T12:56:37.000Z</time>
      </trkpt>
      <trkpt lat="47.20022" lon="-1.76991">
        <ele>62</ele>
        <time>2020-12-20T12:56:39.000Z</time>
      </trkpt>
      <trkpt lat="47.20022" lon="-1.76973">
        <ele>62</ele>
        <time>2020-12-20T12:56:41.000Z</time>
      </trkpt>
      <trkpt lat="47.20022" lon="-1.76955">
        <ele>62</ele>
        <time>2020-12-20T12:56:43.000Z</time>
      </trkpt>
      <trkpt lat="47.20023" lon="-1.76937">
        <ele>63</ele>
        <time>2020-12-20T12:56:45.000Z</time>
      </trkpt>
      <trkpt lat="47.20023" lon="-1.7692">
        <ele>63</ele>
        <time>2020-12-20T12:56:47.000Z</time>
      </trkpt>
      <trkpt lat="47.20024" lon="-1.76902">
        <ele>63</ele>
        <time>2020-12-20T12:56:49.000Z</time>
      </trkpt>
      <trkpt lat="47.20024" lon="-1.76885">
        <ele>63</ele>
        <time>2020-12-20T12:56:51.000Z</time>
      </trkpt>
      <trkpt lat="47.20025" lon="-1.76868">
        <ele>64</ele>
        <time>2020-12-20T12:56:53.000Z</time>
      </trkpt>
      <trkpt lat="47.20026" lon="-1.7685">
        <ele>64</ele>
        <time>2020-12-20T12:56:55.000Z</time>
      </trkpt>
      <trkpt lat="47.20026" lon="-1.76832">
        <ele>64</ele>
        <time>2020-12-20T12:56:57.000Z</time>
      </trkpt>
      <trkpt lat="47.20027" lon="-1.76813">
        <ele>64</ele>
        <time>2020-12-20T12:56:59.000Z</time>
      </trkpt>
      <trkpt lat="47.20027" lon="-1.76794">
        <ele>64</ele>
        <time>2020-12-20T12:57:01.000Z</time>
      </trkpt>
      <trkpt lat="47.20027" lon="-1.76777">
        <ele>64</ele>
        <time>2020-12-20T12:57:03.000Z</time>
      </trkpt>
      <trkpt lat="47.20028" lon="-1.76759">
        <ele>64</ele>
        <time>2020-12-20T12:57:05.000Z</time>
      </trkpt>
      <trkpt lat="47.20029" lon="-1.7674">
        <ele>64</ele>
        <time>2020-12-20T12:57:07.000Z</time>
      </trkpt>
      <trkpt lat="47.20029" lon="-1.76722">
        <ele>64</ele>
        <time>2020-12-20T12:57:09.000Z</time>
      </trkpt>
      <trkpt lat="47.2003" lon="-1.76704">
        <ele>65</ele>
        <time>2020-12-20T12:57:11.000Z</time>
      </trkpt>
      <trkpt lat="47.2003" lon="-1.76685">
        <ele>65</ele>
        <time>2020-12-20T12:57:13.000Z</time>
      </trkpt>
      <trkpt lat="47.20031" lon="-1.76667">
        <ele>65</ele>
        <time>2020-12-20T12:57:15.000Z</time>
      </trkpt>
      <trkpt lat="47.20031" lon="-1.76649">
        <ele>65</ele>
        <time>2020-12-20T12:57:17.000Z</time>
      </trkpt>
      <trkpt lat="47.20032" lon="-1.76631">
        <ele>65</ele>
        <time>2020-12-20T12:57:19.000Z</time>
      </trkpt>
      <trkpt lat="47.20032" lon="-1.76613">
        <ele>65</ele>
        <time>2020-12-20T12:57:21.000Z</time>
      </trkpt>
      <trkpt lat="47.20033" lon="-1.76595">
        <ele>65</ele>
        <time>2020-12-20T12:57:23.000Z</time>
      </trkpt>
      <trkpt lat="47.20034" lon="-1.76576">
        <ele>65</ele>
        <time>2020-12-20T12:57:25.000Z</time>
      </trkpt>
      <trkpt lat="47.20035" lon="-1.76557">
        <ele>65</ele>
        <time>2020-12-20T12:57:27.000Z</time>
      </trkpt>
      <trkpt lat="47.20036" lon="-1.76539">
        <ele>65</ele>
        <time>2020-12-20T12:57:29.000Z</time>
      </trkpt>
      <trkpt lat="47.20037" lon="-1.7652">
        <ele>65</ele>
        <time>2020-12-20T12:57:31.000Z</time>
      </trkpt>
      <trkpt lat="47.20037" lon="-1.76502">
        <ele>65</ele>
        <time>2020-12-20T12:57:33.000Z</time>
      </trkpt>
      <trkpt lat="47.20038" lon="-1.76483">
        <ele>65</ele>
        <time>2020-12-20T12:57:35.000Z</time>
      </trkpt>
      <trkpt lat="47.2004" lon="-1.76464">
        <ele>65</ele>
        <time>2020-12-20T12:57:37.000Z</time>
      </trkpt>
      <trkpt lat="47.20041" lon="-1.76446">
        <ele>65</ele>
        <time>2020-12-20T12:57:39.000Z</time>
      </trkpt>
      <trkpt lat="47.20042" lon="-1.76429">
        <ele>65</ele>
        <time>2020-12-20T12:57:41.000Z</time>
      </trkpt>
      <trkpt lat="47.20043" lon="-1.76412">
        <ele>65</ele>
        <time>2020-12-20T12:57:43.000Z</time>
      </trkpt>
      <trkpt lat="47.20044" lon="-1.76395">
        <ele>65</ele>
        <time>2020-12-20T12:57:45.000Z</time>
      </trkpt>
      <trkpt lat="47.20045" lon="-1.76376">
        <ele>65</ele>
        <time>2020-12-20T12:57:47.000Z</time>
      </trkpt>
      <trkpt lat="47.20046" lon="-1.76357">
        <ele>64</ele>
        <time>2020-12-20T12:57:49.000Z</time>
      </trkpt>
      <trkpt lat="47.20046" lon="-1.76339">
        <ele>64</ele>
        <time>2020-12-20T12:57:51.000Z</time>
      </trkpt>
      <trkpt lat="47.20048" lon="-1.76319">
        <ele>64</ele>
        <time>2020-12-20T12:57:53.000Z</time>
      </trkpt>
      <trkpt lat="47.20049" lon="-1.76301">
        <ele>64</ele>
        <time>2020-12-20T12:57:55.000Z</time>
      </trkpt>
      <trkpt lat="47.2005" lon="-1.76282">
        <ele>64</ele>
        <time>2020-12-20T12:57:57.000Z</time>
      </trkpt>
      <trkpt lat="47.20052" lon="-1.76263">
        <ele>63</ele>
        <time>2020-12-20T12:57:59.000Z</time>
      </trkpt>
      <trkpt lat="47.20053" lon="-1.76245">
        <ele>64</ele>
        <time>2020-12-20T12:58:01.000Z</time>
      </trkpt>
      <trkpt lat="47.20054" lon="-1.76227">
        <ele>64</ele>
        <time>2020-12-20T12:58:03.000Z</time>
      </trkpt>
      <trkpt lat="47.20055" lon="-1.76209">
        <ele>64</ele>
        <time>2020-12-20T12:58:05.000Z</time>
      </trkpt>
      <trkpt lat="47.20055" lon="-1.7619">
        <ele>63</ele>
        <time>2020-12-20T12:58:07.000Z</time>
      </trkpt>
      <trkpt lat="47.20056" lon="-1.76172">
        <ele>63</ele>
        <time>2020-12-20T12:58:09.000Z</time>
      </trkpt>
      <trkpt lat="47.20056" lon="-1.76153">
        <ele>63</ele>
        <time>2020-12-20T12:58:11.000Z</time>
      </trkpt>
      <trkpt lat="47.20055" lon="-1.76133">
        <ele>63</ele>
        <time>2020-12-20T12:58:13.000Z</time>
      </trkpt>
      <trkpt lat="47.20054" lon="-1.76115">
        <ele>62</ele>
        <time>2020-12-20T12:58:15.000Z</time>
      </trkpt>
      <trkpt lat="47.20054" lon="-1.76096">
        <ele>62</ele>
        <time>2020-12-20T12:58:17.000Z</time>
      </trkpt>
      <trkpt lat="47.20053" lon="-1.76076">
        <ele>61</ele>
        <time>2020-12-20T12:58:19.000Z</time>
      </trkpt>
      <trkpt lat="47.20052" lon="-1.76056">
        <ele>61</ele>
        <time>2020-12-20T12:58:21.000Z</time>
      </trkpt>
      <trkpt lat="47.20051" lon="-1.76037">
        <ele>61</ele>
        <time>2020-12-20T12:58:23.000Z</time>
      </trkpt>
      <trkpt lat="47.20051" lon="-1.76019">
        <ele>62</ele>
        <time>2020-12-20T12:58:25.000Z</time>
      </trkpt>
      <trkpt lat="47.2005" lon="-1.76002">
        <ele>61</ele>
        <time>2020-12-20T12:58:27.000Z</time>
      </trkpt>
      <trkpt lat="47.20045" lon="-1.75988">
        <ele>61</ele>
        <time>2020-12-20T12:58:29.000Z</time>
      </trkpt>
      <trkpt lat="47.20044" lon="-1.7597">
        <ele>62</ele>
        <time>2020-12-20T12:58:31.000Z</time>
      </trkpt>
      <trkpt lat="47.20049" lon="-1.75953">
        <ele>62</ele>
        <time>2020-12-20T12:58:33.000Z</time>
      </trkpt>
      <trkpt lat="47.2005" lon="-1.75933">
        <ele>62</ele>
        <time>2020-12-20T12:58:35.000Z</time>
      </trkpt>
      <trkpt lat="47.20049" lon="-1.75914">
        <ele>62</ele>
        <time>2020-12-20T12:58:37.000Z</time>
      </trkpt>
      <trkpt lat="47.20047" lon="-1.75894">
        <ele>62</ele>
        <time>2020-12-20T12:58:39.000Z</time>
      </trkpt>
      <trkpt lat="47.20046" lon="-1.75875">
        <ele>62</ele>
        <time>2020-12-20T12:58:41.000Z</time>
      </trkpt>
      <trkpt lat="47.20045" lon="-1.75856">
        <ele>62</ele>
        <time>2020-12-20T12:58:43.000Z</time>
      </trkpt>
      <trkpt lat="47.20045" lon="-1.75838">
        <ele>63</ele>
        <time>2020-12-20T12:58:45.000Z</time>
      </trkpt>
      <trkpt lat="47.20044" lon="-1.75819">
        <ele>63</ele>
        <time>2020-12-20T12:58:47.000Z</time>
      </trkpt>
      <trkpt lat="47.20044" lon="-1.75801">
        <ele>63</ele>
        <time>2020-12-20T12:58:49.000Z</time>
      </trkpt>
      <trkpt lat="47.20043" lon="-1.75782">
        <ele>62</ele>
        <time>2020-12-20T12:58:51.000Z</time>
      </trkpt>
      <trkpt lat="47.20042" lon="-1.75763">
        <ele>62</ele>
        <time>2020-12-20T12:58:53.000Z</time>
      </trkpt>
      <trkpt lat="47.2004" lon="-1.75745">
        <ele>63</ele>
        <time>2020-12-20T12:58:55.000Z</time>
      </trkpt>
      <trkpt lat="47.20039" lon="-1.75727">
        <ele>63</ele>
        <time>2020-12-20T12:58:57.000Z</time>
      </trkpt>
      <trkpt lat="47.20035" lon="-1.7571">
        <ele>63</ele>
        <time>2020-12-20T12:58:59.000Z</time>
      </trkpt>
      <trkpt lat="47.2003" lon="-1.75694">
        <ele>64</ele>
        <time>2020-12-20T12:59:01.000Z</time>
      </trkpt>
      <trkpt lat="47.20025" lon="-1.75676">
        <ele>64</ele>
        <time>2020-12-20T12:59:03.000Z</time>
      </trkpt>
      <trkpt lat="47.20021" lon="-1.75659">
        <ele>64</ele>
        <time>2020-12-20T12:59:05.000Z</time>
      </trkpt>
      <trkpt lat="47.20016" lon="-1.75644">
        <ele>65</ele>
        <time>2020-12-20T12:59:07.000Z</time>
      </trkpt>
      <trkpt lat="47.20011" lon="-1.75627">
        <ele>65</ele>
        <time>2020-12-20T12:59:09.000Z</time>
      </trkpt>
      <trkpt lat="47.20006" lon="-1.75611">
        <ele>65</ele>
        <time>2020-12-20T12:59:11.000Z</time>
      </trkpt>
      <trkpt lat="47.20001" lon="-1.75595">
        <ele>66</ele>
        <time>2020-12-20T12:59:13.000Z</time>
      </trkpt>
      <trkpt lat="47.19997" lon="-1.7558">
        <ele>67</ele>
        <time>2020-12-20T12:59:15.000Z</time>
      </trkpt>
      <trkpt lat="47.19994" lon="-1.75566">
        <ele>67</ele>
        <time>2020-12-20T12:59:17.000Z</time>
      </trkpt>
      <trkpt lat="47.19991" lon="-1.75552">
        <ele>67</ele>
        <time>2020-12-20T12:59:19.000Z</time>
      </trkpt>
      <trkpt lat="47.19987" lon="-1.75539">
        <ele>67</ele>
        <time>2020-12-20T12:59:21.000Z</time>
      </trkpt>
      <trkpt lat="47.19982" lon="-1.75524">
        <ele>68</ele>
        <time>2020-12-20T12:59:23.000Z</time>
      </trkpt>
      <trkpt lat="47.19976" lon="-1.75509">
        <ele>69</ele>
        <time>2020-12-20T12:59:25.000Z</time>
      </trkpt>
      <trkpt lat="47.19971" lon="-1.75494">
        <ele>70</ele>
        <time>2020-12-20T12:59:27.000Z</time>
      </trkpt>
      <trkpt lat="47.19967" lon="-1.75478">
        <ele>70</ele>
        <time>2020-12-20T12:59:29.000Z</time>
      </trkpt>
      <trkpt lat="47.19963" lon="-1.75462">
        <ele>70</ele>
        <time>2020-12-20T12:59:31.000Z</time>
      </trkpt>
      <trkpt lat="47.1996" lon="-1.75447">
        <ele>70</ele>
        <time>2020-12-20T12:59:33.000Z</time>
      </trkpt>
      <trkpt lat="47.19957" lon="-1.75431">
        <ele>70</ele>
        <time>2020-12-20T12:59:35.000Z</time>
      </trkpt>
      <trkpt lat="47.19955" lon="-1.75413">
        <ele>70</ele>
        <time>2020-12-20T12:59:37.000Z</time>
      </trkpt>
      <trkpt lat="47.19952" lon="-1.75396">
        <ele>70</ele>
        <time>2020-12-20T12:59:39.000Z</time>
      </trkpt>
      <trkpt lat="47.19951" lon="-1.75378">
        <ele>70</ele>
        <time>2020-12-20T12:59:41.000Z</time>
      </trkpt>
      <trkpt lat="47.1995" lon="-1.7536">
        <ele>70</ele>
        <time>2020-12-20T12:59:43.000Z</time>
      </trkpt>
      <trkpt lat="47.19949" lon="-1.75342">
        <ele>70</ele>
        <time>2020-12-20T12:59:45.000Z</time>
      </trkpt>
      <trkpt lat="47.19948" lon="-1.75325">
        <ele>70</ele>
        <time>2020-12-20T12:59:47.000Z</time>
      </trkpt>
      <trkpt lat="47.19945" lon="-1.75309">
        <ele>70</ele>
        <time>2020-12-20T12:59:49.000Z</time>
      </trkpt>
      <trkpt lat="47.19941" lon="-1.75292">
        <ele>70</ele>
        <time>2020-12-20T12:59:51.000Z</time>
      </trkpt>
      <trkpt lat="47.19936" lon="-1.75276">
        <ele>69</ele>
        <time>2020-12-20T12:59:53.000Z</time>
      </trkpt>
      <trkpt lat="47.1993" lon="-1.75261">
        <ele>69</ele>
        <time>2020-12-20T12:59:55.000Z</time>
      </trkpt>
      <trkpt lat="47.19924" lon="-1.75246">
        <ele>68</ele>
        <time>2020-12-20T12:59:57.000Z</time>
      </trkpt>
      <trkpt lat="47.19917" lon="-1.7523">
        <ele>69</ele>
        <time>2020-12-20T12:59:59.000Z</time>
      </trkpt>
      <trkpt lat="47.19911" lon="-1.75215">
        <ele>69</ele>
        <time>2020-12-20T13:00:01.000Z</time>
      </trkpt>
      <trkpt lat="47.19904" lon="-1.75199">
        <ele>69</ele>
        <time>2020-12-20T13:00:03.000Z</time>
      </trkpt>
      <trkpt lat="47.19899" lon="-1.75184">
        <ele>70</ele>
        <time>2020-12-20T13:00:05.000Z</time>
      </trkpt>
      <trkpt lat="47.19893" lon="-1.75169">
        <ele>70</ele>
        <time>2020-12-20T13:00:07.000Z</time>
      </trkpt>
      <trkpt lat="47.19887" lon="-1.75154">
        <ele>69</ele>
        <time>2020-12-20T13:00:09.000Z</time>
      </trkpt>
      <trkpt lat="47.19881" lon="-1.75139">
        <ele>69</ele>
        <time>2020-12-20T13:00:11.000Z</time>
      </trkpt>
      <trkpt lat="47.19875" lon="-1.75125">
        <ele>69</ele>
        <time>2020-12-20T13:00:13.000Z</time>
      </trkpt>
      <trkpt lat="47.19868" lon="-1.75112">
        <ele>69</ele>
        <time>2020-12-20T13:00:15.000Z</time>
      </trkpt>
      <trkpt lat="47.19863" lon="-1.75097">
        <ele>69</ele>
        <time>2020-12-20T13:00:17.000Z</time>
      </trkpt>
      <trkpt lat="47.19856" lon="-1.75083">
        <ele>70</ele>
        <time>2020-12-20T13:00:19.000Z</time>
      </trkpt>
      <trkpt lat="47.1985" lon="-1.75068">
        <ele>70</ele>
        <time>2020-12-20T13:00:21.000Z</time>
      </trkpt>
      <trkpt lat="47.19844" lon="-1.75053">
        <ele>70</ele>
        <time>2020-12-20T13:00:23.000Z</time>
      </trkpt>
      <trkpt lat="47.19838" lon="-1.75038">
        <ele>69</ele>
        <time>2020-12-20T13:00:25.000Z</time>
      </trkpt>
      <trkpt lat="47.19832" lon="-1.75021">
        <ele>69</ele>
        <time>2020-12-20T13:00:27.000Z</time>
      </trkpt>
      <trkpt lat="47.19823" lon="-1.75009">
        <ele>68</ele>
        <time>2020-12-20T13:00:29.000Z</time>
      </trkpt>
      <trkpt lat="47.19811" lon="-1.75002">
        <ele>68</ele>
        <time>2020-12-20T13:00:31.000Z</time>
      </trkpt>
      <trkpt lat="47.19799" lon="-1.74998">
        <ele>69</ele>
        <time>2020-12-20T13:00:33.000Z</time>
      </trkpt>
      <trkpt lat="47.19787" lon="-1.74994">
        <ele>70</ele>
        <time>2020-12-20T13:00:35.000Z</time>
      </trkpt>
      <trkpt lat="47.19775" lon="-1.74988">
        <ele>70</ele>
        <time>2020-12-20T13:00:37.000Z</time>
      </trkpt>
      <trkpt lat="47.19763" lon="-1.74984">
        <ele>70</ele>
        <time>2020-12-20T13:00:39.000Z</time>
      </trkpt>
      <trkpt lat="47.19752" lon="-1.74979">
        <ele>70</ele>
        <time>2020-12-20T13:00:41.000Z</time>
      </trkpt>
      <trkpt lat="47.1974" lon="-1.74973">
        <ele>71</ele>
        <time>2020-12-20T13:00:43.000Z</time>
      </trkpt>
      <trkpt lat="47.19728" lon="-1.74966">
        <ele>72</ele>
        <time>2020-12-20T13:00:45.000Z</time>
      </trkpt>
      <trkpt lat="47.19717" lon="-1.74958">
        <ele>72</ele>
        <time>2020-12-20T13:00:47.000Z</time>
      </trkpt>
      <trkpt lat="47.19706" lon="-1.74953">
        <ele>72</ele>
        <time>2020-12-20T13:00:49.000Z</time>
      </trkpt>
      <trkpt lat="47.19694" lon="-1.74949">
        <ele>72</ele>
        <time>2020-12-20T13:00:51.000Z</time>
      </trkpt>
      <trkpt lat="47.19683" lon="-1.74944">
        <ele>72</ele>
        <time>2020-12-20T13:00:53.000Z</time>
      </trkpt>
      <trkpt lat="47.19672" lon="-1.74937">
        <ele>73</ele>
        <time>2020-12-20T13:00:55.000Z</time>
      </trkpt>
      <trkpt lat="47.1966" lon="-1.74932">
        <ele>73</ele>
        <time>2020-12-20T13:00:57.000Z</time>
      </trkpt>
      <trkpt lat="47.19648" lon="-1.74925">
        <ele>73</ele>
        <time>2020-12-20T13:00:59.000Z</time>
      </trkpt>
      <trkpt lat="47.19636" lon="-1.74919">
        <ele>73</ele>
        <time>2020-12-20T13:01:01.000Z</time>
      </trkpt>
      <trkpt lat="47.19624" lon="-1.74912">
        <ele>72</ele>
        <time>2020-12-20T13:01:03.000Z</time>
      </trkpt>
      <trkpt lat="47.19612" lon="-1.74905">
        <ele>72</ele>
        <time>2020-12-20T13:01:05.000Z</time>
      </trkpt>
      <trkpt lat="47.19601" lon="-1.74896">
        <ele>72</ele>
        <time>2020-12-20T13:01:07.000Z</time>
      </trkpt>
      <trkpt lat="47.19591" lon="-1.74885">
        <ele>71</ele>
        <time>2020-12-20T13:01:09.000Z</time>
      </trkpt>
      <trkpt lat="47.19581" lon="-1.74872">
        <ele>70</ele>
        <time>2020-12-20T13:01:11.000Z</time>
      </trkpt>
      <trkpt lat="47.19571" lon="-1.74859">
        <ele>69</ele>
        <time>2020-12-20T13:01:13.000Z</time>
      </trkpt>
      <trkpt lat="47.1956" lon="-1.74847">
        <ele>69</ele>
        <time>2020-12-20T13:01:15.000Z</time>
      </trkpt>
      <trkpt lat="47.19549" lon="-1.74835">
        <ele>68</ele>
        <time>2020-12-20T13:01:17.000Z</time>
      </trkpt>
      <trkpt lat="47.19538" lon="-1.74822">
        <ele>67</ele>
        <time>2020-12-20T13:01:19.000Z</time>
      </trkpt>
      <trkpt lat="47.19527" lon="-1.74812">
        <ele>67</ele>
        <time>2020-12-20T13:01:21.000Z</time>
      </trkpt>
      <trkpt lat="47.19515" lon="-1.74802">
        <ele>66</ele>
        <time>2020-12-20T13:01:23.000Z</time>
      </trkpt>
      <trkpt lat="47.19502" lon="-1.74794">
        <ele>65</ele>
        <time>2020-12-20T13:01:25.000Z</time>
      </trkpt>
      <trkpt lat="47.19491" lon="-1.74787">
        <ele>65</ele>
        <time>2020-12-20T13:01:27.000Z</time>
      </trkpt>
      <trkpt lat="47.19479" lon="-1.74782">
        <ele>66</ele>
        <time>2020-12-20T13:01:29.000Z</time>
      </trkpt>
      <trkpt lat="47.19468" lon="-1.74781">
        <ele>65</ele>
        <time>2020-12-20T13:01:31.000Z</time>
      </trkpt>
      <trkpt lat="47.19456" lon="-1.74782">
        <ele>66</ele>
        <time>2020-12-20T13:01:33.000Z</time>
      </trkpt>
      <trkpt lat="47.19444" lon="-1.74777">
        <ele>66</ele>
        <time>2020-12-20T13:01:35.000Z</time>
      </trkpt>
      <trkpt lat="47.19436" lon="-1.74766">
        <ele>66</ele>
        <time>2020-12-20T13:01:37.000Z</time>
      </trkpt>
      <trkpt lat="47.19428" lon="-1.74753">
        <ele>66</ele>
        <time>2020-12-20T13:01:39.000Z</time>
      </trkpt>
      <trkpt lat="47.19417" lon="-1.74743">
        <ele>66</ele>
        <time>2020-12-20T13:01:41.000Z</time>
      </trkpt>
      <trkpt lat="47.19406" lon="-1.74734">
        <ele>67</ele>
        <time>2020-12-20T13:01:43.000Z</time>
      </trkpt>
      <trkpt lat="47.19395" lon="-1.74724">
        <ele>67</ele>
        <time>2020-12-20T13:01:45.000Z</time>
      </trkpt>
      <trkpt lat="47.19385" lon="-1.74715">
        <ele>68</ele>
        <time>2020-12-20T13:01:47.000Z</time>
      </trkpt>
      <trkpt lat="47.19375" lon="-1.74707">
        <ele>68</ele>
        <time>2020-12-20T13:01:49.000Z</time>
      </trkpt>
      <trkpt lat="47.19365" lon="-1.74698">
        <ele>68</ele>
        <time>2020-12-20T13:01:51.000Z</time>
      </trkpt>
      <trkpt lat="47.19355" lon="-1.74689">
        <ele>69</ele>
        <time>2020-12-20T13:01:53.000Z</time>
      </trkpt>
      <trkpt lat="47.19345" lon="-1.7468">
        <ele>69</ele>
        <time>2020-12-20T13:01:55.000Z</time>
      </trkpt>
      <trkpt lat="47.19334" lon="-1.74672">
        <ele>69</ele>
        <time>2020-12-20T13:01:57.000Z</time>
      </trkpt>
      <trkpt lat="47.19324" lon="-1.74663">
        <ele>70</ele>
        <time>2020-12-20T13:01:59.000Z</time>
      </trkpt>
      <trkpt lat="47.19315" lon="-1.74656">
        <ele>71</ele>
        <time>2020-12-20T13:02:01.000Z</time>
      </trkpt>
      <trkpt lat="47.19305" lon="-1.74648">
        <ele>71</ele>
        <time>2020-12-20T13:02:03.000Z</time>
      </trkpt>
      <trkpt lat="47.19295" lon="-1.7464">
        <ele>72</ele>
        <time>2020-12-20T13:02:05.000Z</time>
      </trkpt>
      <trkpt lat="47.19285" lon="-1.74632">
        <ele>72</ele>
        <time>2020-12-20T13:02:07.000Z</time>
      </trkpt>
      <trkpt lat="47.19276" lon="-1.74624">
        <ele>72</ele>
        <time>2020-12-20T13:02:09.000Z</time>
      </trkpt>
      <trkpt lat="47.19266" lon="-1.74616">
        <ele>73</ele>
        <time>2020-12-20T13:02:11.000Z</time>
      </trkpt>
      <trkpt lat="47.19257" lon="-1.74607">
        <ele>73</ele>
        <time>2020-12-20T13:02:13.000Z</time>
      </trkpt>
      <trkpt lat="47.19248" lon="-1.74598">
        <ele>73</ele>
        <time>2020-12-20T13:02:15.000Z</time>
      </trkpt>
      <trkpt lat="47.19238" lon="-1.7459">
        <ele>73</ele>
        <time>2020-12-20T13:02:17.000Z</time>
      </trkpt>
      <trkpt lat="47.19229" lon="-1.74581">
        <ele>73</ele>
        <time>2020-12-20T13:02:19.000Z</time>
      </trkpt>
      <trkpt lat="47.1922" lon="-1.74571">
        <ele>73</ele>
        <time>2020-12-20T13:02:21.000Z</time>
      </trkpt>
      <trkpt lat="47.1921" lon="-1.74562">
        <ele>73</ele>
        <time>2020-12-20T13:02:23.000Z</time>
      </trkpt>
      <trkpt lat="47.19202" lon="-1.74553">
        <ele>74</ele>
        <time>2020-12-20T13:02:25.000Z</time>
      </trkpt>
      <trkpt lat="47.19192" lon="-1.74544">
        <ele>73</ele>
        <time>2020-12-20T13:02:27.000Z</time>
      </trkpt>
      <trkpt lat="47.19183" lon="-1.74535">
        <ele>73</ele>
        <time>2020-12-20T13:02:29.000Z</time>
      </trkpt>
      <trkpt lat="47.19174" lon="-1.74527">
        <ele>73</ele>
        <time>2020-12-20T13:02:31.000Z</time>
      </trkpt>
      <trkpt lat="47.19165" lon="-1.74518">
        <ele>73</ele>
        <time>2020-12-20T13:02:33.000Z</time>
      </trkpt>
      <trkpt lat="47.19155" lon="-1.74508">
        <ele>72</ele>
        <time>2020-12-20T13:02:35.000Z</time>
      </trkpt>
      <trkpt lat="47.19146" lon="-1.74499">
        <ele>72</ele>
        <time>2020-12-20T13:02:37.000Z</time>
      </trkpt>
      <trkpt lat="47.19137" lon="-1.7449">
        <ele>72</ele>
        <time>2020-12-20T13:02:39.000Z</time>
      </trkpt>
      <trkpt lat="47.19128" lon="-1.74479">
        <ele>72</ele>
        <time>2020-12-20T13:02:41.000Z</time>
      </trkpt>
      <trkpt lat="47.19118" lon="-1.7447">
        <ele>71</ele>
        <time>2020-12-20T13:02:43.000Z</time>
      </trkpt>
      <trkpt lat="47.19108" lon="-1.7446">
        <ele>71</ele>
        <time>2020-12-20T13:02:45.000Z</time>
      </trkpt>
      <trkpt lat="47.19099" lon="-1.7445">
        <ele>71</ele>
        <time>2020-12-20T13:02:47.000Z</time>
      </trkpt>
      <trkpt lat="47.19089" lon="-1.7444">
        <ele>70</ele>
        <time>2020-12-20T13:02:49.000Z</time>
      </trkpt>
      <trkpt lat="47.19079" lon="-1.74431">
        <ele>70</ele>
        <time>2020-12-20T13:02:51.000Z</time>
      </trkpt>
      <trkpt lat="47.19069" lon="-1.74421">
        <ele>70</ele>
        <time>2020-12-20T13:02:53.000Z</time>
      </trkpt>
      <trkpt lat="47.19059" lon="-1.74412">
        <ele>71</ele>
        <time>2020-12-20T13:02:55.000Z</time>
      </trkpt>
      <trkpt lat="47.19049" lon="-1.74403">
        <ele>71</ele>
        <time>2020-12-20T13:02:57.000Z</time>
      </trkpt>
      <trkpt lat="47.1904" lon="-1.74393">
        <ele>71</ele>
        <time>2020-12-20T13:02:59.000Z</time>
      </trkpt>
      <trkpt lat="47.1903" lon="-1.74382">
        <ele>71</ele>
        <time>2020-12-20T13:03:01.000Z</time>
      </trkpt>
      <trkpt lat="47.1902" lon="-1.74372">
        <ele>70</ele>
        <time>2020-12-20T13:03:03.000Z</time>
      </trkpt>
      <trkpt lat="47.19011" lon="-1.74363">
        <ele>71</ele>
        <time>2020-12-20T13:03:05.000Z</time>
      </trkpt>
      <trkpt lat="47.19001" lon="-1.74353">
        <ele>71</ele>
        <time>2020-12-20T13:03:07.000Z</time>
      </trkpt>
      <trkpt lat="47.18991" lon="-1.74342">
        <ele>72</ele>
        <time>2020-12-20T13:03:09.000Z</time>
      </trkpt>
      <trkpt lat="47.18982" lon="-1.74332">
        <ele>72</ele>
        <time>2020-12-20T13:03:11.000Z</time>
      </trkpt>
      <trkpt lat="47.18972" lon="-1.74323">
        <ele>72</ele>
        <time>2020-12-20T13:03:13.000Z</time>
      </trkpt>
      <trkpt lat="47.18962" lon="-1.74314">
        <ele>73</ele>
        <time>2020-12-20T13:03:15.000Z</time>
      </trkpt>
      <trkpt lat="47.18953" lon="-1.74305">
        <ele>73</ele>
        <time>2020-12-20T13:03:17.000Z</time>
      </trkpt>
      <trkpt lat="47.18943" lon="-1.74296">
        <ele>73</ele>
        <time>2020-12-20T13:03:19.000Z</time>
      </trkpt>
      <trkpt lat="47.18933" lon="-1.74288">
        <ele>74</ele>
        <time>2020-12-20T13:03:21.000Z</time>
      </trkpt>
      <trkpt lat="47.18923" lon="-1.74279">
        <ele>74</ele>
        <time>2020-12-20T13:03:23.000Z</time>
      </trkpt>
      <trkpt lat="47.18913" lon="-1.74272">
        <ele>75</ele>
        <time>2020-12-20T13:03:25.000Z</time>
      </trkpt>
      <trkpt lat="47.18902" lon="-1.74264">
        <ele>75</ele>
        <time>2020-12-20T13:03:27.000Z</time>
      </trkpt>
      <trkpt lat="47.18891" lon="-1.74257">
        <ele>75</ele>
        <time>2020-12-20T13:03:29.000Z</time>
      </trkpt>
      <trkpt lat="47.1888" lon="-1.7425">
        <ele>75</ele>
        <time>2020-12-20T13:03:31.000Z</time>
      </trkpt>
      <trkpt lat="47.18869" lon="-1.74244">
        <ele>75</ele>
        <time>2020-12-20T13:03:33.000Z</time>
      </trkpt>
      <trkpt lat="47.18857" lon="-1.74239">
        <ele>75</ele>
        <time>2020-12-20T13:03:35.000Z</time>
      </trkpt>
      <trkpt lat="47.18846" lon="-1.74234">
        <ele>75</ele>
        <time>2020-12-20T13:03:37.000Z</time>
      </trkpt>
      <trkpt lat="47.18834" lon="-1.74229">
        <ele>75</ele>
        <time>2020-12-20T13:03:39.000Z</time>
      </trkpt>
      <trkpt lat="47.18823" lon="-1.74226">
        <ele>75</ele>
        <time>2020-12-20T13:03:41.000Z</time>
      </trkpt>
      <trkpt lat="47.18811" lon="-1.74222">
        <ele>75</ele>
        <time>2020-12-20T13:03:43.000Z</time>
      </trkpt>
      <trkpt lat="47.188" lon="-1.74218">
        <ele>75</ele>
        <time>2020-12-20T13:03:45.000Z</time>
      </trkpt>
      <trkpt lat="47.18788" lon="-1.74214">
        <ele>75</ele>
        <time>2020-12-20T13:03:47.000Z</time>
      </trkpt>
      <trkpt lat="47.18776" lon="-1.7421">
        <ele>75</ele>
        <time>2020-12-20T13:03:49.000Z</time>
      </trkpt>
      <trkpt lat="47.18764" lon="-1.74207">
        <ele>75</ele>
        <time>2020-12-20T13:03:51.000Z</time>
      </trkpt>
      <trkpt lat="47.18753" lon="-1.74206">
        <ele>75</ele>
        <time>2020-12-20T13:03:53.000Z</time>
      </trkpt>
      <trkpt lat="47.18741" lon="-1.74203">
        <ele>75</ele>
        <time>2020-12-20T13:03:55.000Z</time>
      </trkpt>
      <trkpt lat="47.18729" lon="-1.742">
        <ele>75</ele>
        <time>2020-12-20T13:03:57.000Z</time>
      </trkpt>
      <trkpt lat="47.18718" lon="-1.74196">
        <ele>75</ele>
        <time>2020-12-20T13:03:59.000Z</time>
      </trkpt>
      <trkpt lat="47.18707" lon="-1.74194">
        <ele>75</ele>
        <time>2020-12-20T13:04:01.000Z</time>
      </trkpt>
      <trkpt lat="47.18696" lon="-1.74191">
        <ele>74</ele>
        <time>2020-12-20T13:04:03.000Z</time>
      </trkpt>
      <trkpt lat="47.18685" lon="-1.74187">
        <ele>74</ele>
        <time>2020-12-20T13:04:05.000Z</time>
      </trkpt>
      <trkpt lat="47.18673" lon="-1.74185">
        <ele>73</ele>
        <time>2020-12-20T13:04:07.000Z</time>
      </trkpt>
      <trkpt lat="47.18661" lon="-1.74181">
        <ele>73</ele>
        <time>2020-12-20T13:04:09.000Z</time>
      </trkpt>
      <trkpt lat="47.18649" lon="-1.74177">
        <ele>72</ele>
        <time>2020-12-20T13:04:11.000Z</time>
      </trkpt>
      <trkpt lat="47.18637" lon="-1.74174">
        <ele>72</ele>
        <time>2020-12-20T13:04:13.000Z</time>
      </trkpt>
      <trkpt lat="47.18624" lon="-1.74171">
        <ele>71</ele>
        <time>2020-12-20T13:04:15.000Z</time>
      </trkpt>
      <trkpt lat="47.18611" lon="-1.74167">
        <ele>71</ele>
        <time>2020-12-20T13:04:17.000Z</time>
      </trkpt>
      <trkpt lat="47.18598" lon="-1.74163">
        <ele>70</ele>
        <time>2020-12-20T13:04:19.000Z</time>
      </trkpt>
      <trkpt lat="47.18586" lon="-1.7416">
        <ele>71</ele>
        <time>2020-12-20T13:04:21.000Z</time>
      </trkpt>
      <trkpt lat="47.18574" lon="-1.74157">
        <ele>71</ele>
        <time>2020-12-20T13:04:23.000Z</time>
      </trkpt>
      <trkpt lat="47.18565" lon="-1.74152">
        <ele>71</ele>
        <time>2020-12-20T13:04:25.000Z</time>
      </trkpt>
      <trkpt lat="47.18554" lon="-1.7415">
        <ele>71</ele>
        <time>2020-12-20T13:04:27.000Z</time>
      </trkpt>
      <trkpt lat="47.18541" lon="-1.74149">
        <ele>71</ele>
        <time>2020-12-20T13:04:29.000Z</time>
      </trkpt>
      <trkpt lat="47.18524" lon="-1.74151">
        <ele>70</ele>
        <time>2020-12-20T13:04:32.000Z</time>
      </trkpt>
      <trkpt lat="47.18514" lon="-1.74155">
        <ele>70</ele>
        <time>2020-12-20T13:04:34.000Z</time>
      </trkpt>
      <trkpt lat="47.18498" lon="-1.74145">
        <ele>71</ele>
        <time>2020-12-20T13:04:37.000Z</time>
      </trkpt>
      <trkpt lat="47.18497" lon="-1.74129">
        <ele>71</ele>
        <time>2020-12-20T13:04:39.000Z</time>
      </trkpt>
      <trkpt lat="47.18502" lon="-1.74113">
        <ele>71</ele>
        <time>2020-12-20T13:04:41.000Z</time>
      </trkpt>
      <trkpt lat="47.18509" lon="-1.74096">
        <ele>70</ele>
        <time>2020-12-20T13:04:43.000Z</time>
      </trkpt>
      <trkpt lat="47.18511" lon="-1.74076">
        <ele>71</ele>
        <time>2020-12-20T13:04:45.000Z</time>
      </trkpt>
      <trkpt lat="47.18514" lon="-1.74057">
        <ele>71</ele>
        <time>2020-12-20T13:04:47.000Z</time>
      </trkpt>
      <trkpt lat="47.18515" lon="-1.74038">
        <ele>71</ele>
        <time>2020-12-20T13:04:49.000Z</time>
      </trkpt>
      <trkpt lat="47.18516" lon="-1.74018">
        <ele>72</ele>
        <time>2020-12-20T13:04:51.000Z</time>
      </trkpt>
      <trkpt lat="47.18517" lon="-1.73999">
        <ele>72</ele>
        <time>2020-12-20T13:04:53.000Z</time>
      </trkpt>
      <trkpt lat="47.18517" lon="-1.7398">
        <ele>72</ele>
        <time>2020-12-20T13:04:55.000Z</time>
      </trkpt>
      <trkpt lat="47.18517" lon="-1.73962">
        <ele>73</ele>
        <time>2020-12-20T13:04:57.000Z</time>
      </trkpt>
      <trkpt lat="47.18517" lon="-1.73943">
        <ele>73</ele>
        <time>2020-12-20T13:04:59.000Z</time>
      </trkpt>
      <trkpt lat="47.18516" lon="-1.73924">
        <ele>74</ele>
        <time>2020-12-20T13:05:01.000Z</time>
      </trkpt>
      <trkpt lat="47.18515" lon="-1.73907">
        <ele>74</ele>
        <time>2020-12-20T13:05:03.000Z</time>
      </trkpt>
      <trkpt lat="47.18514" lon="-1.73889">
        <ele>74</ele>
        <time>2020-12-20T13:05:05.000Z</time>
      </trkpt>
      <trkpt lat="47.18512" lon="-1.73871">
        <ele>74</ele>
        <time>2020-12-20T13:05:07.000Z</time>
      </trkpt>
      <trkpt lat="47.18509" lon="-1.73853">
        <ele>75</ele>
        <time>2020-12-20T13:05:09.000Z</time>
      </trkpt>
      <trkpt lat="47.18508" lon="-1.73835">
        <ele>75</ele>
        <time>2020-12-20T13:05:11.000Z</time>
      </trkpt>
      <trkpt lat="47.18505" lon="-1.73807">
        <ele>75</ele>
        <time>2020-12-20T13:05:14.000Z</time>
      </trkpt>
      <trkpt lat="47.18503" lon="-1.73789">
        <ele>75</ele>
        <time>2020-12-20T13:05:16.000Z</time>
      </trkpt>
      <trkpt lat="47.18501" lon="-1.7376">
        <ele>75</ele>
        <time>2020-12-20T13:05:19.000Z</time>
      </trkpt>
      <trkpt lat="47.18499" lon="-1.73741">
        <ele>74</ele>
        <time>2020-12-20T13:05:21.000Z</time>
      </trkpt>
      <trkpt lat="47.18496" lon="-1.73712">
        <ele>74</ele>
        <time>2020-12-20T13:05:24.000Z</time>
      </trkpt>
      <trkpt lat="47.18495" lon="-1.73693">
        <ele>74</ele>
        <time>2020-12-20T13:05:26.000Z</time>
      </trkpt>
      <trkpt lat="47.18492" lon="-1.73664">
        <ele>74</ele>
        <time>2020-12-20T13:05:29.000Z</time>
      </trkpt>
      <trkpt lat="47.18489" lon="-1.73635">
        <ele>74</ele>
        <time>2020-12-20T13:05:32.000Z</time>
      </trkpt>
      <trkpt lat="47.18488" lon="-1.73615">
        <ele>74</ele>
        <time>2020-12-20T13:05:34.000Z</time>
      </trkpt>
      <trkpt lat="47.18485" lon="-1.73586">
        <ele>74</ele>
        <time>2020-12-20T13:05:37.000Z</time>
      </trkpt>
      <trkpt lat="47.18482" lon="-1.73557">
        <ele>75</ele>
        <time>2020-12-20T13:05:40.000Z</time>
      </trkpt>
      <trkpt lat="47.18479" lon="-1.73527">
        <ele>75</ele>
        <time>2020-12-20T13:05:43.000Z</time>
      </trkpt>
      <trkpt lat="47.18478" lon="-1.73508">
        <ele>74</ele>
        <time>2020-12-20T13:05:45.000Z</time>
      </trkpt>
      <trkpt lat="47.18476" lon="-1.73489">
        <ele>75</ele>
        <time>2020-12-20T13:05:47.000Z</time>
      </trkpt>
      <trkpt lat="47.18473" lon="-1.73461">
        <ele>75</ele>
        <time>2020-12-20T13:05:50.000Z</time>
      </trkpt>
      <trkpt lat="47.1847" lon="-1.73432">
        <ele>75</ele>
        <time>2020-12-20T13:05:53.000Z</time>
      </trkpt>
      <trkpt lat="47.18469" lon="-1.73413">
        <ele>75</ele>
        <time>2020-12-20T13:05:55.000Z</time>
      </trkpt>
      <trkpt lat="47.18467" lon="-1.73394">
        <ele>76</ele>
        <time>2020-12-20T13:05:57.000Z</time>
      </trkpt>
      <trkpt lat="47.18465" lon="-1.73375">
        <ele>75</ele>
        <time>2020-12-20T13:05:59.000Z</time>
      </trkpt>
      <trkpt lat="47.18463" lon="-1.73347">
        <ele>75</ele>
        <time>2020-12-20T13:06:02.000Z</time>
      </trkpt>
      <trkpt lat="47.18461" lon="-1.73328">
        <ele>75</ele>
        <time>2020-12-20T13:06:04.000Z</time>
      </trkpt>
      <trkpt lat="47.18459" lon="-1.7331">
        <ele>75</ele>
        <time>2020-12-20T13:06:06.000Z</time>
      </trkpt>
      <trkpt lat="47.18455" lon="-1.73283">
        <ele>75</ele>
        <time>2020-12-20T13:06:09.000Z</time>
      </trkpt>
      <trkpt lat="47.18452" lon="-1.73255">
        <ele>75</ele>
        <time>2020-12-20T13:06:12.000Z</time>
      </trkpt>
      <trkpt lat="47.18448" lon="-1.73229">
        <ele>75</ele>
        <time>2020-12-20T13:06:15.000Z</time>
      </trkpt>
      <trkpt lat="47.18446" lon="-1.73212">
        <ele>75</ele>
        <time>2020-12-20T13:06:17.000Z</time>
      </trkpt>
      <trkpt lat="47.18443" lon="-1.73194">
        <ele>76</ele>
        <time>2020-12-20T13:06:19.000Z</time>
      </trkpt>
      <trkpt lat="47.1844" lon="-1.73168">
        <ele>76</ele>
        <time>2020-12-20T13:06:22.000Z</time>
      </trkpt>
      <trkpt lat="47.18436" lon="-1.73142">
        <ele>76</ele>
        <time>2020-12-20T13:06:25.000Z</time>
      </trkpt>
      <trkpt lat="47.18433" lon="-1.73124">
        <ele>77</ele>
        <time>2020-12-20T13:06:27.000Z</time>
      </trkpt>
      <trkpt lat="47.18431" lon="-1.73106">
        <ele>77</ele>
        <time>2020-12-20T13:06:29.000Z</time>
      </trkpt>
      <trkpt lat="47.18428" lon="-1.73078">
        <ele>77</ele>
        <time>2020-12-20T13:06:32.000Z</time>
      </trkpt>
      <trkpt lat="47.18425" lon="-1.7306">
        <ele>77</ele>
        <time>2020-12-20T13:06:34.000Z</time>
      </trkpt>
      <trkpt lat="47.18423" lon="-1.7304">
        <ele>77</ele>
        <time>2020-12-20T13:06:36.000Z</time>
      </trkpt>
      <trkpt lat="47.18419" lon="-1.73012">
        <ele>77</ele>
        <time>2020-12-20T13:06:39.000Z</time>
      </trkpt>
      <trkpt lat="47.18417" lon="-1.72993">
        <ele>77</ele>
        <time>2020-12-20T13:06:41.000Z</time>
      </trkpt>
      <trkpt lat="47.18414" lon="-1.72974">
        <ele>76</ele>
        <time>2020-12-20T13:06:43.000Z</time>
      </trkpt>
      <trkpt lat="47.18412" lon="-1.72955">
        <ele>77</ele>
        <time>2020-12-20T13:06:45.000Z</time>
      </trkpt>
      <trkpt lat="47.18409" lon="-1.72936">
        <ele>76</ele>
        <time>2020-12-20T13:06:47.000Z</time>
      </trkpt>
      <trkpt lat="47.18404" lon="-1.72918">
        <ele>76</ele>
        <time>2020-12-20T13:06:49.000Z</time>
      </trkpt>
      <trkpt lat="47.184" lon="-1.729">
        <ele>76</ele>
        <time>2020-12-20T13:06:51.000Z</time>
      </trkpt>
      <trkpt lat="47.18394" lon="-1.72882">
        <ele>76</ele>
        <time>2020-12-20T13:06:53.000Z</time>
      </trkpt>
      <trkpt lat="47.18388" lon="-1.72864">
        <ele>76</ele>
        <time>2020-12-20T13:06:55.000Z</time>
      </trkpt>
      <trkpt lat="47.18382" lon="-1.72847">
        <ele>76</ele>
        <time>2020-12-20T13:06:57.000Z</time>
      </trkpt>
      <trkpt lat="47.18377" lon="-1.7283">
        <ele>76</ele>
        <time>2020-12-20T13:06:59.000Z</time>
      </trkpt>
      <trkpt lat="47.18371" lon="-1.72813">
        <ele>77</ele>
        <time>2020-12-20T13:07:01.000Z</time>
      </trkpt>
      <trkpt lat="47.18365" lon="-1.72797">
        <ele>76</ele>
        <time>2020-12-20T13:07:03.000Z</time>
      </trkpt>
      <trkpt lat="47.18359" lon="-1.7278">
        <ele>76</ele>
        <time>2020-12-20T13:07:05.000Z</time>
      </trkpt>
      <trkpt lat="47.18354" lon="-1.72764">
        <ele>76</ele>
        <time>2020-12-20T13:07:07.000Z</time>
      </trkpt>
      <trkpt lat="47.18348" lon="-1.72748">
        <ele>77</ele>
        <time>2020-12-20T13:07:09.000Z</time>
      </trkpt>
      <trkpt lat="47.18342" lon="-1.72732">
        <ele>77</ele>
        <time>2020-12-20T13:07:11.000Z</time>
      </trkpt>
      <trkpt lat="47.18336" lon="-1.72716">
        <ele>78</ele>
        <time>2020-12-20T13:07:13.000Z</time>
      </trkpt>
      <trkpt lat="47.18331" lon="-1.727">
        <ele>78</ele>
        <time>2020-12-20T13:07:15.000Z</time>
      </trkpt>
      <trkpt lat="47.18325" lon="-1.72685">
        <ele>79</ele>
        <time>2020-12-20T13:07:17.000Z</time>
      </trkpt>
      <trkpt lat="47.18319" lon="-1.72668">
        <ele>79</ele>
        <time>2020-12-20T13:07:19.000Z</time>
      </trkpt>
      <trkpt lat="47.18313" lon="-1.72652">
        <ele>80</ele>
        <time>2020-12-20T13:07:21.000Z</time>
      </trkpt>
      <trkpt lat="47.18306" lon="-1.72637">
        <ele>81</ele>
        <time>2020-12-20T13:07:23.000Z</time>
      </trkpt>
      <trkpt lat="47.18294" lon="-1.72617">
        <ele>82</ele>
        <time>2020-12-20T13:07:26.000Z</time>
      </trkpt>
      <trkpt lat="47.18284" lon="-1.72606">
        <ele>82</ele>
        <time>2020-12-20T13:07:28.000Z</time>
      </trkpt>
      <trkpt lat="47.18276" lon="-1.72592">
        <ele>82</ele>
        <time>2020-12-20T13:07:30.000Z</time>
      </trkpt>
      <trkpt lat="47.18274" lon="-1.72574">
        <ele>82</ele>
        <time>2020-12-20T13:07:32.000Z</time>
      </trkpt>
      <trkpt lat="47.18273" lon="-1.72556">
        <ele>81</ele>
        <time>2020-12-20T13:07:34.000Z</time>
      </trkpt>
      <trkpt lat="47.18265" lon="-1.72542">
        <ele>81</ele>
        <time>2020-12-20T13:07:36.000Z</time>
      </trkpt>
      <trkpt lat="47.1826" lon="-1.72524">
        <ele>81</ele>
        <time>2020-12-20T13:07:38.000Z</time>
      </trkpt>
      <trkpt lat="47.18258" lon="-1.72505">
        <ele>80</ele>
        <time>2020-12-20T13:07:40.000Z</time>
      </trkpt>
      <trkpt lat="47.18261" lon="-1.72483">
        <ele>79</ele>
        <time>2020-12-20T13:07:42.000Z</time>
      </trkpt>
      <trkpt lat="47.18265" lon="-1.72462">
        <ele>78</ele>
        <time>2020-12-20T13:07:44.000Z</time>
      </trkpt>
      <trkpt lat="47.18268" lon="-1.72438">
        <ele>76</ele>
        <time>2020-12-20T13:07:46.000Z</time>
      </trkpt>
      <trkpt lat="47.1827" lon="-1.72415">
        <ele>76</ele>
        <time>2020-12-20T13:07:48.000Z</time>
      </trkpt>
      <trkpt lat="47.1827" lon="-1.72392">
        <ele>76</ele>
        <time>2020-12-20T13:07:50.000Z</time>
      </trkpt>
      <trkpt lat="47.18269" lon="-1.72369">
        <ele>75</ele>
        <time>2020-12-20T13:07:52.000Z</time>
      </trkpt>
      <trkpt lat="47.18266" lon="-1.72336">
        <ele>74</ele>
        <time>2020-12-20T13:07:55.000Z</time>
      </trkpt>
      <trkpt lat="47.18264" lon="-1.72315">
        <ele>75</ele>
        <time>2020-12-20T13:07:57.000Z</time>
      </trkpt>
      <trkpt lat="47.18262" lon="-1.72295">
        <ele>74</ele>
        <time>2020-12-20T13:07:59.000Z</time>
      </trkpt>
      <trkpt lat="47.18261" lon="-1.72275">
        <ele>74</ele>
        <time>2020-12-20T13:08:01.000Z</time>
      </trkpt>
      <trkpt lat="47.18258" lon="-1.72256">
        <ele>75</ele>
        <time>2020-12-20T13:08:03.000Z</time>
      </trkpt>
      <trkpt lat="47.18256" lon="-1.72238">
        <ele>75</ele>
        <time>2020-12-20T13:08:05.000Z</time>
      </trkpt>
      <trkpt lat="47.18254" lon="-1.72219">
        <ele>75</ele>
        <time>2020-12-20T13:08:07.000Z</time>
      </trkpt>
      <trkpt lat="47.1825" lon="-1.722">
        <ele>75</ele>
        <time>2020-12-20T13:08:09.000Z</time>
      </trkpt>
      <trkpt lat="47.18245" lon="-1.72183">
        <ele>76</ele>
        <time>2020-12-20T13:08:11.000Z</time>
      </trkpt>
      <trkpt lat="47.18239" lon="-1.72166">
        <ele>76</ele>
        <time>2020-12-20T13:08:13.000Z</time>
      </trkpt>
      <trkpt lat="47.18234" lon="-1.72149">
        <ele>77</ele>
        <time>2020-12-20T13:08:15.000Z</time>
      </trkpt>
      <trkpt lat="47.18228" lon="-1.72132">
        <ele>76</ele>
        <time>2020-12-20T13:08:17.000Z</time>
      </trkpt>
      <trkpt lat="47.18223" lon="-1.72115">
        <ele>76</ele>
        <time>2020-12-20T13:08:19.000Z</time>
      </trkpt>
      <trkpt lat="47.18218" lon="-1.72098">
        <ele>76</ele>
        <time>2020-12-20T13:08:21.000Z</time>
      </trkpt>
      <trkpt lat="47.18213" lon="-1.72081">
        <ele>76</ele>
        <time>2020-12-20T13:08:23.000Z</time>
      </trkpt>
      <trkpt lat="47.18207" lon="-1.72064">
        <ele>76</ele>
        <time>2020-12-20T13:08:25.000Z</time>
      </trkpt>
      <trkpt lat="47.18201" lon="-1.72047">
        <ele>76</ele>
        <time>2020-12-20T13:08:27.000Z</time>
      </trkpt>
      <trkpt lat="47.18196" lon="-1.7203">
        <ele>76</ele>
        <time>2020-12-20T13:08:29.000Z</time>
      </trkpt>
      <trkpt lat="47.18191" lon="-1.72014">
        <ele>76</ele>
        <time>2020-12-20T13:08:31.000Z</time>
      </trkpt>
      <trkpt lat="47.18186" lon="-1.71997">
        <ele>76</ele>
        <time>2020-12-20T13:08:33.000Z</time>
      </trkpt>
      <trkpt lat="47.1818" lon="-1.7198">
        <ele>76</ele>
        <time>2020-12-20T13:08:35.000Z</time>
      </trkpt>
      <trkpt lat="47.18175" lon="-1.71963">
        <ele>76</ele>
        <time>2020-12-20T13:08:37.000Z</time>
      </trkpt>
      <trkpt lat="47.1817" lon="-1.71946">
        <ele>75</ele>
        <time>2020-12-20T13:08:39.000Z</time>
      </trkpt>
      <trkpt lat="47.18165" lon="-1.7193">
        <ele>76</ele>
        <time>2020-12-20T13:08:41.000Z</time>
      </trkpt>
      <trkpt lat="47.18159" lon="-1.71914">
        <ele>75</ele>
        <time>2020-12-20T13:08:43.000Z</time>
      </trkpt>
      <trkpt lat="47.18153" lon="-1.71899">
        <ele>76</ele>
        <time>2020-12-20T13:08:45.000Z</time>
      </trkpt>
      <trkpt lat="47.18148" lon="-1.71882">
        <ele>76</ele>
        <time>2020-12-20T13:08:47.000Z</time>
      </trkpt>
      <trkpt lat="47.18143" lon="-1.71865">
        <ele>76</ele>
        <time>2020-12-20T13:08:49.000Z</time>
      </trkpt>
      <trkpt lat="47.18138" lon="-1.71849">
        <ele>77</ele>
        <time>2020-12-20T13:08:51.000Z</time>
      </trkpt>
      <trkpt lat="47.18133" lon="-1.71833">
        <ele>77</ele>
        <time>2020-12-20T13:08:53.000Z</time>
      </trkpt>
      <trkpt lat="47.18127" lon="-1.71817">
        <ele>77</ele>
        <time>2020-12-20T13:08:55.000Z</time>
      </trkpt>
      <trkpt lat="47.18121" lon="-1.718">
        <ele>78</ele>
        <time>2020-12-20T13:08:57.000Z</time>
      </trkpt>
      <trkpt lat="47.18116" lon="-1.71784">
        <ele>78</ele>
        <time>2020-12-20T13:08:59.000Z</time>
      </trkpt>
      <trkpt lat="47.1811" lon="-1.71769">
        <ele>77</ele>
        <time>2020-12-20T13:09:01.000Z</time>
      </trkpt>
      <trkpt lat="47.18104" lon="-1.71753">
        <ele>77</ele>
        <time>2020-12-20T13:09:03.000Z</time>
      </trkpt>
      <trkpt lat="47.18098" lon="-1.71737">
        <ele>78</ele>
        <time>2020-12-20T13:09:05.000Z</time>
      </trkpt>
      <trkpt lat="47.18092" lon="-1.71721">
        <ele>77</ele>
        <time>2020-12-20T13:09:07.000Z</time>
      </trkpt>
      <trkpt lat="47.18086" lon="-1.71705">
        <ele>77</ele>
        <time>2020-12-20T13:09:09.000Z</time>
      </trkpt>
      <trkpt lat="47.18081" lon="-1.71689">
        <ele>77</ele>
        <time>2020-12-20T13:09:11.000Z</time>
      </trkpt>
      <trkpt lat="47.18075" lon="-1.71673">
        <ele>77</ele>
        <time>2020-12-20T13:09:13.000Z</time>
      </trkpt>
      <trkpt lat="47.1807" lon="-1.71656">
        <ele>77</ele>
        <time>2020-12-20T13:09:15.000Z</time>
      </trkpt>
      <trkpt lat="47.18065" lon="-1.7164">
        <ele>77</ele>
        <time>2020-12-20T13:09:17.000Z</time>
      </trkpt>
      <trkpt lat="47.18059" lon="-1.71623">
        <ele>77</ele>
        <time>2020-12-20T13:09:19.000Z</time>
      </trkpt>
      <trkpt lat="47.18055" lon="-1.71607">
        <ele>77</ele>
        <time>2020-12-20T13:09:21.000Z</time>
      </trkpt>
      <trkpt lat="47.1805" lon="-1.71591">
        <ele>77</ele>
        <time>2020-12-20T13:09:23.000Z</time>
      </trkpt>
      <trkpt lat="47.18044" lon="-1.71574">
        <ele>77</ele>
        <time>2020-12-20T13:09:25.000Z</time>
      </trkpt>
      <trkpt lat="47.18039" lon="-1.71557">
        <ele>77</ele>
        <time>2020-12-20T13:09:27.000Z</time>
      </trkpt>
      <trkpt lat="47.18033" lon="-1.71541">
        <ele>77</ele>
        <time>2020-12-20T13:09:29.000Z</time>
      </trkpt>
      <trkpt lat="47.18028" lon="-1.71524">
        <ele>78</ele>
        <time>2020-12-20T13:09:31.000Z</time>
      </trkpt>
      <trkpt lat="47.18023" lon="-1.71508">
        <ele>78</ele>
        <time>2020-12-20T13:09:33.000Z</time>
      </trkpt>
      <trkpt lat="47.18017" lon="-1.71492">
        <ele>78</ele>
        <time>2020-12-20T13:09:35.000Z</time>
      </trkpt>
      <trkpt lat="47.18012" lon="-1.71476">
        <ele>78</ele>
        <time>2020-12-20T13:09:37.000Z</time>
      </trkpt>
      <trkpt lat="47.18007" lon="-1.71461">
        <ele>78</ele>
        <time>2020-12-20T13:09:39.000Z</time>
      </trkpt>
      <trkpt lat="47.18002" lon="-1.71445">
        <ele>78</ele>
        <time>2020-12-20T13:09:41.000Z</time>
      </trkpt>
      <trkpt lat="47.17997" lon="-1.71429">
        <ele>78</ele>
        <time>2020-12-20T13:09:43.000Z</time>
      </trkpt>
      <trkpt lat="47.17991" lon="-1.71414">
        <ele>78</ele>
        <time>2020-12-20T13:09:45.000Z</time>
      </trkpt>
      <trkpt lat="47.17986" lon="-1.71397">
        <ele>78</ele>
        <time>2020-12-20T13:09:47.000Z</time>
      </trkpt>
      <trkpt lat="47.1798" lon="-1.71381">
        <ele>78</ele>
        <time>2020-12-20T13:09:49.000Z</time>
      </trkpt>
      <trkpt lat="47.17975" lon="-1.71366">
        <ele>78</ele>
        <time>2020-12-20T13:09:51.000Z</time>
      </trkpt>
      <trkpt lat="47.17969" lon="-1.71349">
        <ele>78</ele>
        <time>2020-12-20T13:09:53.000Z</time>
      </trkpt>
      <trkpt lat="47.17965" lon="-1.71333">
        <ele>78</ele>
        <time>2020-12-20T13:09:55.000Z</time>
      </trkpt>
      <trkpt lat="47.17959" lon="-1.71316">
        <ele>78</ele>
        <time>2020-12-20T13:09:57.000Z</time>
      </trkpt>
      <trkpt lat="47.17955" lon="-1.713">
        <ele>78</ele>
        <time>2020-12-20T13:09:59.000Z</time>
      </trkpt>
      <trkpt lat="47.17949" lon="-1.71284">
        <ele>78</ele>
        <time>2020-12-20T13:10:01.000Z</time>
      </trkpt>
      <trkpt lat="47.17945" lon="-1.71267">
        <ele>79</ele>
        <time>2020-12-20T13:10:03.000Z</time>
      </trkpt>
      <trkpt lat="47.1794" lon="-1.7125">
        <ele>79</ele>
        <time>2020-12-20T13:10:05.000Z</time>
      </trkpt>
      <trkpt lat="47.17934" lon="-1.71234">
        <ele>79</ele>
        <time>2020-12-20T13:10:07.000Z</time>
      </trkpt>
      <trkpt lat="47.17929" lon="-1.71218">
        <ele>79</ele>
        <time>2020-12-20T13:10:09.000Z</time>
      </trkpt>
      <trkpt lat="47.17924" lon="-1.71201">
        <ele>79</ele>
        <time>2020-12-20T13:10:11.000Z</time>
      </trkpt>
      <trkpt lat="47.1792" lon="-1.71184">
        <ele>78</ele>
        <time>2020-12-20T13:10:13.000Z</time>
      </trkpt>
      <trkpt lat="47.17918" lon="-1.71167">
        <ele>79</ele>
        <time>2020-12-20T13:10:15.000Z</time>
      </trkpt>
      <trkpt lat="47.17916" lon="-1.7115">
        <ele>78</ele>
        <time>2020-12-20T13:10:17.000Z</time>
      </trkpt>
      <trkpt lat="47.17912" lon="-1.71133">
        <ele>78</ele>
        <time>2020-12-20T13:10:19.000Z</time>
      </trkpt>
      <trkpt lat="47.17907" lon="-1.71118">
        <ele>78</ele>
        <time>2020-12-20T13:10:21.000Z</time>
      </trkpt>
      <trkpt lat="47.17902" lon="-1.71102">
        <ele>78</ele>
        <time>2020-12-20T13:10:23.000Z</time>
      </trkpt>
      <trkpt lat="47.17897" lon="-1.71086">
        <ele>78</ele>
        <time>2020-12-20T13:10:25.000Z</time>
      </trkpt>
      <trkpt lat="47.17891" lon="-1.7107">
        <ele>78</ele>
        <time>2020-12-20T13:10:27.000Z</time>
      </trkpt>
      <trkpt lat="47.17886" lon="-1.71053">
        <ele>78</ele>
        <time>2020-12-20T13:10:29.000Z</time>
      </trkpt>
      <trkpt lat="47.17881" lon="-1.71038">
        <ele>78</ele>
        <time>2020-12-20T13:10:31.000Z</time>
      </trkpt>
      <trkpt lat="47.17876" lon="-1.71022">
        <ele>79</ele>
        <time>2020-12-20T13:10:33.000Z</time>
      </trkpt>
      <trkpt lat="47.17869" lon="-1.71006">
        <ele>79</ele>
        <time>2020-12-20T13:10:35.000Z</time>
      </trkpt>
      <trkpt lat="47.17862" lon="-1.7099">
        <ele>79</ele>
        <time>2020-12-20T13:10:37.000Z</time>
      </trkpt>
      <trkpt lat="47.17854" lon="-1.70976">
        <ele>78</ele>
        <time>2020-12-20T13:10:39.000Z</time>
      </trkpt>
      <trkpt lat="47.17846" lon="-1.70961">
        <ele>78</ele>
        <time>2020-12-20T13:10:41.000Z</time>
      </trkpt>
      <trkpt lat="47.1784" lon="-1.70944">
        <ele>78</ele>
        <time>2020-12-20T13:10:43.000Z</time>
      </trkpt>
      <trkpt lat="47.17834" lon="-1.70926">
        <ele>78</ele>
        <time>2020-12-20T13:10:45.000Z</time>
      </trkpt>
      <trkpt lat="47.17828" lon="-1.70909">
        <ele>78</ele>
        <time>2020-12-20T13:10:47.000Z</time>
      </trkpt>
      <trkpt lat="47.17822" lon="-1.70892">
        <ele>78</ele>
        <time>2020-12-20T13:10:49.000Z</time>
      </trkpt>
      <trkpt lat="47.17817" lon="-1.70875">
        <ele>77</ele>
        <time>2020-12-20T13:10:51.000Z</time>
      </trkpt>
      <trkpt lat="47.17811" lon="-1.70858">
        <ele>77</ele>
        <time>2020-12-20T13:10:53.000Z</time>
      </trkpt>
      <trkpt lat="47.17805" lon="-1.70842">
        <ele>77</ele>
        <time>2020-12-20T13:10:55.000Z</time>
      </trkpt>
      <trkpt lat="47.17799" lon="-1.70825">
        <ele>76</ele>
        <time>2020-12-20T13:10:57.000Z</time>
      </trkpt>
      <trkpt lat="47.17793" lon="-1.70809">
        <ele>77</ele>
        <time>2020-12-20T13:10:59.000Z</time>
      </trkpt>
      <trkpt lat="47.17788" lon="-1.70792">
        <ele>77</ele>
        <time>2020-12-20T13:11:01.000Z</time>
      </trkpt>
      <trkpt lat="47.17783" lon="-1.70775">
        <ele>77</ele>
        <time>2020-12-20T13:11:03.000Z</time>
      </trkpt>
      <trkpt lat="47.17777" lon="-1.70759">
        <ele>77</ele>
        <time>2020-12-20T13:11:05.000Z</time>
      </trkpt>
      <trkpt lat="47.17772" lon="-1.70743">
        <ele>77</ele>
        <time>2020-12-20T13:11:07.000Z</time>
      </trkpt>
      <trkpt lat="47.17766" lon="-1.70727">
        <ele>77</ele>
        <time>2020-12-20T13:11:09.000Z</time>
      </trkpt>
      <trkpt lat="47.1776" lon="-1.7071">
        <ele>77</ele>
        <time>2020-12-20T13:11:11.000Z</time>
      </trkpt>
      <trkpt lat="47.17755" lon="-1.70692">
        <ele>77</ele>
        <time>2020-12-20T13:11:13.000Z</time>
      </trkpt>
      <trkpt lat="47.1775" lon="-1.70676">
        <ele>77</ele>
        <time>2020-12-20T13:11:15.000Z</time>
      </trkpt>
      <trkpt lat="47.17744" lon="-1.70659">
        <ele>77</ele>
        <time>2020-12-20T13:11:17.000Z</time>
      </trkpt>
      <trkpt lat="47.17738" lon="-1.70642">
        <ele>76</ele>
        <time>2020-12-20T13:11:19.000Z</time>
      </trkpt>
      <trkpt lat="47.17732" lon="-1.70626">
        <ele>77</ele>
        <time>2020-12-20T13:11:21.000Z</time>
      </trkpt>
      <trkpt lat="47.17725" lon="-1.70611">
        <ele>77</ele>
        <time>2020-12-20T13:11:23.000Z</time>
      </trkpt>
      <trkpt lat="47.17718" lon="-1.70597">
        <ele>76</ele>
        <time>2020-12-20T13:11:25.000Z</time>
      </trkpt>
      <trkpt lat="47.17709" lon="-1.70585">
        <ele>76</ele>
        <time>2020-12-20T13:11:27.000Z</time>
      </trkpt>
      <trkpt lat="47.17699" lon="-1.70575">
        <ele>76</ele>
        <time>2020-12-20T13:11:29.000Z</time>
      </trkpt>
      <trkpt lat="47.1769" lon="-1.70564">
        <ele>77</ele>
        <time>2020-12-20T13:11:31.000Z</time>
      </trkpt>
      <trkpt lat="47.17679" lon="-1.70555">
        <ele>77</ele>
        <time>2020-12-20T13:11:33.000Z</time>
      </trkpt>
      <trkpt lat="47.17669" lon="-1.70545">
        <ele>77</ele>
        <time>2020-12-20T13:11:35.000Z</time>
      </trkpt>
      <trkpt lat="47.17659" lon="-1.70538">
        <ele>77</ele>
        <time>2020-12-20T13:11:37.000Z</time>
      </trkpt>
      <trkpt lat="47.17649" lon="-1.7053">
        <ele>78</ele>
        <time>2020-12-20T13:11:39.000Z</time>
      </trkpt>
      <trkpt lat="47.1764" lon="-1.70521">
        <ele>78</ele>
        <time>2020-12-20T13:11:41.000Z</time>
      </trkpt>
      <trkpt lat="47.17631" lon="-1.7051">
        <ele>79</ele>
        <time>2020-12-20T13:11:43.000Z</time>
      </trkpt>
      <trkpt lat="47.17624" lon="-1.70498">
        <ele>80</ele>
        <time>2020-12-20T13:11:45.000Z</time>
      </trkpt>
      <trkpt lat="47.17617" lon="-1.70485">
        <ele>80</ele>
        <time>2020-12-20T13:11:47.000Z</time>
      </trkpt>
      <trkpt lat="47.17612" lon="-1.7047">
        <ele>80</ele>
        <time>2020-12-20T13:11:49.000Z</time>
      </trkpt>
      <trkpt lat="47.17608" lon="-1.70458">
        <ele>80</ele>
        <time>2020-12-20T13:11:51.000Z</time>
      </trkpt>
      <trkpt lat="47.176" lon="-1.70448">
        <ele>80</ele>
        <time>2020-12-20T13:11:55.000Z</time>
      </trkpt>
      <trkpt lat="47.17591" lon="-1.70444">
        <ele>81</ele>
        <time>2020-12-20T13:11:57.000Z</time>
      </trkpt>
      <trkpt lat="47.17583" lon="-1.70436">
        <ele>81</ele>
        <time>2020-12-20T13:11:59.000Z</time>
      </trkpt>
      <trkpt lat="47.17577" lon="-1.70422">
        <ele>81</ele>
        <time>2020-12-20T13:12:01.000Z</time>
      </trkpt>
      <trkpt lat="47.17576" lon="-1.70405">
        <ele>81</ele>
        <time>2020-12-20T13:12:03.000Z</time>
      </trkpt>
      <trkpt lat="47.17576" lon="-1.70389">
        <ele>81</ele>
        <time>2020-12-20T13:12:05.000Z</time>
      </trkpt>
      <trkpt lat="47.1757" lon="-1.70376">
        <ele>80</ele>
        <time>2020-12-20T13:12:07.000Z</time>
      </trkpt>
      <trkpt lat="47.17568" lon="-1.70359">
        <ele>80</ele>
        <time>2020-12-20T13:12:09.000Z</time>
      </trkpt>
      <trkpt lat="47.1757" lon="-1.70342">
        <ele>80</ele>
        <time>2020-12-20T13:12:11.000Z</time>
      </trkpt>
      <trkpt lat="47.17576" lon="-1.70325">
        <ele>80</ele>
        <time>2020-12-20T13:12:13.000Z</time>
      </trkpt>
      <trkpt lat="47.17583" lon="-1.70307">
        <ele>79</ele>
        <time>2020-12-20T13:12:15.000Z</time>
      </trkpt>
      <trkpt lat="47.17588" lon="-1.70289">
        <ele>79</ele>
        <time>2020-12-20T13:12:17.000Z</time>
      </trkpt>
      <trkpt lat="47.17591" lon="-1.70269">
        <ele>78</ele>
        <time>2020-12-20T13:12:19.000Z</time>
      </trkpt>
      <trkpt lat="47.17593" lon="-1.70248">
        <ele>78</ele>
        <time>2020-12-20T13:12:21.000Z</time>
      </trkpt>
      <trkpt lat="47.17593" lon="-1.70226">
        <ele>77</ele>
        <time>2020-12-20T13:12:23.000Z</time>
      </trkpt>
      <trkpt lat="47.17591" lon="-1.70205">
        <ele>77</ele>
        <time>2020-12-20T13:12:25.000Z</time>
      </trkpt>
      <trkpt lat="47.17587" lon="-1.70184">
        <ele>78</ele>
        <time>2020-12-20T13:12:27.000Z</time>
      </trkpt>
      <trkpt lat="47.17584" lon="-1.70164">
        <ele>78</ele>
        <time>2020-12-20T13:12:29.000Z</time>
      </trkpt>
      <trkpt lat="47.1758" lon="-1.70144">
        <ele>78</ele>
        <time>2020-12-20T13:12:31.000Z</time>
      </trkpt>
      <trkpt lat="47.17576" lon="-1.70124">
        <ele>78</ele>
        <time>2020-12-20T13:12:33.000Z</time>
      </trkpt>
      <trkpt lat="47.17572" lon="-1.70104">
        <ele>78</ele>
        <time>2020-12-20T13:12:35.000Z</time>
      </trkpt>
      <trkpt lat="47.17568" lon="-1.70085">
        <ele>78</ele>
        <time>2020-12-20T13:12:37.000Z</time>
      </trkpt>
      <trkpt lat="47.17564" lon="-1.70065">
        <ele>78</ele>
        <time>2020-12-20T13:12:39.000Z</time>
      </trkpt>
      <trkpt lat="47.17559" lon="-1.70046">
        <ele>78</ele>
        <time>2020-12-20T13:12:41.000Z</time>
      </trkpt>
      <trkpt lat="47.17556" lon="-1.70027">
        <ele>78</ele>
        <time>2020-12-20T13:12:43.000Z</time>
      </trkpt>
      <trkpt lat="47.17552" lon="-1.70007">
        <ele>78</ele>
        <time>2020-12-20T13:12:45.000Z</time>
      </trkpt>
      <trkpt lat="47.17547" lon="-1.69987">
        <ele>78</ele>
        <time>2020-12-20T13:12:47.000Z</time>
      </trkpt>
      <trkpt lat="47.17543" lon="-1.69969">
        <ele>78</ele>
        <time>2020-12-20T13:12:49.000Z</time>
      </trkpt>
      <trkpt lat="47.17539" lon="-1.69949">
        <ele>78</ele>
        <time>2020-12-20T13:12:51.000Z</time>
      </trkpt>
      <trkpt lat="47.17536" lon="-1.6993">
        <ele>79</ele>
        <time>2020-12-20T13:12:53.000Z</time>
      </trkpt>
      <trkpt lat="47.17533" lon="-1.69911">
        <ele>79</ele>
        <time>2020-12-20T13:12:55.000Z</time>
      </trkpt>
      <trkpt lat="47.17529" lon="-1.69891">
        <ele>79</ele>
        <time>2020-12-20T13:12:57.000Z</time>
      </trkpt>
      <trkpt lat="47.17526" lon="-1.69871">
        <ele>79</ele>
        <time>2020-12-20T13:12:59.000Z</time>
      </trkpt>
      <trkpt lat="47.17523" lon="-1.69851">
        <ele>79</ele>
        <time>2020-12-20T13:13:01.000Z</time>
      </trkpt>
      <trkpt lat="47.1752" lon="-1.69831">
        <ele>79</ele>
        <time>2020-12-20T13:13:03.000Z</time>
      </trkpt>
      <trkpt lat="47.17518" lon="-1.69811">
        <ele>79</ele>
        <time>2020-12-20T13:13:05.000Z</time>
      </trkpt>
      <trkpt lat="47.17516" lon="-1.69791">
        <ele>80</ele>
        <time>2020-12-20T13:13:07.000Z</time>
      </trkpt>
      <trkpt lat="47.17514" lon="-1.69772">
        <ele>80</ele>
        <time>2020-12-20T13:13:09.000Z</time>
      </trkpt>
      <trkpt lat="47.17512" lon="-1.69751">
        <ele>80</ele>
        <time>2020-12-20T13:13:11.000Z</time>
      </trkpt>
      <trkpt lat="47.17511" lon="-1.69731">
        <ele>80</ele>
        <time>2020-12-20T13:13:13.000Z</time>
      </trkpt>
      <trkpt lat="47.17509" lon="-1.69712">
        <ele>80</ele>
        <time>2020-12-20T13:13:15.000Z</time>
      </trkpt>
      <trkpt lat="47.17507" lon="-1.69692">
        <ele>81</ele>
        <time>2020-12-20T13:13:17.000Z</time>
      </trkpt>
      <trkpt lat="47.17505" lon="-1.69672">
        <ele>81</ele>
        <time>2020-12-20T13:13:19.000Z</time>
      </trkpt>
      <trkpt lat="47.17504" lon="-1.69651">
        <ele>81</ele>
        <time>2020-12-20T13:13:21.000Z</time>
      </trkpt>
      <trkpt lat="47.17503" lon="-1.69632">
        <ele>81</ele>
        <time>2020-12-20T13:13:23.000Z</time>
      </trkpt>
      <trkpt lat="47.17501" lon="-1.69613">
        <ele>81</ele>
        <time>2020-12-20T13:13:25.000Z</time>
      </trkpt>
      <trkpt lat="47.175" lon="-1.69593">
        <ele>81</ele>
        <time>2020-12-20T13:13:27.000Z</time>
      </trkpt>
      <trkpt lat="47.17499" lon="-1.69573">
        <ele>80</ele>
        <time>2020-12-20T13:13:29.000Z</time>
      </trkpt>
      <trkpt lat="47.17498" lon="-1.69554">
        <ele>81</ele>
        <time>2020-12-20T13:13:31.000Z</time>
      </trkpt>
      <trkpt lat="47.17497" lon="-1.69534">
        <ele>81</ele>
        <time>2020-12-20T13:13:33.000Z</time>
      </trkpt>
      <trkpt lat="47.17496" lon="-1.69514">
        <ele>81</ele>
        <time>2020-12-20T13:13:35.000Z</time>
      </trkpt>
      <trkpt lat="47.17495" lon="-1.69495">
        <ele>80</ele>
        <time>2020-12-20T13:13:37.000Z</time>
      </trkpt>
      <trkpt lat="47.17495" lon="-1.69474">
        <ele>80</ele>
        <time>2020-12-20T13:13:39.000Z</time>
      </trkpt>
      <trkpt lat="47.17494" lon="-1.69454">
        <ele>80</ele>
        <time>2020-12-20T13:13:41.000Z</time>
      </trkpt>
      <trkpt lat="47.17493" lon="-1.69435">
        <ele>80</ele>
        <time>2020-12-20T13:13:43.000Z</time>
      </trkpt>
      <trkpt lat="47.17492" lon="-1.69416">
        <ele>79</ele>
        <time>2020-12-20T13:13:45.000Z</time>
      </trkpt>
      <trkpt lat="47.17492" lon="-1.69395">
        <ele>80</ele>
        <time>2020-12-20T13:13:47.000Z</time>
      </trkpt>
      <trkpt lat="47.17493" lon="-1.69376">
        <ele>80</ele>
        <time>2020-12-20T13:13:49.000Z</time>
      </trkpt>
      <trkpt lat="47.17494" lon="-1.69356">
        <ele>80</ele>
        <time>2020-12-20T13:13:51.000Z</time>
      </trkpt>
      <trkpt lat="47.17494" lon="-1.69337">
        <ele>80</ele>
        <time>2020-12-20T13:13:53.000Z</time>
      </trkpt>
      <trkpt lat="47.17494" lon="-1.69317">
        <ele>79</ele>
        <time>2020-12-20T13:13:55.000Z</time>
      </trkpt>
      <trkpt lat="47.17495" lon="-1.69298">
        <ele>79</ele>
        <time>2020-12-20T13:13:57.000Z</time>
      </trkpt>
      <trkpt lat="47.17496" lon="-1.69279">
        <ele>80</ele>
        <time>2020-12-20T13:13:59.000Z</time>
      </trkpt>
      <trkpt lat="47.17497" lon="-1.6926">
        <ele>80</ele>
        <time>2020-12-20T13:14:01.000Z</time>
      </trkpt>
      <trkpt lat="47.17497" lon="-1.6924">
        <ele>80</ele>
        <time>2020-12-20T13:14:03.000Z</time>
      </trkpt>
      <trkpt lat="47.17499" lon="-1.69221">
        <ele>80</ele>
        <time>2020-12-20T13:14:05.000Z</time>
      </trkpt>
      <trkpt lat="47.17499" lon="-1.69203">
        <ele>80</ele>
        <time>2020-12-20T13:14:07.000Z</time>
      </trkpt>
      <trkpt lat="47.175" lon="-1.69184">
        <ele>80</ele>
        <time>2020-12-20T13:14:09.000Z</time>
      </trkpt>
      <trkpt lat="47.17501" lon="-1.69164">
        <ele>81</ele>
        <time>2020-12-20T13:14:11.000Z</time>
      </trkpt>
      <trkpt lat="47.17502" lon="-1.69145">
        <ele>81</ele>
        <time>2020-12-20T13:14:13.000Z</time>
      </trkpt>
      <trkpt lat="47.17503" lon="-1.69126">
        <ele>81</ele>
        <time>2020-12-20T13:14:15.000Z</time>
      </trkpt>
      <trkpt lat="47.17503" lon="-1.69106">
        <ele>82</ele>
        <time>2020-12-20T13:14:17.000Z</time>
      </trkpt>
      <trkpt lat="47.17503" lon="-1.69086">
        <ele>82</ele>
        <time>2020-12-20T13:14:19.000Z</time>
      </trkpt>
      <trkpt lat="47.17502" lon="-1.69067">
        <ele>82</ele>
        <time>2020-12-20T13:14:21.000Z</time>
      </trkpt>
      <trkpt lat="47.17502" lon="-1.69048">
        <ele>82</ele>
        <time>2020-12-20T13:14:23.000Z</time>
      </trkpt>
      <trkpt lat="47.17501" lon="-1.69028">
        <ele>82</ele>
        <time>2020-12-20T13:14:25.000Z</time>
      </trkpt>
      <trkpt lat="47.175" lon="-1.69008">
        <ele>82</ele>
        <time>2020-12-20T13:14:27.000Z</time>
      </trkpt>
      <trkpt lat="47.17499" lon="-1.68988">
        <ele>82</ele>
        <time>2020-12-20T13:14:29.000Z</time>
      </trkpt>
      <trkpt lat="47.17498" lon="-1.68968">
        <ele>82</ele>
        <time>2020-12-20T13:14:31.000Z</time>
      </trkpt>
      <trkpt lat="47.17498" lon="-1.68948">
        <ele>82</ele>
        <time>2020-12-20T13:14:33.000Z</time>
      </trkpt>
      <trkpt lat="47.175" lon="-1.68928">
        <ele>82</ele>
        <time>2020-12-20T13:14:35.000Z</time>
      </trkpt>
      <trkpt lat="47.17502" lon="-1.68908">
        <ele>82</ele>
        <time>2020-12-20T13:14:37.000Z</time>
      </trkpt>
      <trkpt lat="47.17505" lon="-1.68888">
        <ele>81</ele>
        <time>2020-12-20T13:14:39.000Z</time>
      </trkpt>
      <trkpt lat="47.17506" lon="-1.68869">
        <ele>82</ele>
        <time>2020-12-20T13:14:41.000Z</time>
      </trkpt>
      <trkpt lat="47.17504" lon="-1.6885">
        <ele>82</ele>
        <time>2020-12-20T13:14:43.000Z</time>
      </trkpt>
      <trkpt lat="47.175" lon="-1.68832">
        <ele>82</ele>
        <time>2020-12-20T13:14:45.000Z</time>
      </trkpt>
      <trkpt lat="47.17495" lon="-1.68814">
        <ele>83</ele>
        <time>2020-12-20T13:14:47.000Z</time>
      </trkpt>
      <trkpt lat="47.17491" lon="-1.68796">
        <ele>83</ele>
        <time>2020-12-20T13:14:49.000Z</time>
      </trkpt>
      <trkpt lat="47.17488" lon="-1.68778">
        <ele>83</ele>
        <time>2020-12-20T13:14:51.000Z</time>
      </trkpt>
      <trkpt lat="47.17484" lon="-1.6876">
        <ele>83</ele>
        <time>2020-12-20T13:14:53.000Z</time>
      </trkpt>
      <trkpt lat="47.1748" lon="-1.68742">
        <ele>82</ele>
        <time>2020-12-20T13:14:55.000Z</time>
      </trkpt>
      <trkpt lat="47.17476" lon="-1.68723">
        <ele>82</ele>
        <time>2020-12-20T13:14:57.000Z</time>
      </trkpt>
      <trkpt lat="47.17471" lon="-1.68704">
        <ele>82</ele>
        <time>2020-12-20T13:14:59.000Z</time>
      </trkpt>
      <trkpt lat="47.17467" lon="-1.68686">
        <ele>81</ele>
        <time>2020-12-20T13:15:01.000Z</time>
      </trkpt>
      <trkpt lat="47.17462" lon="-1.68667">
        <ele>81</ele>
        <time>2020-12-20T13:15:03.000Z</time>
      </trkpt>
      <trkpt lat="47.17456" lon="-1.68649">
        <ele>82</ele>
        <time>2020-12-20T13:15:05.000Z</time>
      </trkpt>
      <trkpt lat="47.17451" lon="-1.68632">
        <ele>81</ele>
        <time>2020-12-20T13:15:07.000Z</time>
      </trkpt>
      <trkpt lat="47.17444" lon="-1.68615">
        <ele>81</ele>
        <time>2020-12-20T13:15:09.000Z</time>
      </trkpt>
      <trkpt lat="47.17438" lon="-1.68598">
        <ele>81</ele>
        <time>2020-12-20T13:15:11.000Z</time>
      </trkpt>
      <trkpt lat="47.1743" lon="-1.68582">
        <ele>82</ele>
        <time>2020-12-20T13:15:13.000Z</time>
      </trkpt>
      <trkpt lat="47.17423" lon="-1.68568">
        <ele>82</ele>
        <time>2020-12-20T13:15:15.000Z</time>
      </trkpt>
      <trkpt lat="47.17416" lon="-1.68554">
        <ele>82</ele>
        <time>2020-12-20T13:15:17.000Z</time>
      </trkpt>
      <trkpt lat="47.17409" lon="-1.68542">
        <ele>83</ele>
        <time>2020-12-20T13:15:19.000Z</time>
      </trkpt>
      <trkpt lat="47.17401" lon="-1.68529">
        <ele>82</ele>
        <time>2020-12-20T13:15:21.000Z</time>
      </trkpt>
      <trkpt lat="47.17393" lon="-1.68516">
        <ele>82</ele>
        <time>2020-12-20T13:15:23.000Z</time>
      </trkpt>
      <trkpt lat="47.17385" lon="-1.68504">
        <ele>83</ele>
        <time>2020-12-20T13:15:25.000Z</time>
      </trkpt>
      <trkpt lat="47.17376" lon="-1.68492">
        <ele>83</ele>
        <time>2020-12-20T13:15:27.000Z</time>
      </trkpt>
      <trkpt lat="47.17367" lon="-1.68479">
        <ele>84</ele>
        <time>2020-12-20T13:15:29.000Z</time>
      </trkpt>
      <trkpt lat="47.1736" lon="-1.68467">
        <ele>84</ele>
        <time>2020-12-20T13:15:31.000Z</time>
      </trkpt>
      <trkpt lat="47.17354" lon="-1.68454">
        <ele>84</ele>
        <time>2020-12-20T13:15:33.000Z</time>
      </trkpt>
      <trkpt lat="47.17352" lon="-1.68435">
        <ele>85</ele>
        <time>2020-12-20T13:15:36.000Z</time>
      </trkpt>
      <trkpt lat="47.1735" lon="-1.68421">
        <ele>86</ele>
        <time>2020-12-20T13:15:38.000Z</time>
      </trkpt>
      <trkpt lat="47.17344" lon="-1.68408">
        <ele>86</ele>
        <time>2020-12-20T13:15:40.000Z</time>
      </trkpt>
      <trkpt lat="47.17337" lon="-1.68395">
        <ele>86</ele>
        <time>2020-12-20T13:15:42.000Z</time>
      </trkpt>
      <trkpt lat="47.17329" lon="-1.68382">
        <ele>85</ele>
        <time>2020-12-20T13:15:44.000Z</time>
      </trkpt>
      <trkpt lat="47.17323" lon="-1.68365">
        <ele>85</ele>
        <time>2020-12-20T13:15:46.000Z</time>
      </trkpt>
      <trkpt lat="47.17322" lon="-1.68346">
        <ele>86</ele>
        <time>2020-12-20T13:15:48.000Z</time>
      </trkpt>
      <trkpt lat="47.17325" lon="-1.68327">
        <ele>85</ele>
        <time>2020-12-20T13:15:50.000Z</time>
      </trkpt>
      <trkpt lat="47.17329" lon="-1.68307">
        <ele>85</ele>
        <time>2020-12-20T13:15:52.000Z</time>
      </trkpt>
      <trkpt lat="47.17333" lon="-1.68287">
        <ele>84</ele>
        <time>2020-12-20T13:15:54.000Z</time>
      </trkpt>
      <trkpt lat="47.17338" lon="-1.68266">
        <ele>83</ele>
        <time>2020-12-20T13:15:56.000Z</time>
      </trkpt>
      <trkpt lat="47.17342" lon="-1.68244">
        <ele>83</ele>
        <time>2020-12-20T13:15:58.000Z</time>
      </trkpt>
      <trkpt lat="47.17347" lon="-1.68222">
        <ele>83</ele>
        <time>2020-12-20T13:16:00.000Z</time>
      </trkpt>
      <trkpt lat="47.17352" lon="-1.68199">
        <ele>82</ele>
        <time>2020-12-20T13:16:02.000Z</time>
      </trkpt>
      <trkpt lat="47.17354" lon="-1.68177">
        <ele>82</ele>
        <time>2020-12-20T13:16:04.000Z</time>
      </trkpt>
      <trkpt lat="47.17354" lon="-1.68154">
        <ele>82</ele>
        <time>2020-12-20T13:16:06.000Z</time>
      </trkpt>
      <trkpt lat="47.17351" lon="-1.68132">
        <ele>82</ele>
        <time>2020-12-20T13:16:08.000Z</time>
      </trkpt>
      <trkpt lat="47.17347" lon="-1.68111">
        <ele>82</ele>
        <time>2020-12-20T13:16:10.000Z</time>
      </trkpt>
      <trkpt lat="47.17343" lon="-1.68091">
        <ele>82</ele>
        <time>2020-12-20T13:16:12.000Z</time>
      </trkpt>
      <trkpt lat="47.17339" lon="-1.68071">
        <ele>81</ele>
        <time>2020-12-20T13:16:14.000Z</time>
      </trkpt>
      <trkpt lat="47.17334" lon="-1.68051">
        <ele>82</ele>
        <time>2020-12-20T13:16:16.000Z</time>
      </trkpt>
      <trkpt lat="47.17329" lon="-1.68032">
        <ele>82</ele>
        <time>2020-12-20T13:16:18.000Z</time>
      </trkpt>
      <trkpt lat="47.17322" lon="-1.68012">
        <ele>82</ele>
        <time>2020-12-20T13:16:20.000Z</time>
      </trkpt>
      <trkpt lat="47.17313" lon="-1.67995">
        <ele>83</ele>
        <time>2020-12-20T13:16:22.000Z</time>
      </trkpt>
      <trkpt lat="47.17303" lon="-1.6798">
        <ele>83</ele>
        <time>2020-12-20T13:16:24.000Z</time>
      </trkpt>
      <trkpt lat="47.17293" lon="-1.67966">
        <ele>83</ele>
        <time>2020-12-20T13:16:26.000Z</time>
      </trkpt>
      <trkpt lat="47.17282" lon="-1.67953">
        <ele>83</ele>
        <time>2020-12-20T13:16:28.000Z</time>
      </trkpt>
      <trkpt lat="47.17271" lon="-1.67941">
        <ele>82</ele>
        <time>2020-12-20T13:16:30.000Z</time>
      </trkpt>
      <trkpt lat="47.1726" lon="-1.67927">
        <ele>82</ele>
        <time>2020-12-20T13:16:32.000Z</time>
      </trkpt>
      <trkpt lat="47.17249" lon="-1.67915">
        <ele>82</ele>
        <time>2020-12-20T13:16:34.000Z</time>
      </trkpt>
      <trkpt lat="47.17237" lon="-1.67902">
        <ele>82</ele>
        <time>2020-12-20T13:16:36.000Z</time>
      </trkpt>
      <trkpt lat="47.17227" lon="-1.67888">
        <ele>82</ele>
        <time>2020-12-20T13:16:38.000Z</time>
      </trkpt>
      <trkpt lat="47.17216" lon="-1.67876">
        <ele>82</ele>
        <time>2020-12-20T13:16:40.000Z</time>
      </trkpt>
      <trkpt lat="47.17205" lon="-1.67863">
        <ele>82</ele>
        <time>2020-12-20T13:16:42.000Z</time>
      </trkpt>
      <trkpt lat="47.17194" lon="-1.6785">
        <ele>82</ele>
        <time>2020-12-20T13:16:44.000Z</time>
      </trkpt>
      <trkpt lat="47.17182" lon="-1.67836">
        <ele>82</ele>
        <time>2020-12-20T13:16:46.000Z</time>
      </trkpt>
      <trkpt lat="47.17171" lon="-1.67823">
        <ele>82</ele>
        <time>2020-12-20T13:16:48.000Z</time>
      </trkpt>
      <trkpt lat="47.17161" lon="-1.67811">
        <ele>82</ele>
        <time>2020-12-20T13:16:50.000Z</time>
      </trkpt>
      <trkpt lat="47.1715" lon="-1.67798">
        <ele>81</ele>
        <time>2020-12-20T13:16:52.000Z</time>
      </trkpt>
      <trkpt lat="47.17139" lon="-1.67784">
        <ele>81</ele>
        <time>2020-12-20T13:16:54.000Z</time>
      </trkpt>
      <trkpt lat="47.17127" lon="-1.67771">
        <ele>80</ele>
        <time>2020-12-20T13:16:56.000Z</time>
      </trkpt>
      <trkpt lat="47.17115" lon="-1.67758">
        <ele>80</ele>
        <time>2020-12-20T13:16:58.000Z</time>
      </trkpt>
      <trkpt lat="47.17104" lon="-1.67745">
        <ele>80</ele>
        <time>2020-12-20T13:17:00.000Z</time>
      </trkpt>
      <trkpt lat="47.17093" lon="-1.67732">
        <ele>80</ele>
        <time>2020-12-20T13:17:02.000Z</time>
      </trkpt>
      <trkpt lat="47.17082" lon="-1.67719">
        <ele>80</ele>
        <time>2020-12-20T13:17:04.000Z</time>
      </trkpt>
      <trkpt lat="47.1707" lon="-1.67706">
        <ele>80</ele>
        <time>2020-12-20T13:17:06.000Z</time>
      </trkpt>
      <trkpt lat="47.17059" lon="-1.67693">
        <ele>79</ele>
        <time>2020-12-20T13:17:08.000Z</time>
      </trkpt>
      <trkpt lat="47.17048" lon="-1.67681">
        <ele>79</ele>
        <time>2020-12-20T13:17:10.000Z</time>
      </trkpt>
      <trkpt lat="47.17037" lon="-1.67668">
        <ele>79</ele>
        <time>2020-12-20T13:17:12.000Z</time>
      </trkpt>
      <trkpt lat="47.17026" lon="-1.67654">
        <ele>79</ele>
        <time>2020-12-20T13:17:14.000Z</time>
      </trkpt>
      <trkpt lat="47.17015" lon="-1.67641">
        <ele>79</ele>
        <time>2020-12-20T13:17:16.000Z</time>
      </trkpt>
      <trkpt lat="47.17004" lon="-1.67629">
        <ele>79</ele>
        <time>2020-12-20T13:17:18.000Z</time>
      </trkpt>
      <trkpt lat="47.16992" lon="-1.67617">
        <ele>79</ele>
        <time>2020-12-20T13:17:20.000Z</time>
      </trkpt>
      <trkpt lat="47.16982" lon="-1.67603">
        <ele>80</ele>
        <time>2020-12-20T13:17:22.000Z</time>
      </trkpt>
      <trkpt lat="47.16971" lon="-1.67589">
        <ele>80</ele>
        <time>2020-12-20T13:17:24.000Z</time>
      </trkpt>
      <trkpt lat="47.1696" lon="-1.67577">
        <ele>81</ele>
        <time>2020-12-20T13:17:26.000Z</time>
      </trkpt>
      <trkpt lat="47.16949" lon="-1.67565">
        <ele>80</ele>
        <time>2020-12-20T13:17:28.000Z</time>
      </trkpt>
      <trkpt lat="47.16937" lon="-1.67552">
        <ele>81</ele>
        <time>2020-12-20T13:17:30.000Z</time>
      </trkpt>
      <trkpt lat="47.16927" lon="-1.67539">
        <ele>81</ele>
        <time>2020-12-20T13:17:32.000Z</time>
      </trkpt>
      <trkpt lat="47.16916" lon="-1.67526">
        <ele>81</ele>
        <time>2020-12-20T13:17:34.000Z</time>
      </trkpt>
      <trkpt lat="47.16905" lon="-1.67514">
        <ele>81</ele>
        <time>2020-12-20T13:17:36.000Z</time>
      </trkpt>
      <trkpt lat="47.16894" lon="-1.67501">
        <ele>81</ele>
        <time>2020-12-20T13:17:38.000Z</time>
      </trkpt>
      <trkpt lat="47.16883" lon="-1.67488">
        <ele>80</ele>
        <time>2020-12-20T13:17:40.000Z</time>
      </trkpt>
      <trkpt lat="47.16873" lon="-1.67475">
        <ele>80</ele>
        <time>2020-12-20T13:17:42.000Z</time>
      </trkpt>
      <trkpt lat="47.16861" lon="-1.67461">
        <ele>80</ele>
        <time>2020-12-20T13:17:44.000Z</time>
      </trkpt>
      <trkpt lat="47.1685" lon="-1.67448">
        <ele>81</ele>
        <time>2020-12-20T13:17:46.000Z</time>
      </trkpt>
      <trkpt lat="47.16839" lon="-1.67434">
        <ele>80</ele>
        <time>2020-12-20T13:17:48.000Z</time>
      </trkpt>
      <trkpt lat="47.16828" lon="-1.67422">
        <ele>80</ele>
        <time>2020-12-20T13:17:50.000Z</time>
      </trkpt>
      <trkpt lat="47.16817" lon="-1.6741">
        <ele>81</ele>
        <time>2020-12-20T13:17:52.000Z</time>
      </trkpt>
      <trkpt lat="47.16805" lon="-1.67397">
        <ele>80</ele>
        <time>2020-12-20T13:17:54.000Z</time>
      </trkpt>
      <trkpt lat="47.16794" lon="-1.67384">
        <ele>80</ele>
        <time>2020-12-20T13:17:56.000Z</time>
      </trkpt>
      <trkpt lat="47.16782" lon="-1.6737">
        <ele>80</ele>
        <time>2020-12-20T13:17:58.000Z</time>
      </trkpt>
      <trkpt lat="47.16771" lon="-1.67358">
        <ele>79</ele>
        <time>2020-12-20T13:18:00.000Z</time>
      </trkpt>
      <trkpt lat="47.16759" lon="-1.67345">
        <ele>78</ele>
        <time>2020-12-20T13:18:02.000Z</time>
      </trkpt>
      <trkpt lat="47.16747" lon="-1.67335">
        <ele>79</ele>
        <time>2020-12-20T13:18:04.000Z</time>
      </trkpt>
      <trkpt lat="47.16735" lon="-1.67326">
        <ele>79</ele>
        <time>2020-12-20T13:18:06.000Z</time>
      </trkpt>
      <trkpt lat="47.16722" lon="-1.67318">
        <ele>78</ele>
        <time>2020-12-20T13:18:08.000Z</time>
      </trkpt>
      <trkpt lat="47.16709" lon="-1.6731">
        <ele>79</ele>
        <time>2020-12-20T13:18:10.000Z</time>
      </trkpt>
      <trkpt lat="47.16696" lon="-1.67303">
        <ele>79</ele>
        <time>2020-12-20T13:18:12.000Z</time>
      </trkpt>
      <trkpt lat="47.16683" lon="-1.67297">
        <ele>79</ele>
        <time>2020-12-20T13:18:14.000Z</time>
      </trkpt>
      <trkpt lat="47.1667" lon="-1.67291">
        <ele>79</ele>
        <time>2020-12-20T13:18:16.000Z</time>
      </trkpt>
      <trkpt lat="47.16658" lon="-1.67287">
        <ele>79</ele>
        <time>2020-12-20T13:18:18.000Z</time>
      </trkpt>
      <trkpt lat="47.16644" lon="-1.6728">
        <ele>80</ele>
        <time>2020-12-20T13:18:20.000Z</time>
      </trkpt>
      <trkpt lat="47.16632" lon="-1.67275">
        <ele>80</ele>
        <time>2020-12-20T13:18:22.000Z</time>
      </trkpt>
      <trkpt lat="47.1662" lon="-1.67271">
        <ele>79</ele>
        <time>2020-12-20T13:18:24.000Z</time>
      </trkpt>
      <trkpt lat="47.16611" lon="-1.67262">
        <ele>79</ele>
        <time>2020-12-20T13:18:26.000Z</time>
      </trkpt>
      <trkpt lat="47.1661" lon="-1.67244">
        <ele>79</ele>
        <time>2020-12-20T13:18:28.000Z</time>
      </trkpt>
      <trkpt lat="47.16614" lon="-1.67224">
        <ele>79</ele>
        <time>2020-12-20T13:18:30.000Z</time>
      </trkpt>
      <trkpt lat="47.16618" lon="-1.67204">
        <ele>79</ele>
        <time>2020-12-20T13:18:32.000Z</time>
      </trkpt>
      <trkpt lat="47.16622" lon="-1.67186">
        <ele>79</ele>
        <time>2020-12-20T13:18:34.000Z</time>
      </trkpt>
      <trkpt lat="47.16626" lon="-1.67167">
        <ele>79</ele>
        <time>2020-12-20T13:18:36.000Z</time>
      </trkpt>
      <trkpt lat="47.16629" lon="-1.67148">
        <ele>79</ele>
        <time>2020-12-20T13:18:38.000Z</time>
      </trkpt>
      <trkpt lat="47.16633" lon="-1.6713">
        <ele>79</ele>
        <time>2020-12-20T13:18:40.000Z</time>
      </trkpt>
      <trkpt lat="47.16637" lon="-1.67112">
        <ele>79</ele>
        <time>2020-12-20T13:18:42.000Z</time>
      </trkpt>
      <trkpt lat="47.16641" lon="-1.67094">
        <ele>78</ele>
        <time>2020-12-20T13:18:44.000Z</time>
      </trkpt>
      <trkpt lat="47.16643" lon="-1.67076">
        <ele>78</ele>
        <time>2020-12-20T13:18:46.000Z</time>
      </trkpt>
      <trkpt lat="47.16647" lon="-1.67058">
        <ele>79</ele>
        <time>2020-12-20T13:18:48.000Z</time>
      </trkpt>
      <trkpt lat="47.1665" lon="-1.6704">
        <ele>79</ele>
        <time>2020-12-20T13:18:50.000Z</time>
      </trkpt>
      <trkpt lat="47.16653" lon="-1.67023">
        <ele>79</ele>
        <time>2020-12-20T13:18:52.000Z</time>
      </trkpt>
      <trkpt lat="47.16657" lon="-1.67005">
        <ele>79</ele>
        <time>2020-12-20T13:18:54.000Z</time>
      </trkpt>
      <trkpt lat="47.16661" lon="-1.66988">
        <ele>79</ele>
        <time>2020-12-20T13:18:56.000Z</time>
      </trkpt>
      <trkpt lat="47.16666" lon="-1.66971">
        <ele>79</ele>
        <time>2020-12-20T13:18:58.000Z</time>
      </trkpt>
      <trkpt lat="47.16674" lon="-1.66956">
        <ele>79</ele>
        <time>2020-12-20T13:19:00.000Z</time>
      </trkpt>
      <trkpt lat="47.16684" lon="-1.66943">
        <ele>79</ele>
        <time>2020-12-20T13:19:02.000Z</time>
      </trkpt>
      <trkpt lat="47.16695" lon="-1.66934">
        <ele>80</ele>
        <time>2020-12-20T13:19:04.000Z</time>
      </trkpt>
      <trkpt lat="47.16707" lon="-1.66926">
        <ele>80</ele>
        <time>2020-12-20T13:19:06.000Z</time>
      </trkpt>
      <trkpt lat="47.16719" lon="-1.66921">
        <ele>80</ele>
        <time>2020-12-20T13:19:08.000Z</time>
      </trkpt>
      <trkpt lat="47.16731" lon="-1.66916">
        <ele>81</ele>
        <time>2020-12-20T13:19:10.000Z</time>
      </trkpt>
      <trkpt lat="47.16742" lon="-1.66912">
        <ele>81</ele>
        <time>2020-12-20T13:19:12.000Z</time>
      </trkpt>
      <trkpt lat="47.16754" lon="-1.66908">
        <ele>80</ele>
        <time>2020-12-20T13:19:14.000Z</time>
      </trkpt>
      <trkpt lat="47.16767" lon="-1.66902">
        <ele>80</ele>
        <time>2020-12-20T13:19:16.000Z</time>
      </trkpt>
      <trkpt lat="47.16778" lon="-1.66895">
        <ele>80</ele>
        <time>2020-12-20T13:19:18.000Z</time>
      </trkpt>
      <trkpt lat="47.16788" lon="-1.66886">
        <ele>80</ele>
        <time>2020-12-20T13:19:20.000Z</time>
      </trkpt>
      <trkpt lat="47.16799" lon="-1.66876">
        <ele>81</ele>
        <time>2020-12-20T13:19:22.000Z</time>
      </trkpt>
      <trkpt lat="47.16808" lon="-1.66863">
        <ele>81</ele>
        <time>2020-12-20T13:19:24.000Z</time>
      </trkpt>
      <trkpt lat="47.16817" lon="-1.66849">
        <ele>81</ele>
        <time>2020-12-20T13:19:26.000Z</time>
      </trkpt>
      <trkpt lat="47.16825" lon="-1.66834">
        <ele>81</ele>
        <time>2020-12-20T13:19:28.000Z</time>
      </trkpt>
      <trkpt lat="47.16833" lon="-1.66819">
        <ele>81</ele>
        <time>2020-12-20T13:19:30.000Z</time>
      </trkpt>
      <trkpt lat="47.16841" lon="-1.66805">
        <ele>81</ele>
        <time>2020-12-20T13:19:32.000Z</time>
      </trkpt>
      <trkpt lat="47.16848" lon="-1.6679">
        <ele>81</ele>
        <time>2020-12-20T13:19:34.000Z</time>
      </trkpt>
      <trkpt lat="47.16856" lon="-1.66775">
        <ele>81</ele>
        <time>2020-12-20T13:19:36.000Z</time>
      </trkpt>
      <trkpt lat="47.16864" lon="-1.6676">
        <ele>81</ele>
        <time>2020-12-20T13:19:38.000Z</time>
      </trkpt>
      <trkpt lat="47.16871" lon="-1.66745">
        <ele>81</ele>
        <time>2020-12-20T13:19:40.000Z</time>
      </trkpt>
      <trkpt lat="47.16878" lon="-1.66729">
        <ele>81</ele>
        <time>2020-12-20T13:19:42.000Z</time>
      </trkpt>
      <trkpt lat="47.16883" lon="-1.66713">
        <ele>81</ele>
        <time>2020-12-20T13:19:44.000Z</time>
      </trkpt>
      <trkpt lat="47.16887" lon="-1.66697">
        <ele>81</ele>
        <time>2020-12-20T13:19:46.000Z</time>
      </trkpt>
      <trkpt lat="47.16888" lon="-1.66679">
        <ele>81</ele>
        <time>2020-12-20T13:19:48.000Z</time>
      </trkpt>
      <trkpt lat="47.16889" lon="-1.66661">
        <ele>81</ele>
        <time>2020-12-20T13:19:50.000Z</time>
      </trkpt>
      <trkpt lat="47.16888" lon="-1.66643">
        <ele>81</ele>
        <time>2020-12-20T13:19:52.000Z</time>
      </trkpt>
      <trkpt lat="47.16886" lon="-1.66623">
        <ele>81</ele>
        <time>2020-12-20T13:19:54.000Z</time>
      </trkpt>
      <trkpt lat="47.16884" lon="-1.66605">
        <ele>80</ele>
        <time>2020-12-20T13:19:56.000Z</time>
      </trkpt>
      <trkpt lat="47.16882" lon="-1.66587">
        <ele>80</ele>
        <time>2020-12-20T13:19:58.000Z</time>
      </trkpt>
      <trkpt lat="47.16881" lon="-1.66568">
        <ele>79</ele>
        <time>2020-12-20T13:20:00.000Z</time>
      </trkpt>
      <trkpt lat="47.16878" lon="-1.66549">
        <ele>79</ele>
        <time>2020-12-20T13:20:02.000Z</time>
      </trkpt>
      <trkpt lat="47.16876" lon="-1.6653">
        <ele>79</ele>
        <time>2020-12-20T13:20:04.000Z</time>
      </trkpt>
      <trkpt lat="47.16874" lon="-1.66511">
        <ele>79</ele>
        <time>2020-12-20T13:20:06.000Z</time>
      </trkpt>
      <trkpt lat="47.16872" lon="-1.66492">
        <ele>79</ele>
        <time>2020-12-20T13:20:08.000Z</time>
      </trkpt>
      <trkpt lat="47.1687" lon="-1.66474">
        <ele>79</ele>
        <time>2020-12-20T13:20:10.000Z</time>
      </trkpt>
      <trkpt lat="47.16868" lon="-1.66455">
        <ele>79</ele>
        <time>2020-12-20T13:20:12.000Z</time>
      </trkpt>
      <trkpt lat="47.16866" lon="-1.66435">
        <ele>79</ele>
        <time>2020-12-20T13:20:14.000Z</time>
      </trkpt>
      <trkpt lat="47.16863" lon="-1.66414">
        <ele>81</ele>
        <time>2020-12-20T13:20:16.000Z</time>
      </trkpt>
      <trkpt lat="47.1686" lon="-1.66393">
        <ele>81</ele>
        <time>2020-12-20T13:20:18.000Z</time>
      </trkpt>
      <trkpt lat="47.16858" lon="-1.66372">
        <ele>81</ele>
        <time>2020-12-20T13:20:20.000Z</time>
      </trkpt>
      <trkpt lat="47.16856" lon="-1.66352">
        <ele>80</ele>
        <time>2020-12-20T13:20:22.000Z</time>
      </trkpt>
      <trkpt lat="47.16854" lon="-1.66333">
        <ele>81</ele>
        <time>2020-12-20T13:20:24.000Z</time>
      </trkpt>
      <trkpt lat="47.16852" lon="-1.66313">
        <ele>81</ele>
        <time>2020-12-20T13:20:26.000Z</time>
      </trkpt>
      <trkpt lat="47.16851" lon="-1.66292">
        <ele>80</ele>
        <time>2020-12-20T13:20:28.000Z</time>
      </trkpt>
      <trkpt lat="47.16849" lon="-1.66273">
        <ele>80</ele>
        <time>2020-12-20T13:20:30.000Z</time>
      </trkpt>
      <trkpt lat="47.16847" lon="-1.66253">
        <ele>80</ele>
        <time>2020-12-20T13:20:32.000Z</time>
      </trkpt>
      <trkpt lat="47.16846" lon="-1.66234">
        <ele>80</ele>
        <time>2020-12-20T13:20:34.000Z</time>
      </trkpt>
      <trkpt lat="47.16845" lon="-1.66213">
        <ele>80</ele>
        <time>2020-12-20T13:20:36.000Z</time>
      </trkpt>
      <trkpt lat="47.16844" lon="-1.66194">
        <ele>79</ele>
        <time>2020-12-20T13:20:38.000Z</time>
      </trkpt>
      <trkpt lat="47.16842" lon="-1.66175">
        <ele>79</ele>
        <time>2020-12-20T13:20:40.000Z</time>
      </trkpt>
      <trkpt lat="47.16842" lon="-1.66156">
        <ele>80</ele>
        <time>2020-12-20T13:20:42.000Z</time>
      </trkpt>
      <trkpt lat="47.16842" lon="-1.66137">
        <ele>80</ele>
        <time>2020-12-20T13:20:44.000Z</time>
      </trkpt>
      <trkpt lat="47.16842" lon="-1.66117">
        <ele>79</ele>
        <time>2020-12-20T13:20:46.000Z</time>
      </trkpt>
      <trkpt lat="47.16843" lon="-1.66099">
        <ele>79</ele>
        <time>2020-12-20T13:20:48.000Z</time>
      </trkpt>
      <trkpt lat="47.16844" lon="-1.6608">
        <ele>80</ele>
        <time>2020-12-20T13:20:50.000Z</time>
      </trkpt>
      <trkpt lat="47.16847" lon="-1.66061">
        <ele>80</ele>
        <time>2020-12-20T13:20:52.000Z</time>
      </trkpt>
      <trkpt lat="47.1685" lon="-1.66043">
        <ele>80</ele>
        <time>2020-12-20T13:20:54.000Z</time>
      </trkpt>
      <trkpt lat="47.16854" lon="-1.66024">
        <ele>80</ele>
        <time>2020-12-20T13:20:56.000Z</time>
      </trkpt>
      <trkpt lat="47.16858" lon="-1.66006">
        <ele>81</ele>
        <time>2020-12-20T13:20:58.000Z</time>
      </trkpt>
      <trkpt lat="47.16864" lon="-1.65989">
        <ele>81</ele>
        <time>2020-12-20T13:21:00.000Z</time>
      </trkpt>
      <trkpt lat="47.16869" lon="-1.65972">
        <ele>80</ele>
        <time>2020-12-20T13:21:02.000Z</time>
      </trkpt>
      <trkpt lat="47.16876" lon="-1.65956">
        <ele>80</ele>
        <time>2020-12-20T13:21:04.000Z</time>
      </trkpt>
      <trkpt lat="47.16883" lon="-1.65939">
        <ele>80</ele>
        <time>2020-12-20T13:21:06.000Z</time>
      </trkpt>
      <trkpt lat="47.1689" lon="-1.65923">
        <ele>80</ele>
        <time>2020-12-20T13:21:08.000Z</time>
      </trkpt>
      <trkpt lat="47.16896" lon="-1.65908">
        <ele>81</ele>
        <time>2020-12-20T13:21:10.000Z</time>
      </trkpt>
      <trkpt lat="47.16903" lon="-1.65893">
        <ele>81</ele>
        <time>2020-12-20T13:21:12.000Z</time>
      </trkpt>
      <trkpt lat="47.1691" lon="-1.65879">
        <ele>81</ele>
        <time>2020-12-20T13:21:14.000Z</time>
      </trkpt>
      <trkpt lat="47.16917" lon="-1.65865">
        <ele>81</ele>
        <time>2020-12-20T13:21:16.000Z</time>
      </trkpt>
      <trkpt lat="47.16924" lon="-1.65851">
        <ele>82</ele>
        <time>2020-12-20T13:21:18.000Z</time>
      </trkpt>
      <trkpt lat="47.16931" lon="-1.65836">
        <ele>82</ele>
        <time>2020-12-20T13:21:20.000Z</time>
      </trkpt>
      <trkpt lat="47.16939" lon="-1.65822">
        <ele>82</ele>
        <time>2020-12-20T13:21:22.000Z</time>
      </trkpt>
      <trkpt lat="47.16946" lon="-1.65807">
        <ele>83</ele>
        <time>2020-12-20T13:21:24.000Z</time>
      </trkpt>
      <trkpt lat="47.16953" lon="-1.65794">
        <ele>83</ele>
        <time>2020-12-20T13:21:26.000Z</time>
      </trkpt>
      <trkpt lat="47.16959" lon="-1.65781">
        <ele>84</ele>
        <time>2020-12-20T13:21:28.000Z</time>
      </trkpt>
      <trkpt lat="47.16965" lon="-1.65768">
        <ele>84</ele>
        <time>2020-12-20T13:21:30.000Z</time>
      </trkpt>
      <trkpt lat="47.16969" lon="-1.65755">
        <ele>84</ele>
        <time>2020-12-20T13:21:32.000Z</time>
      </trkpt>
      <trkpt lat="47.16971" lon="-1.65739">
        <ele>85</ele>
        <time>2020-12-20T13:21:34.000Z</time>
      </trkpt>
      <trkpt lat="47.16978" lon="-1.65724">
        <ele>85</ele>
        <time>2020-12-20T13:21:36.000Z</time>
      </trkpt>
      <trkpt lat="47.16988" lon="-1.65716">
        <ele>85</ele>
        <time>2020-12-20T13:21:38.000Z</time>
      </trkpt>
      <trkpt lat="47.16998" lon="-1.65705">
        <ele>85</ele>
        <time>2020-12-20T13:21:40.000Z</time>
      </trkpt>
      <trkpt lat="47.17006" lon="-1.65692">
        <ele>85</ele>
        <time>2020-12-20T13:21:42.000Z</time>
      </trkpt>
      <trkpt lat="47.17013" lon="-1.65679">
        <ele>85</ele>
        <time>2020-12-20T13:21:44.000Z</time>
      </trkpt>
      <trkpt lat="47.17021" lon="-1.65666">
        <ele>85</ele>
        <time>2020-12-20T13:21:46.000Z</time>
      </trkpt>
      <trkpt lat="47.17028" lon="-1.65653">
        <ele>85</ele>
        <time>2020-12-20T13:21:48.000Z</time>
      </trkpt>
      <trkpt lat="47.17035" lon="-1.65641">
        <ele>85</ele>
        <time>2020-12-20T13:21:50.000Z</time>
      </trkpt>
      <trkpt lat="47.17043" lon="-1.65628">
        <ele>86</ele>
        <time>2020-12-20T13:21:52.000Z</time>
      </trkpt>
      <trkpt lat="47.1705" lon="-1.65616">
        <ele>86</ele>
        <time>2020-12-20T13:21:54.000Z</time>
      </trkpt>
      <trkpt lat="47.17057" lon="-1.65602">
        <ele>87</ele>
        <time>2020-12-20T13:21:56.000Z</time>
      </trkpt>
      <trkpt lat="47.17065" lon="-1.65589">
        <ele>87</ele>
        <time>2020-12-20T13:21:58.000Z</time>
      </trkpt>
      <trkpt lat="47.17073" lon="-1.65576">
        <ele>87</ele>
        <time>2020-12-20T13:22:00.000Z</time>
      </trkpt>
      <trkpt lat="47.1708" lon="-1.65563">
        <ele>87</ele>
        <time>2020-12-20T13:22:02.000Z</time>
      </trkpt>
      <trkpt lat="47.17088" lon="-1.65549">
        <ele>87</ele>
        <time>2020-12-20T13:22:04.000Z</time>
      </trkpt>
      <trkpt lat="47.17095" lon="-1.65535">
        <ele>87</ele>
        <time>2020-12-20T13:22:06.000Z</time>
      </trkpt>
      <trkpt lat="47.17101" lon="-1.65519">
        <ele>87</ele>
        <time>2020-12-20T13:22:08.000Z</time>
      </trkpt>
      <trkpt lat="47.17107" lon="-1.65502">
        <ele>86</ele>
        <time>2020-12-20T13:22:10.000Z</time>
      </trkpt>
      <trkpt lat="47.17112" lon="-1.65482">
        <ele>86</ele>
        <time>2020-12-20T13:22:12.000Z</time>
      </trkpt>
      <trkpt lat="47.17114" lon="-1.6546">
        <ele>85</ele>
        <time>2020-12-20T13:22:14.000Z</time>
      </trkpt>
      <trkpt lat="47.17115" lon="-1.65437">
        <ele>84</ele>
        <time>2020-12-20T13:22:16.000Z</time>
      </trkpt>
      <trkpt lat="47.17114" lon="-1.65413">
        <ele>83</ele>
        <time>2020-12-20T13:22:18.000Z</time>
      </trkpt>
      <trkpt lat="47.17113" lon="-1.65389">
        <ele>83</ele>
        <time>2020-12-20T13:22:20.000Z</time>
      </trkpt>
      <trkpt lat="47.17113" lon="-1.65364">
        <ele>82</ele>
        <time>2020-12-20T13:22:22.000Z</time>
      </trkpt>
      <trkpt lat="47.1711" lon="-1.65341">
        <ele>81</ele>
        <time>2020-12-20T13:22:24.000Z</time>
      </trkpt>
      <trkpt lat="47.17103" lon="-1.6532">
        <ele>81</ele>
        <time>2020-12-20T13:22:26.000Z</time>
      </trkpt>
      <trkpt lat="47.17102" lon="-1.65299">
        <ele>81</ele>
        <time>2020-12-20T13:22:28.000Z</time>
      </trkpt>
      <trkpt lat="47.17109" lon="-1.65279">
        <ele>81</ele>
        <time>2020-12-20T13:22:30.000Z</time>
      </trkpt>
      <trkpt lat="47.17113" lon="-1.65259">
        <ele>80</ele>
        <time>2020-12-20T13:22:32.000Z</time>
      </trkpt>
      <trkpt lat="47.17112" lon="-1.65237">
        <ele>79</ele>
        <time>2020-12-20T13:22:34.000Z</time>
      </trkpt>
      <trkpt lat="47.17111" lon="-1.65214">
        <ele>79</ele>
        <time>2020-12-20T13:22:36.000Z</time>
      </trkpt>
      <trkpt lat="47.17111" lon="-1.65192">
        <ele>78</ele>
        <time>2020-12-20T13:22:38.000Z</time>
      </trkpt>
      <trkpt lat="47.1711" lon="-1.65169">
        <ele>78</ele>
        <time>2020-12-20T13:22:40.000Z</time>
      </trkpt>
      <trkpt lat="47.17108" lon="-1.65147">
        <ele>78</ele>
        <time>2020-12-20T13:22:42.000Z</time>
      </trkpt>
      <trkpt lat="47.17107" lon="-1.65125">
        <ele>78</ele>
        <time>2020-12-20T13:22:44.000Z</time>
      </trkpt>
      <trkpt lat="47.17105" lon="-1.65103">
        <ele>78</ele>
        <time>2020-12-20T13:22:46.000Z</time>
      </trkpt>
      <trkpt lat="47.17104" lon="-1.65082">
        <ele>79</ele>
        <time>2020-12-20T13:22:48.000Z</time>
      </trkpt>
      <trkpt lat="47.17102" lon="-1.6506">
        <ele>79</ele>
        <time>2020-12-20T13:22:50.000Z</time>
      </trkpt>
      <trkpt lat="47.17101" lon="-1.65038">
        <ele>78</ele>
        <time>2020-12-20T13:22:52.000Z</time>
      </trkpt>
      <trkpt lat="47.17099" lon="-1.65017">
        <ele>78</ele>
        <time>2020-12-20T13:22:54.000Z</time>
      </trkpt>
      <trkpt lat="47.17098" lon="-1.64995">
        <ele>78</ele>
        <time>2020-12-20T13:22:56.000Z</time>
      </trkpt>
      <trkpt lat="47.17096" lon="-1.64974">
        <ele>78</ele>
        <time>2020-12-20T13:22:58.000Z</time>
      </trkpt>
      <trkpt lat="47.17095" lon="-1.64953">
        <ele>78</ele>
        <time>2020-12-20T13:23:00.000Z</time>
      </trkpt>
      <trkpt lat="47.17094" lon="-1.64932">
        <ele>78</ele>
        <time>2020-12-20T13:23:02.000Z</time>
      </trkpt>
      <trkpt lat="47.17092" lon="-1.6491">
        <ele>78</ele>
        <time>2020-12-20T13:23:04.000Z</time>
      </trkpt>
      <trkpt lat="47.17091" lon="-1.64889">
        <ele>78</ele>
        <time>2020-12-20T13:23:06.000Z</time>
      </trkpt>
      <trkpt lat="47.17089" lon="-1.64869">
        <ele>78</ele>
        <time>2020-12-20T13:23:08.000Z</time>
      </trkpt>
      <trkpt lat="47.17087" lon="-1.64848">
        <ele>78</ele>
        <time>2020-12-20T13:23:10.000Z</time>
      </trkpt>
      <trkpt lat="47.17086" lon="-1.64828">
        <ele>78</ele>
        <time>2020-12-20T13:23:12.000Z</time>
      </trkpt>
      <trkpt lat="47.17084" lon="-1.64807">
        <ele>78</ele>
        <time>2020-12-20T13:23:14.000Z</time>
      </trkpt>
      <trkpt lat="47.17083" lon="-1.64786">
        <ele>78</ele>
        <time>2020-12-20T13:23:16.000Z</time>
      </trkpt>
      <trkpt lat="47.17082" lon="-1.64766">
        <ele>78</ele>
        <time>2020-12-20T13:23:18.000Z</time>
      </trkpt>
      <trkpt lat="47.17081" lon="-1.64745">
        <ele>78</ele>
        <time>2020-12-20T13:23:20.000Z</time>
      </trkpt>
      <trkpt lat="47.1708" lon="-1.64724">
        <ele>78</ele>
        <time>2020-12-20T13:23:22.000Z</time>
      </trkpt>
      <trkpt lat="47.17079" lon="-1.64704">
        <ele>78</ele>
        <time>2020-12-20T13:23:24.000Z</time>
      </trkpt>
      <trkpt lat="47.17078" lon="-1.64683">
        <ele>78</ele>
        <time>2020-12-20T13:23:26.000Z</time>
      </trkpt>
      <trkpt lat="47.17077" lon="-1.64663">
        <ele>78</ele>
        <time>2020-12-20T13:23:28.000Z</time>
      </trkpt>
      <trkpt lat="47.17078" lon="-1.64642">
        <ele>78</ele>
        <time>2020-12-20T13:23:30.000Z</time>
      </trkpt>
      <trkpt lat="47.17077" lon="-1.64622">
        <ele>78</ele>
        <time>2020-12-20T13:23:32.000Z</time>
      </trkpt>
      <trkpt lat="47.17078" lon="-1.64602">
        <ele>79</ele>
        <time>2020-12-20T13:23:34.000Z</time>
      </trkpt>
      <trkpt lat="47.17078" lon="-1.64581">
        <ele>79</ele>
        <time>2020-12-20T13:23:36.000Z</time>
      </trkpt>
      <trkpt lat="47.17078" lon="-1.64561">
        <ele>78</ele>
        <time>2020-12-20T13:23:38.000Z</time>
      </trkpt>
      <trkpt lat="47.17079" lon="-1.64541">
        <ele>78</ele>
        <time>2020-12-20T13:23:40.000Z</time>
      </trkpt>
      <trkpt lat="47.17079" lon="-1.64521">
        <ele>78</ele>
        <time>2020-12-20T13:23:42.000Z</time>
      </trkpt>
      <trkpt lat="47.1708" lon="-1.64501">
        <ele>78</ele>
        <time>2020-12-20T13:23:44.000Z</time>
      </trkpt>
      <trkpt lat="47.17081" lon="-1.64481">
        <ele>78</ele>
        <time>2020-12-20T13:23:46.000Z</time>
      </trkpt>
      <trkpt lat="47.17082" lon="-1.64462">
        <ele>78</ele>
        <time>2020-12-20T13:23:48.000Z</time>
      </trkpt>
      <trkpt lat="47.17084" lon="-1.64441">
        <ele>78</ele>
        <time>2020-12-20T13:23:50.000Z</time>
      </trkpt>
      <trkpt lat="47.17085" lon="-1.64423">
        <ele>78</ele>
        <time>2020-12-20T13:23:52.000Z</time>
      </trkpt>
      <trkpt lat="47.17086" lon="-1.64403">
        <ele>78</ele>
        <time>2020-12-20T13:23:54.000Z</time>
      </trkpt>
      <trkpt lat="47.17088" lon="-1.64383">
        <ele>78</ele>
        <time>2020-12-20T13:23:56.000Z</time>
      </trkpt>
      <trkpt lat="47.1709" lon="-1.64363">
        <ele>78</ele>
        <time>2020-12-20T13:23:58.000Z</time>
      </trkpt>
      <trkpt lat="47.17091" lon="-1.64343">
        <ele>79</ele>
        <time>2020-12-20T13:24:00.000Z</time>
      </trkpt>
      <trkpt lat="47.17094" lon="-1.64324">
        <ele>79</ele>
        <time>2020-12-20T13:24:02.000Z</time>
      </trkpt>
      <trkpt lat="47.17096" lon="-1.64305">
        <ele>79</ele>
        <time>2020-12-20T13:24:04.000Z</time>
      </trkpt>
      <trkpt lat="47.17097" lon="-1.64286">
        <ele>79</ele>
        <time>2020-12-20T13:24:06.000Z</time>
      </trkpt>
      <trkpt lat="47.17099" lon="-1.64266">
        <ele>79</ele>
        <time>2020-12-20T13:24:08.000Z</time>
      </trkpt>
      <trkpt lat="47.17102" lon="-1.64246">
        <ele>79</ele>
        <time>2020-12-20T13:24:10.000Z</time>
      </trkpt>
      <trkpt lat="47.17104" lon="-1.64226">
        <ele>79</ele>
        <time>2020-12-20T13:24:12.000Z</time>
      </trkpt>
      <trkpt lat="47.17106" lon="-1.64207">
        <ele>78</ele>
        <time>2020-12-20T13:24:14.000Z</time>
      </trkpt>
      <trkpt lat="47.17108" lon="-1.64188">
        <ele>78</ele>
        <time>2020-12-20T13:24:16.000Z</time>
      </trkpt>
      <trkpt lat="47.17111" lon="-1.64168">
        <ele>79</ele>
        <time>2020-12-20T13:24:18.000Z</time>
      </trkpt>
      <trkpt lat="47.17113" lon="-1.64149">
        <ele>79</ele>
        <time>2020-12-20T13:24:20.000Z</time>
      </trkpt>
      <trkpt lat="47.17115" lon="-1.6413">
        <ele>78</ele>
        <time>2020-12-20T13:24:22.000Z</time>
      </trkpt>
      <trkpt lat="47.17117" lon="-1.64111">
        <ele>79</ele>
        <time>2020-12-20T13:24:24.000Z</time>
      </trkpt>
      <trkpt lat="47.17118" lon="-1.64093">
        <ele>79</ele>
        <time>2020-12-20T13:24:26.000Z</time>
      </trkpt>
      <trkpt lat="47.1712" lon="-1.64074">
        <ele>79</ele>
        <time>2020-12-20T13:24:28.000Z</time>
      </trkpt>
      <trkpt lat="47.17122" lon="-1.64055">
        <ele>79</ele>
        <time>2020-12-20T13:24:30.000Z</time>
      </trkpt>
      <trkpt lat="47.17125" lon="-1.64036">
        <ele>79</ele>
        <time>2020-12-20T13:24:32.000Z</time>
      </trkpt>
      <trkpt lat="47.17127" lon="-1.64017">
        <ele>78</ele>
        <time>2020-12-20T13:24:34.000Z</time>
      </trkpt>
      <trkpt lat="47.17129" lon="-1.63998">
        <ele>78</ele>
        <time>2020-12-20T13:24:36.000Z</time>
      </trkpt>
      <trkpt lat="47.1713" lon="-1.63981">
        <ele>78</ele>
        <time>2020-12-20T13:24:38.000Z</time>
      </trkpt>
      <trkpt lat="47.17129" lon="-1.63965">
        <ele>78</ele>
        <time>2020-12-20T13:24:40.000Z</time>
      </trkpt>
      <trkpt lat="47.17123" lon="-1.6395">
        <ele>78</ele>
        <time>2020-12-20T13:24:42.000Z</time>
      </trkpt>
      <trkpt lat="47.17116" lon="-1.63935">
        <ele>78</ele>
        <time>2020-12-20T13:24:44.000Z</time>
      </trkpt>
      <trkpt lat="47.1711" lon="-1.63919">
        <ele>78</ele>
        <time>2020-12-20T13:24:46.000Z</time>
      </trkpt>
      <trkpt lat="47.17105" lon="-1.63903">
        <ele>79</ele>
        <time>2020-12-20T13:24:48.000Z</time>
      </trkpt>
      <trkpt lat="47.17099" lon="-1.63887">
        <ele>78</ele>
        <time>2020-12-20T13:24:50.000Z</time>
      </trkpt>
      <trkpt lat="47.17093" lon="-1.63871">
        <ele>78</ele>
        <time>2020-12-20T13:24:52.000Z</time>
      </trkpt>
      <trkpt lat="47.17088" lon="-1.63855">
        <ele>79</ele>
        <time>2020-12-20T13:24:54.000Z</time>
      </trkpt>
      <trkpt lat="47.17083" lon="-1.63838">
        <ele>79</ele>
        <time>2020-12-20T13:24:56.000Z</time>
      </trkpt>
      <trkpt lat="47.17077" lon="-1.63822">
        <ele>79</ele>
        <time>2020-12-20T13:24:58.000Z</time>
      </trkpt>
      <trkpt lat="47.17071" lon="-1.63807">
        <ele>78</ele>
        <time>2020-12-20T13:25:00.000Z</time>
      </trkpt>
      <trkpt lat="47.17066" lon="-1.63791">
        <ele>79</ele>
        <time>2020-12-20T13:25:02.000Z</time>
      </trkpt>
      <trkpt lat="47.1706" lon="-1.63777">
        <ele>79</ele>
        <time>2020-12-20T13:25:04.000Z</time>
      </trkpt>
      <trkpt lat="47.17051" lon="-1.63764">
        <ele>78</ele>
        <time>2020-12-20T13:25:06.000Z</time>
      </trkpt>
      <trkpt lat="47.17042" lon="-1.63756">
        <ele>78</ele>
        <time>2020-12-20T13:25:08.000Z</time>
      </trkpt>
      <trkpt lat="47.1703" lon="-1.63752">
        <ele>78</ele>
        <time>2020-12-20T13:25:10.000Z</time>
      </trkpt>
      <trkpt lat="47.17019" lon="-1.63748">
        <ele>77</ele>
        <time>2020-12-20T13:25:12.000Z</time>
      </trkpt>
      <trkpt lat="47.17007" lon="-1.63743">
        <ele>77</ele>
        <time>2020-12-20T13:25:14.000Z</time>
      </trkpt>
      <trkpt lat="47.16995" lon="-1.63739">
        <ele>77</ele>
        <time>2020-12-20T13:25:16.000Z</time>
      </trkpt>
      <trkpt lat="47.16982" lon="-1.63734">
        <ele>77</ele>
        <time>2020-12-20T13:25:18.000Z</time>
      </trkpt>
      <trkpt lat="47.16969" lon="-1.6373">
        <ele>78</ele>
        <time>2020-12-20T13:25:20.000Z</time>
      </trkpt>
      <trkpt lat="47.16957" lon="-1.63726">
        <ele>77</ele>
        <time>2020-12-20T13:25:22.000Z</time>
      </trkpt>
      <trkpt lat="47.16944" lon="-1.63722">
        <ele>78</ele>
        <time>2020-12-20T13:25:24.000Z</time>
      </trkpt>
      <trkpt lat="47.16932" lon="-1.63717">
        <ele>78</ele>
        <time>2020-12-20T13:25:26.000Z</time>
      </trkpt>
      <trkpt lat="47.1692" lon="-1.63713">
        <ele>77</ele>
        <time>2020-12-20T13:25:28.000Z</time>
      </trkpt>
      <trkpt lat="47.16908" lon="-1.63708">
        <ele>77</ele>
        <time>2020-12-20T13:25:30.000Z</time>
      </trkpt>
      <trkpt lat="47.16896" lon="-1.63703">
        <ele>77</ele>
        <time>2020-12-20T13:25:32.000Z</time>
      </trkpt>
      <trkpt lat="47.16884" lon="-1.63699">
        <ele>77</ele>
        <time>2020-12-20T13:25:34.000Z</time>
      </trkpt>
      <trkpt lat="47.16872" lon="-1.63695">
        <ele>77</ele>
        <time>2020-12-20T13:25:36.000Z</time>
      </trkpt>
      <trkpt lat="47.1686" lon="-1.6369">
        <ele>78</ele>
        <time>2020-12-20T13:25:38.000Z</time>
      </trkpt>
      <trkpt lat="47.16848" lon="-1.63685">
        <ele>77</ele>
        <time>2020-12-20T13:25:40.000Z</time>
      </trkpt>
      <trkpt lat="47.16837" lon="-1.63682">
        <ele>78</ele>
        <time>2020-12-20T13:25:42.000Z</time>
      </trkpt>
      <trkpt lat="47.16825" lon="-1.63678">
        <ele>78</ele>
        <time>2020-12-20T13:25:44.000Z</time>
      </trkpt>
      <trkpt lat="47.16813" lon="-1.63674">
        <ele>78</ele>
        <time>2020-12-20T13:25:46.000Z</time>
      </trkpt>
      <trkpt lat="47.168" lon="-1.6367">
        <ele>78</ele>
        <time>2020-12-20T13:25:48.000Z</time>
      </trkpt>
      <trkpt lat="47.16789" lon="-1.63665">
        <ele>78</ele>
        <time>2020-12-20T13:25:50.000Z</time>
      </trkpt>
      <trkpt lat="47.16777" lon="-1.63661">
        <ele>78</ele>
        <time>2020-12-20T13:25:52.000Z</time>
      </trkpt>
      <trkpt lat="47.16766" lon="-1.63656">
        <ele>77</ele>
        <time>2020-12-20T13:25:54.000Z</time>
      </trkpt>
      <trkpt lat="47.16756" lon="-1.63652">
        <ele>77</ele>
        <time>2020-12-20T13:25:56.000Z</time>
      </trkpt>
      <trkpt lat="47.16746" lon="-1.63648">
        <ele>77</ele>
        <time>2020-12-20T13:25:58.000Z</time>
      </trkpt>
      <trkpt lat="47.16741" lon="-1.63635">
        <ele>77</ele>
        <time>2020-12-20T13:26:01.000Z</time>
      </trkpt>
      <trkpt lat="47.16745" lon="-1.63621">
        <ele>77</ele>
        <time>2020-12-20T13:26:03.000Z</time>
      </trkpt>
      <trkpt lat="47.16753" lon="-1.63608">
        <ele>78</ele>
        <time>2020-12-20T13:26:05.000Z</time>
      </trkpt>
      <trkpt lat="47.16761" lon="-1.63593">
        <ele>78</ele>
        <time>2020-12-20T13:26:07.000Z</time>
      </trkpt>
      <trkpt lat="47.16769" lon="-1.63578">
        <ele>79</ele>
        <time>2020-12-20T13:26:09.000Z</time>
      </trkpt>
      <trkpt lat="47.16778" lon="-1.63564">
        <ele>78</ele>
        <time>2020-12-20T13:26:11.000Z</time>
      </trkpt>
      <trkpt lat="47.16786" lon="-1.6355">
        <ele>79</ele>
        <time>2020-12-20T13:26:13.000Z</time>
      </trkpt>
      <trkpt lat="47.16794" lon="-1.63537">
        <ele>79</ele>
        <time>2020-12-20T13:26:15.000Z</time>
      </trkpt>
      <trkpt lat="47.16802" lon="-1.63524">
        <ele>79</ele>
        <time>2020-12-20T13:26:17.000Z</time>
      </trkpt>
      <trkpt lat="47.1681" lon="-1.6351">
        <ele>80</ele>
        <time>2020-12-20T13:26:19.000Z</time>
      </trkpt>
      <trkpt lat="47.16818" lon="-1.63496">
        <ele>79</ele>
        <time>2020-12-20T13:26:21.000Z</time>
      </trkpt>
      <trkpt lat="47.16826" lon="-1.63483">
        <ele>80</ele>
        <time>2020-12-20T13:26:23.000Z</time>
      </trkpt>
      <trkpt lat="47.16834" lon="-1.63469">
        <ele>79</ele>
        <time>2020-12-20T13:26:25.000Z</time>
      </trkpt>
      <trkpt lat="47.16842" lon="-1.63455">
        <ele>80</ele>
        <time>2020-12-20T13:26:27.000Z</time>
      </trkpt>
      <trkpt lat="47.16849" lon="-1.63441">
        <ele>80</ele>
        <time>2020-12-20T13:26:29.000Z</time>
      </trkpt>
      <trkpt lat="47.16857" lon="-1.63427">
        <ele>80</ele>
        <time>2020-12-20T13:26:31.000Z</time>
      </trkpt>
      <trkpt lat="47.16865" lon="-1.63414">
        <ele>79</ele>
        <time>2020-12-20T13:26:33.000Z</time>
      </trkpt>
      <trkpt lat="47.16873" lon="-1.63401">
        <ele>79</ele>
        <time>2020-12-20T13:26:35.000Z</time>
      </trkpt>
      <trkpt lat="47.16882" lon="-1.63386">
        <ele>79</ele>
        <time>2020-12-20T13:26:37.000Z</time>
      </trkpt>
      <trkpt lat="47.1689" lon="-1.63373">
        <ele>78</ele>
        <time>2020-12-20T13:26:39.000Z</time>
      </trkpt>
      <trkpt lat="47.16899" lon="-1.63359">
        <ele>78</ele>
        <time>2020-12-20T13:26:41.000Z</time>
      </trkpt>
      <trkpt lat="47.16908" lon="-1.63346">
        <ele>78</ele>
        <time>2020-12-20T13:26:43.000Z</time>
      </trkpt>
      <trkpt lat="47.16916" lon="-1.63334">
        <ele>78</ele>
        <time>2020-12-20T13:26:45.000Z</time>
      </trkpt>
      <trkpt lat="47.16925" lon="-1.6332">
        <ele>78</ele>
        <time>2020-12-20T13:26:47.000Z</time>
      </trkpt>
      <trkpt lat="47.16934" lon="-1.63307">
        <ele>78</ele>
        <time>2020-12-20T13:26:49.000Z</time>
      </trkpt>
      <trkpt lat="47.16943" lon="-1.63293">
        <ele>79</ele>
        <time>2020-12-20T13:26:51.000Z</time>
      </trkpt>
      <trkpt lat="47.16951" lon="-1.63281">
        <ele>79</ele>
        <time>2020-12-20T13:26:53.000Z</time>
      </trkpt>
      <trkpt lat="47.1696" lon="-1.63269">
        <ele>79</ele>
        <time>2020-12-20T13:26:55.000Z</time>
      </trkpt>
      <trkpt lat="47.16966" lon="-1.63258">
        <ele>79</ele>
        <time>2020-12-20T13:26:57.000Z</time>
      </trkpt>
      <trkpt lat="47.16963" lon="-1.63245">
        <ele>78</ele>
        <time>2020-12-20T13:26:59.000Z</time>
      </trkpt>
      <trkpt lat="47.16953" lon="-1.63237">
        <ele>78</ele>
        <time>2020-12-20T13:27:01.000Z</time>
      </trkpt>
      <trkpt lat="47.16943" lon="-1.63227">
        <ele>78</ele>
        <time>2020-12-20T13:27:03.000Z</time>
      </trkpt>
      <trkpt lat="47.16935" lon="-1.63215">
        <ele>78</ele>
        <time>2020-12-20T13:27:05.000Z</time>
      </trkpt>
      <trkpt lat="47.16926" lon="-1.63202">
        <ele>78</ele>
        <time>2020-12-20T13:27:07.000Z</time>
      </trkpt>
      <trkpt lat="47.16919" lon="-1.63188">
        <ele>77</ele>
        <time>2020-12-20T13:27:09.000Z</time>
      </trkpt>
      <trkpt lat="47.16912" lon="-1.63173">
        <ele>77</ele>
        <time>2020-12-20T13:27:11.000Z</time>
      </trkpt>
      <trkpt lat="47.16905" lon="-1.63157">
        <ele>77</ele>
        <time>2020-12-20T13:27:13.000Z</time>
      </trkpt>
      <trkpt lat="47.16899" lon="-1.63141">
        <ele>77</ele>
        <time>2020-12-20T13:27:15.000Z</time>
      </trkpt>
      <trkpt lat="47.16894" lon="-1.63124">
        <ele>77</ele>
        <time>2020-12-20T13:27:17.000Z</time>
      </trkpt>
      <trkpt lat="47.16889" lon="-1.63107">
        <ele>76</ele>
        <time>2020-12-20T13:27:19.000Z</time>
      </trkpt>
      <trkpt lat="47.16886" lon="-1.63088">
        <ele>76</ele>
        <time>2020-12-20T13:27:21.000Z</time>
      </trkpt>
      <trkpt lat="47.16883" lon="-1.63069">
        <ele>76</ele>
        <time>2020-12-20T13:27:23.000Z</time>
      </trkpt>
      <trkpt lat="47.16882" lon="-1.6305">
        <ele>76</ele>
        <time>2020-12-20T13:27:25.000Z</time>
      </trkpt>
      <trkpt lat="47.16882" lon="-1.63031">
        <ele>76</ele>
        <time>2020-12-20T13:27:27.000Z</time>
      </trkpt>
      <trkpt lat="47.16883" lon="-1.63011">
        <ele>76</ele>
        <time>2020-12-20T13:27:29.000Z</time>
      </trkpt>
      <trkpt lat="47.16885" lon="-1.62993">
        <ele>75</ele>
        <time>2020-12-20T13:27:31.000Z</time>
      </trkpt>
      <trkpt lat="47.16887" lon="-1.62973">
        <ele>75</ele>
        <time>2020-12-20T13:27:33.000Z</time>
      </trkpt>
      <trkpt lat="47.16887" lon="-1.62954">
        <ele>75</ele>
        <time>2020-12-20T13:27:35.000Z</time>
      </trkpt>
      <trkpt lat="47.16885" lon="-1.62934">
        <ele>75</ele>
        <time>2020-12-20T13:27:37.000Z</time>
      </trkpt>
      <trkpt lat="47.16881" lon="-1.62915">
        <ele>75</ele>
        <time>2020-12-20T13:27:39.000Z</time>
      </trkpt>
      <trkpt lat="47.16875" lon="-1.62897">
        <ele>75</ele>
        <time>2020-12-20T13:27:41.000Z</time>
      </trkpt>
      <trkpt lat="47.16865" lon="-1.62882">
        <ele>74</ele>
        <time>2020-12-20T13:27:43.000Z</time>
      </trkpt>
      <trkpt lat="47.16854" lon="-1.62869">
        <ele>73</ele>
        <time>2020-12-20T13:27:45.000Z</time>
      </trkpt>
      <trkpt lat="47.16842" lon="-1.62858">
        <ele>73</ele>
        <time>2020-12-20T13:27:47.000Z</time>
      </trkpt>
      <trkpt lat="47.1683" lon="-1.62846">
        <ele>73</ele>
        <time>2020-12-20T13:27:49.000Z</time>
      </trkpt>
      <trkpt lat="47.16818" lon="-1.62834">
        <ele>72</ele>
        <time>2020-12-20T13:27:51.000Z</time>
      </trkpt>
      <trkpt lat="47.16807" lon="-1.62822">
        <ele>72</ele>
        <time>2020-12-20T13:27:53.000Z</time>
      </trkpt>
      <trkpt lat="47.16795" lon="-1.62811">
        <ele>71</ele>
        <time>2020-12-20T13:27:55.000Z</time>
      </trkpt>
      <trkpt lat="47.16783" lon="-1.628">
        <ele>71</ele>
        <time>2020-12-20T13:27:57.000Z</time>
      </trkpt>
      <trkpt lat="47.16771" lon="-1.62789">
        <ele>71</ele>
        <time>2020-12-20T13:27:59.000Z</time>
      </trkpt>
      <trkpt lat="47.1676" lon="-1.62778">
        <ele>71</ele>
        <time>2020-12-20T13:28:01.000Z</time>
      </trkpt>
      <trkpt lat="47.16749" lon="-1.62767">
        <ele>72</ele>
        <time>2020-12-20T13:28:03.000Z</time>
      </trkpt>
      <trkpt lat="47.16739" lon="-1.62754">
        <ele>72</ele>
        <time>2020-12-20T13:28:05.000Z</time>
      </trkpt>
      <trkpt lat="47.16731" lon="-1.62742">
        <ele>72</ele>
        <time>2020-12-20T13:28:07.000Z</time>
      </trkpt>
      <trkpt lat="47.16724" lon="-1.62728">
        <ele>72</ele>
        <time>2020-12-20T13:28:09.000Z</time>
      </trkpt>
      <trkpt lat="47.16718" lon="-1.62715">
        <ele>71</ele>
        <time>2020-12-20T13:28:11.000Z</time>
      </trkpt>
      <trkpt lat="47.16717" lon="-1.62699">
        <ele>72</ele>
        <time>2020-12-20T13:28:13.000Z</time>
      </trkpt>
      <trkpt lat="47.16726" lon="-1.62687">
        <ele>71</ele>
        <time>2020-12-20T13:28:15.000Z</time>
      </trkpt>
      <trkpt lat="47.16736" lon="-1.6268">
        <ele>72</ele>
        <time>2020-12-20T13:28:17.000Z</time>
      </trkpt>
      <trkpt lat="47.16745" lon="-1.62672">
        <ele>72</ele>
        <time>2020-12-20T13:28:19.000Z</time>
      </trkpt>
      <trkpt lat="47.16755" lon="-1.62669">
        <ele>72</ele>
        <time>2020-12-20T13:28:21.000Z</time>
      </trkpt>
      <trkpt lat="47.16764" lon="-1.62677">
        <ele>72</ele>
        <time>2020-12-20T13:28:23.000Z</time>
      </trkpt>
      <trkpt lat="47.16773" lon="-1.62679">
        <ele>72</ele>
        <time>2020-12-20T13:28:25.000Z</time>
      </trkpt>
      <trkpt lat="47.16783" lon="-1.62669">
        <ele>71</ele>
        <time>2020-12-20T13:28:28.000Z</time>
      </trkpt>
      <trkpt lat="47.16779" lon="-1.62655">
        <ele>71</ele>
        <time>2020-12-20T13:28:32.000Z</time>
      </trkpt>
      <trkpt lat="47.16772" lon="-1.62647">
        <ele>67</ele>
        <time>2020-12-20T13:33:33.000Z</time>
      </trkpt>
    </trkseg>
  </trk>
</gpx>